<?xml version="1.0" encoding="UTF-8" standalone="no" ?>
<gpx xmlns="http://www.topografix.com/GPX/1/1" xmlns:xsi="http://www.w3.org/2001/XMLSchema-instance" xsi:schemaLocation="http://www.topografix.com/GPX/1/1 http://www.topografix.com/GPX/1/1/gpx.xsd" version="1.1" creator="VisuGPX - https://www.visugpx.com">
  <metadata>
    <name>131207ROBDolmenHTJuge</name>
    <desc><![CDATA[Sortie éprouvante pour les jeunes. 22 km - 550 m]]></desc>
  </metadata>
  <trk>
    <name><![CDATA[131207ROBDolmenHTJuge]]></name>
    <trkseg>
      <trkpt lat="43.404" lon="6.06535">
        <ele>224</ele>
        <time>2013-12-07T12:55:46Z</time>
      </trkpt>
      <trkpt lat="43.404" lon="6.06535">
        <ele>226.19999694824</ele>
        <time>2013-12-07T12:55:55Z</time>
      </trkpt>
      <trkpt lat="43.40402" lon="6.06533">
        <ele>226.19999694824</ele>
        <time>2013-12-07T12:55:58Z</time>
      </trkpt>
      <trkpt lat="43.40405" lon="6.0653">
        <ele>226.19999694824</ele>
        <time>2013-12-07T12:56:00Z</time>
      </trkpt>
      <trkpt lat="43.40405" lon="6.06518">
        <ele>226.19999694824</ele>
        <time>2013-12-07T12:56:03Z</time>
      </trkpt>
      <trkpt lat="43.40406" lon="6.06514">
        <ele>226.19999694824</ele>
        <time>2013-12-07T12:56:04Z</time>
      </trkpt>
      <trkpt lat="43.4041" lon="6.06497">
        <ele>226.19999694824</ele>
        <time>2013-12-07T12:56:09Z</time>
      </trkpt>
      <trkpt lat="43.40415" lon="6.06483">
        <ele>226.19999694824</ele>
        <time>2013-12-07T12:56:15Z</time>
      </trkpt>
      <trkpt lat="43.40424" lon="6.06484">
        <ele>226.19999694824</ele>
        <time>2013-12-07T12:56:18Z</time>
      </trkpt>
      <trkpt lat="43.40449" lon="6.06494">
        <ele>226.19999694824</ele>
        <time>2013-12-07T12:56:25Z</time>
      </trkpt>
      <trkpt lat="43.40466" lon="6.065">
        <ele>226.19999694824</ele>
        <time>2013-12-07T12:56:29Z</time>
      </trkpt>
      <trkpt lat="43.40479" lon="6.06503">
        <ele>225.39999389648</ele>
        <time>2013-12-07T12:56:32Z</time>
      </trkpt>
      <trkpt lat="43.40483" lon="6.06504">
        <ele>223.80000305176</ele>
        <time>2013-12-07T12:56:33Z</time>
      </trkpt>
      <trkpt lat="43.40489" lon="6.06505">
        <ele>222.19999694824</ele>
        <time>2013-12-07T12:56:35Z</time>
      </trkpt>
      <trkpt lat="43.40493" lon="6.06507">
        <ele>222.19999694824</ele>
        <time>2013-12-07T12:56:37Z</time>
      </trkpt>
      <trkpt lat="43.40502" lon="6.0651">
        <ele>222.19999694824</ele>
        <time>2013-12-07T12:56:40Z</time>
      </trkpt>
      <trkpt lat="43.40506" lon="6.0651">
        <ele>222.19999694824</ele>
        <time>2013-12-07T12:56:42Z</time>
      </trkpt>
      <trkpt lat="43.40521" lon="6.06514">
        <ele>222.19999694824</ele>
        <time>2013-12-07T12:56:46Z</time>
      </trkpt>
      <trkpt lat="43.4053" lon="6.06515">
        <ele>221.80000305176</ele>
        <time>2013-12-07T12:56:49Z</time>
      </trkpt>
      <trkpt lat="43.40535" lon="6.06516">
        <ele>221</ele>
        <time>2013-12-07T12:56:51Z</time>
      </trkpt>
      <trkpt lat="43.40539" lon="6.06519">
        <ele>220</ele>
        <time>2013-12-07T12:56:53Z</time>
      </trkpt>
      <trkpt lat="43.40559" lon="6.06524">
        <ele>220</ele>
        <time>2013-12-07T12:56:58Z</time>
      </trkpt>
      <trkpt lat="43.40576" lon="6.06527">
        <ele>220</ele>
        <time>2013-12-07T12:57:02Z</time>
      </trkpt>
      <trkpt lat="43.40584" lon="6.06529">
        <ele>220</ele>
        <time>2013-12-07T12:57:04Z</time>
      </trkpt>
      <trkpt lat="43.40593" lon="6.0653">
        <ele>219.60000610352</ele>
        <time>2013-12-07T12:57:07Z</time>
      </trkpt>
      <trkpt lat="43.40597" lon="6.06532">
        <ele>218.80000305176</ele>
        <time>2013-12-07T12:57:09Z</time>
      </trkpt>
      <trkpt lat="43.40598" lon="6.06532">
        <ele>218.39999389648</ele>
        <time>2013-12-07T12:57:10Z</time>
      </trkpt>
      <trkpt lat="43.40599" lon="6.06533">
        <ele>218</ele>
        <time>2013-12-07T12:57:11Z</time>
      </trkpt>
      <trkpt lat="43.40601" lon="6.06533">
        <ele>218</ele>
        <time>2013-12-07T12:57:13Z</time>
      </trkpt>
      <trkpt lat="43.4061" lon="6.06537">
        <ele>218</ele>
        <time>2013-12-07T12:57:18Z</time>
      </trkpt>
      <trkpt lat="43.40611" lon="6.06537">
        <ele>217.60000610352</ele>
        <time>2013-12-07T12:57:19Z</time>
      </trkpt>
      <trkpt lat="43.40612" lon="6.06537">
        <ele>217.19999694824</ele>
        <time>2013-12-07T12:57:20Z</time>
      </trkpt>
      <trkpt lat="43.40612" lon="6.06537">
        <ele>216</ele>
        <time>2013-12-07T12:57:21Z</time>
      </trkpt>
      <trkpt lat="43.40612" lon="6.06537">
        <ele>216</ele>
        <time>2013-12-07T12:57:23Z</time>
      </trkpt>
      <trkpt lat="43.40615" lon="6.06536">
        <ele>216</ele>
        <time>2013-12-07T12:57:27Z</time>
      </trkpt>
      <trkpt lat="43.40622" lon="6.06525">
        <ele>216</ele>
        <time>2013-12-07T12:57:30Z</time>
      </trkpt>
      <trkpt lat="43.40627" lon="6.06516">
        <ele>216</ele>
        <time>2013-12-07T12:57:32Z</time>
      </trkpt>
      <trkpt lat="43.40636" lon="6.06499">
        <ele>216</ele>
        <time>2013-12-07T12:57:35Z</time>
      </trkpt>
      <trkpt lat="43.40639" lon="6.06493">
        <ele>216</ele>
        <time>2013-12-07T12:57:36Z</time>
      </trkpt>
      <trkpt lat="43.40644" lon="6.06487">
        <ele>215.39999389648</ele>
        <time>2013-12-07T12:57:37Z</time>
      </trkpt>
      <trkpt lat="43.40649" lon="6.06482">
        <ele>215</ele>
        <time>2013-12-07T12:57:38Z</time>
      </trkpt>
      <trkpt lat="43.40654" lon="6.06476">
        <ele>214.60000610352</ele>
        <time>2013-12-07T12:57:39Z</time>
      </trkpt>
      <trkpt lat="43.40659" lon="6.0647">
        <ele>214.19999694824</ele>
        <time>2013-12-07T12:57:40Z</time>
      </trkpt>
      <trkpt lat="43.40665" lon="6.06464">
        <ele>213.80000305176</ele>
        <time>2013-12-07T12:57:41Z</time>
      </trkpt>
      <trkpt lat="43.40678" lon="6.06451">
        <ele>213</ele>
        <time>2013-12-07T12:57:43Z</time>
      </trkpt>
      <trkpt lat="43.40685" lon="6.06445">
        <ele>212.39999389648</ele>
        <time>2013-12-07T12:57:44Z</time>
      </trkpt>
      <trkpt lat="43.40692" lon="6.0644">
        <ele>212</ele>
        <time>2013-12-07T12:57:45Z</time>
      </trkpt>
      <trkpt lat="43.407" lon="6.06436">
        <ele>211.60000610352</ele>
        <time>2013-12-07T12:57:46Z</time>
      </trkpt>
      <trkpt lat="43.40708" lon="6.06432">
        <ele>211.19999694824</ele>
        <time>2013-12-07T12:57:47Z</time>
      </trkpt>
      <trkpt lat="43.40717" lon="6.06431">
        <ele>210.19999694824</ele>
        <time>2013-12-07T12:57:48Z</time>
      </trkpt>
      <trkpt lat="43.40726" lon="6.0643">
        <ele>209.60000610352</ele>
        <time>2013-12-07T12:57:49Z</time>
      </trkpt>
      <trkpt lat="43.40734" lon="6.06429">
        <ele>209</ele>
        <time>2013-12-07T12:57:50Z</time>
      </trkpt>
      <trkpt lat="43.4076" lon="6.06426">
        <ele>208.60000610352</ele>
        <time>2013-12-07T12:57:53Z</time>
      </trkpt>
      <trkpt lat="43.40776" lon="6.06421">
        <ele>207.80000305176</ele>
        <time>2013-12-07T12:57:55Z</time>
      </trkpt>
      <trkpt lat="43.40799" lon="6.06415">
        <ele>207</ele>
        <time>2013-12-07T12:57:58Z</time>
      </trkpt>
      <trkpt lat="43.40806" lon="6.06415">
        <ele>207</ele>
        <time>2013-12-07T12:57:59Z</time>
      </trkpt>
      <trkpt lat="43.40823" lon="6.06422">
        <ele>207</ele>
        <time>2013-12-07T12:58:02Z</time>
      </trkpt>
      <trkpt lat="43.40835" lon="6.06422">
        <ele>207</ele>
        <time>2013-12-07T12:58:04Z</time>
      </trkpt>
      <trkpt lat="43.40842" lon="6.06419">
        <ele>207</ele>
        <time>2013-12-07T12:58:05Z</time>
      </trkpt>
      <trkpt lat="43.40859" lon="6.06409">
        <ele>207</ele>
        <time>2013-12-07T12:58:08Z</time>
      </trkpt>
      <trkpt lat="43.4087" lon="6.06399">
        <ele>207</ele>
        <time>2013-12-07T12:58:10Z</time>
      </trkpt>
      <trkpt lat="43.4088" lon="6.06387">
        <ele>207</ele>
        <time>2013-12-07T12:58:12Z</time>
      </trkpt>
      <trkpt lat="43.40885" lon="6.06381">
        <ele>207</ele>
        <time>2013-12-07T12:58:13Z</time>
      </trkpt>
      <trkpt lat="43.40893" lon="6.06369">
        <ele>207</ele>
        <time>2013-12-07T12:58:15Z</time>
      </trkpt>
      <trkpt lat="43.40897" lon="6.06364">
        <ele>207</ele>
        <time>2013-12-07T12:58:16Z</time>
      </trkpt>
      <trkpt lat="43.40921" lon="6.06336">
        <ele>207</ele>
        <time>2013-12-07T12:58:22Z</time>
      </trkpt>
      <trkpt lat="43.40932" lon="6.06322">
        <ele>207</ele>
        <time>2013-12-07T12:58:25Z</time>
      </trkpt>
      <trkpt lat="43.40943" lon="6.06309">
        <ele>207</ele>
        <time>2013-12-07T12:58:28Z</time>
      </trkpt>
      <trkpt lat="43.40949" lon="6.06304">
        <ele>207</ele>
        <time>2013-12-07T12:58:31Z</time>
      </trkpt>
      <trkpt lat="43.4095" lon="6.06303">
        <ele>207</ele>
        <time>2013-12-07T12:58:36Z</time>
      </trkpt>
      <trkpt lat="43.40959" lon="6.06297">
        <ele>207</ele>
        <time>2013-12-07T12:58:41Z</time>
      </trkpt>
      <trkpt lat="43.40978" lon="6.06285">
        <ele>207</ele>
        <time>2013-12-07T12:58:46Z</time>
      </trkpt>
      <trkpt lat="43.40982" lon="6.06283">
        <ele>207</ele>
        <time>2013-12-07T12:58:47Z</time>
      </trkpt>
      <trkpt lat="43.40997" lon="6.06278">
        <ele>207</ele>
        <time>2013-12-07T12:58:50Z</time>
      </trkpt>
      <trkpt lat="43.41002" lon="6.06277">
        <ele>207</ele>
        <time>2013-12-07T12:58:51Z</time>
      </trkpt>
      <trkpt lat="43.41007" lon="6.06275">
        <ele>207</ele>
        <time>2013-12-07T12:58:52Z</time>
      </trkpt>
      <trkpt lat="43.4104" lon="6.06265">
        <ele>207</ele>
        <time>2013-12-07T12:58:58Z</time>
      </trkpt>
      <trkpt lat="43.41045" lon="6.06263">
        <ele>207</ele>
        <time>2013-12-07T12:58:59Z</time>
      </trkpt>
      <trkpt lat="43.41061" lon="6.06258">
        <ele>207</ele>
        <time>2013-12-07T12:59:02Z</time>
      </trkpt>
      <trkpt lat="43.41087" lon="6.06251">
        <ele>207</ele>
        <time>2013-12-07T12:59:07Z</time>
      </trkpt>
      <trkpt lat="43.41092" lon="6.06249">
        <ele>207</ele>
        <time>2013-12-07T12:59:08Z</time>
      </trkpt>
      <trkpt lat="43.41137" lon="6.06238">
        <ele>207</ele>
        <time>2013-12-07T12:59:17Z</time>
      </trkpt>
      <trkpt lat="43.41145" lon="6.06234">
        <ele>207.39999389648</ele>
        <time>2013-12-07T12:59:19Z</time>
      </trkpt>
      <trkpt lat="43.41149" lon="6.06232">
        <ele>207.80000305176</ele>
        <time>2013-12-07T12:59:20Z</time>
      </trkpt>
      <trkpt lat="43.41153" lon="6.0623">
        <ele>208.19999694824</ele>
        <time>2013-12-07T12:59:21Z</time>
      </trkpt>
      <trkpt lat="43.41161" lon="6.06225">
        <ele>209</ele>
        <time>2013-12-07T12:59:23Z</time>
      </trkpt>
      <trkpt lat="43.41177" lon="6.06218">
        <ele>209</ele>
        <time>2013-12-07T12:59:28Z</time>
      </trkpt>
      <trkpt lat="43.41181" lon="6.06217">
        <ele>209</ele>
        <time>2013-12-07T12:59:31Z</time>
      </trkpt>
      <trkpt lat="43.41181" lon="6.06217">
        <ele>209</ele>
        <time>2013-12-07T12:59:45Z</time>
      </trkpt>
      <trkpt lat="43.41181" lon="6.06217">
        <ele>209</ele>
        <time>2013-12-07T12:59:57Z</time>
      </trkpt>
      <trkpt lat="43.41182" lon="6.06217">
        <ele>209</ele>
        <time>2013-12-07T13:00:02Z</time>
      </trkpt>
      <trkpt lat="43.41183" lon="6.06217">
        <ele>209</ele>
        <time>2013-12-07T13:00:03Z</time>
      </trkpt>
      <trkpt lat="43.41187" lon="6.06215">
        <ele>209</ele>
        <time>2013-12-07T13:00:05Z</time>
      </trkpt>
      <trkpt lat="43.41192" lon="6.06212">
        <ele>209</ele>
        <time>2013-12-07T13:00:07Z</time>
      </trkpt>
      <trkpt lat="43.41195" lon="6.06211">
        <ele>209</ele>
        <time>2013-12-07T13:00:08Z</time>
      </trkpt>
      <trkpt lat="43.41202" lon="6.06207">
        <ele>209</ele>
        <time>2013-12-07T13:00:10Z</time>
      </trkpt>
      <trkpt lat="43.41204" lon="6.06204">
        <ele>209</ele>
        <time>2013-12-07T13:00:11Z</time>
      </trkpt>
      <trkpt lat="43.41206" lon="6.062">
        <ele>209</ele>
        <time>2013-12-07T13:00:12Z</time>
      </trkpt>
      <trkpt lat="43.41205" lon="6.06185">
        <ele>209</ele>
        <time>2013-12-07T13:00:15Z</time>
      </trkpt>
      <trkpt lat="43.41204" lon="6.06173">
        <ele>209</ele>
        <time>2013-12-07T13:00:17Z</time>
      </trkpt>
      <trkpt lat="43.412" lon="6.06137">
        <ele>209</ele>
        <time>2013-12-07T13:00:23Z</time>
      </trkpt>
      <trkpt lat="43.41201" lon="6.06131">
        <ele>209</ele>
        <time>2013-12-07T13:00:24Z</time>
      </trkpt>
      <trkpt lat="43.41204" lon="6.06121">
        <ele>209</ele>
        <time>2013-12-07T13:00:26Z</time>
      </trkpt>
      <trkpt lat="43.41214" lon="6.06111">
        <ele>209</ele>
        <time>2013-12-07T13:00:29Z</time>
      </trkpt>
      <trkpt lat="43.41227" lon="6.06106">
        <ele>209</ele>
        <time>2013-12-07T13:00:32Z</time>
      </trkpt>
      <trkpt lat="43.41245" lon="6.06096">
        <ele>211</ele>
        <time>2013-12-07T13:00:37Z</time>
      </trkpt>
      <trkpt lat="43.41269" lon="6.06083">
        <ele>211</ele>
        <time>2013-12-07T13:00:43Z</time>
      </trkpt>
      <trkpt lat="43.4128" lon="6.06077">
        <ele>211.39999389648</ele>
        <time>2013-12-07T13:00:46Z</time>
      </trkpt>
      <trkpt lat="43.41298" lon="6.06067">
        <ele>213.19999694824</ele>
        <time>2013-12-07T13:00:51Z</time>
      </trkpt>
      <trkpt lat="43.41312" lon="6.06068">
        <ele>213.19999694824</ele>
        <time>2013-12-07T13:00:55Z</time>
      </trkpt>
      <trkpt lat="43.41329" lon="6.06085">
        <ele>213.19999694824</ele>
        <time>2013-12-07T13:01:01Z</time>
      </trkpt>
      <trkpt lat="43.41343" lon="6.06102">
        <ele>213.60000610352</ele>
        <time>2013-12-07T13:01:07Z</time>
      </trkpt>
      <trkpt lat="43.41354" lon="6.06112">
        <ele>215.19999694824</ele>
        <time>2013-12-07T13:01:11Z</time>
      </trkpt>
      <trkpt lat="43.41365" lon="6.06123">
        <ele>215.19999694824</ele>
        <time>2013-12-07T13:01:16Z</time>
      </trkpt>
      <trkpt lat="43.41385" lon="6.06144">
        <ele>215.60000610352</ele>
        <time>2013-12-07T13:01:24Z</time>
      </trkpt>
      <trkpt lat="43.41396" lon="6.06154">
        <ele>217.19999694824</ele>
        <time>2013-12-07T13:01:28Z</time>
      </trkpt>
      <trkpt lat="43.41413" lon="6.06169">
        <ele>217.60000610352</ele>
        <time>2013-12-07T13:01:35Z</time>
      </trkpt>
      <trkpt lat="43.41416" lon="6.0617">
        <ele>218</ele>
        <time>2013-12-07T13:01:36Z</time>
      </trkpt>
      <trkpt lat="43.41422" lon="6.06171">
        <ele>218.80000305176</ele>
        <time>2013-12-07T13:01:38Z</time>
      </trkpt>
      <trkpt lat="43.41437" lon="6.06176">
        <ele>219.19999694824</ele>
        <time>2013-12-07T13:01:43Z</time>
      </trkpt>
      <trkpt lat="43.41457" lon="6.06182">
        <ele>219.19999694824</ele>
        <time>2013-12-07T13:01:49Z</time>
      </trkpt>
      <trkpt lat="43.41476" lon="6.06187">
        <ele>219.19999694824</ele>
        <time>2013-12-07T13:01:55Z</time>
      </trkpt>
      <trkpt lat="43.41491" lon="6.06191">
        <ele>219.19999694824</ele>
        <time>2013-12-07T13:02:00Z</time>
      </trkpt>
      <trkpt lat="43.41497" lon="6.06191">
        <ele>220</ele>
        <time>2013-12-07T13:02:02Z</time>
      </trkpt>
      <trkpt lat="43.41502" lon="6.06192">
        <ele>221</ele>
        <time>2013-12-07T13:02:04Z</time>
      </trkpt>
      <trkpt lat="43.41514" lon="6.0619">
        <ele>221.39999389648</ele>
        <time>2013-12-07T13:02:08Z</time>
      </trkpt>
      <trkpt lat="43.41533" lon="6.06187">
        <ele>221.39999389648</ele>
        <time>2013-12-07T13:02:15Z</time>
      </trkpt>
      <trkpt lat="43.41546" lon="6.06182">
        <ele>221.39999389648</ele>
        <time>2013-12-07T13:02:21Z</time>
      </trkpt>
      <trkpt lat="43.41555" lon="6.06176">
        <ele>223</ele>
        <time>2013-12-07T13:02:25Z</time>
      </trkpt>
      <trkpt lat="43.41558" lon="6.06175">
        <ele>223.39999389648</ele>
        <time>2013-12-07T13:02:27Z</time>
      </trkpt>
      <trkpt lat="43.41563" lon="6.06175">
        <ele>223.39999389648</ele>
        <time>2013-12-07T13:02:32Z</time>
      </trkpt>
      <trkpt lat="43.41567" lon="6.06177">
        <ele>223.39999389648</ele>
        <time>2013-12-07T13:02:36Z</time>
      </trkpt>
      <trkpt lat="43.41573" lon="6.06179">
        <ele>223.39999389648</ele>
        <time>2013-12-07T13:02:40Z</time>
      </trkpt>
      <trkpt lat="43.41577" lon="6.06179">
        <ele>223.39999389648</ele>
        <time>2013-12-07T13:02:42Z</time>
      </trkpt>
      <trkpt lat="43.41579" lon="6.06179">
        <ele>223.39999389648</ele>
        <time>2013-12-07T13:02:43Z</time>
      </trkpt>
      <trkpt lat="43.41584" lon="6.06177">
        <ele>223.39999389648</ele>
        <time>2013-12-07T13:02:46Z</time>
      </trkpt>
      <trkpt lat="43.4159" lon="6.06177">
        <ele>223.39999389648</ele>
        <time>2013-12-07T13:02:48Z</time>
      </trkpt>
      <trkpt lat="43.41599" lon="6.06198">
        <ele>223.39999389648</ele>
        <time>2013-12-07T13:02:57Z</time>
      </trkpt>
      <trkpt lat="43.416" lon="6.06198">
        <ele>223.39999389648</ele>
        <time>2013-12-07T13:02:58Z</time>
      </trkpt>
      <trkpt lat="43.41601" lon="6.06194">
        <ele>223.39999389648</ele>
        <time>2013-12-07T13:03:00Z</time>
      </trkpt>
      <trkpt lat="43.41602" lon="6.06178">
        <ele>223.39999389648</ele>
        <time>2013-12-07T13:03:04Z</time>
      </trkpt>
      <trkpt lat="43.4161" lon="6.06158">
        <ele>223.39999389648</ele>
        <time>2013-12-07T13:03:08Z</time>
      </trkpt>
      <trkpt lat="43.41616" lon="6.0615">
        <ele>223.39999389648</ele>
        <time>2013-12-07T13:03:10Z</time>
      </trkpt>
      <trkpt lat="43.41623" lon="6.06139">
        <ele>223.39999389648</ele>
        <time>2013-12-07T13:03:13Z</time>
      </trkpt>
      <trkpt lat="43.41628" lon="6.06126">
        <ele>223.39999389648</ele>
        <time>2013-12-07T13:03:17Z</time>
      </trkpt>
      <trkpt lat="43.41628" lon="6.06123">
        <ele>223.39999389648</ele>
        <time>2013-12-07T13:03:18Z</time>
      </trkpt>
      <trkpt lat="43.41622" lon="6.06112">
        <ele>223.39999389648</ele>
        <time>2013-12-07T13:03:21Z</time>
      </trkpt>
      <trkpt lat="43.4162" lon="6.06103">
        <ele>223.39999389648</ele>
        <time>2013-12-07T13:03:23Z</time>
      </trkpt>
      <trkpt lat="43.41617" lon="6.06072">
        <ele>223.39999389648</ele>
        <time>2013-12-07T13:03:29Z</time>
      </trkpt>
      <trkpt lat="43.41618" lon="6.06056">
        <ele>223.39999389648</ele>
        <time>2013-12-07T13:03:32Z</time>
      </trkpt>
      <trkpt lat="43.41621" lon="6.06041">
        <ele>223.39999389648</ele>
        <time>2013-12-07T13:03:35Z</time>
      </trkpt>
      <trkpt lat="43.41623" lon="6.06021">
        <ele>223.39999389648</ele>
        <time>2013-12-07T13:03:39Z</time>
      </trkpt>
      <trkpt lat="43.41627" lon="6.05999">
        <ele>225.60000610352</ele>
        <time>2013-12-07T13:03:44Z</time>
      </trkpt>
      <trkpt lat="43.4163" lon="6.05977">
        <ele>225.60000610352</ele>
        <time>2013-12-07T13:03:49Z</time>
      </trkpt>
      <trkpt lat="43.41639" lon="6.05919">
        <ele>227.60000610352</ele>
        <time>2013-12-07T13:04:02Z</time>
      </trkpt>
      <trkpt lat="43.41643" lon="6.05893">
        <ele>227.60000610352</ele>
        <time>2013-12-07T13:04:08Z</time>
      </trkpt>
      <trkpt lat="43.41645" lon="6.05853">
        <ele>227.60000610352</ele>
        <time>2013-12-07T13:04:17Z</time>
      </trkpt>
      <trkpt lat="43.41648" lon="6.05773">
        <ele>229.60000610352</ele>
        <time>2013-12-07T13:04:33Z</time>
      </trkpt>
      <trkpt lat="43.41648" lon="6.05727">
        <ele>229.60000610352</ele>
        <time>2013-12-07T13:04:41Z</time>
      </trkpt>
      <trkpt lat="43.41642" lon="6.05653">
        <ele>229.60000610352</ele>
        <time>2013-12-07T13:04:53Z</time>
      </trkpt>
      <trkpt lat="43.41639" lon="6.05625">
        <ele>229.60000610352</ele>
        <time>2013-12-07T13:04:57Z</time>
      </trkpt>
      <trkpt lat="43.41633" lon="6.05585">
        <ele>229.60000610352</ele>
        <time>2013-12-07T13:05:03Z</time>
      </trkpt>
      <trkpt lat="43.41621" lon="6.05531">
        <ele>229.60000610352</ele>
        <time>2013-12-07T13:05:11Z</time>
      </trkpt>
      <trkpt lat="43.41604" lon="6.05472">
        <ele>229.60000610352</ele>
        <time>2013-12-07T13:05:20Z</time>
      </trkpt>
      <trkpt lat="43.41585" lon="6.05407">
        <ele>229.60000610352</ele>
        <time>2013-12-07T13:05:30Z</time>
      </trkpt>
      <trkpt lat="43.41556" lon="6.05332">
        <ele>228</ele>
        <time>2013-12-07T13:05:41Z</time>
      </trkpt>
      <trkpt lat="43.41554" lon="6.05325">
        <ele>227.39999389648</ele>
        <time>2013-12-07T13:05:42Z</time>
      </trkpt>
      <trkpt lat="43.41549" lon="6.05302">
        <ele>227.39999389648</ele>
        <time>2013-12-07T13:05:45Z</time>
      </trkpt>
      <trkpt lat="43.41531" lon="6.0525">
        <ele>227.39999389648</ele>
        <time>2013-12-07T13:05:52Z</time>
      </trkpt>
      <trkpt lat="43.41518" lon="6.05221">
        <ele>227</ele>
        <time>2013-12-07T13:05:56Z</time>
      </trkpt>
      <trkpt lat="43.41514" lon="6.05214">
        <ele>226.60000610352</ele>
        <time>2013-12-07T13:05:57Z</time>
      </trkpt>
      <trkpt lat="43.41507" lon="6.05199">
        <ele>225.80000305176</ele>
        <time>2013-12-07T13:05:59Z</time>
      </trkpt>
      <trkpt lat="43.41504" lon="6.05192">
        <ele>225.39999389648</ele>
        <time>2013-12-07T13:06:00Z</time>
      </trkpt>
      <trkpt lat="43.41497" lon="6.05178">
        <ele>225.39999389648</ele>
        <time>2013-12-07T13:06:02Z</time>
      </trkpt>
      <trkpt lat="43.41497" lon="6.05166">
        <ele>225.39999389648</ele>
        <time>2013-12-07T13:06:04Z</time>
      </trkpt>
      <trkpt lat="43.41506" lon="6.0516">
        <ele>225.39999389648</ele>
        <time>2013-12-07T13:06:07Z</time>
      </trkpt>
      <trkpt lat="43.41525" lon="6.05156">
        <ele>225.39999389648</ele>
        <time>2013-12-07T13:06:13Z</time>
      </trkpt>
      <trkpt lat="43.41529" lon="6.05155">
        <ele>225.39999389648</ele>
        <time>2013-12-07T13:06:14Z</time>
      </trkpt>
      <trkpt lat="43.41542" lon="6.05154">
        <ele>225.39999389648</ele>
        <time>2013-12-07T13:06:18Z</time>
      </trkpt>
      <trkpt lat="43.41555" lon="6.05156">
        <ele>225.39999389648</ele>
        <time>2013-12-07T13:06:22Z</time>
      </trkpt>
      <trkpt lat="43.41565" lon="6.05158">
        <ele>225.39999389648</ele>
        <time>2013-12-07T13:06:26Z</time>
      </trkpt>
      <trkpt lat="43.4157" lon="6.05158">
        <ele>225.39999389648</ele>
        <time>2013-12-07T13:06:28Z</time>
      </trkpt>
      <trkpt lat="43.41577" lon="6.05159">
        <ele>226.60000610352</ele>
        <time>2013-12-07T13:06:31Z</time>
      </trkpt>
      <trkpt lat="43.41582" lon="6.0516">
        <ele>227.60000610352</ele>
        <time>2013-12-07T13:06:33Z</time>
      </trkpt>
      <trkpt lat="43.4159" lon="6.05161">
        <ele>227.60000610352</ele>
        <time>2013-12-07T13:06:36Z</time>
      </trkpt>
      <trkpt lat="43.41606" lon="6.05164">
        <ele>228.39999389648</ele>
        <time>2013-12-07T13:06:42Z</time>
      </trkpt>
      <trkpt lat="43.41614" lon="6.05164">
        <ele>229.60000610352</ele>
        <time>2013-12-07T13:06:45Z</time>
      </trkpt>
      <trkpt lat="43.41632" lon="6.05165">
        <ele>229.60000610352</ele>
        <time>2013-12-07T13:06:52Z</time>
      </trkpt>
      <trkpt lat="43.41639" lon="6.05166">
        <ele>230</ele>
        <time>2013-12-07T13:06:55Z</time>
      </trkpt>
      <trkpt lat="43.41648" lon="6.05167">
        <ele>231.80000305176</ele>
        <time>2013-12-07T13:06:59Z</time>
      </trkpt>
      <trkpt lat="43.4166" lon="6.05167">
        <ele>231.80000305176</ele>
        <time>2013-12-07T13:07:05Z</time>
      </trkpt>
      <trkpt lat="43.41664" lon="6.05166">
        <ele>232.19999694824</ele>
        <time>2013-12-07T13:07:07Z</time>
      </trkpt>
      <trkpt lat="43.41672" lon="6.05161">
        <ele>233.80000305176</ele>
        <time>2013-12-07T13:07:11Z</time>
      </trkpt>
      <trkpt lat="43.41673" lon="6.05159">
        <ele>233.80000305176</ele>
        <time>2013-12-07T13:07:12Z</time>
      </trkpt>
      <trkpt lat="43.41679" lon="6.05151">
        <ele>233.80000305176</ele>
        <time>2013-12-07T13:07:15Z</time>
      </trkpt>
      <trkpt lat="43.41687" lon="6.05142">
        <ele>233.80000305176</ele>
        <time>2013-12-07T13:07:19Z</time>
      </trkpt>
      <trkpt lat="43.4169" lon="6.05138">
        <ele>234.19999694824</ele>
        <time>2013-12-07T13:07:21Z</time>
      </trkpt>
      <trkpt lat="43.41698" lon="6.05129">
        <ele>236</ele>
        <time>2013-12-07T13:07:25Z</time>
      </trkpt>
      <trkpt lat="43.41705" lon="6.05124">
        <ele>236</ele>
        <time>2013-12-07T13:07:28Z</time>
      </trkpt>
      <trkpt lat="43.41723" lon="6.05112">
        <ele>236</ele>
        <time>2013-12-07T13:07:36Z</time>
      </trkpt>
      <trkpt lat="43.41727" lon="6.05109">
        <ele>236.39999389648</ele>
        <time>2013-12-07T13:07:38Z</time>
      </trkpt>
      <trkpt lat="43.4173" lon="6.05108">
        <ele>236.80000305176</ele>
        <time>2013-12-07T13:07:39Z</time>
      </trkpt>
      <trkpt lat="43.41735" lon="6.0511">
        <ele>238</ele>
        <time>2013-12-07T13:07:41Z</time>
      </trkpt>
      <trkpt lat="43.41736" lon="6.05113">
        <ele>238</ele>
        <time>2013-12-07T13:07:42Z</time>
      </trkpt>
      <trkpt lat="43.41737" lon="6.05131">
        <ele>238.39999389648</ele>
        <time>2013-12-07T13:07:47Z</time>
      </trkpt>
      <trkpt lat="43.41737" lon="6.05139">
        <ele>239.19999694824</ele>
        <time>2013-12-07T13:07:49Z</time>
      </trkpt>
      <trkpt lat="43.41737" lon="6.05147">
        <ele>240.19999694824</ele>
        <time>2013-12-07T13:07:51Z</time>
      </trkpt>
      <trkpt lat="43.41737" lon="6.05159">
        <ele>240.19999694824</ele>
        <time>2013-12-07T13:07:54Z</time>
      </trkpt>
      <trkpt lat="43.41745" lon="6.05175">
        <ele>240.19999694824</ele>
        <time>2013-12-07T13:07:59Z</time>
      </trkpt>
      <trkpt lat="43.41763" lon="6.0518">
        <ele>240.19999694824</ele>
        <time>2013-12-07T13:08:06Z</time>
      </trkpt>
      <trkpt lat="43.4178" lon="6.05182">
        <ele>240.19999694824</ele>
        <time>2013-12-07T13:08:13Z</time>
      </trkpt>
      <trkpt lat="43.41796" lon="6.05184">
        <ele>242.19999694824</ele>
        <time>2013-12-07T13:08:20Z</time>
      </trkpt>
      <trkpt lat="43.41827" lon="6.05185">
        <ele>244.19999694824</ele>
        <time>2013-12-07T13:08:35Z</time>
      </trkpt>
      <trkpt lat="43.41833" lon="6.05185">
        <ele>244.19999694824</ele>
        <time>2013-12-07T13:08:38Z</time>
      </trkpt>
      <trkpt lat="43.41844" lon="6.05185">
        <ele>244.19999694824</ele>
        <time>2013-12-07T13:08:45Z</time>
      </trkpt>
      <trkpt lat="43.41851" lon="6.05185">
        <ele>244.19999694824</ele>
        <time>2013-12-07T13:08:51Z</time>
      </trkpt>
      <trkpt lat="43.41853" lon="6.05184">
        <ele>244.19999694824</ele>
        <time>2013-12-07T13:08:52Z</time>
      </trkpt>
      <trkpt lat="43.41856" lon="6.05183">
        <ele>244.60000610352</ele>
        <time>2013-12-07T13:08:54Z</time>
      </trkpt>
      <trkpt lat="43.41859" lon="6.05182">
        <ele>245.39999389648</ele>
        <time>2013-12-07T13:08:56Z</time>
      </trkpt>
      <trkpt lat="43.41862" lon="6.05181">
        <ele>246.19999694824</ele>
        <time>2013-12-07T13:08:58Z</time>
      </trkpt>
      <trkpt lat="43.41868" lon="6.0518">
        <ele>246.19999694824</ele>
        <time>2013-12-07T13:09:01Z</time>
      </trkpt>
      <trkpt lat="43.4188" lon="6.05173">
        <ele>246.19999694824</ele>
        <time>2013-12-07T13:09:08Z</time>
      </trkpt>
      <trkpt lat="43.41883" lon="6.05169">
        <ele>246.60000610352</ele>
        <time>2013-12-07T13:09:10Z</time>
      </trkpt>
      <trkpt lat="43.41885" lon="6.05165">
        <ele>247</ele>
        <time>2013-12-07T13:09:11Z</time>
      </trkpt>
      <trkpt lat="43.41887" lon="6.05162">
        <ele>247.39999389648</ele>
        <time>2013-12-07T13:09:12Z</time>
      </trkpt>
      <trkpt lat="43.41891" lon="6.05154">
        <ele>248.19999694824</ele>
        <time>2013-12-07T13:09:14Z</time>
      </trkpt>
      <trkpt lat="43.41899" lon="6.0514">
        <ele>248.19999694824</ele>
        <time>2013-12-07T13:09:19Z</time>
      </trkpt>
      <trkpt lat="43.41903" lon="6.05145">
        <ele>248.19999694824</ele>
        <time>2013-12-07T13:09:25Z</time>
      </trkpt>
      <trkpt lat="43.41905" lon="6.05147">
        <ele>248.19999694824</ele>
        <time>2013-12-07T13:09:26Z</time>
      </trkpt>
      <trkpt lat="43.41907" lon="6.05164">
        <ele>248.80000305176</ele>
        <time>2013-12-07T13:09:30Z</time>
      </trkpt>
      <trkpt lat="43.41908" lon="6.05164">
        <ele>249.19999694824</ele>
        <time>2013-12-07T13:09:31Z</time>
      </trkpt>
      <trkpt lat="43.4191" lon="6.05163">
        <ele>249.60000610352</ele>
        <time>2013-12-07T13:09:32Z</time>
      </trkpt>
      <trkpt lat="43.41915" lon="6.05168">
        <ele>250</ele>
        <time>2013-12-07T13:09:33Z</time>
      </trkpt>
      <trkpt lat="43.4192" lon="6.0516">
        <ele>250.39999389648</ele>
        <time>2013-12-07T13:09:34Z</time>
      </trkpt>
      <trkpt lat="43.41928" lon="6.05158">
        <ele>250.39999389648</ele>
        <time>2013-12-07T13:09:36Z</time>
      </trkpt>
      <trkpt lat="43.41941" lon="6.05152">
        <ele>250.39999389648</ele>
        <time>2013-12-07T13:09:42Z</time>
      </trkpt>
      <trkpt lat="43.41953" lon="6.05145">
        <ele>250.39999389648</ele>
        <time>2013-12-07T13:09:48Z</time>
      </trkpt>
      <trkpt lat="43.41957" lon="6.05143">
        <ele>250.80000305176</ele>
        <time>2013-12-07T13:09:50Z</time>
      </trkpt>
      <trkpt lat="43.41961" lon="6.05142">
        <ele>251.60000610352</ele>
        <time>2013-12-07T13:09:52Z</time>
      </trkpt>
      <trkpt lat="43.41963" lon="6.05141">
        <ele>252</ele>
        <time>2013-12-07T13:09:53Z</time>
      </trkpt>
      <trkpt lat="43.41967" lon="6.05139">
        <ele>252.39999389648</ele>
        <time>2013-12-07T13:09:55Z</time>
      </trkpt>
      <trkpt lat="43.41976" lon="6.05134">
        <ele>252.39999389648</ele>
        <time>2013-12-07T13:10:00Z</time>
      </trkpt>
      <trkpt lat="43.41994" lon="6.05133">
        <ele>252.39999389648</ele>
        <time>2013-12-07T13:10:07Z</time>
      </trkpt>
      <trkpt lat="43.42002" lon="6.05131">
        <ele>253.60000610352</ele>
        <time>2013-12-07T13:10:10Z</time>
      </trkpt>
      <trkpt lat="43.42009" lon="6.0513">
        <ele>254.60000610352</ele>
        <time>2013-12-07T13:10:12Z</time>
      </trkpt>
      <trkpt lat="43.42012" lon="6.05129">
        <ele>254.60000610352</ele>
        <time>2013-12-07T13:10:13Z</time>
      </trkpt>
      <trkpt lat="43.4203" lon="6.05123">
        <ele>254.60000610352</ele>
        <time>2013-12-07T13:10:19Z</time>
      </trkpt>
      <trkpt lat="43.42044" lon="6.05118">
        <ele>254.60000610352</ele>
        <time>2013-12-07T13:10:25Z</time>
      </trkpt>
      <trkpt lat="43.42058" lon="6.05114">
        <ele>254.60000610352</ele>
        <time>2013-12-07T13:10:31Z</time>
      </trkpt>
      <trkpt lat="43.42065" lon="6.05114">
        <ele>255</ele>
        <time>2013-12-07T13:10:34Z</time>
      </trkpt>
      <trkpt lat="43.42075" lon="6.05112">
        <ele>256.60000610352</ele>
        <time>2013-12-07T13:10:38Z</time>
      </trkpt>
      <trkpt lat="43.42093" lon="6.05114">
        <ele>256.60000610352</ele>
        <time>2013-12-07T13:10:45Z</time>
      </trkpt>
      <trkpt lat="43.42098" lon="6.05114">
        <ele>256.60000610352</ele>
        <time>2013-12-07T13:10:47Z</time>
      </trkpt>
      <trkpt lat="43.42113" lon="6.05113">
        <ele>257.79998779297</ele>
        <time>2013-12-07T13:10:54Z</time>
      </trkpt>
      <trkpt lat="43.42116" lon="6.05113">
        <ele>258.20001220703</ele>
        <time>2013-12-07T13:10:55Z</time>
      </trkpt>
      <trkpt lat="43.42118" lon="6.05114">
        <ele>258.60000610352</ele>
        <time>2013-12-07T13:10:56Z</time>
      </trkpt>
      <trkpt lat="43.42123" lon="6.05118">
        <ele>258.60000610352</ele>
        <time>2013-12-07T13:10:59Z</time>
      </trkpt>
      <trkpt lat="43.42129" lon="6.05123">
        <ele>258.60000610352</ele>
        <time>2013-12-07T13:11:02Z</time>
      </trkpt>
      <trkpt lat="43.42134" lon="6.0513">
        <ele>258.60000610352</ele>
        <time>2013-12-07T13:11:05Z</time>
      </trkpt>
      <trkpt lat="43.42138" lon="6.05137">
        <ele>259.20001220703</ele>
        <time>2013-12-07T13:11:08Z</time>
      </trkpt>
      <trkpt lat="43.4214" lon="6.0514">
        <ele>259.60000610352</ele>
        <time>2013-12-07T13:11:09Z</time>
      </trkpt>
      <trkpt lat="43.42144" lon="6.05145">
        <ele>260.39999389648</ele>
        <time>2013-12-07T13:11:11Z</time>
      </trkpt>
      <trkpt lat="43.42146" lon="6.05148">
        <ele>260.79998779297</ele>
        <time>2013-12-07T13:11:12Z</time>
      </trkpt>
      <trkpt lat="43.42159" lon="6.05161">
        <ele>260.79998779297</ele>
        <time>2013-12-07T13:11:17Z</time>
      </trkpt>
      <trkpt lat="43.42174" lon="6.05171">
        <ele>260.79998779297</ele>
        <time>2013-12-07T13:11:23Z</time>
      </trkpt>
      <trkpt lat="43.42183" lon="6.0517">
        <ele>260.79998779297</ele>
        <time>2013-12-07T13:11:27Z</time>
      </trkpt>
      <trkpt lat="43.42184" lon="6.05175">
        <ele>260.79998779297</ele>
        <time>2013-12-07T13:11:30Z</time>
      </trkpt>
      <trkpt lat="43.42181" lon="6.05173">
        <ele>260.79998779297</ele>
        <time>2013-12-07T13:11:33Z</time>
      </trkpt>
      <trkpt lat="43.42179" lon="6.05171">
        <ele>260.79998779297</ele>
        <time>2013-12-07T13:11:34Z</time>
      </trkpt>
      <trkpt lat="43.42176" lon="6.05169">
        <ele>260.79998779297</ele>
        <time>2013-12-07T13:11:36Z</time>
      </trkpt>
      <trkpt lat="43.42173" lon="6.05167">
        <ele>260.79998779297</ele>
        <time>2013-12-07T13:11:39Z</time>
      </trkpt>
      <trkpt lat="43.42173" lon="6.05168">
        <ele>260.79998779297</ele>
        <time>2013-12-07T13:11:44Z</time>
      </trkpt>
      <trkpt lat="43.42177" lon="6.0517">
        <ele>260.79998779297</ele>
        <time>2013-12-07T13:11:49Z</time>
      </trkpt>
      <trkpt lat="43.42186" lon="6.05169">
        <ele>260.79998779297</ele>
        <time>2013-12-07T13:11:53Z</time>
      </trkpt>
      <trkpt lat="43.42191" lon="6.05168">
        <ele>260.79998779297</ele>
        <time>2013-12-07T13:11:55Z</time>
      </trkpt>
      <trkpt lat="43.42193" lon="6.05169">
        <ele>261.20001220703</ele>
        <time>2013-12-07T13:11:56Z</time>
      </trkpt>
      <trkpt lat="43.42194" lon="6.05169">
        <ele>261.60000610352</ele>
        <time>2013-12-07T13:11:57Z</time>
      </trkpt>
      <trkpt lat="43.42194" lon="6.05169">
        <ele>262</ele>
        <time>2013-12-07T13:11:58Z</time>
      </trkpt>
      <trkpt lat="43.42194" lon="6.05169">
        <ele>262.79998779297</ele>
        <time>2013-12-07T13:12:00Z</time>
      </trkpt>
      <trkpt lat="43.42194" lon="6.05169">
        <ele>262.79998779297</ele>
        <time>2013-12-07T13:12:01Z</time>
      </trkpt>
      <trkpt lat="43.42195" lon="6.05169">
        <ele>262.79998779297</ele>
        <time>2013-12-07T13:12:07Z</time>
      </trkpt>
      <trkpt lat="43.42195" lon="6.05169">
        <ele>262.79998779297</ele>
        <time>2013-12-07T13:12:24Z</time>
      </trkpt>
      <trkpt lat="43.42195" lon="6.05169">
        <ele>262.79998779297</ele>
        <time>2013-12-07T13:12:45Z</time>
      </trkpt>
      <trkpt lat="43.42195" lon="6.05169">
        <ele>262.79998779297</ele>
        <time>2013-12-07T13:12:50Z</time>
      </trkpt>
      <trkpt lat="43.42198" lon="6.05171">
        <ele>262.79998779297</ele>
        <time>2013-12-07T13:12:57Z</time>
      </trkpt>
      <trkpt lat="43.42204" lon="6.05177">
        <ele>262.79998779297</ele>
        <time>2013-12-07T13:13:01Z</time>
      </trkpt>
      <trkpt lat="43.42206" lon="6.0518">
        <ele>262.79998779297</ele>
        <time>2013-12-07T13:13:03Z</time>
      </trkpt>
      <trkpt lat="43.42208" lon="6.05181">
        <ele>262.79998779297</ele>
        <time>2013-12-07T13:13:05Z</time>
      </trkpt>
      <trkpt lat="43.42212" lon="6.05181">
        <ele>263.20001220703</ele>
        <time>2013-12-07T13:13:07Z</time>
      </trkpt>
      <trkpt lat="43.42214" lon="6.05183">
        <ele>264.20001220703</ele>
        <time>2013-12-07T13:13:09Z</time>
      </trkpt>
      <trkpt lat="43.42214" lon="6.05183">
        <ele>264.60000610352</ele>
        <time>2013-12-07T13:13:10Z</time>
      </trkpt>
      <trkpt lat="43.42214" lon="6.05183">
        <ele>265</ele>
        <time>2013-12-07T13:13:12Z</time>
      </trkpt>
      <trkpt lat="43.42214" lon="6.05183">
        <ele>265</ele>
        <time>2013-12-07T13:13:15Z</time>
      </trkpt>
      <trkpt lat="43.42217" lon="6.05186">
        <ele>265</ele>
        <time>2013-12-07T13:13:20Z</time>
      </trkpt>
      <trkpt lat="43.42219" lon="6.05188">
        <ele>265</ele>
        <time>2013-12-07T13:13:21Z</time>
      </trkpt>
      <trkpt lat="43.42222" lon="6.0519">
        <ele>265</ele>
        <time>2013-12-07T13:13:24Z</time>
      </trkpt>
      <trkpt lat="43.42224" lon="6.05192">
        <ele>265</ele>
        <time>2013-12-07T13:13:26Z</time>
      </trkpt>
      <trkpt lat="43.42228" lon="6.05195">
        <ele>265</ele>
        <time>2013-12-07T13:13:29Z</time>
      </trkpt>
      <trkpt lat="43.42233" lon="6.05201">
        <ele>265</ele>
        <time>2013-12-07T13:13:32Z</time>
      </trkpt>
      <trkpt lat="43.42243" lon="6.05209">
        <ele>265</ele>
        <time>2013-12-07T13:13:38Z</time>
      </trkpt>
      <trkpt lat="43.42246" lon="6.0521">
        <ele>265</ele>
        <time>2013-12-07T13:13:40Z</time>
      </trkpt>
      <trkpt lat="43.42252" lon="6.0521">
        <ele>265.39999389648</ele>
        <time>2013-12-07T13:13:43Z</time>
      </trkpt>
      <trkpt lat="43.42256" lon="6.05212">
        <ele>266.20001220703</ele>
        <time>2013-12-07T13:13:45Z</time>
      </trkpt>
      <trkpt lat="43.4226" lon="6.05211">
        <ele>267</ele>
        <time>2013-12-07T13:13:47Z</time>
      </trkpt>
      <trkpt lat="43.42269" lon="6.05208">
        <ele>267</ele>
        <time>2013-12-07T13:13:51Z</time>
      </trkpt>
      <trkpt lat="43.42278" lon="6.05201">
        <ele>267</ele>
        <time>2013-12-07T13:13:57Z</time>
      </trkpt>
      <trkpt lat="43.42281" lon="6.05197">
        <ele>268.20001220703</ele>
        <time>2013-12-07T13:14:00Z</time>
      </trkpt>
      <trkpt lat="43.42286" lon="6.05193">
        <ele>269</ele>
        <time>2013-12-07T13:14:03Z</time>
      </trkpt>
      <trkpt lat="43.4229" lon="6.05193">
        <ele>269</ele>
        <time>2013-12-07T13:14:05Z</time>
      </trkpt>
      <trkpt lat="43.42294" lon="6.05196">
        <ele>269</ele>
        <time>2013-12-07T13:14:07Z</time>
      </trkpt>
      <trkpt lat="43.42303" lon="6.05204">
        <ele>269</ele>
        <time>2013-12-07T13:14:12Z</time>
      </trkpt>
      <trkpt lat="43.42314" lon="6.05206">
        <ele>269</ele>
        <time>2013-12-07T13:14:17Z</time>
      </trkpt>
      <trkpt lat="43.42325" lon="6.05201">
        <ele>269</ele>
        <time>2013-12-07T13:14:23Z</time>
      </trkpt>
      <trkpt lat="43.42326" lon="6.05201">
        <ele>269.39999389648</ele>
        <time>2013-12-07T13:14:24Z</time>
      </trkpt>
      <trkpt lat="43.42332" lon="6.05202">
        <ele>270.60000610352</ele>
        <time>2013-12-07T13:14:27Z</time>
      </trkpt>
      <trkpt lat="43.42334" lon="6.05203">
        <ele>271</ele>
        <time>2013-12-07T13:14:28Z</time>
      </trkpt>
      <trkpt lat="43.42341" lon="6.05199">
        <ele>271</ele>
        <time>2013-12-07T13:14:33Z</time>
      </trkpt>
      <trkpt lat="43.42344" lon="6.05198">
        <ele>271.60000610352</ele>
        <time>2013-12-07T13:14:35Z</time>
      </trkpt>
      <trkpt lat="43.4235" lon="6.05201">
        <ele>273.20001220703</ele>
        <time>2013-12-07T13:14:39Z</time>
      </trkpt>
      <trkpt lat="43.42354" lon="6.05198">
        <ele>273.20001220703</ele>
        <time>2013-12-07T13:14:42Z</time>
      </trkpt>
      <trkpt lat="43.4236" lon="6.05194">
        <ele>273.20001220703</ele>
        <time>2013-12-07T13:14:48Z</time>
      </trkpt>
      <trkpt lat="43.42362" lon="6.05191">
        <ele>273.60000610352</ele>
        <time>2013-12-07T13:14:50Z</time>
      </trkpt>
      <trkpt lat="43.42365" lon="6.0519">
        <ele>274.39999389648</ele>
        <time>2013-12-07T13:14:52Z</time>
      </trkpt>
      <trkpt lat="43.42368" lon="6.05189">
        <ele>275.39999389648</ele>
        <time>2013-12-07T13:14:54Z</time>
      </trkpt>
      <trkpt lat="43.42374" lon="6.05186">
        <ele>275.39999389648</ele>
        <time>2013-12-07T13:14:59Z</time>
      </trkpt>
      <trkpt lat="43.42377" lon="6.05186">
        <ele>275.79998779297</ele>
        <time>2013-12-07T13:15:01Z</time>
      </trkpt>
      <trkpt lat="43.42377" lon="6.05186">
        <ele>276.20001220703</ele>
        <time>2013-12-07T13:15:02Z</time>
      </trkpt>
      <trkpt lat="43.42377" lon="6.05186">
        <ele>276.60000610352</ele>
        <time>2013-12-07T13:15:03Z</time>
      </trkpt>
      <trkpt lat="43.42379" lon="6.05186">
        <ele>277.39999389648</ele>
        <time>2013-12-07T13:15:05Z</time>
      </trkpt>
      <trkpt lat="43.42383" lon="6.05187">
        <ele>277.39999389648</ele>
        <time>2013-12-07T13:15:09Z</time>
      </trkpt>
      <trkpt lat="43.42389" lon="6.05182">
        <ele>278.20001220703</ele>
        <time>2013-12-07T13:15:17Z</time>
      </trkpt>
      <trkpt lat="43.4239" lon="6.0518">
        <ele>279</ele>
        <time>2013-12-07T13:15:19Z</time>
      </trkpt>
      <trkpt lat="43.42392" lon="6.05177">
        <ele>279.39999389648</ele>
        <time>2013-12-07T13:15:22Z</time>
      </trkpt>
      <trkpt lat="43.42396" lon="6.05179">
        <ele>279.39999389648</ele>
        <time>2013-12-07T13:15:27Z</time>
      </trkpt>
      <trkpt lat="43.42397" lon="6.05181">
        <ele>279.39999389648</ele>
        <time>2013-12-07T13:15:32Z</time>
      </trkpt>
      <trkpt lat="43.42397" lon="6.05181">
        <ele>279.39999389648</ele>
        <time>2013-12-07T13:15:49Z</time>
      </trkpt>
      <trkpt lat="43.42397" lon="6.05181">
        <ele>279.39999389648</ele>
        <time>2013-12-07T13:16:09Z</time>
      </trkpt>
      <trkpt lat="43.42397" lon="6.05181">
        <ele>279.39999389648</ele>
        <time>2013-12-07T13:16:11Z</time>
      </trkpt>
      <trkpt lat="43.42397" lon="6.05181">
        <ele>279.39999389648</ele>
        <time>2013-12-07T13:16:23Z</time>
      </trkpt>
      <trkpt lat="43.42397" lon="6.05181">
        <ele>279.39999389648</ele>
        <time>2013-12-07T13:16:34Z</time>
      </trkpt>
      <trkpt lat="43.42398" lon="6.05187">
        <ele>279.39999389648</ele>
        <time>2013-12-07T13:16:40Z</time>
      </trkpt>
      <trkpt lat="43.42402" lon="6.05205">
        <ele>279.39999389648</ele>
        <time>2013-12-07T13:16:44Z</time>
      </trkpt>
      <trkpt lat="43.42406" lon="6.05214">
        <ele>279</ele>
        <time>2013-12-07T13:16:46Z</time>
      </trkpt>
      <trkpt lat="43.4241" lon="6.0522">
        <ele>278.20001220703</ele>
        <time>2013-12-07T13:16:48Z</time>
      </trkpt>
      <trkpt lat="43.42412" lon="6.05221">
        <ele>277.79998779297</ele>
        <time>2013-12-07T13:16:49Z</time>
      </trkpt>
      <trkpt lat="43.42416" lon="6.05224">
        <ele>277.20001220703</ele>
        <time>2013-12-07T13:16:50Z</time>
      </trkpt>
      <trkpt lat="43.42422" lon="6.05225">
        <ele>277.20001220703</ele>
        <time>2013-12-07T13:16:52Z</time>
      </trkpt>
      <trkpt lat="43.4243" lon="6.05223">
        <ele>277.20001220703</ele>
        <time>2013-12-07T13:16:56Z</time>
      </trkpt>
      <trkpt lat="43.42439" lon="6.05223">
        <ele>277.20001220703</ele>
        <time>2013-12-07T13:17:00Z</time>
      </trkpt>
      <trkpt lat="43.42448" lon="6.05221">
        <ele>277.20001220703</ele>
        <time>2013-12-07T13:17:04Z</time>
      </trkpt>
      <trkpt lat="43.42453" lon="6.05219">
        <ele>277.20001220703</ele>
        <time>2013-12-07T13:17:06Z</time>
      </trkpt>
      <trkpt lat="43.42456" lon="6.05217">
        <ele>277.20001220703</ele>
        <time>2013-12-07T13:17:07Z</time>
      </trkpt>
      <trkpt lat="43.42457" lon="6.05217">
        <ele>277.20001220703</ele>
        <time>2013-12-07T13:17:08Z</time>
      </trkpt>
      <trkpt lat="43.42459" lon="6.05216">
        <ele>277.20001220703</ele>
        <time>2013-12-07T13:17:10Z</time>
      </trkpt>
      <trkpt lat="43.4246" lon="6.05215">
        <ele>277.20001220703</ele>
        <time>2013-12-07T13:17:11Z</time>
      </trkpt>
      <trkpt lat="43.42463" lon="6.05215">
        <ele>278.20001220703</ele>
        <time>2013-12-07T13:17:13Z</time>
      </trkpt>
      <trkpt lat="43.42465" lon="6.05215">
        <ele>278.60000610352</ele>
        <time>2013-12-07T13:17:14Z</time>
      </trkpt>
      <trkpt lat="43.42466" lon="6.05216">
        <ele>279</ele>
        <time>2013-12-07T13:17:16Z</time>
      </trkpt>
      <trkpt lat="43.42468" lon="6.05217">
        <ele>279.39999389648</ele>
        <time>2013-12-07T13:17:17Z</time>
      </trkpt>
      <trkpt lat="43.42474" lon="6.05217">
        <ele>279.39999389648</ele>
        <time>2013-12-07T13:17:23Z</time>
      </trkpt>
      <trkpt lat="43.42474" lon="6.05217">
        <ele>279.39999389648</ele>
        <time>2013-12-07T13:17:33Z</time>
      </trkpt>
      <trkpt lat="43.42477" lon="6.05218">
        <ele>279.39999389648</ele>
        <time>2013-12-07T13:17:42Z</time>
      </trkpt>
      <trkpt lat="43.42487" lon="6.05221">
        <ele>279.39999389648</ele>
        <time>2013-12-07T13:17:46Z</time>
      </trkpt>
      <trkpt lat="43.42499" lon="6.05226">
        <ele>279.39999389648</ele>
        <time>2013-12-07T13:17:50Z</time>
      </trkpt>
      <trkpt lat="43.42516" lon="6.05227">
        <ele>279.39999389648</ele>
        <time>2013-12-07T13:17:56Z</time>
      </trkpt>
      <trkpt lat="43.42528" lon="6.05225">
        <ele>279.39999389648</ele>
        <time>2013-12-07T13:18:01Z</time>
      </trkpt>
      <trkpt lat="43.4254" lon="6.05225">
        <ele>279.39999389648</ele>
        <time>2013-12-07T13:18:06Z</time>
      </trkpt>
      <trkpt lat="43.42549" lon="6.05223">
        <ele>279.79998779297</ele>
        <time>2013-12-07T13:18:09Z</time>
      </trkpt>
      <trkpt lat="43.42553" lon="6.05221">
        <ele>280.60000610352</ele>
        <time>2013-12-07T13:18:11Z</time>
      </trkpt>
      <trkpt lat="43.42555" lon="6.0522">
        <ele>281</ele>
        <time>2013-12-07T13:18:12Z</time>
      </trkpt>
      <trkpt lat="43.42556" lon="6.0522">
        <ele>281.39999389648</ele>
        <time>2013-12-07T13:18:13Z</time>
      </trkpt>
      <trkpt lat="43.42557" lon="6.0522">
        <ele>281.39999389648</ele>
        <time>2013-12-07T13:18:16Z</time>
      </trkpt>
      <trkpt lat="43.4256" lon="6.0522">
        <ele>281.39999389648</ele>
        <time>2013-12-07T13:18:26Z</time>
      </trkpt>
      <trkpt lat="43.42572" lon="6.05223">
        <ele>281.39999389648</ele>
        <time>2013-12-07T13:18:31Z</time>
      </trkpt>
      <trkpt lat="43.42584" lon="6.0523">
        <ele>281.39999389648</ele>
        <time>2013-12-07T13:18:36Z</time>
      </trkpt>
      <trkpt lat="43.42601" lon="6.05244">
        <ele>281.39999389648</ele>
        <time>2013-12-07T13:18:43Z</time>
      </trkpt>
      <trkpt lat="43.42617" lon="6.05259">
        <ele>281.79998779297</ele>
        <time>2013-12-07T13:18:50Z</time>
      </trkpt>
      <trkpt lat="43.4262" lon="6.05261">
        <ele>282.20001220703</ele>
        <time>2013-12-07T13:18:51Z</time>
      </trkpt>
      <trkpt lat="43.42625" lon="6.05264">
        <ele>283</ele>
        <time>2013-12-07T13:18:53Z</time>
      </trkpt>
      <trkpt lat="43.42626" lon="6.05265">
        <ele>283.60000610352</ele>
        <time>2013-12-07T13:18:54Z</time>
      </trkpt>
      <trkpt lat="43.42632" lon="6.0527">
        <ele>283.60000610352</ele>
        <time>2013-12-07T13:18:58Z</time>
      </trkpt>
      <trkpt lat="43.42634" lon="6.05272">
        <ele>283.60000610352</ele>
        <time>2013-12-07T13:19:00Z</time>
      </trkpt>
      <trkpt lat="43.42635" lon="6.05272">
        <ele>283.60000610352</ele>
        <time>2013-12-07T13:19:01Z</time>
      </trkpt>
      <trkpt lat="43.42635" lon="6.05273">
        <ele>283.60000610352</ele>
        <time>2013-12-07T13:19:05Z</time>
      </trkpt>
      <trkpt lat="43.42635" lon="6.05273">
        <ele>283.60000610352</ele>
        <time>2013-12-07T13:19:14Z</time>
      </trkpt>
      <trkpt lat="43.42635" lon="6.05273">
        <ele>283.60000610352</ele>
        <time>2013-12-07T13:19:17Z</time>
      </trkpt>
      <trkpt lat="43.42638" lon="6.05276">
        <ele>283.60000610352</ele>
        <time>2013-12-07T13:19:24Z</time>
      </trkpt>
      <trkpt lat="43.42641" lon="6.0528">
        <ele>284</ele>
        <time>2013-12-07T13:19:28Z</time>
      </trkpt>
      <trkpt lat="43.42643" lon="6.05283">
        <ele>284.79998779297</ele>
        <time>2013-12-07T13:19:30Z</time>
      </trkpt>
      <trkpt lat="43.42645" lon="6.05284">
        <ele>285.20001220703</ele>
        <time>2013-12-07T13:19:31Z</time>
      </trkpt>
      <trkpt lat="43.42651" lon="6.05291">
        <ele>285.60000610352</ele>
        <time>2013-12-07T13:19:36Z</time>
      </trkpt>
      <trkpt lat="43.42655" lon="6.05299">
        <ele>285.60000610352</ele>
        <time>2013-12-07T13:19:40Z</time>
      </trkpt>
      <trkpt lat="43.42663" lon="6.05313">
        <ele>286</ele>
        <time>2013-12-07T13:19:47Z</time>
      </trkpt>
      <trkpt lat="43.42664" lon="6.05315">
        <ele>286.39999389648</ele>
        <time>2013-12-07T13:19:48Z</time>
      </trkpt>
      <trkpt lat="43.42666" lon="6.05317">
        <ele>287.20001220703</ele>
        <time>2013-12-07T13:19:50Z</time>
      </trkpt>
      <trkpt lat="43.42669" lon="6.05319">
        <ele>287.60000610352</ele>
        <time>2013-12-07T13:19:51Z</time>
      </trkpt>
      <trkpt lat="43.4267" lon="6.05322">
        <ele>287.60000610352</ele>
        <time>2013-12-07T13:19:52Z</time>
      </trkpt>
      <trkpt lat="43.42674" lon="6.05327">
        <ele>287.60000610352</ele>
        <time>2013-12-07T13:19:54Z</time>
      </trkpt>
      <trkpt lat="43.42678" lon="6.05332">
        <ele>287.60000610352</ele>
        <time>2013-12-07T13:19:56Z</time>
      </trkpt>
      <trkpt lat="43.42679" lon="6.05334">
        <ele>288</ele>
        <time>2013-12-07T13:19:57Z</time>
      </trkpt>
      <trkpt lat="43.4268" lon="6.05335">
        <ele>288.79998779297</ele>
        <time>2013-12-07T13:19:59Z</time>
      </trkpt>
      <trkpt lat="43.42681" lon="6.05336">
        <ele>289.20001220703</ele>
        <time>2013-12-07T13:20:00Z</time>
      </trkpt>
      <trkpt lat="43.42681" lon="6.05336">
        <ele>289.60000610352</ele>
        <time>2013-12-07T13:20:01Z</time>
      </trkpt>
      <trkpt lat="43.42681" lon="6.05336">
        <ele>289.60000610352</ele>
        <time>2013-12-07T13:20:21Z</time>
      </trkpt>
      <trkpt lat="43.42681" lon="6.05336">
        <ele>289.60000610352</ele>
        <time>2013-12-07T13:20:38Z</time>
      </trkpt>
      <trkpt lat="43.42681" lon="6.05337">
        <ele>289.60000610352</ele>
        <time>2013-12-07T13:20:42Z</time>
      </trkpt>
      <trkpt lat="43.42681" lon="6.05337">
        <ele>289.60000610352</ele>
        <time>2013-12-07T13:20:47Z</time>
      </trkpt>
      <trkpt lat="43.42684" lon="6.05338">
        <ele>289.60000610352</ele>
        <time>2013-12-07T13:20:59Z</time>
      </trkpt>
      <trkpt lat="43.42688" lon="6.0534">
        <ele>289.60000610352</ele>
        <time>2013-12-07T13:21:01Z</time>
      </trkpt>
      <trkpt lat="43.42693" lon="6.05341">
        <ele>289.60000610352</ele>
        <time>2013-12-07T13:21:04Z</time>
      </trkpt>
      <trkpt lat="43.427" lon="6.05341">
        <ele>289.60000610352</ele>
        <time>2013-12-07T13:21:07Z</time>
      </trkpt>
      <trkpt lat="43.4271" lon="6.0534">
        <ele>289.60000610352</ele>
        <time>2013-12-07T13:21:11Z</time>
      </trkpt>
      <trkpt lat="43.42715" lon="6.05342">
        <ele>289.60000610352</ele>
        <time>2013-12-07T13:21:14Z</time>
      </trkpt>
      <trkpt lat="43.42717" lon="6.05344">
        <ele>290</ele>
        <time>2013-12-07T13:21:15Z</time>
      </trkpt>
      <trkpt lat="43.42718" lon="6.05347">
        <ele>290.79998779297</ele>
        <time>2013-12-07T13:21:16Z</time>
      </trkpt>
      <trkpt lat="43.42719" lon="6.05349">
        <ele>291.39999389648</ele>
        <time>2013-12-07T13:21:17Z</time>
      </trkpt>
      <trkpt lat="43.42719" lon="6.05352">
        <ele>291.79998779297</ele>
        <time>2013-12-07T13:21:18Z</time>
      </trkpt>
      <trkpt lat="43.42717" lon="6.05376">
        <ele>291.79998779297</ele>
        <time>2013-12-07T13:21:26Z</time>
      </trkpt>
      <trkpt lat="43.42721" lon="6.05394">
        <ele>293.79998779297</ele>
        <time>2013-12-07T13:21:34Z</time>
      </trkpt>
      <trkpt lat="43.42725" lon="6.05406">
        <ele>293.79998779297</ele>
        <time>2013-12-07T13:21:39Z</time>
      </trkpt>
      <trkpt lat="43.42727" lon="6.05414">
        <ele>295</ele>
        <time>2013-12-07T13:21:43Z</time>
      </trkpt>
      <trkpt lat="43.42728" lon="6.05419">
        <ele>296</ele>
        <time>2013-12-07T13:21:46Z</time>
      </trkpt>
      <trkpt lat="43.42731" lon="6.05428">
        <ele>296</ele>
        <time>2013-12-07T13:21:51Z</time>
      </trkpt>
      <trkpt lat="43.42732" lon="6.05448">
        <ele>296.39999389648</ele>
        <time>2013-12-07T13:21:59Z</time>
      </trkpt>
      <trkpt lat="43.42732" lon="6.05453">
        <ele>297.20001220703</ele>
        <time>2013-12-07T13:22:01Z</time>
      </trkpt>
      <trkpt lat="43.42731" lon="6.05455">
        <ele>297.60000610352</ele>
        <time>2013-12-07T13:22:02Z</time>
      </trkpt>
      <trkpt lat="43.42728" lon="6.05459">
        <ele>298</ele>
        <time>2013-12-07T13:22:04Z</time>
      </trkpt>
      <trkpt lat="43.42725" lon="6.05471">
        <ele>298</ele>
        <time>2013-12-07T13:22:09Z</time>
      </trkpt>
      <trkpt lat="43.42725" lon="6.05476">
        <ele>298</ele>
        <time>2013-12-07T13:22:11Z</time>
      </trkpt>
      <trkpt lat="43.42727" lon="6.05497">
        <ele>299.79998779297</ele>
        <time>2013-12-07T13:22:20Z</time>
      </trkpt>
      <trkpt lat="43.42728" lon="6.05521">
        <ele>300.20001220703</ele>
        <time>2013-12-07T13:22:30Z</time>
      </trkpt>
      <trkpt lat="43.42728" lon="6.05529">
        <ele>301.79998779297</ele>
        <time>2013-12-07T13:22:34Z</time>
      </trkpt>
      <trkpt lat="43.4273" lon="6.05536">
        <ele>302.20001220703</ele>
        <time>2013-12-07T13:22:37Z</time>
      </trkpt>
      <trkpt lat="43.42736" lon="6.05559">
        <ele>302.60000610352</ele>
        <time>2013-12-07T13:22:48Z</time>
      </trkpt>
      <trkpt lat="43.42737" lon="6.05564">
        <ele>303.39999389648</ele>
        <time>2013-12-07T13:22:50Z</time>
      </trkpt>
      <trkpt lat="43.42744" lon="6.05574">
        <ele>304.39999389648</ele>
        <time>2013-12-07T13:22:56Z</time>
      </trkpt>
      <trkpt lat="43.42751" lon="6.05582">
        <ele>304.79998779297</ele>
        <time>2013-12-07T13:23:02Z</time>
      </trkpt>
      <trkpt lat="43.42753" lon="6.05589">
        <ele>306.39999389648</ele>
        <time>2013-12-07T13:23:06Z</time>
      </trkpt>
      <trkpt lat="43.42754" lon="6.05595">
        <ele>306.39999389648</ele>
        <time>2013-12-07T13:23:09Z</time>
      </trkpt>
      <trkpt lat="43.42753" lon="6.05604">
        <ele>306.79998779297</ele>
        <time>2013-12-07T13:23:14Z</time>
      </trkpt>
      <trkpt lat="43.42752" lon="6.05612">
        <ele>308.39999389648</ele>
        <time>2013-12-07T13:23:18Z</time>
      </trkpt>
      <trkpt lat="43.42747" lon="6.05627">
        <ele>309.79998779297</ele>
        <time>2013-12-07T13:23:26Z</time>
      </trkpt>
      <trkpt lat="43.42746" lon="6.05631">
        <ele>310.60000610352</ele>
        <time>2013-12-07T13:23:28Z</time>
      </trkpt>
      <trkpt lat="43.42735" lon="6.05643">
        <ele>310.60000610352</ele>
        <time>2013-12-07T13:23:37Z</time>
      </trkpt>
      <trkpt lat="43.4273" lon="6.05648">
        <ele>310.60000610352</ele>
        <time>2013-12-07T13:23:40Z</time>
      </trkpt>
      <trkpt lat="43.42727" lon="6.05658">
        <ele>310.60000610352</ele>
        <time>2013-12-07T13:23:45Z</time>
      </trkpt>
      <trkpt lat="43.42723" lon="6.05668">
        <ele>311</ele>
        <time>2013-12-07T13:23:50Z</time>
      </trkpt>
      <trkpt lat="43.4272" lon="6.05673">
        <ele>312.20001220703</ele>
        <time>2013-12-07T13:23:53Z</time>
      </trkpt>
      <trkpt lat="43.42719" lon="6.05674">
        <ele>312.60000610352</ele>
        <time>2013-12-07T13:23:54Z</time>
      </trkpt>
      <trkpt lat="43.42715" lon="6.05678">
        <ele>312.60000610352</ele>
        <time>2013-12-07T13:23:57Z</time>
      </trkpt>
      <trkpt lat="43.42707" lon="6.05687">
        <ele>313</ele>
        <time>2013-12-07T13:24:04Z</time>
      </trkpt>
      <trkpt lat="43.42705" lon="6.05698">
        <ele>314.60000610352</ele>
        <time>2013-12-07T13:24:10Z</time>
      </trkpt>
      <trkpt lat="43.42702" lon="6.05706">
        <ele>316</ele>
        <time>2013-12-07T13:24:15Z</time>
      </trkpt>
      <trkpt lat="43.42702" lon="6.05708">
        <ele>316.39999389648</ele>
        <time>2013-12-07T13:24:16Z</time>
      </trkpt>
      <trkpt lat="43.42701" lon="6.05713">
        <ele>316.79998779297</ele>
        <time>2013-12-07T13:24:19Z</time>
      </trkpt>
      <trkpt lat="43.42699" lon="6.0572">
        <ele>316.79998779297</ele>
        <time>2013-12-07T13:24:23Z</time>
      </trkpt>
      <trkpt lat="43.42699" lon="6.05721">
        <ele>316.79998779297</ele>
        <time>2013-12-07T13:24:24Z</time>
      </trkpt>
      <trkpt lat="43.42698" lon="6.05723">
        <ele>317.20001220703</ele>
        <time>2013-12-07T13:24:25Z</time>
      </trkpt>
      <trkpt lat="43.42698" lon="6.05724">
        <ele>317.60000610352</ele>
        <time>2013-12-07T13:24:26Z</time>
      </trkpt>
      <trkpt lat="43.42697" lon="6.05724">
        <ele>318</ele>
        <time>2013-12-07T13:24:27Z</time>
      </trkpt>
      <trkpt lat="43.42697" lon="6.05724">
        <ele>318.60000610352</ele>
        <time>2013-12-07T13:24:28Z</time>
      </trkpt>
      <trkpt lat="43.42696" lon="6.05724">
        <ele>319</ele>
        <time>2013-12-07T13:24:29Z</time>
      </trkpt>
      <trkpt lat="43.42696" lon="6.05724">
        <ele>319</ele>
        <time>2013-12-07T13:24:53Z</time>
      </trkpt>
      <trkpt lat="43.42696" lon="6.05723">
        <ele>319</ele>
        <time>2013-12-07T13:26:45Z</time>
      </trkpt>
      <trkpt lat="43.42696" lon="6.05723">
        <ele>319</ele>
        <time>2013-12-07T13:26:52Z</time>
      </trkpt>
      <trkpt lat="43.42696" lon="6.05724">
        <ele>319</ele>
        <time>2013-12-07T13:26:57Z</time>
      </trkpt>
      <trkpt lat="43.42696" lon="6.05724">
        <ele>319</ele>
        <time>2013-12-07T13:27:02Z</time>
      </trkpt>
      <trkpt lat="43.42696" lon="6.05726">
        <ele>319</ele>
        <time>2013-12-07T13:27:03Z</time>
      </trkpt>
      <trkpt lat="43.42698" lon="6.05736">
        <ele>319</ele>
        <time>2013-12-07T13:27:08Z</time>
      </trkpt>
      <trkpt lat="43.42699" lon="6.05737">
        <ele>319</ele>
        <time>2013-12-07T13:27:09Z</time>
      </trkpt>
      <trkpt lat="43.42701" lon="6.05737">
        <ele>319</ele>
        <time>2013-12-07T13:27:14Z</time>
      </trkpt>
      <trkpt lat="43.42703" lon="6.05737">
        <ele>319</ele>
        <time>2013-12-07T13:27:16Z</time>
      </trkpt>
      <trkpt lat="43.42708" lon="6.05737">
        <ele>319</ele>
        <time>2013-12-07T13:27:19Z</time>
      </trkpt>
      <trkpt lat="43.42713" lon="6.05738">
        <ele>319</ele>
        <time>2013-12-07T13:27:22Z</time>
      </trkpt>
      <trkpt lat="43.42716" lon="6.05738">
        <ele>319</ele>
        <time>2013-12-07T13:27:24Z</time>
      </trkpt>
      <trkpt lat="43.42725" lon="6.05739">
        <ele>319</ele>
        <time>2013-12-07T13:27:29Z</time>
      </trkpt>
      <trkpt lat="43.4274" lon="6.0574">
        <ele>320.60000610352</ele>
        <time>2013-12-07T13:27:39Z</time>
      </trkpt>
      <trkpt lat="43.42743" lon="6.0574">
        <ele>321</ele>
        <time>2013-12-07T13:27:41Z</time>
      </trkpt>
      <trkpt lat="43.42751" lon="6.05742">
        <ele>321</ele>
        <time>2013-12-07T13:27:47Z</time>
      </trkpt>
      <trkpt lat="43.42757" lon="6.05734">
        <ele>321</ele>
        <time>2013-12-07T13:27:52Z</time>
      </trkpt>
      <trkpt lat="43.42764" lon="6.05729">
        <ele>321</ele>
        <time>2013-12-07T13:27:56Z</time>
      </trkpt>
      <trkpt lat="43.42768" lon="6.05728">
        <ele>321</ele>
        <time>2013-12-07T13:27:58Z</time>
      </trkpt>
      <trkpt lat="43.42782" lon="6.05733">
        <ele>321</ele>
        <time>2013-12-07T13:28:07Z</time>
      </trkpt>
      <trkpt lat="43.42783" lon="6.05733">
        <ele>321</ele>
        <time>2013-12-07T13:28:08Z</time>
      </trkpt>
      <trkpt lat="43.42788" lon="6.05739">
        <ele>321</ele>
        <time>2013-12-07T13:28:13Z</time>
      </trkpt>
      <trkpt lat="43.42792" lon="6.05743">
        <ele>321.79998779297</ele>
        <time>2013-12-07T13:28:16Z</time>
      </trkpt>
      <trkpt lat="43.42797" lon="6.05742">
        <ele>322.60000610352</ele>
        <time>2013-12-07T13:28:18Z</time>
      </trkpt>
      <trkpt lat="43.42799" lon="6.05743">
        <ele>323</ele>
        <time>2013-12-07T13:28:19Z</time>
      </trkpt>
      <trkpt lat="43.42802" lon="6.05742">
        <ele>323</ele>
        <time>2013-12-07T13:28:21Z</time>
      </trkpt>
      <trkpt lat="43.42804" lon="6.05741">
        <ele>323</ele>
        <time>2013-12-07T13:28:22Z</time>
      </trkpt>
      <trkpt lat="43.42816" lon="6.05736">
        <ele>323</ele>
        <time>2013-12-07T13:28:27Z</time>
      </trkpt>
      <trkpt lat="43.42825" lon="6.05734">
        <ele>323</ele>
        <time>2013-12-07T13:28:32Z</time>
      </trkpt>
      <trkpt lat="43.42827" lon="6.05733">
        <ele>323</ele>
        <time>2013-12-07T13:28:33Z</time>
      </trkpt>
      <trkpt lat="43.4283" lon="6.05732">
        <ele>323</ele>
        <time>2013-12-07T13:28:36Z</time>
      </trkpt>
      <trkpt lat="43.4283" lon="6.05732">
        <ele>323</ele>
        <time>2013-12-07T13:28:37Z</time>
      </trkpt>
      <trkpt lat="43.4283" lon="6.05732">
        <ele>323</ele>
        <time>2013-12-07T13:28:42Z</time>
      </trkpt>
      <trkpt lat="43.4283" lon="6.05732">
        <ele>323</ele>
        <time>2013-12-07T13:28:55Z</time>
      </trkpt>
      <trkpt lat="43.4283" lon="6.05732">
        <ele>323</ele>
        <time>2013-12-07T13:29:17Z</time>
      </trkpt>
      <trkpt lat="43.42831" lon="6.0573">
        <ele>323</ele>
        <time>2013-12-07T13:29:23Z</time>
      </trkpt>
      <trkpt lat="43.42833" lon="6.05728">
        <ele>323</ele>
        <time>2013-12-07T13:29:25Z</time>
      </trkpt>
      <trkpt lat="43.42837" lon="6.05724">
        <ele>323</ele>
        <time>2013-12-07T13:29:28Z</time>
      </trkpt>
      <trkpt lat="43.42841" lon="6.05709">
        <ele>323</ele>
        <time>2013-12-07T13:29:34Z</time>
      </trkpt>
      <trkpt lat="43.42846" lon="6.0567">
        <ele>323</ele>
        <time>2013-12-07T13:29:48Z</time>
      </trkpt>
      <trkpt lat="43.42849" lon="6.05642">
        <ele>323</ele>
        <time>2013-12-07T13:29:55Z</time>
      </trkpt>
      <trkpt lat="43.42853" lon="6.05605">
        <ele>323</ele>
        <time>2013-12-07T13:30:03Z</time>
      </trkpt>
      <trkpt lat="43.42857" lon="6.05568">
        <ele>323</ele>
        <time>2013-12-07T13:30:11Z</time>
      </trkpt>
      <trkpt lat="43.4286" lon="6.05546">
        <ele>323</ele>
        <time>2013-12-07T13:30:16Z</time>
      </trkpt>
      <trkpt lat="43.42863" lon="6.05533">
        <ele>323</ele>
        <time>2013-12-07T13:30:19Z</time>
      </trkpt>
      <trkpt lat="43.42866" lon="6.0551">
        <ele>323</ele>
        <time>2013-12-07T13:30:25Z</time>
      </trkpt>
      <trkpt lat="43.42866" lon="6.05506">
        <ele>323</ele>
        <time>2013-12-07T13:30:26Z</time>
      </trkpt>
      <trkpt lat="43.4287" lon="6.05473">
        <ele>323</ele>
        <time>2013-12-07T13:30:34Z</time>
      </trkpt>
      <trkpt lat="43.42877" lon="6.05414">
        <ele>323</ele>
        <time>2013-12-07T13:30:48Z</time>
      </trkpt>
      <trkpt lat="43.42879" lon="6.05396">
        <ele>323</ele>
        <time>2013-12-07T13:30:52Z</time>
      </trkpt>
      <trkpt lat="43.42881" lon="6.05383">
        <ele>323</ele>
        <time>2013-12-07T13:30:55Z</time>
      </trkpt>
      <trkpt lat="43.42881" lon="6.05366">
        <ele>323</ele>
        <time>2013-12-07T13:30:59Z</time>
      </trkpt>
      <trkpt lat="43.42884" lon="6.05341">
        <ele>324.39999389648</ele>
        <time>2013-12-07T13:31:05Z</time>
      </trkpt>
      <trkpt lat="43.42885" lon="6.05333">
        <ele>325.20001220703</ele>
        <time>2013-12-07T13:31:07Z</time>
      </trkpt>
      <trkpt lat="43.42887" lon="6.05317">
        <ele>325.20001220703</ele>
        <time>2013-12-07T13:31:11Z</time>
      </trkpt>
      <trkpt lat="43.4289" lon="6.05296">
        <ele>325.20001220703</ele>
        <time>2013-12-07T13:31:18Z</time>
      </trkpt>
      <trkpt lat="43.42891" lon="6.05286">
        <ele>326.39999389648</ele>
        <time>2013-12-07T13:31:21Z</time>
      </trkpt>
      <trkpt lat="43.42891" lon="6.05279">
        <ele>327.20001220703</ele>
        <time>2013-12-07T13:31:23Z</time>
      </trkpt>
      <trkpt lat="43.42892" lon="6.05271">
        <ele>327.20001220703</ele>
        <time>2013-12-07T13:31:25Z</time>
      </trkpt>
      <trkpt lat="43.42897" lon="6.05244">
        <ele>327.20001220703</ele>
        <time>2013-12-07T13:31:32Z</time>
      </trkpt>
      <trkpt lat="43.429" lon="6.05219">
        <ele>327.20001220703</ele>
        <time>2013-12-07T13:31:38Z</time>
      </trkpt>
      <trkpt lat="43.42904" lon="6.05192">
        <ele>327.20001220703</ele>
        <time>2013-12-07T13:31:45Z</time>
      </trkpt>
      <trkpt lat="43.42906" lon="6.05171">
        <ele>327.20001220703</ele>
        <time>2013-12-07T13:31:50Z</time>
      </trkpt>
      <trkpt lat="43.4291" lon="6.05141">
        <ele>326.39999389648</ele>
        <time>2013-12-07T13:31:56Z</time>
      </trkpt>
      <trkpt lat="43.42912" lon="6.0513">
        <ele>325.20001220703</ele>
        <time>2013-12-07T13:31:58Z</time>
      </trkpt>
      <trkpt lat="43.42914" lon="6.05114">
        <ele>325.20001220703</ele>
        <time>2013-12-07T13:32:01Z</time>
      </trkpt>
      <trkpt lat="43.42915" lon="6.05103">
        <ele>325.20001220703</ele>
        <time>2013-12-07T13:32:03Z</time>
      </trkpt>
      <trkpt lat="43.42916" lon="6.05092">
        <ele>325.20001220703</ele>
        <time>2013-12-07T13:32:05Z</time>
      </trkpt>
      <trkpt lat="43.42923" lon="6.05037">
        <ele>323.20001220703</ele>
        <time>2013-12-07T13:32:16Z</time>
      </trkpt>
      <trkpt lat="43.42926" lon="6.05004">
        <ele>323.20001220703</ele>
        <time>2013-12-07T13:32:23Z</time>
      </trkpt>
      <trkpt lat="43.42929" lon="6.04973">
        <ele>322.39999389648</ele>
        <time>2013-12-07T13:32:29Z</time>
      </trkpt>
      <trkpt lat="43.42931" lon="6.04958">
        <ele>321</ele>
        <time>2013-12-07T13:32:32Z</time>
      </trkpt>
      <trkpt lat="43.42935" lon="6.04926">
        <ele>321</ele>
        <time>2013-12-07T13:32:39Z</time>
      </trkpt>
      <trkpt lat="43.42935" lon="6.04907">
        <ele>321</ele>
        <time>2013-12-07T13:32:44Z</time>
      </trkpt>
      <trkpt lat="43.42935" lon="6.04895">
        <ele>319.79998779297</ele>
        <time>2013-12-07T13:32:47Z</time>
      </trkpt>
      <trkpt lat="43.42936" lon="6.0489">
        <ele>319.39999389648</ele>
        <time>2013-12-07T13:32:48Z</time>
      </trkpt>
      <trkpt lat="43.42937" lon="6.04886">
        <ele>319</ele>
        <time>2013-12-07T13:32:49Z</time>
      </trkpt>
      <trkpt lat="43.42939" lon="6.04882">
        <ele>318.60000610352</ele>
        <time>2013-12-07T13:32:50Z</time>
      </trkpt>
      <trkpt lat="43.42941" lon="6.04879">
        <ele>318.20001220703</ele>
        <time>2013-12-07T13:32:51Z</time>
      </trkpt>
      <trkpt lat="43.42943" lon="6.04878">
        <ele>317.79998779297</ele>
        <time>2013-12-07T13:32:52Z</time>
      </trkpt>
      <trkpt lat="43.42944" lon="6.04876">
        <ele>317.39999389648</ele>
        <time>2013-12-07T13:32:53Z</time>
      </trkpt>
      <trkpt lat="43.42948" lon="6.04871">
        <ele>316.60000610352</ele>
        <time>2013-12-07T13:32:56Z</time>
      </trkpt>
      <trkpt lat="43.42959" lon="6.04861">
        <ele>314.79998779297</ele>
        <time>2013-12-07T13:33:00Z</time>
      </trkpt>
      <trkpt lat="43.42968" lon="6.0485">
        <ele>314</ele>
        <time>2013-12-07T13:33:03Z</time>
      </trkpt>
      <trkpt lat="43.42971" lon="6.04846">
        <ele>313.39999389648</ele>
        <time>2013-12-07T13:33:04Z</time>
      </trkpt>
      <trkpt lat="43.42974" lon="6.04842">
        <ele>312.79998779297</ele>
        <time>2013-12-07T13:33:05Z</time>
      </trkpt>
      <trkpt lat="43.42978" lon="6.04838">
        <ele>312</ele>
        <time>2013-12-07T13:33:06Z</time>
      </trkpt>
      <trkpt lat="43.4298" lon="6.04835">
        <ele>311.39999389648</ele>
        <time>2013-12-07T13:33:07Z</time>
      </trkpt>
      <trkpt lat="43.42984" lon="6.04831">
        <ele>310.60000610352</ele>
        <time>2013-12-07T13:33:08Z</time>
      </trkpt>
      <trkpt lat="43.42986" lon="6.04826">
        <ele>309.79998779297</ele>
        <time>2013-12-07T13:33:09Z</time>
      </trkpt>
      <trkpt lat="43.42987" lon="6.04821">
        <ele>309</ele>
        <time>2013-12-07T13:33:10Z</time>
      </trkpt>
      <trkpt lat="43.42989" lon="6.04815">
        <ele>307.60000610352</ele>
        <time>2013-12-07T13:33:11Z</time>
      </trkpt>
      <trkpt lat="43.4299" lon="6.04811">
        <ele>307</ele>
        <time>2013-12-07T13:33:12Z</time>
      </trkpt>
      <trkpt lat="43.42992" lon="6.04807">
        <ele>306.39999389648</ele>
        <time>2013-12-07T13:33:13Z</time>
      </trkpt>
      <trkpt lat="43.42995" lon="6.04805">
        <ele>305.79998779297</ele>
        <time>2013-12-07T13:33:14Z</time>
      </trkpt>
      <trkpt lat="43.42997" lon="6.04802">
        <ele>305.20001220703</ele>
        <time>2013-12-07T13:33:15Z</time>
      </trkpt>
      <trkpt lat="43.42999" lon="6.04798">
        <ele>305.20001220703</ele>
        <time>2013-12-07T13:33:16Z</time>
      </trkpt>
      <trkpt lat="43.43005" lon="6.04792">
        <ele>305.20001220703</ele>
        <time>2013-12-07T13:33:19Z</time>
      </trkpt>
      <trkpt lat="43.43007" lon="6.0479">
        <ele>305.20001220703</ele>
        <time>2013-12-07T13:33:20Z</time>
      </trkpt>
      <trkpt lat="43.43011" lon="6.04787">
        <ele>304.20001220703</ele>
        <time>2013-12-07T13:33:22Z</time>
      </trkpt>
      <trkpt lat="43.43016" lon="6.04784">
        <ele>303.20001220703</ele>
        <time>2013-12-07T13:33:24Z</time>
      </trkpt>
      <trkpt lat="43.4302" lon="6.04781">
        <ele>302.60000610352</ele>
        <time>2013-12-07T13:33:25Z</time>
      </trkpt>
      <trkpt lat="43.43029" lon="6.04776">
        <ele>301.20001220703</ele>
        <time>2013-12-07T13:33:27Z</time>
      </trkpt>
      <trkpt lat="43.43031" lon="6.04774">
        <ele>300.39999389648</ele>
        <time>2013-12-07T13:33:28Z</time>
      </trkpt>
      <trkpt lat="43.43031" lon="6.04774">
        <ele>299.60000610352</ele>
        <time>2013-12-07T13:33:29Z</time>
      </trkpt>
      <trkpt lat="43.43031" lon="6.04774">
        <ele>298.79998779297</ele>
        <time>2013-12-07T13:33:30Z</time>
      </trkpt>
      <trkpt lat="43.43031" lon="6.04774">
        <ele>296.39999389648</ele>
        <time>2013-12-07T13:33:35Z</time>
      </trkpt>
      <trkpt lat="43.43031" lon="6.04774">
        <ele>296</ele>
        <time>2013-12-07T13:33:36Z</time>
      </trkpt>
      <trkpt lat="43.43031" lon="6.04774">
        <ele>296</ele>
        <time>2013-12-07T13:33:57Z</time>
      </trkpt>
      <trkpt lat="43.43031" lon="6.04774">
        <ele>296</ele>
        <time>2013-12-07T13:34:07Z</time>
      </trkpt>
      <trkpt lat="43.43032" lon="6.04773">
        <ele>296</ele>
        <time>2013-12-07T13:34:16Z</time>
      </trkpt>
      <trkpt lat="43.43032" lon="6.04772">
        <ele>296</ele>
        <time>2013-12-07T13:34:19Z</time>
      </trkpt>
      <trkpt lat="43.43034" lon="6.04766">
        <ele>296</ele>
        <time>2013-12-07T13:34:22Z</time>
      </trkpt>
      <trkpt lat="43.43039" lon="6.04756">
        <ele>296</ele>
        <time>2013-12-07T13:34:26Z</time>
      </trkpt>
      <trkpt lat="43.4304" lon="6.04753">
        <ele>296</ele>
        <time>2013-12-07T13:34:27Z</time>
      </trkpt>
      <trkpt lat="43.43045" lon="6.04746">
        <ele>296</ele>
        <time>2013-12-07T13:34:30Z</time>
      </trkpt>
      <trkpt lat="43.43049" lon="6.04738">
        <ele>296</ele>
        <time>2013-12-07T13:34:33Z</time>
      </trkpt>
      <trkpt lat="43.43053" lon="6.0473">
        <ele>296.79998779297</ele>
        <time>2013-12-07T13:34:36Z</time>
      </trkpt>
      <trkpt lat="43.43055" lon="6.04725">
        <ele>297.79998779297</ele>
        <time>2013-12-07T13:34:38Z</time>
      </trkpt>
      <trkpt lat="43.43062" lon="6.04709">
        <ele>298.20001220703</ele>
        <time>2013-12-07T13:34:44Z</time>
      </trkpt>
      <trkpt lat="43.43063" lon="6.04702">
        <ele>298.60000610352</ele>
        <time>2013-12-07T13:34:47Z</time>
      </trkpt>
      <trkpt lat="43.43062" lon="6.04697">
        <ele>299.79998779297</ele>
        <time>2013-12-07T13:34:49Z</time>
      </trkpt>
      <trkpt lat="43.43061" lon="6.04695">
        <ele>300.20001220703</ele>
        <time>2013-12-07T13:34:50Z</time>
      </trkpt>
      <trkpt lat="43.43057" lon="6.04679">
        <ele>300.20001220703</ele>
        <time>2013-12-07T13:34:56Z</time>
      </trkpt>
      <trkpt lat="43.43054" lon="6.04658">
        <ele>300.20001220703</ele>
        <time>2013-12-07T13:35:03Z</time>
      </trkpt>
      <trkpt lat="43.4305" lon="6.04638">
        <ele>300.20001220703</ele>
        <time>2013-12-07T13:35:09Z</time>
      </trkpt>
      <trkpt lat="43.43047" lon="6.04617">
        <ele>301</ele>
        <time>2013-12-07T13:35:16Z</time>
      </trkpt>
      <trkpt lat="43.43046" lon="6.04608">
        <ele>302.20001220703</ele>
        <time>2013-12-07T13:35:19Z</time>
      </trkpt>
      <trkpt lat="43.43045" lon="6.0458">
        <ele>302.20001220703</ele>
        <time>2013-12-07T13:35:27Z</time>
      </trkpt>
      <trkpt lat="43.43048" lon="6.0456">
        <ele>302.20001220703</ele>
        <time>2013-12-07T13:35:33Z</time>
      </trkpt>
      <trkpt lat="43.43052" lon="6.04542">
        <ele>302.20001220703</ele>
        <time>2013-12-07T13:35:39Z</time>
      </trkpt>
      <trkpt lat="43.43059" lon="6.04505">
        <ele>304.39999389648</ele>
        <time>2013-12-07T13:35:51Z</time>
      </trkpt>
      <trkpt lat="43.43061" lon="6.04491">
        <ele>304.39999389648</ele>
        <time>2013-12-07T13:35:55Z</time>
      </trkpt>
      <trkpt lat="43.43068" lon="6.04458">
        <ele>304.39999389648</ele>
        <time>2013-12-07T13:36:06Z</time>
      </trkpt>
      <trkpt lat="43.43076" lon="6.04433">
        <ele>305.79998779297</ele>
        <time>2013-12-07T13:36:15Z</time>
      </trkpt>
      <trkpt lat="43.43079" lon="6.04421">
        <ele>306.60000610352</ele>
        <time>2013-12-07T13:36:19Z</time>
      </trkpt>
      <trkpt lat="43.4308" lon="6.04405">
        <ele>306.60000610352</ele>
        <time>2013-12-07T13:36:24Z</time>
      </trkpt>
      <trkpt lat="43.43087" lon="6.04389">
        <ele>306.60000610352</ele>
        <time>2013-12-07T13:36:29Z</time>
      </trkpt>
      <trkpt lat="43.43093" lon="6.04381">
        <ele>307</ele>
        <time>2013-12-07T13:36:33Z</time>
      </trkpt>
      <trkpt lat="43.43096" lon="6.04377">
        <ele>307.79998779297</ele>
        <time>2013-12-07T13:36:35Z</time>
      </trkpt>
      <trkpt lat="43.431" lon="6.04372">
        <ele>308.60000610352</ele>
        <time>2013-12-07T13:36:38Z</time>
      </trkpt>
      <trkpt lat="43.43101" lon="6.04362">
        <ele>308.60000610352</ele>
        <time>2013-12-07T13:36:42Z</time>
      </trkpt>
      <trkpt lat="43.43105" lon="6.04339">
        <ele>309.60000610352</ele>
        <time>2013-12-07T13:36:51Z</time>
      </trkpt>
      <trkpt lat="43.43105" lon="6.04336">
        <ele>310</ele>
        <time>2013-12-07T13:36:52Z</time>
      </trkpt>
      <trkpt lat="43.43105" lon="6.04332">
        <ele>310.79998779297</ele>
        <time>2013-12-07T13:36:54Z</time>
      </trkpt>
      <trkpt lat="43.43104" lon="6.04314">
        <ele>310.79998779297</ele>
        <time>2013-12-07T13:37:01Z</time>
      </trkpt>
      <trkpt lat="43.43101" lon="6.04299">
        <ele>310.79998779297</ele>
        <time>2013-12-07T13:37:07Z</time>
      </trkpt>
      <trkpt lat="43.43099" lon="6.0429">
        <ele>311.20001220703</ele>
        <time>2013-12-07T13:37:10Z</time>
      </trkpt>
      <trkpt lat="43.43097" lon="6.04278">
        <ele>313</ele>
        <time>2013-12-07T13:37:14Z</time>
      </trkpt>
      <trkpt lat="43.43094" lon="6.04261">
        <ele>313</ele>
        <time>2013-12-07T13:37:20Z</time>
      </trkpt>
      <trkpt lat="43.43088" lon="6.0424">
        <ele>313</ele>
        <time>2013-12-07T13:37:26Z</time>
      </trkpt>
      <trkpt lat="43.43081" lon="6.04223">
        <ele>313</ele>
        <time>2013-12-07T13:37:32Z</time>
      </trkpt>
      <trkpt lat="43.43074" lon="6.04207">
        <ele>313</ele>
        <time>2013-12-07T13:37:38Z</time>
      </trkpt>
      <trkpt lat="43.43076" lon="6.04189">
        <ele>313.79998779297</ele>
        <time>2013-12-07T13:37:44Z</time>
      </trkpt>
      <trkpt lat="43.43079" lon="6.04169">
        <ele>315</ele>
        <time>2013-12-07T13:37:51Z</time>
      </trkpt>
      <trkpt lat="43.43076" lon="6.04149">
        <ele>315</ele>
        <time>2013-12-07T13:37:58Z</time>
      </trkpt>
      <trkpt lat="43.43078" lon="6.04133">
        <ele>315</ele>
        <time>2013-12-07T13:38:04Z</time>
      </trkpt>
      <trkpt lat="43.43083" lon="6.04114">
        <ele>315</ele>
        <time>2013-12-07T13:38:11Z</time>
      </trkpt>
      <trkpt lat="43.43085" lon="6.04095">
        <ele>315.39999389648</ele>
        <time>2013-12-07T13:38:17Z</time>
      </trkpt>
      <trkpt lat="43.43084" lon="6.04086">
        <ele>316.60000610352</ele>
        <time>2013-12-07T13:38:20Z</time>
      </trkpt>
      <trkpt lat="43.43083" lon="6.0406">
        <ele>317</ele>
        <time>2013-12-07T13:38:33Z</time>
      </trkpt>
      <trkpt lat="43.43085" lon="6.0406">
        <ele>317</ele>
        <time>2013-12-07T13:38:35Z</time>
      </trkpt>
      <trkpt lat="43.43101" lon="6.04062">
        <ele>317</ele>
        <time>2013-12-07T13:38:46Z</time>
      </trkpt>
      <trkpt lat="43.43103" lon="6.04063">
        <ele>317.39999389648</ele>
        <time>2013-12-07T13:38:47Z</time>
      </trkpt>
      <trkpt lat="43.43105" lon="6.04063">
        <ele>317.79998779297</ele>
        <time>2013-12-07T13:38:48Z</time>
      </trkpt>
      <trkpt lat="43.4311" lon="6.04064">
        <ele>319</ele>
        <time>2013-12-07T13:38:51Z</time>
      </trkpt>
      <trkpt lat="43.43115" lon="6.04068">
        <ele>319.79998779297</ele>
        <time>2013-12-07T13:38:55Z</time>
      </trkpt>
      <trkpt lat="43.43118" lon="6.04069">
        <ele>321.20001220703</ele>
        <time>2013-12-07T13:38:57Z</time>
      </trkpt>
      <trkpt lat="43.43119" lon="6.04068">
        <ele>321.60000610352</ele>
        <time>2013-12-07T13:38:59Z</time>
      </trkpt>
      <trkpt lat="43.43124" lon="6.04067">
        <ele>323.39999389648</ele>
        <time>2013-12-07T13:39:03Z</time>
      </trkpt>
      <trkpt lat="43.43129" lon="6.04064">
        <ele>323.39999389648</ele>
        <time>2013-12-07T13:39:07Z</time>
      </trkpt>
      <trkpt lat="43.43132" lon="6.04063">
        <ele>324.20001220703</ele>
        <time>2013-12-07T13:39:10Z</time>
      </trkpt>
      <trkpt lat="43.43134" lon="6.04063">
        <ele>324.60000610352</ele>
        <time>2013-12-07T13:39:11Z</time>
      </trkpt>
      <trkpt lat="43.43135" lon="6.04063">
        <ele>325</ele>
        <time>2013-12-07T13:39:12Z</time>
      </trkpt>
      <trkpt lat="43.43135" lon="6.04062">
        <ele>325.39999389648</ele>
        <time>2013-12-07T13:39:13Z</time>
      </trkpt>
      <trkpt lat="43.43135" lon="6.04063">
        <ele>325.39999389648</ele>
        <time>2013-12-07T13:39:14Z</time>
      </trkpt>
      <trkpt lat="43.43135" lon="6.04063">
        <ele>325.39999389648</ele>
        <time>2013-12-07T13:39:17Z</time>
      </trkpt>
      <trkpt lat="43.43135" lon="6.04063">
        <ele>325.39999389648</ele>
        <time>2013-12-07T13:39:21Z</time>
      </trkpt>
      <trkpt lat="43.43135" lon="6.04065">
        <ele>325.39999389648</ele>
        <time>2013-12-07T13:39:26Z</time>
      </trkpt>
      <trkpt lat="43.43135" lon="6.04065">
        <ele>325.39999389648</ele>
        <time>2013-12-07T13:39:42Z</time>
      </trkpt>
      <trkpt lat="43.43135" lon="6.04065">
        <ele>325.39999389648</ele>
        <time>2013-12-07T13:40:07Z</time>
      </trkpt>
      <trkpt lat="43.43135" lon="6.04065">
        <ele>325.39999389648</ele>
        <time>2013-12-07T13:40:22Z</time>
      </trkpt>
      <trkpt lat="43.43135" lon="6.04065">
        <ele>325.39999389648</ele>
        <time>2013-12-07T13:40:42Z</time>
      </trkpt>
      <trkpt lat="43.43135" lon="6.04064">
        <ele>325.39999389648</ele>
        <time>2013-12-07T13:40:47Z</time>
      </trkpt>
      <trkpt lat="43.43136" lon="6.04063">
        <ele>325.39999389648</ele>
        <time>2013-12-07T13:40:53Z</time>
      </trkpt>
      <trkpt lat="43.43139" lon="6.0406">
        <ele>325.39999389648</ele>
        <time>2013-12-07T13:40:56Z</time>
      </trkpt>
      <trkpt lat="43.43145" lon="6.04052">
        <ele>325.39999389648</ele>
        <time>2013-12-07T13:41:02Z</time>
      </trkpt>
      <trkpt lat="43.43147" lon="6.04049">
        <ele>325.39999389648</ele>
        <time>2013-12-07T13:41:04Z</time>
      </trkpt>
      <trkpt lat="43.43149" lon="6.04042">
        <ele>325.39999389648</ele>
        <time>2013-12-07T13:41:07Z</time>
      </trkpt>
      <trkpt lat="43.4315" lon="6.04036">
        <ele>325.39999389648</ele>
        <time>2013-12-07T13:41:10Z</time>
      </trkpt>
      <trkpt lat="43.43154" lon="6.04023">
        <ele>325.39999389648</ele>
        <time>2013-12-07T13:41:16Z</time>
      </trkpt>
      <trkpt lat="43.43155" lon="6.04019">
        <ele>325.39999389648</ele>
        <time>2013-12-07T13:41:21Z</time>
      </trkpt>
      <trkpt lat="43.43155" lon="6.04019">
        <ele>325.39999389648</ele>
        <time>2013-12-07T13:41:44Z</time>
      </trkpt>
      <trkpt lat="43.43155" lon="6.04019">
        <ele>325.39999389648</ele>
        <time>2013-12-07T13:42:07Z</time>
      </trkpt>
      <trkpt lat="43.43155" lon="6.04019">
        <ele>325.39999389648</ele>
        <time>2013-12-07T13:42:09Z</time>
      </trkpt>
      <trkpt lat="43.43156" lon="6.04014">
        <ele>325.39999389648</ele>
        <time>2013-12-07T13:42:12Z</time>
      </trkpt>
      <trkpt lat="43.4316" lon="6.04">
        <ele>325.39999389648</ele>
        <time>2013-12-07T13:42:17Z</time>
      </trkpt>
      <trkpt lat="43.43166" lon="6.03976">
        <ele>325.39999389648</ele>
        <time>2013-12-07T13:42:23Z</time>
      </trkpt>
      <trkpt lat="43.43171" lon="6.03953">
        <ele>325.39999389648</ele>
        <time>2013-12-07T13:42:28Z</time>
      </trkpt>
      <trkpt lat="43.43172" lon="6.03936">
        <ele>325.39999389648</ele>
        <time>2013-12-07T13:42:31Z</time>
      </trkpt>
      <trkpt lat="43.43174" lon="6.03921">
        <ele>325.39999389648</ele>
        <time>2013-12-07T13:42:34Z</time>
      </trkpt>
      <trkpt lat="43.43176" lon="6.03914">
        <ele>325.39999389648</ele>
        <time>2013-12-07T13:42:36Z</time>
      </trkpt>
      <trkpt lat="43.43179" lon="6.03907">
        <ele>325.39999389648</ele>
        <time>2013-12-07T13:42:38Z</time>
      </trkpt>
      <trkpt lat="43.43183" lon="6.039">
        <ele>325.39999389648</ele>
        <time>2013-12-07T13:42:41Z</time>
      </trkpt>
      <trkpt lat="43.43188" lon="6.03892">
        <ele>325.79998779297</ele>
        <time>2013-12-07T13:42:44Z</time>
      </trkpt>
      <trkpt lat="43.4319" lon="6.03883">
        <ele>327.20001220703</ele>
        <time>2013-12-07T13:42:47Z</time>
      </trkpt>
      <trkpt lat="43.43193" lon="6.03871">
        <ele>327.60000610352</ele>
        <time>2013-12-07T13:42:52Z</time>
      </trkpt>
      <trkpt lat="43.43193" lon="6.03866">
        <ele>327.60000610352</ele>
        <time>2013-12-07T13:42:54Z</time>
      </trkpt>
      <trkpt lat="43.43198" lon="6.03853">
        <ele>328</ele>
        <time>2013-12-07T13:43:00Z</time>
      </trkpt>
      <trkpt lat="43.43199" lon="6.03851">
        <ele>328.39999389648</ele>
        <time>2013-12-07T13:43:01Z</time>
      </trkpt>
      <trkpt lat="43.43204" lon="6.03846">
        <ele>329.79998779297</ele>
        <time>2013-12-07T13:43:05Z</time>
      </trkpt>
      <trkpt lat="43.43215" lon="6.03842">
        <ele>329.79998779297</ele>
        <time>2013-12-07T13:43:11Z</time>
      </trkpt>
      <trkpt lat="43.43226" lon="6.03837">
        <ele>329.79998779297</ele>
        <time>2013-12-07T13:43:17Z</time>
      </trkpt>
      <trkpt lat="43.43238" lon="6.03833">
        <ele>329.79998779297</ele>
        <time>2013-12-07T13:43:23Z</time>
      </trkpt>
      <trkpt lat="43.43251" lon="6.03834">
        <ele>329.79998779297</ele>
        <time>2013-12-07T13:43:28Z</time>
      </trkpt>
      <trkpt lat="43.43257" lon="6.03837">
        <ele>329.39999389648</ele>
        <time>2013-12-07T13:43:30Z</time>
      </trkpt>
      <trkpt lat="43.4326" lon="6.03839">
        <ele>329</ele>
        <time>2013-12-07T13:43:31Z</time>
      </trkpt>
      <trkpt lat="43.43263" lon="6.03842">
        <ele>328.60000610352</ele>
        <time>2013-12-07T13:43:32Z</time>
      </trkpt>
      <trkpt lat="43.43266" lon="6.03845">
        <ele>328.20001220703</ele>
        <time>2013-12-07T13:43:33Z</time>
      </trkpt>
      <trkpt lat="43.4327" lon="6.03848">
        <ele>327.60000610352</ele>
        <time>2013-12-07T13:43:34Z</time>
      </trkpt>
      <trkpt lat="43.43272" lon="6.03851">
        <ele>327</ele>
        <time>2013-12-07T13:43:35Z</time>
      </trkpt>
      <trkpt lat="43.43275" lon="6.03855">
        <ele>326.39999389648</ele>
        <time>2013-12-07T13:43:36Z</time>
      </trkpt>
      <trkpt lat="43.43277" lon="6.03859">
        <ele>325.79998779297</ele>
        <time>2013-12-07T13:43:37Z</time>
      </trkpt>
      <trkpt lat="43.43278" lon="6.03863">
        <ele>325.20001220703</ele>
        <time>2013-12-07T13:43:38Z</time>
      </trkpt>
      <trkpt lat="43.43282" lon="6.03873">
        <ele>324.79998779297</ele>
        <time>2013-12-07T13:43:42Z</time>
      </trkpt>
      <trkpt lat="43.43282" lon="6.03875">
        <ele>324.39999389648</ele>
        <time>2013-12-07T13:43:43Z</time>
      </trkpt>
      <trkpt lat="43.43283" lon="6.03877">
        <ele>323.39999389648</ele>
        <time>2013-12-07T13:43:45Z</time>
      </trkpt>
      <trkpt lat="43.43284" lon="6.03878">
        <ele>323</ele>
        <time>2013-12-07T13:43:46Z</time>
      </trkpt>
      <trkpt lat="43.43285" lon="6.03879">
        <ele>323</ele>
        <time>2013-12-07T13:43:48Z</time>
      </trkpt>
      <trkpt lat="43.43285" lon="6.03879">
        <ele>323</ele>
        <time>2013-12-07T13:43:55Z</time>
      </trkpt>
      <trkpt lat="43.43285" lon="6.03881">
        <ele>323</ele>
        <time>2013-12-07T13:43:57Z</time>
      </trkpt>
      <trkpt lat="43.43286" lon="6.03883">
        <ele>323</ele>
        <time>2013-12-07T13:44:00Z</time>
      </trkpt>
      <trkpt lat="43.43286" lon="6.03883">
        <ele>323</ele>
        <time>2013-12-07T13:44:07Z</time>
      </trkpt>
      <trkpt lat="43.43286" lon="6.03883">
        <ele>323</ele>
        <time>2013-12-07T13:44:14Z</time>
      </trkpt>
      <trkpt lat="43.43286" lon="6.03883">
        <ele>323</ele>
        <time>2013-12-07T13:44:16Z</time>
      </trkpt>
      <trkpt lat="43.43288" lon="6.03888">
        <ele>323</ele>
        <time>2013-12-07T13:44:18Z</time>
      </trkpt>
      <trkpt lat="43.43288" lon="6.03891">
        <ele>323</ele>
        <time>2013-12-07T13:44:19Z</time>
      </trkpt>
      <trkpt lat="43.43288" lon="6.03894">
        <ele>322.60000610352</ele>
        <time>2013-12-07T13:44:20Z</time>
      </trkpt>
      <trkpt lat="43.43287" lon="6.03899">
        <ele>322</ele>
        <time>2013-12-07T13:44:21Z</time>
      </trkpt>
      <trkpt lat="43.43286" lon="6.03911">
        <ele>320.60000610352</ele>
        <time>2013-12-07T13:44:24Z</time>
      </trkpt>
      <trkpt lat="43.43284" lon="6.0392">
        <ele>320.60000610352</ele>
        <time>2013-12-07T13:44:27Z</time>
      </trkpt>
      <trkpt lat="43.43284" lon="6.03926">
        <ele>320.20001220703</ele>
        <time>2013-12-07T13:44:29Z</time>
      </trkpt>
      <trkpt lat="43.43288" lon="6.03936">
        <ele>318.39999389648</ele>
        <time>2013-12-07T13:44:33Z</time>
      </trkpt>
      <trkpt lat="43.43287" lon="6.03941">
        <ele>317.60000610352</ele>
        <time>2013-12-07T13:44:35Z</time>
      </trkpt>
      <trkpt lat="43.43287" lon="6.03954">
        <ele>316.39999389648</ele>
        <time>2013-12-07T13:44:38Z</time>
      </trkpt>
      <trkpt lat="43.43288" lon="6.03959">
        <ele>316</ele>
        <time>2013-12-07T13:44:39Z</time>
      </trkpt>
      <trkpt lat="43.4329" lon="6.03966">
        <ele>315</ele>
        <time>2013-12-07T13:44:41Z</time>
      </trkpt>
      <trkpt lat="43.4329" lon="6.03969">
        <ele>314.60000610352</ele>
        <time>2013-12-07T13:44:42Z</time>
      </trkpt>
      <trkpt lat="43.4329" lon="6.03976">
        <ele>314.20001220703</ele>
        <time>2013-12-07T13:44:45Z</time>
      </trkpt>
      <trkpt lat="43.43289" lon="6.0398">
        <ele>314.20001220703</ele>
        <time>2013-12-07T13:44:48Z</time>
      </trkpt>
      <trkpt lat="43.4329" lon="6.03982">
        <ele>314.20001220703</ele>
        <time>2013-12-07T13:44:50Z</time>
      </trkpt>
      <trkpt lat="43.43291" lon="6.03986">
        <ele>314.20001220703</ele>
        <time>2013-12-07T13:44:52Z</time>
      </trkpt>
      <trkpt lat="43.43294" lon="6.03998">
        <ele>314.20001220703</ele>
        <time>2013-12-07T13:44:55Z</time>
      </trkpt>
      <trkpt lat="43.43294" lon="6.04001">
        <ele>314.20001220703</ele>
        <time>2013-12-07T13:44:56Z</time>
      </trkpt>
      <trkpt lat="43.43292" lon="6.04005">
        <ele>314.20001220703</ele>
        <time>2013-12-07T13:45:00Z</time>
      </trkpt>
      <trkpt lat="43.43292" lon="6.04005">
        <ele>314.20001220703</ele>
        <time>2013-12-07T13:45:10Z</time>
      </trkpt>
      <trkpt lat="43.43292" lon="6.04005">
        <ele>314.20001220703</ele>
        <time>2013-12-07T13:45:20Z</time>
      </trkpt>
      <trkpt lat="43.43291" lon="6.04007">
        <ele>314.20001220703</ele>
        <time>2013-12-07T13:45:28Z</time>
      </trkpt>
      <trkpt lat="43.43291" lon="6.04007">
        <ele>314.20001220703</ele>
        <time>2013-12-07T13:45:38Z</time>
      </trkpt>
      <trkpt lat="43.43291" lon="6.04007">
        <ele>314.20001220703</ele>
        <time>2013-12-07T13:45:40Z</time>
      </trkpt>
      <trkpt lat="43.43294" lon="6.04015">
        <ele>313.79998779297</ele>
        <time>2013-12-07T13:45:43Z</time>
      </trkpt>
      <trkpt lat="43.43295" lon="6.04019">
        <ele>313.39999389648</ele>
        <time>2013-12-07T13:45:44Z</time>
      </trkpt>
      <trkpt lat="43.43295" lon="6.04023">
        <ele>313</ele>
        <time>2013-12-07T13:45:45Z</time>
      </trkpt>
      <trkpt lat="43.43296" lon="6.04026">
        <ele>312.39999389648</ele>
        <time>2013-12-07T13:45:46Z</time>
      </trkpt>
      <trkpt lat="43.43296" lon="6.04028">
        <ele>312</ele>
        <time>2013-12-07T13:45:47Z</time>
      </trkpt>
      <trkpt lat="43.43296" lon="6.0403">
        <ele>312</ele>
        <time>2013-12-07T13:45:48Z</time>
      </trkpt>
      <trkpt lat="43.43296" lon="6.04031">
        <ele>312</ele>
        <time>2013-12-07T13:45:53Z</time>
      </trkpt>
      <trkpt lat="43.43296" lon="6.04031">
        <ele>312</ele>
        <time>2013-12-07T13:45:57Z</time>
      </trkpt>
      <trkpt lat="43.43296" lon="6.04034">
        <ele>312</ele>
        <time>2013-12-07T13:46:04Z</time>
      </trkpt>
      <trkpt lat="43.43297" lon="6.04042">
        <ele>311.60000610352</ele>
        <time>2013-12-07T13:46:07Z</time>
      </trkpt>
      <trkpt lat="43.43297" lon="6.04043">
        <ele>310.60000610352</ele>
        <time>2013-12-07T13:46:09Z</time>
      </trkpt>
      <trkpt lat="43.43298" lon="6.04045">
        <ele>310.20001220703</ele>
        <time>2013-12-07T13:46:10Z</time>
      </trkpt>
      <trkpt lat="43.43298" lon="6.04047">
        <ele>309.79998779297</ele>
        <time>2013-12-07T13:46:11Z</time>
      </trkpt>
      <trkpt lat="43.43298" lon="6.04051">
        <ele>309.79998779297</ele>
        <time>2013-12-07T13:46:13Z</time>
      </trkpt>
      <trkpt lat="43.43298" lon="6.04052">
        <ele>309.79998779297</ele>
        <time>2013-12-07T13:46:14Z</time>
      </trkpt>
      <trkpt lat="43.43298" lon="6.04053">
        <ele>309.39999389648</ele>
        <time>2013-12-07T13:46:17Z</time>
      </trkpt>
      <trkpt lat="43.43298" lon="6.04053">
        <ele>307.79998779297</ele>
        <time>2013-12-07T13:46:21Z</time>
      </trkpt>
      <trkpt lat="43.43299" lon="6.04055">
        <ele>307.79998779297</ele>
        <time>2013-12-07T13:46:30Z</time>
      </trkpt>
      <trkpt lat="43.43299" lon="6.04063">
        <ele>307.79998779297</ele>
        <time>2013-12-07T13:46:35Z</time>
      </trkpt>
      <trkpt lat="43.433" lon="6.04076">
        <ele>307</ele>
        <time>2013-12-07T13:46:39Z</time>
      </trkpt>
      <trkpt lat="43.43301" lon="6.04085">
        <ele>306.20001220703</ele>
        <time>2013-12-07T13:46:41Z</time>
      </trkpt>
      <trkpt lat="43.43302" lon="6.0409">
        <ele>305.79998779297</ele>
        <time>2013-12-07T13:46:42Z</time>
      </trkpt>
      <trkpt lat="43.43304" lon="6.04099">
        <ele>305.20001220703</ele>
        <time>2013-12-07T13:46:44Z</time>
      </trkpt>
      <trkpt lat="43.43304" lon="6.04104">
        <ele>304.79998779297</ele>
        <time>2013-12-07T13:46:45Z</time>
      </trkpt>
      <trkpt lat="43.43304" lon="6.04109">
        <ele>304.39999389648</ele>
        <time>2013-12-07T13:46:46Z</time>
      </trkpt>
      <trkpt lat="43.43304" lon="6.04114">
        <ele>303.60000610352</ele>
        <time>2013-12-07T13:46:47Z</time>
      </trkpt>
      <trkpt lat="43.43307" lon="6.04135">
        <ele>303.20001220703</ele>
        <time>2013-12-07T13:46:51Z</time>
      </trkpt>
      <trkpt lat="43.43308" lon="6.0414">
        <ele>302.79998779297</ele>
        <time>2013-12-07T13:46:52Z</time>
      </trkpt>
      <trkpt lat="43.43309" lon="6.04145">
        <ele>302.39999389648</ele>
        <time>2013-12-07T13:46:53Z</time>
      </trkpt>
      <trkpt lat="43.43309" lon="6.04149">
        <ele>302</ele>
        <time>2013-12-07T13:46:54Z</time>
      </trkpt>
      <trkpt lat="43.43309" lon="6.04152">
        <ele>301.39999389648</ele>
        <time>2013-12-07T13:46:55Z</time>
      </trkpt>
      <trkpt lat="43.43308" lon="6.04161">
        <ele>301.39999389648</ele>
        <time>2013-12-07T13:47:00Z</time>
      </trkpt>
      <trkpt lat="43.43309" lon="6.04165">
        <ele>301.39999389648</ele>
        <time>2013-12-07T13:47:04Z</time>
      </trkpt>
      <trkpt lat="43.43309" lon="6.04166">
        <ele>301.39999389648</ele>
        <time>2013-12-07T13:47:05Z</time>
      </trkpt>
      <trkpt lat="43.43309" lon="6.04169">
        <ele>301.39999389648</ele>
        <time>2013-12-07T13:47:08Z</time>
      </trkpt>
      <trkpt lat="43.43309" lon="6.04172">
        <ele>301.39999389648</ele>
        <time>2013-12-07T13:47:13Z</time>
      </trkpt>
      <trkpt lat="43.43309" lon="6.04177">
        <ele>301.39999389648</ele>
        <time>2013-12-07T13:47:16Z</time>
      </trkpt>
      <trkpt lat="43.43309" lon="6.04182">
        <ele>301.39999389648</ele>
        <time>2013-12-07T13:47:19Z</time>
      </trkpt>
      <trkpt lat="43.43309" lon="6.04189">
        <ele>301.39999389648</ele>
        <time>2013-12-07T13:47:21Z</time>
      </trkpt>
      <trkpt lat="43.43309" lon="6.04196">
        <ele>301.39999389648</ele>
        <time>2013-12-07T13:47:23Z</time>
      </trkpt>
      <trkpt lat="43.43309" lon="6.042">
        <ele>301.39999389648</ele>
        <time>2013-12-07T13:47:27Z</time>
      </trkpt>
      <trkpt lat="43.43309" lon="6.04205">
        <ele>301.39999389648</ele>
        <time>2013-12-07T13:47:34Z</time>
      </trkpt>
      <trkpt lat="43.43309" lon="6.0421">
        <ele>300.60000610352</ele>
        <time>2013-12-07T13:47:36Z</time>
      </trkpt>
      <trkpt lat="43.43311" lon="6.04213">
        <ele>300.20001220703</ele>
        <time>2013-12-07T13:47:37Z</time>
      </trkpt>
      <trkpt lat="43.43312" lon="6.04219">
        <ele>299.39999389648</ele>
        <time>2013-12-07T13:47:39Z</time>
      </trkpt>
      <trkpt lat="43.43314" lon="6.04227">
        <ele>299</ele>
        <time>2013-12-07T13:47:41Z</time>
      </trkpt>
      <trkpt lat="43.43314" lon="6.0423">
        <ele>298.39999389648</ele>
        <time>2013-12-07T13:47:42Z</time>
      </trkpt>
      <trkpt lat="43.43315" lon="6.04233">
        <ele>298</ele>
        <time>2013-12-07T13:47:43Z</time>
      </trkpt>
      <trkpt lat="43.43315" lon="6.04236">
        <ele>297.60000610352</ele>
        <time>2013-12-07T13:47:44Z</time>
      </trkpt>
      <trkpt lat="43.43315" lon="6.0424">
        <ele>297</ele>
        <time>2013-12-07T13:47:45Z</time>
      </trkpt>
      <trkpt lat="43.43315" lon="6.04244">
        <ele>296.39999389648</ele>
        <time>2013-12-07T13:47:46Z</time>
      </trkpt>
      <trkpt lat="43.43316" lon="6.04252">
        <ele>295.20001220703</ele>
        <time>2013-12-07T13:47:48Z</time>
      </trkpt>
      <trkpt lat="43.43317" lon="6.04261">
        <ele>294.20001220703</ele>
        <time>2013-12-07T13:47:50Z</time>
      </trkpt>
      <trkpt lat="43.43317" lon="6.04265">
        <ele>293.60000610352</ele>
        <time>2013-12-07T13:47:51Z</time>
      </trkpt>
      <trkpt lat="43.43318" lon="6.04267">
        <ele>293.20001220703</ele>
        <time>2013-12-07T13:47:52Z</time>
      </trkpt>
      <trkpt lat="43.43318" lon="6.04267">
        <ele>292.60000610352</ele>
        <time>2013-12-07T13:47:53Z</time>
      </trkpt>
      <trkpt lat="43.43318" lon="6.04268">
        <ele>292.60000610352</ele>
        <time>2013-12-07T13:47:56Z</time>
      </trkpt>
      <trkpt lat="43.43318" lon="6.04269">
        <ele>292.60000610352</ele>
        <time>2013-12-07T13:47:57Z</time>
      </trkpt>
      <trkpt lat="43.4332" lon="6.04277">
        <ele>292.60000610352</ele>
        <time>2013-12-07T13:48:04Z</time>
      </trkpt>
      <trkpt lat="43.43319" lon="6.04282">
        <ele>292.60000610352</ele>
        <time>2013-12-07T13:48:11Z</time>
      </trkpt>
      <trkpt lat="43.4332" lon="6.04289">
        <ele>292.60000610352</ele>
        <time>2013-12-07T13:48:16Z</time>
      </trkpt>
      <trkpt lat="43.43322" lon="6.043">
        <ele>292.60000610352</ele>
        <time>2013-12-07T13:48:20Z</time>
      </trkpt>
      <trkpt lat="43.43321" lon="6.04307">
        <ele>292.60000610352</ele>
        <time>2013-12-07T13:48:22Z</time>
      </trkpt>
      <trkpt lat="43.43323" lon="6.04329">
        <ele>292.60000610352</ele>
        <time>2013-12-07T13:48:28Z</time>
      </trkpt>
      <trkpt lat="43.43326" lon="6.04353">
        <ele>292.60000610352</ele>
        <time>2013-12-07T13:48:37Z</time>
      </trkpt>
      <trkpt lat="43.43326" lon="6.04355">
        <ele>292.20001220703</ele>
        <time>2013-12-07T13:48:38Z</time>
      </trkpt>
      <trkpt lat="43.43327" lon="6.04361">
        <ele>291.39999389648</ele>
        <time>2013-12-07T13:48:40Z</time>
      </trkpt>
      <trkpt lat="43.43328" lon="6.04363">
        <ele>290.79998779297</ele>
        <time>2013-12-07T13:48:41Z</time>
      </trkpt>
      <trkpt lat="43.43328" lon="6.04366">
        <ele>290.39999389648</ele>
        <time>2013-12-07T13:48:42Z</time>
      </trkpt>
      <trkpt lat="43.43327" lon="6.04369">
        <ele>290</ele>
        <time>2013-12-07T13:48:43Z</time>
      </trkpt>
      <trkpt lat="43.43328" lon="6.04377">
        <ele>289.20001220703</ele>
        <time>2013-12-07T13:48:45Z</time>
      </trkpt>
      <trkpt lat="43.43328" lon="6.0438">
        <ele>288.79998779297</ele>
        <time>2013-12-07T13:48:46Z</time>
      </trkpt>
      <trkpt lat="43.43329" lon="6.04381">
        <ele>288.39999389648</ele>
        <time>2013-12-07T13:48:47Z</time>
      </trkpt>
      <trkpt lat="43.43329" lon="6.04383">
        <ele>288.39999389648</ele>
        <time>2013-12-07T13:48:50Z</time>
      </trkpt>
      <trkpt lat="43.43329" lon="6.04389">
        <ele>288.39999389648</ele>
        <time>2013-12-07T13:48:56Z</time>
      </trkpt>
      <trkpt lat="43.43328" lon="6.04403">
        <ele>288.39999389648</ele>
        <time>2013-12-07T13:49:02Z</time>
      </trkpt>
      <trkpt lat="43.43331" lon="6.04424">
        <ele>288</ele>
        <time>2013-12-07T13:49:06Z</time>
      </trkpt>
      <trkpt lat="43.43332" lon="6.04431">
        <ele>287.39999389648</ele>
        <time>2013-12-07T13:49:07Z</time>
      </trkpt>
      <trkpt lat="43.43332" lon="6.04437">
        <ele>287</ele>
        <time>2013-12-07T13:49:08Z</time>
      </trkpt>
      <trkpt lat="43.43332" lon="6.04443">
        <ele>286.60000610352</ele>
        <time>2013-12-07T13:49:09Z</time>
      </trkpt>
      <trkpt lat="43.43332" lon="6.04447">
        <ele>286</ele>
        <time>2013-12-07T13:49:10Z</time>
      </trkpt>
      <trkpt lat="43.43335" lon="6.04467">
        <ele>286</ele>
        <time>2013-12-07T13:49:15Z</time>
      </trkpt>
      <trkpt lat="43.43335" lon="6.0447">
        <ele>286</ele>
        <time>2013-12-07T13:49:16Z</time>
      </trkpt>
      <trkpt lat="43.43335" lon="6.04483">
        <ele>286</ele>
        <time>2013-12-07T13:49:20Z</time>
      </trkpt>
      <trkpt lat="43.43335" lon="6.04487">
        <ele>286</ele>
        <time>2013-12-07T13:49:21Z</time>
      </trkpt>
      <trkpt lat="43.43334" lon="6.04498">
        <ele>286</ele>
        <time>2013-12-07T13:49:25Z</time>
      </trkpt>
      <trkpt lat="43.43333" lon="6.04504">
        <ele>286</ele>
        <time>2013-12-07T13:49:32Z</time>
      </trkpt>
      <trkpt lat="43.43334" lon="6.0453">
        <ele>286</ele>
        <time>2013-12-07T13:49:38Z</time>
      </trkpt>
      <trkpt lat="43.43335" lon="6.04533">
        <ele>285.60000610352</ele>
        <time>2013-12-07T13:49:39Z</time>
      </trkpt>
      <trkpt lat="43.43336" lon="6.04535">
        <ele>285.20001220703</ele>
        <time>2013-12-07T13:49:40Z</time>
      </trkpt>
      <trkpt lat="43.43338" lon="6.04538">
        <ele>284.20001220703</ele>
        <time>2013-12-07T13:49:42Z</time>
      </trkpt>
      <trkpt lat="43.43339" lon="6.04541">
        <ele>283.60000610352</ele>
        <time>2013-12-07T13:49:43Z</time>
      </trkpt>
      <trkpt lat="43.43343" lon="6.04551">
        <ele>283.20001220703</ele>
        <time>2013-12-07T13:49:46Z</time>
      </trkpt>
      <trkpt lat="43.43344" lon="6.04557">
        <ele>282.60000610352</ele>
        <time>2013-12-07T13:49:47Z</time>
      </trkpt>
      <trkpt lat="43.43345" lon="6.04573">
        <ele>281.20001220703</ele>
        <time>2013-12-07T13:49:50Z</time>
      </trkpt>
      <trkpt lat="43.43345" lon="6.04578">
        <ele>280.60000610352</ele>
        <time>2013-12-07T13:49:51Z</time>
      </trkpt>
      <trkpt lat="43.43345" lon="6.04583">
        <ele>280</ele>
        <time>2013-12-07T13:49:52Z</time>
      </trkpt>
      <trkpt lat="43.43346" lon="6.04587">
        <ele>279.60000610352</ele>
        <time>2013-12-07T13:49:53Z</time>
      </trkpt>
      <trkpt lat="43.43347" lon="6.04592">
        <ele>279</ele>
        <time>2013-12-07T13:49:54Z</time>
      </trkpt>
      <trkpt lat="43.43348" lon="6.04597">
        <ele>279</ele>
        <time>2013-12-07T13:49:55Z</time>
      </trkpt>
      <trkpt lat="43.43349" lon="6.04608">
        <ele>278.39999389648</ele>
        <time>2013-12-07T13:49:57Z</time>
      </trkpt>
      <trkpt lat="43.4335" lon="6.04625">
        <ele>276.60000610352</ele>
        <time>2013-12-07T13:50:01Z</time>
      </trkpt>
      <trkpt lat="43.43351" lon="6.04628">
        <ele>276</ele>
        <time>2013-12-07T13:50:02Z</time>
      </trkpt>
      <trkpt lat="43.43351" lon="6.0463">
        <ele>275</ele>
        <time>2013-12-07T13:50:03Z</time>
      </trkpt>
      <trkpt lat="43.43352" lon="6.04633">
        <ele>274.60000610352</ele>
        <time>2013-12-07T13:50:04Z</time>
      </trkpt>
      <trkpt lat="43.43352" lon="6.04635">
        <ele>274.60000610352</ele>
        <time>2013-12-07T13:50:05Z</time>
      </trkpt>
      <trkpt lat="43.43351" lon="6.04646">
        <ele>273.20001220703</ele>
        <time>2013-12-07T13:50:09Z</time>
      </trkpt>
      <trkpt lat="43.4335" lon="6.04651">
        <ele>272.60000610352</ele>
        <time>2013-12-07T13:50:10Z</time>
      </trkpt>
      <trkpt lat="43.43351" lon="6.04656">
        <ele>272.20001220703</ele>
        <time>2013-12-07T13:50:11Z</time>
      </trkpt>
      <trkpt lat="43.43354" lon="6.04667">
        <ele>271.20001220703</ele>
        <time>2013-12-07T13:50:13Z</time>
      </trkpt>
      <trkpt lat="43.43354" lon="6.04679">
        <ele>270</ele>
        <time>2013-12-07T13:50:15Z</time>
      </trkpt>
      <trkpt lat="43.43354" lon="6.04683">
        <ele>269.60000610352</ele>
        <time>2013-12-07T13:50:16Z</time>
      </trkpt>
      <trkpt lat="43.43355" lon="6.04687">
        <ele>269</ele>
        <time>2013-12-07T13:50:17Z</time>
      </trkpt>
      <trkpt lat="43.43356" lon="6.04696">
        <ele>268</ele>
        <time>2013-12-07T13:50:19Z</time>
      </trkpt>
      <trkpt lat="43.43357" lon="6.04702">
        <ele>268</ele>
        <time>2013-12-07T13:50:21Z</time>
      </trkpt>
      <trkpt lat="43.43358" lon="6.04709">
        <ele>268</ele>
        <time>2013-12-07T13:50:23Z</time>
      </trkpt>
      <trkpt lat="43.43357" lon="6.04716">
        <ele>267.60000610352</ele>
        <time>2013-12-07T13:50:25Z</time>
      </trkpt>
      <trkpt lat="43.43357" lon="6.04719">
        <ele>267.20001220703</ele>
        <time>2013-12-07T13:50:26Z</time>
      </trkpt>
      <trkpt lat="43.43359" lon="6.04733">
        <ele>266</ele>
        <time>2013-12-07T13:50:30Z</time>
      </trkpt>
      <trkpt lat="43.43359" lon="6.04739">
        <ele>266</ele>
        <time>2013-12-07T13:50:32Z</time>
      </trkpt>
      <trkpt lat="43.4336" lon="6.0475">
        <ele>266</ele>
        <time>2013-12-07T13:50:37Z</time>
      </trkpt>
      <trkpt lat="43.4336" lon="6.04751">
        <ele>266</ele>
        <time>2013-12-07T13:50:41Z</time>
      </trkpt>
      <trkpt lat="43.4336" lon="6.04752">
        <ele>266</ele>
        <time>2013-12-07T13:50:43Z</time>
      </trkpt>
      <trkpt lat="43.4336" lon="6.04752">
        <ele>266</ele>
        <time>2013-12-07T13:50:51Z</time>
      </trkpt>
      <trkpt lat="43.4336" lon="6.04752">
        <ele>266</ele>
        <time>2013-12-07T13:50:56Z</time>
      </trkpt>
      <trkpt lat="43.4336" lon="6.04752">
        <ele>266</ele>
        <time>2013-12-07T13:50:58Z</time>
      </trkpt>
      <trkpt lat="43.43361" lon="6.04758">
        <ele>266</ele>
        <time>2013-12-07T13:51:00Z</time>
      </trkpt>
      <trkpt lat="43.4336" lon="6.04763">
        <ele>266</ele>
        <time>2013-12-07T13:51:02Z</time>
      </trkpt>
      <trkpt lat="43.4336" lon="6.04763">
        <ele>266</ele>
        <time>2013-12-07T13:51:04Z</time>
      </trkpt>
      <trkpt lat="43.4336" lon="6.04765">
        <ele>266</ele>
        <time>2013-12-07T13:51:05Z</time>
      </trkpt>
      <trkpt lat="43.43361" lon="6.0477">
        <ele>266</ele>
        <time>2013-12-07T13:51:08Z</time>
      </trkpt>
      <trkpt lat="43.43362" lon="6.04786">
        <ele>266</ele>
        <time>2013-12-07T13:51:13Z</time>
      </trkpt>
      <trkpt lat="43.43363" lon="6.04796">
        <ele>266</ele>
        <time>2013-12-07T13:51:15Z</time>
      </trkpt>
      <trkpt lat="43.43365" lon="6.04809">
        <ele>265.60000610352</ele>
        <time>2013-12-07T13:51:17Z</time>
      </trkpt>
      <trkpt lat="43.43366" lon="6.04822">
        <ele>264.60000610352</ele>
        <time>2013-12-07T13:51:19Z</time>
      </trkpt>
      <trkpt lat="43.43365" lon="6.04827">
        <ele>264.20001220703</ele>
        <time>2013-12-07T13:51:20Z</time>
      </trkpt>
      <trkpt lat="43.43365" lon="6.0483">
        <ele>263.79998779297</ele>
        <time>2013-12-07T13:51:21Z</time>
      </trkpt>
      <trkpt lat="43.43365" lon="6.04836">
        <ele>263.79998779297</ele>
        <time>2013-12-07T13:51:24Z</time>
      </trkpt>
      <trkpt lat="43.43366" lon="6.0484">
        <ele>262.60000610352</ele>
        <time>2013-12-07T13:51:27Z</time>
      </trkpt>
      <trkpt lat="43.43366" lon="6.04841">
        <ele>262.20001220703</ele>
        <time>2013-12-07T13:51:28Z</time>
      </trkpt>
      <trkpt lat="43.43366" lon="6.04844">
        <ele>261.79998779297</ele>
        <time>2013-12-07T13:51:29Z</time>
      </trkpt>
      <trkpt lat="43.43366" lon="6.04848">
        <ele>261.79998779297</ele>
        <time>2013-12-07T13:51:30Z</time>
      </trkpt>
      <trkpt lat="43.43364" lon="6.04863">
        <ele>261.79998779297</ele>
        <time>2013-12-07T13:51:34Z</time>
      </trkpt>
      <trkpt lat="43.43365" lon="6.04872">
        <ele>261.79998779297</ele>
        <time>2013-12-07T13:51:38Z</time>
      </trkpt>
      <trkpt lat="43.43367" lon="6.04887">
        <ele>261.79998779297</ele>
        <time>2013-12-07T13:51:44Z</time>
      </trkpt>
      <trkpt lat="43.43372" lon="6.04901">
        <ele>261.79998779297</ele>
        <time>2013-12-07T13:51:48Z</time>
      </trkpt>
      <trkpt lat="43.43374" lon="6.04921">
        <ele>261.79998779297</ele>
        <time>2013-12-07T13:51:53Z</time>
      </trkpt>
      <trkpt lat="43.43374" lon="6.04932">
        <ele>261.39999389648</ele>
        <time>2013-12-07T13:51:55Z</time>
      </trkpt>
      <trkpt lat="43.43375" lon="6.04937">
        <ele>261</ele>
        <time>2013-12-07T13:51:56Z</time>
      </trkpt>
      <trkpt lat="43.43376" lon="6.04941">
        <ele>260.60000610352</ele>
        <time>2013-12-07T13:51:57Z</time>
      </trkpt>
      <trkpt lat="43.43376" lon="6.04944">
        <ele>260.20001220703</ele>
        <time>2013-12-07T13:51:58Z</time>
      </trkpt>
      <trkpt lat="43.43377" lon="6.04947">
        <ele>259.79998779297</ele>
        <time>2013-12-07T13:51:59Z</time>
      </trkpt>
      <trkpt lat="43.43377" lon="6.04955">
        <ele>259.79998779297</ele>
        <time>2013-12-07T13:52:03Z</time>
      </trkpt>
      <trkpt lat="43.43377" lon="6.04956">
        <ele>259.79998779297</ele>
        <time>2013-12-07T13:52:06Z</time>
      </trkpt>
      <trkpt lat="43.43377" lon="6.04957">
        <ele>259.79998779297</ele>
        <time>2013-12-07T13:52:07Z</time>
      </trkpt>
      <trkpt lat="43.43377" lon="6.04958">
        <ele>259.79998779297</ele>
        <time>2013-12-07T13:52:09Z</time>
      </trkpt>
      <trkpt lat="43.43378" lon="6.0496">
        <ele>259.79998779297</ele>
        <time>2013-12-07T13:52:11Z</time>
      </trkpt>
      <trkpt lat="43.43381" lon="6.04977">
        <ele>259.79998779297</ele>
        <time>2013-12-07T13:52:20Z</time>
      </trkpt>
      <trkpt lat="43.43382" lon="6.0498">
        <ele>259.79998779297</ele>
        <time>2013-12-07T13:52:22Z</time>
      </trkpt>
      <trkpt lat="43.43381" lon="6.04982">
        <ele>259.79998779297</ele>
        <time>2013-12-07T13:52:27Z</time>
      </trkpt>
      <trkpt lat="43.43382" lon="6.04984">
        <ele>259.79998779297</ele>
        <time>2013-12-07T13:52:28Z</time>
      </trkpt>
      <trkpt lat="43.43382" lon="6.04989">
        <ele>260.60000610352</ele>
        <time>2013-12-07T13:52:31Z</time>
      </trkpt>
      <trkpt lat="43.43382" lon="6.04995">
        <ele>261.79998779297</ele>
        <time>2013-12-07T13:52:33Z</time>
      </trkpt>
      <trkpt lat="43.43383" lon="6.05004">
        <ele>261.79998779297</ele>
        <time>2013-12-07T13:52:36Z</time>
      </trkpt>
      <trkpt lat="43.43382" lon="6.05017">
        <ele>261.79998779297</ele>
        <time>2013-12-07T13:52:41Z</time>
      </trkpt>
      <trkpt lat="43.43383" lon="6.0502">
        <ele>261.79998779297</ele>
        <time>2013-12-07T13:52:42Z</time>
      </trkpt>
      <trkpt lat="43.43385" lon="6.05029">
        <ele>261.79998779297</ele>
        <time>2013-12-07T13:52:44Z</time>
      </trkpt>
      <trkpt lat="43.43387" lon="6.05051">
        <ele>261.79998779297</ele>
        <time>2013-12-07T13:52:49Z</time>
      </trkpt>
      <trkpt lat="43.43388" lon="6.05066">
        <ele>261.79998779297</ele>
        <time>2013-12-07T13:52:54Z</time>
      </trkpt>
      <trkpt lat="43.43391" lon="6.05088">
        <ele>261.79998779297</ele>
        <time>2013-12-07T13:53:01Z</time>
      </trkpt>
      <trkpt lat="43.43392" lon="6.05104">
        <ele>261.79998779297</ele>
        <time>2013-12-07T13:53:06Z</time>
      </trkpt>
      <trkpt lat="43.43392" lon="6.05106">
        <ele>261.79998779297</ele>
        <time>2013-12-07T13:53:07Z</time>
      </trkpt>
      <trkpt lat="43.43391" lon="6.0511">
        <ele>261.79998779297</ele>
        <time>2013-12-07T13:53:12Z</time>
      </trkpt>
      <trkpt lat="43.43391" lon="6.0511">
        <ele>261.79998779297</ele>
        <time>2013-12-07T13:53:24Z</time>
      </trkpt>
      <trkpt lat="43.43391" lon="6.0511">
        <ele>261.79998779297</ele>
        <time>2013-12-07T13:53:35Z</time>
      </trkpt>
      <trkpt lat="43.43391" lon="6.05111">
        <ele>261.79998779297</ele>
        <time>2013-12-07T13:53:36Z</time>
      </trkpt>
      <trkpt lat="43.4339" lon="6.05118">
        <ele>261.79998779297</ele>
        <time>2013-12-07T13:53:40Z</time>
      </trkpt>
      <trkpt lat="43.43386" lon="6.05137">
        <ele>261.79998779297</ele>
        <time>2013-12-07T13:53:46Z</time>
      </trkpt>
      <trkpt lat="43.43385" lon="6.05139">
        <ele>261.79998779297</ele>
        <time>2013-12-07T13:53:47Z</time>
      </trkpt>
      <trkpt lat="43.43381" lon="6.05143">
        <ele>261.79998779297</ele>
        <time>2013-12-07T13:53:49Z</time>
      </trkpt>
      <trkpt lat="43.43373" lon="6.05145">
        <ele>261.20001220703</ele>
        <time>2013-12-07T13:53:51Z</time>
      </trkpt>
      <trkpt lat="43.43365" lon="6.05144">
        <ele>259.79998779297</ele>
        <time>2013-12-07T13:53:54Z</time>
      </trkpt>
      <trkpt lat="43.43361" lon="6.05143">
        <ele>259.39999389648</ele>
        <time>2013-12-07T13:53:56Z</time>
      </trkpt>
      <trkpt lat="43.43352" lon="6.0514">
        <ele>259.39999389648</ele>
        <time>2013-12-07T13:54:00Z</time>
      </trkpt>
      <trkpt lat="43.43338" lon="6.05133">
        <ele>259.39999389648</ele>
        <time>2013-12-07T13:54:06Z</time>
      </trkpt>
      <trkpt lat="43.43328" lon="6.05124">
        <ele>259.39999389648</ele>
        <time>2013-12-07T13:54:12Z</time>
      </trkpt>
      <trkpt lat="43.43323" lon="6.05118">
        <ele>260.20001220703</ele>
        <time>2013-12-07T13:54:15Z</time>
      </trkpt>
      <trkpt lat="43.43306" lon="6.051">
        <ele>261.39999389648</ele>
        <time>2013-12-07T13:54:25Z</time>
      </trkpt>
      <trkpt lat="43.43298" lon="6.05094">
        <ele>261.39999389648</ele>
        <time>2013-12-07T13:54:29Z</time>
      </trkpt>
      <trkpt lat="43.43289" lon="6.05086">
        <ele>263.60000610352</ele>
        <time>2013-12-07T13:54:34Z</time>
      </trkpt>
      <trkpt lat="43.43282" lon="6.05082">
        <ele>263.60000610352</ele>
        <time>2013-12-07T13:54:38Z</time>
      </trkpt>
      <trkpt lat="43.43267" lon="6.05081">
        <ele>265.60000610352</ele>
        <time>2013-12-07T13:54:45Z</time>
      </trkpt>
      <trkpt lat="43.43255" lon="6.0508">
        <ele>265.60000610352</ele>
        <time>2013-12-07T13:54:51Z</time>
      </trkpt>
      <trkpt lat="43.43246" lon="6.0508">
        <ele>265.60000610352</ele>
        <time>2013-12-07T13:54:57Z</time>
      </trkpt>
      <trkpt lat="43.43238" lon="6.05081">
        <ele>266</ele>
        <time>2013-12-07T13:55:01Z</time>
      </trkpt>
      <trkpt lat="43.43221" lon="6.05083">
        <ele>267.79998779297</ele>
        <time>2013-12-07T13:55:10Z</time>
      </trkpt>
      <trkpt lat="43.4321" lon="6.05083">
        <ele>267.79998779297</ele>
        <time>2013-12-07T13:55:16Z</time>
      </trkpt>
      <trkpt lat="43.4319" lon="6.05078">
        <ele>269.79998779297</ele>
        <time>2013-12-07T13:55:28Z</time>
      </trkpt>
      <trkpt lat="43.43179" lon="6.05075">
        <ele>270.20001220703</ele>
        <time>2013-12-07T13:55:36Z</time>
      </trkpt>
      <trkpt lat="43.43173" lon="6.05074">
        <ele>271.79998779297</ele>
        <time>2013-12-07T13:55:40Z</time>
      </trkpt>
      <trkpt lat="43.43169" lon="6.05073">
        <ele>271.79998779297</ele>
        <time>2013-12-07T13:55:43Z</time>
      </trkpt>
      <trkpt lat="43.4316" lon="6.05068">
        <ele>271.79998779297</ele>
        <time>2013-12-07T13:55:51Z</time>
      </trkpt>
      <trkpt lat="43.43154" lon="6.05064">
        <ele>272.20001220703</ele>
        <time>2013-12-07T13:55:56Z</time>
      </trkpt>
      <trkpt lat="43.43153" lon="6.05063">
        <ele>272.60000610352</ele>
        <time>2013-12-07T13:55:57Z</time>
      </trkpt>
      <trkpt lat="43.43147" lon="6.0506">
        <ele>274</ele>
        <time>2013-12-07T13:56:02Z</time>
      </trkpt>
      <trkpt lat="43.43139" lon="6.05053">
        <ele>274</ele>
        <time>2013-12-07T13:56:09Z</time>
      </trkpt>
      <trkpt lat="43.43138" lon="6.05051">
        <ele>274</ele>
        <time>2013-12-07T13:56:10Z</time>
      </trkpt>
      <trkpt lat="43.43135" lon="6.05043">
        <ele>274.79998779297</ele>
        <time>2013-12-07T13:56:14Z</time>
      </trkpt>
      <trkpt lat="43.4313" lon="6.05039">
        <ele>276</ele>
        <time>2013-12-07T13:56:18Z</time>
      </trkpt>
      <trkpt lat="43.43124" lon="6.05028">
        <ele>276</ele>
        <time>2013-12-07T13:56:23Z</time>
      </trkpt>
      <trkpt lat="43.43117" lon="6.05018">
        <ele>276.39999389648</ele>
        <time>2013-12-07T13:56:29Z</time>
      </trkpt>
      <trkpt lat="43.43115" lon="6.05015">
        <ele>277.20001220703</ele>
        <time>2013-12-07T13:56:31Z</time>
      </trkpt>
      <trkpt lat="43.43114" lon="6.05014">
        <ele>277.60000610352</ele>
        <time>2013-12-07T13:56:32Z</time>
      </trkpt>
      <trkpt lat="43.43102" lon="6.04994">
        <ele>278</ele>
        <time>2013-12-07T13:56:42Z</time>
      </trkpt>
      <trkpt lat="43.43099" lon="6.04987">
        <ele>278.39999389648</ele>
        <time>2013-12-07T13:56:45Z</time>
      </trkpt>
      <trkpt lat="43.43087" lon="6.04971">
        <ele>280</ele>
        <time>2013-12-07T13:56:55Z</time>
      </trkpt>
      <trkpt lat="43.43083" lon="6.04962">
        <ele>280.39999389648</ele>
        <time>2013-12-07T13:57:00Z</time>
      </trkpt>
      <trkpt lat="43.4308" lon="6.04957">
        <ele>282.20001220703</ele>
        <time>2013-12-07T13:57:03Z</time>
      </trkpt>
      <trkpt lat="43.43073" lon="6.04947">
        <ele>282.20001220703</ele>
        <time>2013-12-07T13:57:09Z</time>
      </trkpt>
      <trkpt lat="43.43069" lon="6.04942">
        <ele>282.20001220703</ele>
        <time>2013-12-07T13:57:12Z</time>
      </trkpt>
      <trkpt lat="43.43063" lon="6.04929">
        <ele>282.60000610352</ele>
        <time>2013-12-07T13:57:19Z</time>
      </trkpt>
      <trkpt lat="43.4306" lon="6.04922">
        <ele>284.20001220703</ele>
        <time>2013-12-07T13:57:23Z</time>
      </trkpt>
      <trkpt lat="43.43057" lon="6.04916">
        <ele>284.20001220703</ele>
        <time>2013-12-07T13:57:26Z</time>
      </trkpt>
      <trkpt lat="43.43055" lon="6.04913">
        <ele>284.20001220703</ele>
        <time>2013-12-07T13:57:28Z</time>
      </trkpt>
      <trkpt lat="43.43053" lon="6.04908">
        <ele>284.20001220703</ele>
        <time>2013-12-07T13:57:32Z</time>
      </trkpt>
      <trkpt lat="43.43052" lon="6.04907">
        <ele>284.20001220703</ele>
        <time>2013-12-07T13:57:33Z</time>
      </trkpt>
      <trkpt lat="43.43052" lon="6.04905">
        <ele>284.20001220703</ele>
        <time>2013-12-07T13:57:37Z</time>
      </trkpt>
      <trkpt lat="43.43052" lon="6.04905">
        <ele>286.20001220703</ele>
        <time>2013-12-07T13:57:53Z</time>
      </trkpt>
      <trkpt lat="43.43052" lon="6.04905">
        <ele>286.20001220703</ele>
        <time>2013-12-07T13:58:09Z</time>
      </trkpt>
      <trkpt lat="43.43051" lon="6.04905">
        <ele>286.20001220703</ele>
        <time>2013-12-07T13:58:16Z</time>
      </trkpt>
      <trkpt lat="43.43051" lon="6.04905">
        <ele>286.20001220703</ele>
        <time>2013-12-07T13:58:32Z</time>
      </trkpt>
      <trkpt lat="43.43051" lon="6.04905">
        <ele>286.20001220703</ele>
        <time>2013-12-07T13:59:00Z</time>
      </trkpt>
      <trkpt lat="43.4305" lon="6.04904">
        <ele>286.20001220703</ele>
        <time>2013-12-07T13:59:03Z</time>
      </trkpt>
      <trkpt lat="43.4305" lon="6.04903">
        <ele>286.20001220703</ele>
        <time>2013-12-07T13:59:04Z</time>
      </trkpt>
      <trkpt lat="43.43047" lon="6.049">
        <ele>286.20001220703</ele>
        <time>2013-12-07T13:59:06Z</time>
      </trkpt>
      <trkpt lat="43.43045" lon="6.04893">
        <ele>286.20001220703</ele>
        <time>2013-12-07T13:59:09Z</time>
      </trkpt>
      <trkpt lat="43.43044" lon="6.04891">
        <ele>286.20001220703</ele>
        <time>2013-12-07T13:59:10Z</time>
      </trkpt>
      <trkpt lat="43.43039" lon="6.04882">
        <ele>286.20001220703</ele>
        <time>2013-12-07T13:59:15Z</time>
      </trkpt>
      <trkpt lat="43.43037" lon="6.04878">
        <ele>286.60000610352</ele>
        <time>2013-12-07T13:59:17Z</time>
      </trkpt>
      <trkpt lat="43.43032" lon="6.04871">
        <ele>288.20001220703</ele>
        <time>2013-12-07T13:59:22Z</time>
      </trkpt>
      <trkpt lat="43.43025" lon="6.04855">
        <ele>288.20001220703</ele>
        <time>2013-12-07T13:59:29Z</time>
      </trkpt>
      <trkpt lat="43.43024" lon="6.04843">
        <ele>289.79998779297</ele>
        <time>2013-12-07T13:59:35Z</time>
      </trkpt>
      <trkpt lat="43.43024" lon="6.04841">
        <ele>290.20001220703</ele>
        <time>2013-12-07T13:59:36Z</time>
      </trkpt>
      <trkpt lat="43.43027" lon="6.04811">
        <ele>290.20001220703</ele>
        <time>2013-12-07T13:59:49Z</time>
      </trkpt>
      <trkpt lat="43.43028" lon="6.04799">
        <ele>290.60000610352</ele>
        <time>2013-12-07T13:59:54Z</time>
      </trkpt>
      <trkpt lat="43.43028" lon="6.04797">
        <ele>291.20001220703</ele>
        <time>2013-12-07T13:59:55Z</time>
      </trkpt>
      <trkpt lat="43.43028" lon="6.04789">
        <ele>292.39999389648</ele>
        <time>2013-12-07T13:59:59Z</time>
      </trkpt>
      <trkpt lat="43.43027" lon="6.04788">
        <ele>292.39999389648</ele>
        <time>2013-12-07T14:00:01Z</time>
      </trkpt>
      <trkpt lat="43.43027" lon="6.04783">
        <ele>292.39999389648</ele>
        <time>2013-12-07T14:00:07Z</time>
      </trkpt>
      <trkpt lat="43.43029" lon="6.04774">
        <ele>292.39999389648</ele>
        <time>2013-12-07T14:00:11Z</time>
      </trkpt>
      <trkpt lat="43.43033" lon="6.04761">
        <ele>292.79998779297</ele>
        <time>2013-12-07T14:00:16Z</time>
      </trkpt>
      <trkpt lat="43.43034" lon="6.04759">
        <ele>293.20001220703</ele>
        <time>2013-12-07T14:00:17Z</time>
      </trkpt>
      <trkpt lat="43.43036" lon="6.04755">
        <ele>294</ele>
        <time>2013-12-07T14:00:19Z</time>
      </trkpt>
      <trkpt lat="43.43043" lon="6.04742">
        <ele>294.39999389648</ele>
        <time>2013-12-07T14:00:26Z</time>
      </trkpt>
      <trkpt lat="43.43055" lon="6.0472">
        <ele>296.60000610352</ele>
        <time>2013-12-07T14:00:37Z</time>
      </trkpt>
      <trkpt lat="43.43055" lon="6.04719">
        <ele>296.60000610352</ele>
        <time>2013-12-07T14:00:38Z</time>
      </trkpt>
      <trkpt lat="43.43058" lon="6.04707">
        <ele>296.60000610352</ele>
        <time>2013-12-07T14:00:44Z</time>
      </trkpt>
      <trkpt lat="43.43058" lon="6.04697">
        <ele>296.60000610352</ele>
        <time>2013-12-07T14:00:48Z</time>
      </trkpt>
      <trkpt lat="43.43057" lon="6.04695">
        <ele>297</ele>
        <time>2013-12-07T14:00:49Z</time>
      </trkpt>
      <trkpt lat="43.43056" lon="6.04688">
        <ele>298.20001220703</ele>
        <time>2013-12-07T14:00:52Z</time>
      </trkpt>
      <trkpt lat="43.43054" lon="6.04675">
        <ele>298.60000610352</ele>
        <time>2013-12-07T14:00:57Z</time>
      </trkpt>
      <trkpt lat="43.43053" lon="6.04657">
        <ele>298.60000610352</ele>
        <time>2013-12-07T14:01:03Z</time>
      </trkpt>
      <trkpt lat="43.4305" lon="6.0464">
        <ele>298.60000610352</ele>
        <time>2013-12-07T14:01:09Z</time>
      </trkpt>
      <trkpt lat="43.43048" lon="6.04623">
        <ele>298.60000610352</ele>
        <time>2013-12-07T14:01:15Z</time>
      </trkpt>
      <trkpt lat="43.43045" lon="6.04602">
        <ele>298.60000610352</ele>
        <time>2013-12-07T14:01:22Z</time>
      </trkpt>
      <trkpt lat="43.43046" lon="6.04589">
        <ele>299.79998779297</ele>
        <time>2013-12-07T14:01:27Z</time>
      </trkpt>
      <trkpt lat="43.43047" lon="6.04583">
        <ele>300.79998779297</ele>
        <time>2013-12-07T14:01:29Z</time>
      </trkpt>
      <trkpt lat="43.43049" lon="6.04564">
        <ele>300.79998779297</ele>
        <time>2013-12-07T14:01:35Z</time>
      </trkpt>
      <trkpt lat="43.43052" lon="6.0455">
        <ele>300.79998779297</ele>
        <time>2013-12-07T14:01:40Z</time>
      </trkpt>
      <trkpt lat="43.43055" lon="6.0453">
        <ele>300.79998779297</ele>
        <time>2013-12-07T14:01:46Z</time>
      </trkpt>
      <trkpt lat="43.43056" lon="6.04519">
        <ele>302</ele>
        <time>2013-12-07T14:01:50Z</time>
      </trkpt>
      <trkpt lat="43.43058" lon="6.0451">
        <ele>302.79998779297</ele>
        <time>2013-12-07T14:01:53Z</time>
      </trkpt>
      <trkpt lat="43.43061" lon="6.04487">
        <ele>302.79998779297</ele>
        <time>2013-12-07T14:02:00Z</time>
      </trkpt>
      <trkpt lat="43.43066" lon="6.04469">
        <ele>302.79998779297</ele>
        <time>2013-12-07T14:02:06Z</time>
      </trkpt>
      <trkpt lat="43.43068" lon="6.04452">
        <ele>302.79998779297</ele>
        <time>2013-12-07T14:02:12Z</time>
      </trkpt>
      <trkpt lat="43.43075" lon="6.04436">
        <ele>304.39999389648</ele>
        <time>2013-12-07T14:02:18Z</time>
      </trkpt>
      <trkpt lat="43.43076" lon="6.04434">
        <ele>304.79998779297</ele>
        <time>2013-12-07T14:02:19Z</time>
      </trkpt>
      <trkpt lat="43.43081" lon="6.04404">
        <ele>304.79998779297</ele>
        <time>2013-12-07T14:02:31Z</time>
      </trkpt>
      <trkpt lat="43.43085" lon="6.04394">
        <ele>305.20001220703</ele>
        <time>2013-12-07T14:02:36Z</time>
      </trkpt>
      <trkpt lat="43.43087" lon="6.04391">
        <ele>306</ele>
        <time>2013-12-07T14:02:38Z</time>
      </trkpt>
      <trkpt lat="43.43089" lon="6.04388">
        <ele>306.79998779297</ele>
        <time>2013-12-07T14:02:40Z</time>
      </trkpt>
      <trkpt lat="43.43096" lon="6.04379">
        <ele>306.79998779297</ele>
        <time>2013-12-07T14:02:45Z</time>
      </trkpt>
      <trkpt lat="43.431" lon="6.04369">
        <ele>306.79998779297</ele>
        <time>2013-12-07T14:02:49Z</time>
      </trkpt>
      <trkpt lat="43.43101" lon="6.04362">
        <ele>306.79998779297</ele>
        <time>2013-12-07T14:02:51Z</time>
      </trkpt>
      <trkpt lat="43.43103" lon="6.04349">
        <ele>307.39999389648</ele>
        <time>2013-12-07T14:02:55Z</time>
      </trkpt>
      <trkpt lat="43.43105" lon="6.04341">
        <ele>308.60000610352</ele>
        <time>2013-12-07T14:02:58Z</time>
      </trkpt>
      <trkpt lat="43.43105" lon="6.04338">
        <ele>309</ele>
        <time>2013-12-07T14:02:59Z</time>
      </trkpt>
      <trkpt lat="43.43105" lon="6.04321">
        <ele>309</ele>
        <time>2013-12-07T14:03:05Z</time>
      </trkpt>
      <trkpt lat="43.43103" lon="6.04305">
        <ele>309</ele>
        <time>2013-12-07T14:03:11Z</time>
      </trkpt>
      <trkpt lat="43.43096" lon="6.0427">
        <ele>311.20001220703</ele>
        <time>2013-12-07T14:03:24Z</time>
      </trkpt>
      <trkpt lat="43.43093" lon="6.04257">
        <ele>311.20001220703</ele>
        <time>2013-12-07T14:03:29Z</time>
      </trkpt>
      <trkpt lat="43.43088" lon="6.04241">
        <ele>311.20001220703</ele>
        <time>2013-12-07T14:03:35Z</time>
      </trkpt>
      <trkpt lat="43.43083" lon="6.0423">
        <ele>311.20001220703</ele>
        <time>2013-12-07T14:03:40Z</time>
      </trkpt>
      <trkpt lat="43.43074" lon="6.0421">
        <ele>311.60000610352</ele>
        <time>2013-12-07T14:03:48Z</time>
      </trkpt>
      <trkpt lat="43.43073" lon="6.04205">
        <ele>312.39999389648</ele>
        <time>2013-12-07T14:03:50Z</time>
      </trkpt>
      <trkpt lat="43.43078" lon="6.04178">
        <ele>313.20001220703</ele>
        <time>2013-12-07T14:04:00Z</time>
      </trkpt>
      <trkpt lat="43.43076" lon="6.04139">
        <ele>313.20001220703</ele>
        <time>2013-12-07T14:04:13Z</time>
      </trkpt>
      <trkpt lat="43.43081" lon="6.04121">
        <ele>313.20001220703</ele>
        <time>2013-12-07T14:04:19Z</time>
      </trkpt>
      <trkpt lat="43.43084" lon="6.041">
        <ele>313.20001220703</ele>
        <time>2013-12-07T14:04:25Z</time>
      </trkpt>
      <trkpt lat="43.43083" lon="6.0409">
        <ele>314</ele>
        <time>2013-12-07T14:04:28Z</time>
      </trkpt>
      <trkpt lat="43.43082" lon="6.04084">
        <ele>314.79998779297</ele>
        <time>2013-12-07T14:04:30Z</time>
      </trkpt>
      <trkpt lat="43.43081" lon="6.0406">
        <ele>315.20001220703</ele>
        <time>2013-12-07T14:04:39Z</time>
      </trkpt>
      <trkpt lat="43.43079" lon="6.04043">
        <ele>315.20001220703</ele>
        <time>2013-12-07T14:04:46Z</time>
      </trkpt>
      <trkpt lat="43.43078" lon="6.04027">
        <ele>315.60000610352</ele>
        <time>2013-12-07T14:04:52Z</time>
      </trkpt>
      <trkpt lat="43.43078" lon="6.04025">
        <ele>316.39999389648</ele>
        <time>2013-12-07T14:04:53Z</time>
      </trkpt>
      <trkpt lat="43.43077" lon="6.04022">
        <ele>316.79998779297</ele>
        <time>2013-12-07T14:04:54Z</time>
      </trkpt>
      <trkpt lat="43.43076" lon="6.0402">
        <ele>317.20001220703</ele>
        <time>2013-12-07T14:04:55Z</time>
      </trkpt>
      <trkpt lat="43.43074" lon="6.04014">
        <ele>317.20001220703</ele>
        <time>2013-12-07T14:04:58Z</time>
      </trkpt>
      <trkpt lat="43.43073" lon="6.04011">
        <ele>317.20001220703</ele>
        <time>2013-12-07T14:05:00Z</time>
      </trkpt>
      <trkpt lat="43.43071" lon="6.04007">
        <ele>317.20001220703</ele>
        <time>2013-12-07T14:05:03Z</time>
      </trkpt>
      <trkpt lat="43.4307" lon="6.04003">
        <ele>317.20001220703</ele>
        <time>2013-12-07T14:05:06Z</time>
      </trkpt>
      <trkpt lat="43.43069" lon="6.04002">
        <ele>317.20001220703</ele>
        <time>2013-12-07T14:05:09Z</time>
      </trkpt>
      <trkpt lat="43.43069" lon="6.04002">
        <ele>317.20001220703</ele>
        <time>2013-12-07T14:05:19Z</time>
      </trkpt>
      <trkpt lat="43.43069" lon="6.04002">
        <ele>317.20001220703</ele>
        <time>2013-12-07T14:05:30Z</time>
      </trkpt>
      <trkpt lat="43.43069" lon="6.04002">
        <ele>317.20001220703</ele>
        <time>2013-12-07T14:05:31Z</time>
      </trkpt>
      <trkpt lat="43.43069" lon="6.04002">
        <ele>317.20001220703</ele>
        <time>2013-12-07T14:05:42Z</time>
      </trkpt>
      <trkpt lat="43.43069" lon="6.04002">
        <ele>317.20001220703</ele>
        <time>2013-12-07T14:05:56Z</time>
      </trkpt>
      <trkpt lat="43.43069" lon="6.04001">
        <ele>317.20001220703</ele>
        <time>2013-12-07T14:06:08Z</time>
      </trkpt>
      <trkpt lat="43.43071" lon="6.03992">
        <ele>317.20001220703</ele>
        <time>2013-12-07T14:06:13Z</time>
      </trkpt>
      <trkpt lat="43.43071" lon="6.0399">
        <ele>317.20001220703</ele>
        <time>2013-12-07T14:06:14Z</time>
      </trkpt>
      <trkpt lat="43.43075" lon="6.03973">
        <ele>317.20001220703</ele>
        <time>2013-12-07T14:06:21Z</time>
      </trkpt>
      <trkpt lat="43.43077" lon="6.03965">
        <ele>317.60000610352</ele>
        <time>2013-12-07T14:06:24Z</time>
      </trkpt>
      <trkpt lat="43.43084" lon="6.03931">
        <ele>319.20001220703</ele>
        <time>2013-12-07T14:06:38Z</time>
      </trkpt>
      <trkpt lat="43.43086" lon="6.03915">
        <ele>321.39999389648</ele>
        <time>2013-12-07T14:06:44Z</time>
      </trkpt>
      <trkpt lat="43.43086" lon="6.03907">
        <ele>321.39999389648</ele>
        <time>2013-12-07T14:06:47Z</time>
      </trkpt>
      <trkpt lat="43.43087" lon="6.03893">
        <ele>322.20001220703</ele>
        <time>2013-12-07T14:06:52Z</time>
      </trkpt>
      <trkpt lat="43.43086" lon="6.03881">
        <ele>323.60000610352</ele>
        <time>2013-12-07T14:06:57Z</time>
      </trkpt>
      <trkpt lat="43.43087" lon="6.03863">
        <ele>323.60000610352</ele>
        <time>2013-12-07T14:07:04Z</time>
      </trkpt>
      <trkpt lat="43.43089" lon="6.03846">
        <ele>323.60000610352</ele>
        <time>2013-12-07T14:07:10Z</time>
      </trkpt>
      <trkpt lat="43.43091" lon="6.03825">
        <ele>323.60000610352</ele>
        <time>2013-12-07T14:07:17Z</time>
      </trkpt>
      <trkpt lat="43.43093" lon="6.03783">
        <ele>323.60000610352</ele>
        <time>2013-12-07T14:07:31Z</time>
      </trkpt>
      <trkpt lat="43.43094" lon="6.03764">
        <ele>323.60000610352</ele>
        <time>2013-12-07T14:07:37Z</time>
      </trkpt>
      <trkpt lat="43.43097" lon="6.03716">
        <ele>324</ele>
        <time>2013-12-07T14:07:53Z</time>
      </trkpt>
      <trkpt lat="43.43097" lon="6.03706">
        <ele>325.20001220703</ele>
        <time>2013-12-07T14:07:56Z</time>
      </trkpt>
      <trkpt lat="43.431" lon="6.03678">
        <ele>325.60000610352</ele>
        <time>2013-12-07T14:08:05Z</time>
      </trkpt>
      <trkpt lat="43.43105" lon="6.03662">
        <ele>325.60000610352</ele>
        <time>2013-12-07T14:08:11Z</time>
      </trkpt>
      <trkpt lat="43.43103" lon="6.03623">
        <ele>325.60000610352</ele>
        <time>2013-12-07T14:08:24Z</time>
      </trkpt>
      <trkpt lat="43.43106" lon="6.03603">
        <ele>325.60000610352</ele>
        <time>2013-12-07T14:08:31Z</time>
      </trkpt>
      <trkpt lat="43.43108" lon="6.03594">
        <ele>325.60000610352</ele>
        <time>2013-12-07T14:08:35Z</time>
      </trkpt>
      <trkpt lat="43.43109" lon="6.03588">
        <ele>326.39999389648</ele>
        <time>2013-12-07T14:08:37Z</time>
      </trkpt>
      <trkpt lat="43.43108" lon="6.03585">
        <ele>326.79998779297</ele>
        <time>2013-12-07T14:08:38Z</time>
      </trkpt>
      <trkpt lat="43.43108" lon="6.03563">
        <ele>327.79998779297</ele>
        <time>2013-12-07T14:08:45Z</time>
      </trkpt>
      <trkpt lat="43.43108" lon="6.03539">
        <ele>327.79998779297</ele>
        <time>2013-12-07T14:08:52Z</time>
      </trkpt>
      <trkpt lat="43.43108" lon="6.0352">
        <ele>327.79998779297</ele>
        <time>2013-12-07T14:08:59Z</time>
      </trkpt>
      <trkpt lat="43.4311" lon="6.03502">
        <ele>328.60000610352</ele>
        <time>2013-12-07T14:09:06Z</time>
      </trkpt>
      <trkpt lat="43.43111" lon="6.03482">
        <ele>329.79998779297</ele>
        <time>2013-12-07T14:09:14Z</time>
      </trkpt>
      <trkpt lat="43.43112" lon="6.0346">
        <ele>329.79998779297</ele>
        <time>2013-12-07T14:09:23Z</time>
      </trkpt>
      <trkpt lat="43.43113" lon="6.03437">
        <ele>329.79998779297</ele>
        <time>2013-12-07T14:09:32Z</time>
      </trkpt>
      <trkpt lat="43.43114" lon="6.03421">
        <ele>329.79998779297</ele>
        <time>2013-12-07T14:09:38Z</time>
      </trkpt>
      <trkpt lat="43.43118" lon="6.034">
        <ele>330.60000610352</ele>
        <time>2013-12-07T14:09:46Z</time>
      </trkpt>
      <trkpt lat="43.43119" lon="6.03391">
        <ele>331.79998779297</ele>
        <time>2013-12-07T14:09:49Z</time>
      </trkpt>
      <trkpt lat="43.43121" lon="6.03365">
        <ele>331.79998779297</ele>
        <time>2013-12-07T14:09:58Z</time>
      </trkpt>
      <trkpt lat="43.43123" lon="6.03342">
        <ele>331.79998779297</ele>
        <time>2013-12-07T14:10:06Z</time>
      </trkpt>
      <trkpt lat="43.43124" lon="6.03319">
        <ele>332.60000610352</ele>
        <time>2013-12-07T14:10:15Z</time>
      </trkpt>
      <trkpt lat="43.43124" lon="6.03312">
        <ele>333.79998779297</ele>
        <time>2013-12-07T14:10:18Z</time>
      </trkpt>
      <trkpt lat="43.43125" lon="6.03285">
        <ele>333.79998779297</ele>
        <time>2013-12-07T14:10:28Z</time>
      </trkpt>
      <trkpt lat="43.43127" lon="6.03248">
        <ele>335.79998779297</ele>
        <time>2013-12-07T14:10:44Z</time>
      </trkpt>
      <trkpt lat="43.43128" lon="6.03237">
        <ele>335.79998779297</ele>
        <time>2013-12-07T14:10:49Z</time>
      </trkpt>
      <trkpt lat="43.43129" lon="6.03229">
        <ele>335.79998779297</ele>
        <time>2013-12-07T14:10:53Z</time>
      </trkpt>
      <trkpt lat="43.43129" lon="6.03226">
        <ele>335.79998779297</ele>
        <time>2013-12-07T14:10:55Z</time>
      </trkpt>
      <trkpt lat="43.43129" lon="6.03224">
        <ele>335.79998779297</ele>
        <time>2013-12-07T14:11:00Z</time>
      </trkpt>
      <trkpt lat="43.43129" lon="6.03225">
        <ele>335.79998779297</ele>
        <time>2013-12-07T14:11:09Z</time>
      </trkpt>
      <trkpt lat="43.43129" lon="6.03225">
        <ele>335.79998779297</ele>
        <time>2013-12-07T14:11:36Z</time>
      </trkpt>
      <trkpt lat="43.43129" lon="6.03225">
        <ele>335.79998779297</ele>
        <time>2013-12-07T14:11:46Z</time>
      </trkpt>
      <trkpt lat="43.43129" lon="6.03225">
        <ele>335.79998779297</ele>
        <time>2013-12-07T14:11:52Z</time>
      </trkpt>
      <trkpt lat="43.43129" lon="6.03223">
        <ele>335.79998779297</ele>
        <time>2013-12-07T14:12:04Z</time>
      </trkpt>
      <trkpt lat="43.4313" lon="6.03222">
        <ele>335.79998779297</ele>
        <time>2013-12-07T14:12:05Z</time>
      </trkpt>
      <trkpt lat="43.43131" lon="6.03215">
        <ele>335.79998779297</ele>
        <time>2013-12-07T14:12:08Z</time>
      </trkpt>
      <trkpt lat="43.43132" lon="6.03197">
        <ele>335.79998779297</ele>
        <time>2013-12-07T14:12:11Z</time>
      </trkpt>
      <trkpt lat="43.43133" lon="6.03189">
        <ele>335.39999389648</ele>
        <time>2013-12-07T14:12:12Z</time>
      </trkpt>
      <trkpt lat="43.43133" lon="6.03181">
        <ele>334.79998779297</ele>
        <time>2013-12-07T14:12:13Z</time>
      </trkpt>
      <trkpt lat="43.43133" lon="6.0317">
        <ele>334.20001220703</ele>
        <time>2013-12-07T14:12:14Z</time>
      </trkpt>
      <trkpt lat="43.43132" lon="6.0316">
        <ele>333.39999389648</ele>
        <time>2013-12-07T14:12:15Z</time>
      </trkpt>
      <trkpt lat="43.43132" lon="6.0315">
        <ele>332.60000610352</ele>
        <time>2013-12-07T14:12:16Z</time>
      </trkpt>
      <trkpt lat="43.43133" lon="6.03141">
        <ele>331.79998779297</ele>
        <time>2013-12-07T14:12:17Z</time>
      </trkpt>
      <trkpt lat="43.43134" lon="6.03134">
        <ele>329.79998779297</ele>
        <time>2013-12-07T14:12:18Z</time>
      </trkpt>
      <trkpt lat="43.43134" lon="6.03128">
        <ele>329</ele>
        <time>2013-12-07T14:12:19Z</time>
      </trkpt>
      <trkpt lat="43.43134" lon="6.03124">
        <ele>328</ele>
        <time>2013-12-07T14:12:20Z</time>
      </trkpt>
      <trkpt lat="43.43135" lon="6.03111">
        <ele>328</ele>
        <time>2013-12-07T14:12:23Z</time>
      </trkpt>
      <trkpt lat="43.43138" lon="6.03079">
        <ele>328</ele>
        <time>2013-12-07T14:12:29Z</time>
      </trkpt>
      <trkpt lat="43.43138" lon="6.0306">
        <ele>328</ele>
        <time>2013-12-07T14:12:34Z</time>
      </trkpt>
      <trkpt lat="43.43136" lon="6.03052">
        <ele>328.39999389648</ele>
        <time>2013-12-07T14:12:37Z</time>
      </trkpt>
      <trkpt lat="43.43135" lon="6.03047">
        <ele>329.39999389648</ele>
        <time>2013-12-07T14:12:39Z</time>
      </trkpt>
      <trkpt lat="43.43134" lon="6.03044">
        <ele>329.79998779297</ele>
        <time>2013-12-07T14:12:40Z</time>
      </trkpt>
      <trkpt lat="43.43133" lon="6.03042">
        <ele>330.20001220703</ele>
        <time>2013-12-07T14:12:41Z</time>
      </trkpt>
      <trkpt lat="43.4313" lon="6.03033">
        <ele>330.20001220703</ele>
        <time>2013-12-07T14:12:44Z</time>
      </trkpt>
      <trkpt lat="43.43129" lon="6.03029">
        <ele>330.60000610352</ele>
        <time>2013-12-07T14:12:46Z</time>
      </trkpt>
      <trkpt lat="43.43125" lon="6.03022">
        <ele>332</ele>
        <time>2013-12-07T14:12:49Z</time>
      </trkpt>
      <trkpt lat="43.43121" lon="6.03013">
        <ele>332.39999389648</ele>
        <time>2013-12-07T14:12:53Z</time>
      </trkpt>
      <trkpt lat="43.43114" lon="6.02997">
        <ele>332.39999389648</ele>
        <time>2013-12-07T14:13:00Z</time>
      </trkpt>
      <trkpt lat="43.4311" lon="6.02986">
        <ele>332.39999389648</ele>
        <time>2013-12-07T14:13:06Z</time>
      </trkpt>
      <trkpt lat="43.43106" lon="6.02981">
        <ele>334</ele>
        <time>2013-12-07T14:13:09Z</time>
      </trkpt>
      <trkpt lat="43.43102" lon="6.02976">
        <ele>334.39999389648</ele>
        <time>2013-12-07T14:13:13Z</time>
      </trkpt>
      <trkpt lat="43.43096" lon="6.02966">
        <ele>334.39999389648</ele>
        <time>2013-12-07T14:13:19Z</time>
      </trkpt>
      <trkpt lat="43.43088" lon="6.02954">
        <ele>335.60000610352</ele>
        <time>2013-12-07T14:13:25Z</time>
      </trkpt>
      <trkpt lat="43.43085" lon="6.0295">
        <ele>336.39999389648</ele>
        <time>2013-12-07T14:13:27Z</time>
      </trkpt>
      <trkpt lat="43.43078" lon="6.0294">
        <ele>336.39999389648</ele>
        <time>2013-12-07T14:13:33Z</time>
      </trkpt>
      <trkpt lat="43.4307" lon="6.02926">
        <ele>336.39999389648</ele>
        <time>2013-12-07T14:13:41Z</time>
      </trkpt>
      <trkpt lat="43.43066" lon="6.02921">
        <ele>336.79998779297</ele>
        <time>2013-12-07T14:13:44Z</time>
      </trkpt>
      <trkpt lat="43.43055" lon="6.02905">
        <ele>338.60000610352</ele>
        <time>2013-12-07T14:13:54Z</time>
      </trkpt>
      <trkpt lat="43.43049" lon="6.02897">
        <ele>338.60000610352</ele>
        <time>2013-12-07T14:13:59Z</time>
      </trkpt>
      <trkpt lat="43.43048" lon="6.02895">
        <ele>338.60000610352</ele>
        <time>2013-12-07T14:14:00Z</time>
      </trkpt>
      <trkpt lat="43.43045" lon="6.0289">
        <ele>338.60000610352</ele>
        <time>2013-12-07T14:14:03Z</time>
      </trkpt>
      <trkpt lat="43.43042" lon="6.02888">
        <ele>338.60000610352</ele>
        <time>2013-12-07T14:14:06Z</time>
      </trkpt>
      <trkpt lat="43.43042" lon="6.02888">
        <ele>340.60000610352</ele>
        <time>2013-12-07T14:14:23Z</time>
      </trkpt>
      <trkpt lat="43.43042" lon="6.02888">
        <ele>340.60000610352</ele>
        <time>2013-12-07T14:14:49Z</time>
      </trkpt>
      <trkpt lat="43.43042" lon="6.02888">
        <ele>340.60000610352</ele>
        <time>2013-12-07T14:14:52Z</time>
      </trkpt>
      <trkpt lat="43.43042" lon="6.02888">
        <ele>340.60000610352</ele>
        <time>2013-12-07T14:15:21Z</time>
      </trkpt>
      <trkpt lat="43.43042" lon="6.02888">
        <ele>340.60000610352</ele>
        <time>2013-12-07T14:15:51Z</time>
      </trkpt>
      <trkpt lat="43.43042" lon="6.02888">
        <ele>340.60000610352</ele>
        <time>2013-12-07T14:16:03Z</time>
      </trkpt>
      <trkpt lat="43.43039" lon="6.02888">
        <ele>340.60000610352</ele>
        <time>2013-12-07T14:16:12Z</time>
      </trkpt>
      <trkpt lat="43.43035" lon="6.02887">
        <ele>340.60000610352</ele>
        <time>2013-12-07T14:16:15Z</time>
      </trkpt>
      <trkpt lat="43.43032" lon="6.02884">
        <ele>340.60000610352</ele>
        <time>2013-12-07T14:16:17Z</time>
      </trkpt>
      <trkpt lat="43.43029" lon="6.02882">
        <ele>340.60000610352</ele>
        <time>2013-12-07T14:16:20Z</time>
      </trkpt>
      <trkpt lat="43.43026" lon="6.0288">
        <ele>340.60000610352</ele>
        <time>2013-12-07T14:16:22Z</time>
      </trkpt>
      <trkpt lat="43.43024" lon="6.0288">
        <ele>340.60000610352</ele>
        <time>2013-12-07T14:16:23Z</time>
      </trkpt>
      <trkpt lat="43.43017" lon="6.02876">
        <ele>340.60000610352</ele>
        <time>2013-12-07T14:16:28Z</time>
      </trkpt>
      <trkpt lat="43.4301" lon="6.02875">
        <ele>340.60000610352</ele>
        <time>2013-12-07T14:16:32Z</time>
      </trkpt>
      <trkpt lat="43.43002" lon="6.02875">
        <ele>341.79998779297</ele>
        <time>2013-12-07T14:16:37Z</time>
      </trkpt>
      <trkpt lat="43.42999" lon="6.02872">
        <ele>342.60000610352</ele>
        <time>2013-12-07T14:16:40Z</time>
      </trkpt>
      <trkpt lat="43.42993" lon="6.02862">
        <ele>342.60000610352</ele>
        <time>2013-12-07T14:16:46Z</time>
      </trkpt>
      <trkpt lat="43.42991" lon="6.02854">
        <ele>342.60000610352</ele>
        <time>2013-12-07T14:16:50Z</time>
      </trkpt>
      <trkpt lat="43.42987" lon="6.02845">
        <ele>343</ele>
        <time>2013-12-07T14:16:55Z</time>
      </trkpt>
      <trkpt lat="43.42987" lon="6.02843">
        <ele>343.39999389648</ele>
        <time>2013-12-07T14:16:56Z</time>
      </trkpt>
      <trkpt lat="43.42987" lon="6.02841">
        <ele>343.79998779297</ele>
        <time>2013-12-07T14:16:57Z</time>
      </trkpt>
      <trkpt lat="43.42986" lon="6.02835">
        <ele>344.60000610352</ele>
        <time>2013-12-07T14:16:59Z</time>
      </trkpt>
      <trkpt lat="43.42987" lon="6.02825">
        <ele>344.60000610352</ele>
        <time>2013-12-07T14:17:03Z</time>
      </trkpt>
      <trkpt lat="43.42986" lon="6.02817">
        <ele>344.60000610352</ele>
        <time>2013-12-07T14:17:07Z</time>
      </trkpt>
      <trkpt lat="43.42985" lon="6.02815">
        <ele>344.60000610352</ele>
        <time>2013-12-07T14:17:08Z</time>
      </trkpt>
      <trkpt lat="43.42978" lon="6.02804">
        <ele>345</ele>
        <time>2013-12-07T14:17:15Z</time>
      </trkpt>
      <trkpt lat="43.42978" lon="6.02802">
        <ele>345.39999389648</ele>
        <time>2013-12-07T14:17:16Z</time>
      </trkpt>
      <trkpt lat="43.42975" lon="6.02794">
        <ele>346.79998779297</ele>
        <time>2013-12-07T14:17:21Z</time>
      </trkpt>
      <trkpt lat="43.42968" lon="6.02779">
        <ele>346.79998779297</ele>
        <time>2013-12-07T14:17:29Z</time>
      </trkpt>
      <trkpt lat="43.42958" lon="6.02767">
        <ele>346.79998779297</ele>
        <time>2013-12-07T14:17:37Z</time>
      </trkpt>
      <trkpt lat="43.42953" lon="6.02757">
        <ele>348.79998779297</ele>
        <time>2013-12-07T14:17:42Z</time>
      </trkpt>
      <trkpt lat="43.42949" lon="6.0275">
        <ele>348.79998779297</ele>
        <time>2013-12-07T14:17:47Z</time>
      </trkpt>
      <trkpt lat="43.42946" lon="6.02747">
        <ele>348.79998779297</ele>
        <time>2013-12-07T14:17:49Z</time>
      </trkpt>
      <trkpt lat="43.42942" lon="6.02739">
        <ele>349.60000610352</ele>
        <time>2013-12-07T14:17:54Z</time>
      </trkpt>
      <trkpt lat="43.42931" lon="6.0273">
        <ele>350.79998779297</ele>
        <time>2013-12-07T14:18:01Z</time>
      </trkpt>
      <trkpt lat="43.42927" lon="6.02724">
        <ele>350.79998779297</ele>
        <time>2013-12-07T14:18:05Z</time>
      </trkpt>
      <trkpt lat="43.42926" lon="6.0271">
        <ele>350.79998779297</ele>
        <time>2013-12-07T14:18:11Z</time>
      </trkpt>
      <trkpt lat="43.42926" lon="6.027">
        <ele>351.20001220703</ele>
        <time>2013-12-07T14:18:15Z</time>
      </trkpt>
      <trkpt lat="43.42925" lon="6.02687">
        <ele>352.79998779297</ele>
        <time>2013-12-07T14:18:21Z</time>
      </trkpt>
      <trkpt lat="43.42923" lon="6.02684">
        <ele>352.79998779297</ele>
        <time>2013-12-07T14:18:23Z</time>
      </trkpt>
      <trkpt lat="43.42916" lon="6.0268">
        <ele>352.79998779297</ele>
        <time>2013-12-07T14:18:28Z</time>
      </trkpt>
      <trkpt lat="43.42912" lon="6.02676">
        <ele>354.60000610352</ele>
        <time>2013-12-07T14:18:32Z</time>
      </trkpt>
      <trkpt lat="43.42907" lon="6.02675">
        <ele>355</ele>
        <time>2013-12-07T14:18:36Z</time>
      </trkpt>
      <trkpt lat="43.42904" lon="6.02672">
        <ele>355</ele>
        <time>2013-12-07T14:18:41Z</time>
      </trkpt>
      <trkpt lat="43.42904" lon="6.02671">
        <ele>355</ele>
        <time>2013-12-07T14:18:46Z</time>
      </trkpt>
      <trkpt lat="43.42904" lon="6.02671">
        <ele>355</ele>
        <time>2013-12-07T14:19:00Z</time>
      </trkpt>
      <trkpt lat="43.42904" lon="6.02671">
        <ele>355</ele>
        <time>2013-12-07T14:19:16Z</time>
      </trkpt>
      <trkpt lat="43.42902" lon="6.02669">
        <ele>355</ele>
        <time>2013-12-07T14:19:19Z</time>
      </trkpt>
      <trkpt lat="43.429" lon="6.02666">
        <ele>355</ele>
        <time>2013-12-07T14:19:20Z</time>
      </trkpt>
      <trkpt lat="43.42897" lon="6.02654">
        <ele>355</ele>
        <time>2013-12-07T14:19:25Z</time>
      </trkpt>
      <trkpt lat="43.42897" lon="6.02643">
        <ele>355</ele>
        <time>2013-12-07T14:19:30Z</time>
      </trkpt>
      <trkpt lat="43.42897" lon="6.0264">
        <ele>355</ele>
        <time>2013-12-07T14:19:31Z</time>
      </trkpt>
      <trkpt lat="43.42891" lon="6.02629">
        <ele>356.60000610352</ele>
        <time>2013-12-07T14:19:37Z</time>
      </trkpt>
      <trkpt lat="43.42891" lon="6.02618">
        <ele>357</ele>
        <time>2013-12-07T14:19:41Z</time>
      </trkpt>
      <trkpt lat="43.42891" lon="6.02615">
        <ele>357</ele>
        <time>2013-12-07T14:19:42Z</time>
      </trkpt>
      <trkpt lat="43.42888" lon="6.02603">
        <ele>357</ele>
        <time>2013-12-07T14:19:48Z</time>
      </trkpt>
      <trkpt lat="43.42886" lon="6.02601">
        <ele>357</ele>
        <time>2013-12-07T14:19:49Z</time>
      </trkpt>
      <trkpt lat="43.42884" lon="6.02596">
        <ele>357</ele>
        <time>2013-12-07T14:19:52Z</time>
      </trkpt>
      <trkpt lat="43.42882" lon="6.02591">
        <ele>358.20001220703</ele>
        <time>2013-12-07T14:19:55Z</time>
      </trkpt>
      <trkpt lat="43.42876" lon="6.02583">
        <ele>359.20001220703</ele>
        <time>2013-12-07T14:20:01Z</time>
      </trkpt>
      <trkpt lat="43.4287" lon="6.02576">
        <ele>359.20001220703</ele>
        <time>2013-12-07T14:20:06Z</time>
      </trkpt>
      <trkpt lat="43.42866" lon="6.02572">
        <ele>360.79998779297</ele>
        <time>2013-12-07T14:20:10Z</time>
      </trkpt>
      <trkpt lat="43.4286" lon="6.02561">
        <ele>361.20001220703</ele>
        <time>2013-12-07T14:20:17Z</time>
      </trkpt>
      <trkpt lat="43.42855" lon="6.02558">
        <ele>361.20001220703</ele>
        <time>2013-12-07T14:20:20Z</time>
      </trkpt>
      <trkpt lat="43.42846" lon="6.02552">
        <ele>362.39999389648</ele>
        <time>2013-12-07T14:20:27Z</time>
      </trkpt>
      <trkpt lat="43.42845" lon="6.0255">
        <ele>362.79998779297</ele>
        <time>2013-12-07T14:20:28Z</time>
      </trkpt>
      <trkpt lat="43.42841" lon="6.02542">
        <ele>363.20001220703</ele>
        <time>2013-12-07T14:20:32Z</time>
      </trkpt>
      <trkpt lat="43.42834" lon="6.0253">
        <ele>363.20001220703</ele>
        <time>2013-12-07T14:20:39Z</time>
      </trkpt>
      <trkpt lat="43.42833" lon="6.02528">
        <ele>363.20001220703</ele>
        <time>2013-12-07T14:20:40Z</time>
      </trkpt>
      <trkpt lat="43.42829" lon="6.02525">
        <ele>363.20001220703</ele>
        <time>2013-12-07T14:20:43Z</time>
      </trkpt>
      <trkpt lat="43.42826" lon="6.02525">
        <ele>363.20001220703</ele>
        <time>2013-12-07T14:20:45Z</time>
      </trkpt>
      <trkpt lat="43.42823" lon="6.02526">
        <ele>363.20001220703</ele>
        <time>2013-12-07T14:20:48Z</time>
      </trkpt>
      <trkpt lat="43.42814" lon="6.02526">
        <ele>363.20001220703</ele>
        <time>2013-12-07T14:20:53Z</time>
      </trkpt>
      <trkpt lat="43.42806" lon="6.02525">
        <ele>363.60000610352</ele>
        <time>2013-12-07T14:20:58Z</time>
      </trkpt>
      <trkpt lat="43.42803" lon="6.02523">
        <ele>364.39999389648</ele>
        <time>2013-12-07T14:21:00Z</time>
      </trkpt>
      <trkpt lat="43.42802" lon="6.02522">
        <ele>364.79998779297</ele>
        <time>2013-12-07T14:21:01Z</time>
      </trkpt>
      <trkpt lat="43.42797" lon="6.02518">
        <ele>365.20001220703</ele>
        <time>2013-12-07T14:21:05Z</time>
      </trkpt>
      <trkpt lat="43.42796" lon="6.02516">
        <ele>365.20001220703</ele>
        <time>2013-12-07T14:21:06Z</time>
      </trkpt>
      <trkpt lat="43.42798" lon="6.0251">
        <ele>365.20001220703</ele>
        <time>2013-12-07T14:21:09Z</time>
      </trkpt>
      <trkpt lat="43.42801" lon="6.02491">
        <ele>366.39999389648</ele>
        <time>2013-12-07T14:21:19Z</time>
      </trkpt>
      <trkpt lat="43.42802" lon="6.02485">
        <ele>367.20001220703</ele>
        <time>2013-12-07T14:21:22Z</time>
      </trkpt>
      <trkpt lat="43.42803" lon="6.02475">
        <ele>367.20001220703</ele>
        <time>2013-12-07T14:21:28Z</time>
      </trkpt>
      <trkpt lat="43.42804" lon="6.02466">
        <ele>367.60000610352</ele>
        <time>2013-12-07T14:21:33Z</time>
      </trkpt>
      <trkpt lat="43.42803" lon="6.02461">
        <ele>368.79998779297</ele>
        <time>2013-12-07T14:21:36Z</time>
      </trkpt>
      <trkpt lat="43.428" lon="6.02452">
        <ele>369.20001220703</ele>
        <time>2013-12-07T14:21:41Z</time>
      </trkpt>
      <trkpt lat="43.42802" lon="6.02426">
        <ele>371</ele>
        <time>2013-12-07T14:21:55Z</time>
      </trkpt>
      <trkpt lat="43.42803" lon="6.02413">
        <ele>371.39999389648</ele>
        <time>2013-12-07T14:22:01Z</time>
      </trkpt>
      <trkpt lat="43.42796" lon="6.02391">
        <ele>373.39999389648</ele>
        <time>2013-12-07T14:22:14Z</time>
      </trkpt>
      <trkpt lat="43.42793" lon="6.02383">
        <ele>373.39999389648</ele>
        <time>2013-12-07T14:22:19Z</time>
      </trkpt>
      <trkpt lat="43.42789" lon="6.02372">
        <ele>374.60000610352</ele>
        <time>2013-12-07T14:22:25Z</time>
      </trkpt>
      <trkpt lat="43.42788" lon="6.02364">
        <ele>375.60000610352</ele>
        <time>2013-12-07T14:22:29Z</time>
      </trkpt>
      <trkpt lat="43.42789" lon="6.02354">
        <ele>376</ele>
        <time>2013-12-07T14:22:35Z</time>
      </trkpt>
      <trkpt lat="43.42791" lon="6.02349">
        <ele>377.60000610352</ele>
        <time>2013-12-07T14:22:39Z</time>
      </trkpt>
      <trkpt lat="43.42794" lon="6.02345">
        <ele>377.60000610352</ele>
        <time>2013-12-07T14:22:42Z</time>
      </trkpt>
      <trkpt lat="43.42799" lon="6.02337">
        <ele>377.60000610352</ele>
        <time>2013-12-07T14:22:48Z</time>
      </trkpt>
      <trkpt lat="43.42804" lon="6.02323">
        <ele>377.60000610352</ele>
        <time>2013-12-07T14:22:57Z</time>
      </trkpt>
      <trkpt lat="43.42807" lon="6.02311">
        <ele>379.20001220703</ele>
        <time>2013-12-07T14:23:05Z</time>
      </trkpt>
      <trkpt lat="43.42808" lon="6.02306">
        <ele>379.60000610352</ele>
        <time>2013-12-07T14:23:08Z</time>
      </trkpt>
      <trkpt lat="43.42805" lon="6.02299">
        <ele>379.60000610352</ele>
        <time>2013-12-07T14:23:13Z</time>
      </trkpt>
      <trkpt lat="43.42798" lon="6.02297">
        <ele>379.60000610352</ele>
        <time>2013-12-07T14:23:18Z</time>
      </trkpt>
      <trkpt lat="43.42791" lon="6.02298">
        <ele>379.60000610352</ele>
        <time>2013-12-07T14:23:22Z</time>
      </trkpt>
      <trkpt lat="43.42786" lon="6.02291">
        <ele>379.60000610352</ele>
        <time>2013-12-07T14:23:28Z</time>
      </trkpt>
      <trkpt lat="43.42786" lon="6.02284">
        <ele>381.39999389648</ele>
        <time>2013-12-07T14:23:32Z</time>
      </trkpt>
      <trkpt lat="43.42789" lon="6.02278">
        <ele>381.79998779297</ele>
        <time>2013-12-07T14:23:36Z</time>
      </trkpt>
      <trkpt lat="43.42793" lon="6.02269">
        <ele>381.79998779297</ele>
        <time>2013-12-07T14:23:42Z</time>
      </trkpt>
      <trkpt lat="43.42791" lon="6.0226">
        <ele>381.79998779297</ele>
        <time>2013-12-07T14:23:48Z</time>
      </trkpt>
      <trkpt lat="43.42786" lon="6.02255">
        <ele>382.20001220703</ele>
        <time>2013-12-07T14:23:52Z</time>
      </trkpt>
      <trkpt lat="43.42784" lon="6.02253">
        <ele>383</ele>
        <time>2013-12-07T14:23:54Z</time>
      </trkpt>
      <trkpt lat="43.42783" lon="6.02251">
        <ele>383.79998779297</ele>
        <time>2013-12-07T14:23:56Z</time>
      </trkpt>
      <trkpt lat="43.42779" lon="6.02244">
        <ele>383.79998779297</ele>
        <time>2013-12-07T14:24:01Z</time>
      </trkpt>
      <trkpt lat="43.42774" lon="6.02234">
        <ele>383.79998779297</ele>
        <time>2013-12-07T14:24:07Z</time>
      </trkpt>
      <trkpt lat="43.42773" lon="6.02229">
        <ele>384.20001220703</ele>
        <time>2013-12-07T14:24:10Z</time>
      </trkpt>
      <trkpt lat="43.42772" lon="6.02223">
        <ele>386</ele>
        <time>2013-12-07T14:24:13Z</time>
      </trkpt>
      <trkpt lat="43.42768" lon="6.02214">
        <ele>386</ele>
        <time>2013-12-07T14:24:19Z</time>
      </trkpt>
      <trkpt lat="43.42763" lon="6.02204">
        <ele>386</ele>
        <time>2013-12-07T14:24:26Z</time>
      </trkpt>
      <trkpt lat="43.42753" lon="6.02194">
        <ele>388</ele>
        <time>2013-12-07T14:24:36Z</time>
      </trkpt>
      <trkpt lat="43.42749" lon="6.02191">
        <ele>388</ele>
        <time>2013-12-07T14:24:41Z</time>
      </trkpt>
      <trkpt lat="43.42748" lon="6.0219">
        <ele>388</ele>
        <time>2013-12-07T14:24:42Z</time>
      </trkpt>
      <trkpt lat="43.42741" lon="6.02186">
        <ele>390</ele>
        <time>2013-12-07T14:24:48Z</time>
      </trkpt>
      <trkpt lat="43.42737" lon="6.02185">
        <ele>390</ele>
        <time>2013-12-07T14:24:51Z</time>
      </trkpt>
      <trkpt lat="43.42733" lon="6.02182">
        <ele>390</ele>
        <time>2013-12-07T14:24:55Z</time>
      </trkpt>
      <trkpt lat="43.42726" lon="6.02178">
        <ele>390.39999389648</ele>
        <time>2013-12-07T14:25:02Z</time>
      </trkpt>
      <trkpt lat="43.42722" lon="6.02171">
        <ele>392</ele>
        <time>2013-12-07T14:25:08Z</time>
      </trkpt>
      <trkpt lat="43.4272" lon="6.02165">
        <ele>392</ele>
        <time>2013-12-07T14:25:12Z</time>
      </trkpt>
      <trkpt lat="43.42719" lon="6.0216">
        <ele>392</ele>
        <time>2013-12-07T14:25:16Z</time>
      </trkpt>
      <trkpt lat="43.42718" lon="6.02155">
        <ele>392.60000610352</ele>
        <time>2013-12-07T14:25:20Z</time>
      </trkpt>
      <trkpt lat="43.42718" lon="6.02155">
        <ele>393</ele>
        <time>2013-12-07T14:25:21Z</time>
      </trkpt>
      <trkpt lat="43.42718" lon="6.02155">
        <ele>394.20001220703</ele>
        <time>2013-12-07T14:25:35Z</time>
      </trkpt>
      <trkpt lat="43.42718" lon="6.02155">
        <ele>394.20001220703</ele>
        <time>2013-12-07T14:25:56Z</time>
      </trkpt>
      <trkpt lat="43.42718" lon="6.02154">
        <ele>394.20001220703</ele>
        <time>2013-12-07T14:26:01Z</time>
      </trkpt>
      <trkpt lat="43.42718" lon="6.02154">
        <ele>394.20001220703</ele>
        <time>2013-12-07T14:26:25Z</time>
      </trkpt>
      <trkpt lat="43.42718" lon="6.02154">
        <ele>394.20001220703</ele>
        <time>2013-12-07T14:26:38Z</time>
      </trkpt>
      <trkpt lat="43.42718" lon="6.02154">
        <ele>394.20001220703</ele>
        <time>2013-12-07T14:26:45Z</time>
      </trkpt>
      <trkpt lat="43.42718" lon="6.02153">
        <ele>394.20001220703</ele>
        <time>2013-12-07T14:26:46Z</time>
      </trkpt>
      <trkpt lat="43.42722" lon="6.02144">
        <ele>394.20001220703</ele>
        <time>2013-12-07T14:26:51Z</time>
      </trkpt>
      <trkpt lat="43.42722" lon="6.02142">
        <ele>394.20001220703</ele>
        <time>2013-12-07T14:26:52Z</time>
      </trkpt>
      <trkpt lat="43.42725" lon="6.02134">
        <ele>394.20001220703</ele>
        <time>2013-12-07T14:26:57Z</time>
      </trkpt>
      <trkpt lat="43.42726" lon="6.02132">
        <ele>394.20001220703</ele>
        <time>2013-12-07T14:26:58Z</time>
      </trkpt>
      <trkpt lat="43.42729" lon="6.02123">
        <ele>394.20001220703</ele>
        <time>2013-12-07T14:27:02Z</time>
      </trkpt>
      <trkpt lat="43.42731" lon="6.02112">
        <ele>394.20001220703</ele>
        <time>2013-12-07T14:27:07Z</time>
      </trkpt>
      <trkpt lat="43.42733" lon="6.02105">
        <ele>394.20001220703</ele>
        <time>2013-12-07T14:27:10Z</time>
      </trkpt>
      <trkpt lat="43.42735" lon="6.02082">
        <ele>394.60000610352</ele>
        <time>2013-12-07T14:27:19Z</time>
      </trkpt>
      <trkpt lat="43.42737" lon="6.02074">
        <ele>395.79998779297</ele>
        <time>2013-12-07T14:27:22Z</time>
      </trkpt>
      <trkpt lat="43.42737" lon="6.02072">
        <ele>396.20001220703</ele>
        <time>2013-12-07T14:27:23Z</time>
      </trkpt>
      <trkpt lat="43.42738" lon="6.02063">
        <ele>396.20001220703</ele>
        <time>2013-12-07T14:27:26Z</time>
      </trkpt>
      <trkpt lat="43.42738" lon="6.02049">
        <ele>396.20001220703</ele>
        <time>2013-12-07T14:27:32Z</time>
      </trkpt>
      <trkpt lat="43.42738" lon="6.02041">
        <ele>396.20001220703</ele>
        <time>2013-12-07T14:27:37Z</time>
      </trkpt>
      <trkpt lat="43.42735" lon="6.0204">
        <ele>396.20001220703</ele>
        <time>2013-12-07T14:27:41Z</time>
      </trkpt>
      <trkpt lat="43.42728" lon="6.02038">
        <ele>396.20001220703</ele>
        <time>2013-12-07T14:27:48Z</time>
      </trkpt>
      <trkpt lat="43.42712" lon="6.02037">
        <ele>396.20001220703</ele>
        <time>2013-12-07T14:28:02Z</time>
      </trkpt>
      <trkpt lat="43.42701" lon="6.02035">
        <ele>398.39999389648</ele>
        <time>2013-12-07T14:28:11Z</time>
      </trkpt>
      <trkpt lat="43.42688" lon="6.02032">
        <ele>399.60000610352</ele>
        <time>2013-12-07T14:28:21Z</time>
      </trkpt>
      <trkpt lat="43.42685" lon="6.02032">
        <ele>400.39999389648</ele>
        <time>2013-12-07T14:28:23Z</time>
      </trkpt>
      <trkpt lat="43.42677" lon="6.02032">
        <ele>400.39999389648</ele>
        <time>2013-12-07T14:28:29Z</time>
      </trkpt>
      <trkpt lat="43.42672" lon="6.0203">
        <ele>401.60000610352</ele>
        <time>2013-12-07T14:28:34Z</time>
      </trkpt>
      <trkpt lat="43.4267" lon="6.02029">
        <ele>402</ele>
        <time>2013-12-07T14:28:35Z</time>
      </trkpt>
      <trkpt lat="43.42668" lon="6.02029">
        <ele>402.39999389648</ele>
        <time>2013-12-07T14:28:40Z</time>
      </trkpt>
      <trkpt lat="43.42664" lon="6.02028">
        <ele>402.39999389648</ele>
        <time>2013-12-07T14:28:44Z</time>
      </trkpt>
      <trkpt lat="43.4266" lon="6.02027">
        <ele>404</ele>
        <time>2013-12-07T14:28:48Z</time>
      </trkpt>
      <trkpt lat="43.42657" lon="6.02026">
        <ele>404.39999389648</ele>
        <time>2013-12-07T14:28:50Z</time>
      </trkpt>
      <trkpt lat="43.42651" lon="6.02025">
        <ele>405</ele>
        <time>2013-12-07T14:28:55Z</time>
      </trkpt>
      <trkpt lat="43.42649" lon="6.02025">
        <ele>405.79998779297</ele>
        <time>2013-12-07T14:28:57Z</time>
      </trkpt>
      <trkpt lat="43.42647" lon="6.02024">
        <ele>406.60000610352</ele>
        <time>2013-12-07T14:28:59Z</time>
      </trkpt>
      <trkpt lat="43.42644" lon="6.02024">
        <ele>406.60000610352</ele>
        <time>2013-12-07T14:29:02Z</time>
      </trkpt>
      <trkpt lat="43.42636" lon="6.02026">
        <ele>408.20001220703</ele>
        <time>2013-12-07T14:29:09Z</time>
      </trkpt>
      <trkpt lat="43.42635" lon="6.02026">
        <ele>408.79998779297</ele>
        <time>2013-12-07T14:29:10Z</time>
      </trkpt>
      <trkpt lat="43.42632" lon="6.02024">
        <ele>408.79998779297</ele>
        <time>2013-12-07T14:29:14Z</time>
      </trkpt>
      <trkpt lat="43.42624" lon="6.02021">
        <ele>410.79998779297</ele>
        <time>2013-12-07T14:29:22Z</time>
      </trkpt>
      <trkpt lat="43.42619" lon="6.02022">
        <ele>410.79998779297</ele>
        <time>2013-12-07T14:29:27Z</time>
      </trkpt>
      <trkpt lat="43.4261" lon="6.0202">
        <ele>412.79998779297</ele>
        <time>2013-12-07T14:29:36Z</time>
      </trkpt>
      <trkpt lat="43.42602" lon="6.02017">
        <ele>413.20001220703</ele>
        <time>2013-12-07T14:29:44Z</time>
      </trkpt>
      <trkpt lat="43.42599" lon="6.02018">
        <ele>414</ele>
        <time>2013-12-07T14:29:46Z</time>
      </trkpt>
      <trkpt lat="43.42591" lon="6.02018">
        <ele>414.79998779297</ele>
        <time>2013-12-07T14:29:54Z</time>
      </trkpt>
      <trkpt lat="43.42587" lon="6.02017">
        <ele>415.60000610352</ele>
        <time>2013-12-07T14:29:58Z</time>
      </trkpt>
      <trkpt lat="43.42578" lon="6.02014">
        <ele>416.79998779297</ele>
        <time>2013-12-07T14:30:08Z</time>
      </trkpt>
      <trkpt lat="43.42574" lon="6.02013">
        <ele>417.60000610352</ele>
        <time>2013-12-07T14:30:13Z</time>
      </trkpt>
      <trkpt lat="43.42572" lon="6.02013">
        <ele>418.39999389648</ele>
        <time>2013-12-07T14:30:15Z</time>
      </trkpt>
      <trkpt lat="43.4256" lon="6.02012">
        <ele>419.20001220703</ele>
        <time>2013-12-07T14:30:27Z</time>
      </trkpt>
      <trkpt lat="43.42553" lon="6.02012">
        <ele>421</ele>
        <time>2013-12-07T14:30:35Z</time>
      </trkpt>
      <trkpt lat="43.42545" lon="6.0201">
        <ele>421</ele>
        <time>2013-12-07T14:30:43Z</time>
      </trkpt>
      <trkpt lat="43.42539" lon="6.02008">
        <ele>422.60000610352</ele>
        <time>2013-12-07T14:30:49Z</time>
      </trkpt>
      <trkpt lat="43.42532" lon="6.02007">
        <ele>423</ele>
        <time>2013-12-07T14:30:56Z</time>
      </trkpt>
      <trkpt lat="43.42522" lon="6.02006">
        <ele>423</ele>
        <time>2013-12-07T14:31:05Z</time>
      </trkpt>
      <trkpt lat="43.42515" lon="6.02005">
        <ele>424.20001220703</ele>
        <time>2013-12-07T14:31:11Z</time>
      </trkpt>
      <trkpt lat="43.42506" lon="6.02004">
        <ele>425</ele>
        <time>2013-12-07T14:31:18Z</time>
      </trkpt>
      <trkpt lat="43.42502" lon="6.02004">
        <ele>425</ele>
        <time>2013-12-07T14:31:22Z</time>
      </trkpt>
      <trkpt lat="43.42498" lon="6.02004">
        <ele>425</ele>
        <time>2013-12-07T14:31:25Z</time>
      </trkpt>
      <trkpt lat="43.42494" lon="6.02004">
        <ele>425</ele>
        <time>2013-12-07T14:31:28Z</time>
      </trkpt>
      <trkpt lat="43.42493" lon="6.02004">
        <ele>425</ele>
        <time>2013-12-07T14:31:30Z</time>
      </trkpt>
      <trkpt lat="43.42493" lon="6.02004">
        <ele>425</ele>
        <time>2013-12-07T14:31:50Z</time>
      </trkpt>
      <trkpt lat="43.42493" lon="6.02004">
        <ele>425</ele>
        <time>2013-12-07T14:32:54Z</time>
      </trkpt>
      <trkpt lat="43.42493" lon="6.02004">
        <ele>425</ele>
        <time>2013-12-07T14:33:35Z</time>
      </trkpt>
      <trkpt lat="43.42491" lon="6.02004">
        <ele>425</ele>
        <time>2013-12-07T14:33:42Z</time>
      </trkpt>
      <trkpt lat="43.4249" lon="6.02004">
        <ele>425</ele>
        <time>2013-12-07T14:33:43Z</time>
      </trkpt>
      <trkpt lat="43.42478" lon="6.02">
        <ele>425</ele>
        <time>2013-12-07T14:33:48Z</time>
      </trkpt>
      <trkpt lat="43.42472" lon="6.01997">
        <ele>424.39999389648</ele>
        <time>2013-12-07T14:33:50Z</time>
      </trkpt>
      <trkpt lat="43.42469" lon="6.01996">
        <ele>424</ele>
        <time>2013-12-07T14:33:51Z</time>
      </trkpt>
      <trkpt lat="43.42464" lon="6.01995">
        <ele>423.60000610352</ele>
        <time>2013-12-07T14:33:52Z</time>
      </trkpt>
      <trkpt lat="43.4246" lon="6.01995">
        <ele>423</ele>
        <time>2013-12-07T14:33:53Z</time>
      </trkpt>
      <trkpt lat="43.42456" lon="6.01994">
        <ele>422.60000610352</ele>
        <time>2013-12-07T14:33:54Z</time>
      </trkpt>
      <trkpt lat="43.42443" lon="6.01993">
        <ele>421</ele>
        <time>2013-12-07T14:33:57Z</time>
      </trkpt>
      <trkpt lat="43.42428" lon="6.01993">
        <ele>418.39999389648</ele>
        <time>2013-12-07T14:34:01Z</time>
      </trkpt>
      <trkpt lat="43.42426" lon="6.01991">
        <ele>417.60000610352</ele>
        <time>2013-12-07T14:34:02Z</time>
      </trkpt>
      <trkpt lat="43.42423" lon="6.01988">
        <ele>416.79998779297</ele>
        <time>2013-12-07T14:34:03Z</time>
      </trkpt>
      <trkpt lat="43.42421" lon="6.01985">
        <ele>416</ele>
        <time>2013-12-07T14:34:04Z</time>
      </trkpt>
      <trkpt lat="43.42416" lon="6.01974">
        <ele>413.79998779297</ele>
        <time>2013-12-07T14:34:06Z</time>
      </trkpt>
      <trkpt lat="43.42413" lon="6.01967">
        <ele>413</ele>
        <time>2013-12-07T14:34:07Z</time>
      </trkpt>
      <trkpt lat="43.42412" lon="6.01952">
        <ele>411.60000610352</ele>
        <time>2013-12-07T14:34:09Z</time>
      </trkpt>
      <trkpt lat="43.42412" lon="6.01945">
        <ele>411</ele>
        <time>2013-12-07T14:34:10Z</time>
      </trkpt>
      <trkpt lat="43.42413" lon="6.01939">
        <ele>410.39999389648</ele>
        <time>2013-12-07T14:34:11Z</time>
      </trkpt>
      <trkpt lat="43.42414" lon="6.01934">
        <ele>409.79998779297</ele>
        <time>2013-12-07T14:34:12Z</time>
      </trkpt>
      <trkpt lat="43.42416" lon="6.01929">
        <ele>409</ele>
        <time>2013-12-07T14:34:13Z</time>
      </trkpt>
      <trkpt lat="43.42417" lon="6.01924">
        <ele>408.39999389648</ele>
        <time>2013-12-07T14:34:14Z</time>
      </trkpt>
      <trkpt lat="43.42419" lon="6.01914">
        <ele>408.39999389648</ele>
        <time>2013-12-07T14:34:17Z</time>
      </trkpt>
      <trkpt lat="43.42421" lon="6.01906">
        <ele>408.39999389648</ele>
        <time>2013-12-07T14:34:20Z</time>
      </trkpt>
      <trkpt lat="43.42425" lon="6.01892">
        <ele>408.39999389648</ele>
        <time>2013-12-07T14:34:24Z</time>
      </trkpt>
      <trkpt lat="43.42428" lon="6.01873">
        <ele>408.39999389648</ele>
        <time>2013-12-07T14:34:28Z</time>
      </trkpt>
      <trkpt lat="43.42429" lon="6.01862">
        <ele>408.39999389648</ele>
        <time>2013-12-07T14:34:30Z</time>
      </trkpt>
      <trkpt lat="43.42437" lon="6.01818">
        <ele>408.39999389648</ele>
        <time>2013-12-07T14:34:37Z</time>
      </trkpt>
      <trkpt lat="43.4244" lon="6.01803">
        <ele>408</ele>
        <time>2013-12-07T14:34:39Z</time>
      </trkpt>
      <trkpt lat="43.42441" lon="6.01795">
        <ele>407.60000610352</ele>
        <time>2013-12-07T14:34:40Z</time>
      </trkpt>
      <trkpt lat="43.42442" lon="6.01788">
        <ele>407.20001220703</ele>
        <time>2013-12-07T14:34:41Z</time>
      </trkpt>
      <trkpt lat="43.42444" lon="6.0178">
        <ele>406.79998779297</ele>
        <time>2013-12-07T14:34:42Z</time>
      </trkpt>
      <trkpt lat="43.42445" lon="6.01772">
        <ele>406.39999389648</ele>
        <time>2013-12-07T14:34:43Z</time>
      </trkpt>
      <trkpt lat="43.42452" lon="6.01727">
        <ele>406.39999389648</ele>
        <time>2013-12-07T14:34:49Z</time>
      </trkpt>
      <trkpt lat="43.42455" lon="6.01721">
        <ele>406.39999389648</ele>
        <time>2013-12-07T14:34:50Z</time>
      </trkpt>
      <trkpt lat="43.42469" lon="6.0168">
        <ele>406.39999389648</ele>
        <time>2013-12-07T14:34:57Z</time>
      </trkpt>
      <trkpt lat="43.42481" lon="6.01652">
        <ele>406.39999389648</ele>
        <time>2013-12-07T14:35:02Z</time>
      </trkpt>
      <trkpt lat="43.42484" lon="6.01647">
        <ele>406.39999389648</ele>
        <time>2013-12-07T14:35:03Z</time>
      </trkpt>
      <trkpt lat="43.42493" lon="6.01635">
        <ele>406.39999389648</ele>
        <time>2013-12-07T14:35:06Z</time>
      </trkpt>
      <trkpt lat="43.42499" lon="6.01627">
        <ele>406.39999389648</ele>
        <time>2013-12-07T14:35:08Z</time>
      </trkpt>
      <trkpt lat="43.42504" lon="6.01616">
        <ele>406.39999389648</ele>
        <time>2013-12-07T14:35:10Z</time>
      </trkpt>
      <trkpt lat="43.42506" lon="6.01602">
        <ele>406.39999389648</ele>
        <time>2013-12-07T14:35:12Z</time>
      </trkpt>
      <trkpt lat="43.42504" lon="6.01588">
        <ele>406.39999389648</ele>
        <time>2013-12-07T14:35:14Z</time>
      </trkpt>
      <trkpt lat="43.42491" lon="6.01533">
        <ele>406.39999389648</ele>
        <time>2013-12-07T14:35:22Z</time>
      </trkpt>
      <trkpt lat="43.42488" lon="6.01516">
        <ele>405.39999389648</ele>
        <time>2013-12-07T14:35:24Z</time>
      </trkpt>
      <trkpt lat="43.42485" lon="6.01497">
        <ele>404.39999389648</ele>
        <time>2013-12-07T14:35:26Z</time>
      </trkpt>
      <trkpt lat="43.42485" lon="6.01479">
        <ele>403.60000610352</ele>
        <time>2013-12-07T14:35:28Z</time>
      </trkpt>
      <trkpt lat="43.42486" lon="6.0147">
        <ele>403</ele>
        <time>2013-12-07T14:35:29Z</time>
      </trkpt>
      <trkpt lat="43.42487" lon="6.01461">
        <ele>402.60000610352</ele>
        <time>2013-12-07T14:35:30Z</time>
      </trkpt>
      <trkpt lat="43.42487" lon="6.01452">
        <ele>402.20001220703</ele>
        <time>2013-12-07T14:35:31Z</time>
      </trkpt>
      <trkpt lat="43.42488" lon="6.01443">
        <ele>401.79998779297</ele>
        <time>2013-12-07T14:35:32Z</time>
      </trkpt>
      <trkpt lat="43.42493" lon="6.01392">
        <ele>401.39999389648</ele>
        <time>2013-12-07T14:35:38Z</time>
      </trkpt>
      <trkpt lat="43.42493" lon="6.01351">
        <ele>399</ele>
        <time>2013-12-07T14:35:43Z</time>
      </trkpt>
      <trkpt lat="43.42492" lon="6.01334">
        <ele>397</ele>
        <time>2013-12-07T14:35:45Z</time>
      </trkpt>
      <trkpt lat="43.4249" lon="6.01325">
        <ele>396.20001220703</ele>
        <time>2013-12-07T14:35:46Z</time>
      </trkpt>
      <trkpt lat="43.42488" lon="6.01316">
        <ele>395.39999389648</ele>
        <time>2013-12-07T14:35:47Z</time>
      </trkpt>
      <trkpt lat="43.42487" lon="6.01308">
        <ele>394.60000610352</ele>
        <time>2013-12-07T14:35:48Z</time>
      </trkpt>
      <trkpt lat="43.42485" lon="6.01299">
        <ele>394</ele>
        <time>2013-12-07T14:35:49Z</time>
      </trkpt>
      <trkpt lat="43.42483" lon="6.01291">
        <ele>393</ele>
        <time>2013-12-07T14:35:50Z</time>
      </trkpt>
      <trkpt lat="43.42482" lon="6.01282">
        <ele>392</ele>
        <time>2013-12-07T14:35:51Z</time>
      </trkpt>
      <trkpt lat="43.4248" lon="6.01274">
        <ele>391</ele>
        <time>2013-12-07T14:35:52Z</time>
      </trkpt>
      <trkpt lat="43.42479" lon="6.01267">
        <ele>390</ele>
        <time>2013-12-07T14:35:53Z</time>
      </trkpt>
      <trkpt lat="43.42477" lon="6.0126">
        <ele>389</ele>
        <time>2013-12-07T14:35:54Z</time>
      </trkpt>
      <trkpt lat="43.42478" lon="6.01254">
        <ele>388</ele>
        <time>2013-12-07T14:35:55Z</time>
      </trkpt>
      <trkpt lat="43.42479" lon="6.0125">
        <ele>387.20001220703</ele>
        <time>2013-12-07T14:35:56Z</time>
      </trkpt>
      <trkpt lat="43.42482" lon="6.01247">
        <ele>386.20001220703</ele>
        <time>2013-12-07T14:35:57Z</time>
      </trkpt>
      <trkpt lat="43.42485" lon="6.01246">
        <ele>385.20001220703</ele>
        <time>2013-12-07T14:35:58Z</time>
      </trkpt>
      <trkpt lat="43.42488" lon="6.01246">
        <ele>384.39999389648</ele>
        <time>2013-12-07T14:35:59Z</time>
      </trkpt>
      <trkpt lat="43.42489" lon="6.01251">
        <ele>384.39999389648</ele>
        <time>2013-12-07T14:36:01Z</time>
      </trkpt>
      <trkpt lat="43.42486" lon="6.01247">
        <ele>384.39999389648</ele>
        <time>2013-12-07T14:36:04Z</time>
      </trkpt>
      <trkpt lat="43.42489" lon="6.01238">
        <ele>384.39999389648</ele>
        <time>2013-12-07T14:36:06Z</time>
      </trkpt>
      <trkpt lat="43.4249" lon="6.01234">
        <ele>384.39999389648</ele>
        <time>2013-12-07T14:36:07Z</time>
      </trkpt>
      <trkpt lat="43.42496" lon="6.01223">
        <ele>384.39999389648</ele>
        <time>2013-12-07T14:36:11Z</time>
      </trkpt>
      <trkpt lat="43.42498" lon="6.01222">
        <ele>384.39999389648</ele>
        <time>2013-12-07T14:36:12Z</time>
      </trkpt>
      <trkpt lat="43.42498" lon="6.01223">
        <ele>384.39999389648</ele>
        <time>2013-12-07T14:36:14Z</time>
      </trkpt>
      <trkpt lat="43.42498" lon="6.01223">
        <ele>384.39999389648</ele>
        <time>2013-12-07T14:36:15Z</time>
      </trkpt>
      <trkpt lat="43.42499" lon="6.01222">
        <ele>384.39999389648</ele>
        <time>2013-12-07T14:36:23Z</time>
      </trkpt>
      <trkpt lat="43.42499" lon="6.01222">
        <ele>384.39999389648</ele>
        <time>2013-12-07T14:36:27Z</time>
      </trkpt>
      <trkpt lat="43.42499" lon="6.01222">
        <ele>384.39999389648</ele>
        <time>2013-12-07T14:36:31Z</time>
      </trkpt>
      <trkpt lat="43.42504" lon="6.0122">
        <ele>384.79998779297</ele>
        <time>2013-12-07T14:36:41Z</time>
      </trkpt>
      <trkpt lat="43.42505" lon="6.0122">
        <ele>385.60000610352</ele>
        <time>2013-12-07T14:36:43Z</time>
      </trkpt>
      <trkpt lat="43.42505" lon="6.01219">
        <ele>386.39999389648</ele>
        <time>2013-12-07T14:36:45Z</time>
      </trkpt>
      <trkpt lat="43.42506" lon="6.01218">
        <ele>386.39999389648</ele>
        <time>2013-12-07T14:36:50Z</time>
      </trkpt>
      <trkpt lat="43.42506" lon="6.01218">
        <ele>386.39999389648</ele>
        <time>2013-12-07T14:36:59Z</time>
      </trkpt>
      <trkpt lat="43.42508" lon="6.01216">
        <ele>386.39999389648</ele>
        <time>2013-12-07T14:37:03Z</time>
      </trkpt>
      <trkpt lat="43.4251" lon="6.01216">
        <ele>386.39999389648</ele>
        <time>2013-12-07T14:37:04Z</time>
      </trkpt>
      <trkpt lat="43.42511" lon="6.01216">
        <ele>386.39999389648</ele>
        <time>2013-12-07T14:37:08Z</time>
      </trkpt>
      <trkpt lat="43.42511" lon="6.01216">
        <ele>386.79998779297</ele>
        <time>2013-12-07T14:37:09Z</time>
      </trkpt>
      <trkpt lat="43.42513" lon="6.01215">
        <ele>387.20001220703</ele>
        <time>2013-12-07T14:37:10Z</time>
      </trkpt>
      <trkpt lat="43.42514" lon="6.01214">
        <ele>388</ele>
        <time>2013-12-07T14:37:12Z</time>
      </trkpt>
      <trkpt lat="43.42514" lon="6.01214">
        <ele>388.39999389648</ele>
        <time>2013-12-07T14:37:13Z</time>
      </trkpt>
      <trkpt lat="43.42516" lon="6.01212">
        <ele>388.39999389648</ele>
        <time>2013-12-07T14:37:21Z</time>
      </trkpt>
      <trkpt lat="43.42516" lon="6.01212">
        <ele>388.39999389648</ele>
        <time>2013-12-07T14:37:32Z</time>
      </trkpt>
      <trkpt lat="43.42516" lon="6.01212">
        <ele>388.39999389648</ele>
        <time>2013-12-07T14:37:38Z</time>
      </trkpt>
      <trkpt lat="43.42517" lon="6.01211">
        <ele>388.39999389648</ele>
        <time>2013-12-07T14:37:40Z</time>
      </trkpt>
      <trkpt lat="43.42521" lon="6.01209">
        <ele>388.39999389648</ele>
        <time>2013-12-07T14:37:43Z</time>
      </trkpt>
      <trkpt lat="43.42524" lon="6.01205">
        <ele>389.20001220703</ele>
        <time>2013-12-07T14:37:46Z</time>
      </trkpt>
      <trkpt lat="43.42527" lon="6.01203">
        <ele>390.39999389648</ele>
        <time>2013-12-07T14:37:48Z</time>
      </trkpt>
      <trkpt lat="43.42529" lon="6.01201">
        <ele>390.39999389648</ele>
        <time>2013-12-07T14:37:50Z</time>
      </trkpt>
      <trkpt lat="43.42532" lon="6.01196">
        <ele>391.20001220703</ele>
        <time>2013-12-07T14:37:53Z</time>
      </trkpt>
      <trkpt lat="43.42534" lon="6.01188">
        <ele>392.39999389648</ele>
        <time>2013-12-07T14:37:57Z</time>
      </trkpt>
      <trkpt lat="43.42537" lon="6.0118">
        <ele>392.39999389648</ele>
        <time>2013-12-07T14:38:02Z</time>
      </trkpt>
      <trkpt lat="43.42538" lon="6.01168">
        <ele>392.39999389648</ele>
        <time>2013-12-07T14:38:09Z</time>
      </trkpt>
      <trkpt lat="43.42538" lon="6.01157">
        <ele>394.60000610352</ele>
        <time>2013-12-07T14:38:15Z</time>
      </trkpt>
      <trkpt lat="43.42538" lon="6.01153">
        <ele>394.60000610352</ele>
        <time>2013-12-07T14:38:17Z</time>
      </trkpt>
      <trkpt lat="43.42537" lon="6.01142">
        <ele>394.60000610352</ele>
        <time>2013-12-07T14:38:23Z</time>
      </trkpt>
      <trkpt lat="43.4254" lon="6.01134">
        <ele>395</ele>
        <time>2013-12-07T14:38:28Z</time>
      </trkpt>
      <trkpt lat="43.42541" lon="6.01134">
        <ele>395.39999389648</ele>
        <time>2013-12-07T14:38:29Z</time>
      </trkpt>
      <trkpt lat="43.42548" lon="6.01135">
        <ele>396.60000610352</ele>
        <time>2013-12-07T14:38:35Z</time>
      </trkpt>
      <trkpt lat="43.4255" lon="6.01135">
        <ele>397</ele>
        <time>2013-12-07T14:38:37Z</time>
      </trkpt>
      <trkpt lat="43.42553" lon="6.01134">
        <ele>397.79998779297</ele>
        <time>2013-12-07T14:38:39Z</time>
      </trkpt>
      <trkpt lat="43.42566" lon="6.01136">
        <ele>399</ele>
        <time>2013-12-07T14:38:51Z</time>
      </trkpt>
      <trkpt lat="43.4257" lon="6.01136">
        <ele>400.60000610352</ele>
        <time>2013-12-07T14:38:55Z</time>
      </trkpt>
      <trkpt lat="43.42574" lon="6.01135">
        <ele>400.60000610352</ele>
        <time>2013-12-07T14:38:58Z</time>
      </trkpt>
      <trkpt lat="43.42575" lon="6.01135">
        <ele>400.60000610352</ele>
        <time>2013-12-07T14:38:59Z</time>
      </trkpt>
      <trkpt lat="43.42582" lon="6.01134">
        <ele>400.60000610352</ele>
        <time>2013-12-07T14:39:06Z</time>
      </trkpt>
      <trkpt lat="43.42585" lon="6.01132">
        <ele>400.60000610352</ele>
        <time>2013-12-07T14:39:11Z</time>
      </trkpt>
      <trkpt lat="43.42586" lon="6.01132">
        <ele>400.60000610352</ele>
        <time>2013-12-07T14:39:12Z</time>
      </trkpt>
      <trkpt lat="43.42586" lon="6.01132">
        <ele>402.60000610352</ele>
        <time>2013-12-07T14:39:25Z</time>
      </trkpt>
      <trkpt lat="43.42586" lon="6.01132">
        <ele>402.60000610352</ele>
        <time>2013-12-07T14:40:00Z</time>
      </trkpt>
      <trkpt lat="43.42586" lon="6.01132">
        <ele>402.60000610352</ele>
        <time>2013-12-07T14:40:16Z</time>
      </trkpt>
      <trkpt lat="43.42586" lon="6.01132">
        <ele>402.60000610352</ele>
        <time>2013-12-07T14:40:33Z</time>
      </trkpt>
      <trkpt lat="43.42586" lon="6.01132">
        <ele>402.60000610352</ele>
        <time>2013-12-07T14:40:47Z</time>
      </trkpt>
      <trkpt lat="43.42586" lon="6.01132">
        <ele>402.60000610352</ele>
        <time>2013-12-07T14:41:01Z</time>
      </trkpt>
      <trkpt lat="43.42586" lon="6.01131">
        <ele>402.60000610352</ele>
        <time>2013-12-07T14:41:04Z</time>
      </trkpt>
      <trkpt lat="43.42586" lon="6.01129">
        <ele>402.60000610352</ele>
        <time>2013-12-07T14:41:05Z</time>
      </trkpt>
      <trkpt lat="43.42586" lon="6.01125">
        <ele>402.60000610352</ele>
        <time>2013-12-07T14:41:07Z</time>
      </trkpt>
      <trkpt lat="43.42585" lon="6.01115">
        <ele>402.60000610352</ele>
        <time>2013-12-07T14:41:11Z</time>
      </trkpt>
      <trkpt lat="43.42583" lon="6.0111">
        <ele>402.60000610352</ele>
        <time>2013-12-07T14:41:13Z</time>
      </trkpt>
      <trkpt lat="43.42582" lon="6.01101">
        <ele>402.60000610352</ele>
        <time>2013-12-07T14:41:17Z</time>
      </trkpt>
      <trkpt lat="43.42582" lon="6.01086">
        <ele>402.60000610352</ele>
        <time>2013-12-07T14:41:23Z</time>
      </trkpt>
      <trkpt lat="43.42589" lon="6.01083">
        <ele>402.60000610352</ele>
        <time>2013-12-07T14:41:27Z</time>
      </trkpt>
      <trkpt lat="43.42593" lon="6.01082">
        <ele>402.60000610352</ele>
        <time>2013-12-07T14:41:29Z</time>
      </trkpt>
      <trkpt lat="43.42598" lon="6.01077">
        <ele>402.60000610352</ele>
        <time>2013-12-07T14:41:32Z</time>
      </trkpt>
      <trkpt lat="43.42601" lon="6.01066">
        <ele>403.20001220703</ele>
        <time>2013-12-07T14:41:36Z</time>
      </trkpt>
      <trkpt lat="43.426" lon="6.01063">
        <ele>403.60000610352</ele>
        <time>2013-12-07T14:41:37Z</time>
      </trkpt>
      <trkpt lat="43.426" lon="6.01054">
        <ele>404.79998779297</ele>
        <time>2013-12-07T14:41:40Z</time>
      </trkpt>
      <trkpt lat="43.42598" lon="6.01043">
        <ele>404.79998779297</ele>
        <time>2013-12-07T14:41:44Z</time>
      </trkpt>
      <trkpt lat="43.42599" lon="6.01023">
        <ele>404.79998779297</ele>
        <time>2013-12-07T14:41:52Z</time>
      </trkpt>
      <trkpt lat="43.426" lon="6.01007">
        <ele>405.20001220703</ele>
        <time>2013-12-07T14:41:58Z</time>
      </trkpt>
      <trkpt lat="43.42599" lon="6.00997">
        <ele>406.79998779297</ele>
        <time>2013-12-07T14:42:02Z</time>
      </trkpt>
      <trkpt lat="43.42599" lon="6.0099">
        <ele>406.79998779297</ele>
        <time>2013-12-07T14:42:05Z</time>
      </trkpt>
      <trkpt lat="43.42602" lon="6.00969">
        <ele>406.79998779297</ele>
        <time>2013-12-07T14:42:13Z</time>
      </trkpt>
      <trkpt lat="43.42606" lon="6.00951">
        <ele>406.79998779297</ele>
        <time>2013-12-07T14:42:19Z</time>
      </trkpt>
      <trkpt lat="43.42611" lon="6.0093">
        <ele>407.20001220703</ele>
        <time>2013-12-07T14:42:25Z</time>
      </trkpt>
      <trkpt lat="43.42613" lon="6.00922">
        <ele>408</ele>
        <time>2013-12-07T14:42:27Z</time>
      </trkpt>
      <trkpt lat="43.42614" lon="6.00915">
        <ele>408.79998779297</ele>
        <time>2013-12-07T14:42:29Z</time>
      </trkpt>
      <trkpt lat="43.42615" lon="6.00908">
        <ele>408.79998779297</ele>
        <time>2013-12-07T14:42:31Z</time>
      </trkpt>
      <trkpt lat="43.42617" lon="6.00888">
        <ele>408.79998779297</ele>
        <time>2013-12-07T14:42:37Z</time>
      </trkpt>
      <trkpt lat="43.42619" lon="6.00863">
        <ele>408.79998779297</ele>
        <time>2013-12-07T14:42:43Z</time>
      </trkpt>
      <trkpt lat="43.42627" lon="6.00843">
        <ele>408.79998779297</ele>
        <time>2013-12-07T14:42:48Z</time>
      </trkpt>
      <trkpt lat="43.42638" lon="6.00829">
        <ele>408.79998779297</ele>
        <time>2013-12-07T14:42:52Z</time>
      </trkpt>
      <trkpt lat="43.4264" lon="6.00824">
        <ele>408.79998779297</ele>
        <time>2013-12-07T14:42:53Z</time>
      </trkpt>
      <trkpt lat="43.42644" lon="6.00803">
        <ele>408.79998779297</ele>
        <time>2013-12-07T14:42:57Z</time>
      </trkpt>
      <trkpt lat="43.42644" lon="6.00795">
        <ele>408.39999389648</ele>
        <time>2013-12-07T14:42:59Z</time>
      </trkpt>
      <trkpt lat="43.42643" lon="6.00793">
        <ele>408</ele>
        <time>2013-12-07T14:43:00Z</time>
      </trkpt>
      <trkpt lat="43.42643" lon="6.00791">
        <ele>407.60000610352</ele>
        <time>2013-12-07T14:43:01Z</time>
      </trkpt>
      <trkpt lat="43.42643" lon="6.00791">
        <ele>407.20001220703</ele>
        <time>2013-12-07T14:43:02Z</time>
      </trkpt>
      <trkpt lat="43.42643" lon="6.00791">
        <ele>406.79998779297</ele>
        <time>2013-12-07T14:43:17Z</time>
      </trkpt>
      <trkpt lat="43.42643" lon="6.00791">
        <ele>406.79998779297</ele>
        <time>2013-12-07T14:43:31Z</time>
      </trkpt>
      <trkpt lat="43.42643" lon="6.00791">
        <ele>406.79998779297</ele>
        <time>2013-12-07T14:43:41Z</time>
      </trkpt>
      <trkpt lat="43.42643" lon="6.0079">
        <ele>406.79998779297</ele>
        <time>2013-12-07T14:43:42Z</time>
      </trkpt>
      <trkpt lat="43.42642" lon="6.00783">
        <ele>406.79998779297</ele>
        <time>2013-12-07T14:43:45Z</time>
      </trkpt>
      <trkpt lat="43.42642" lon="6.00775">
        <ele>406.79998779297</ele>
        <time>2013-12-07T14:43:47Z</time>
      </trkpt>
      <trkpt lat="43.42641" lon="6.00765">
        <ele>406.39999389648</ele>
        <time>2013-12-07T14:43:49Z</time>
      </trkpt>
      <trkpt lat="43.42641" lon="6.00759">
        <ele>406</ele>
        <time>2013-12-07T14:43:50Z</time>
      </trkpt>
      <trkpt lat="43.42641" lon="6.00754">
        <ele>405.60000610352</ele>
        <time>2013-12-07T14:43:51Z</time>
      </trkpt>
      <trkpt lat="43.42639" lon="6.0075">
        <ele>405.20001220703</ele>
        <time>2013-12-07T14:43:52Z</time>
      </trkpt>
      <trkpt lat="43.42638" lon="6.00744">
        <ele>404.20001220703</ele>
        <time>2013-12-07T14:43:53Z</time>
      </trkpt>
      <trkpt lat="43.42638" lon="6.00739">
        <ele>403.79998779297</ele>
        <time>2013-12-07T14:43:54Z</time>
      </trkpt>
      <trkpt lat="43.42638" lon="6.00735">
        <ele>403.39999389648</ele>
        <time>2013-12-07T14:43:55Z</time>
      </trkpt>
      <trkpt lat="43.42638" lon="6.00729">
        <ele>402.79998779297</ele>
        <time>2013-12-07T14:43:56Z</time>
      </trkpt>
      <trkpt lat="43.42638" lon="6.00725">
        <ele>402.39999389648</ele>
        <time>2013-12-07T14:43:57Z</time>
      </trkpt>
      <trkpt lat="43.42638" lon="6.00715">
        <ele>402.39999389648</ele>
        <time>2013-12-07T14:43:59Z</time>
      </trkpt>
      <trkpt lat="43.42638" lon="6.00699">
        <ele>402.39999389648</ele>
        <time>2013-12-07T14:44:03Z</time>
      </trkpt>
      <trkpt lat="43.42638" lon="6.00695">
        <ele>402.39999389648</ele>
        <time>2013-12-07T14:44:04Z</time>
      </trkpt>
      <trkpt lat="43.42637" lon="6.00687">
        <ele>402.39999389648</ele>
        <time>2013-12-07T14:44:06Z</time>
      </trkpt>
      <trkpt lat="43.42636" lon="6.00679">
        <ele>402.39999389648</ele>
        <time>2013-12-07T14:44:08Z</time>
      </trkpt>
      <trkpt lat="43.42635" lon="6.00671">
        <ele>402.39999389648</ele>
        <time>2013-12-07T14:44:10Z</time>
      </trkpt>
      <trkpt lat="43.42633" lon="6.00669">
        <ele>402.39999389648</ele>
        <time>2013-12-07T14:44:11Z</time>
      </trkpt>
      <trkpt lat="43.42626" lon="6.00655">
        <ele>402.39999389648</ele>
        <time>2013-12-07T14:44:15Z</time>
      </trkpt>
      <trkpt lat="43.42619" lon="6.00641">
        <ele>402.39999389648</ele>
        <time>2013-12-07T14:44:20Z</time>
      </trkpt>
      <trkpt lat="43.42614" lon="6.00632">
        <ele>402</ele>
        <time>2013-12-07T14:44:23Z</time>
      </trkpt>
      <trkpt lat="43.42601" lon="6.00621">
        <ele>399.79998779297</ele>
        <time>2013-12-07T14:44:29Z</time>
      </trkpt>
      <trkpt lat="43.4259" lon="6.00605">
        <ele>397.60000610352</ele>
        <time>2013-12-07T14:44:34Z</time>
      </trkpt>
      <trkpt lat="43.42588" lon="6.00603">
        <ele>397.20001220703</ele>
        <time>2013-12-07T14:44:35Z</time>
      </trkpt>
      <trkpt lat="43.42583" lon="6.00599">
        <ele>396.39999389648</ele>
        <time>2013-12-07T14:44:37Z</time>
      </trkpt>
      <trkpt lat="43.42582" lon="6.00587">
        <ele>395.20001220703</ele>
        <time>2013-12-07T14:44:40Z</time>
      </trkpt>
      <trkpt lat="43.42582" lon="6.00583">
        <ele>394.79998779297</ele>
        <time>2013-12-07T14:44:41Z</time>
      </trkpt>
      <trkpt lat="43.42582" lon="6.00579">
        <ele>393.79998779297</ele>
        <time>2013-12-07T14:44:42Z</time>
      </trkpt>
      <trkpt lat="43.42582" lon="6.00566">
        <ele>393.79998779297</ele>
        <time>2013-12-07T14:44:45Z</time>
      </trkpt>
      <trkpt lat="43.42582" lon="6.00548">
        <ele>393.79998779297</ele>
        <time>2013-12-07T14:44:49Z</time>
      </trkpt>
      <trkpt lat="43.42583" lon="6.00537">
        <ele>393.79998779297</ele>
        <time>2013-12-07T14:44:51Z</time>
      </trkpt>
      <trkpt lat="43.42583" lon="6.00503">
        <ele>393.79998779297</ele>
        <time>2013-12-07T14:44:58Z</time>
      </trkpt>
      <trkpt lat="43.42582" lon="6.0048">
        <ele>393.79998779297</ele>
        <time>2013-12-07T14:45:03Z</time>
      </trkpt>
      <trkpt lat="43.42583" lon="6.00472">
        <ele>393.39999389648</ele>
        <time>2013-12-07T14:45:05Z</time>
      </trkpt>
      <trkpt lat="43.42583" lon="6.0047">
        <ele>393</ele>
        <time>2013-12-07T14:45:06Z</time>
      </trkpt>
      <trkpt lat="43.42581" lon="6.00468">
        <ele>392.20001220703</ele>
        <time>2013-12-07T14:45:07Z</time>
      </trkpt>
      <trkpt lat="43.42579" lon="6.00468">
        <ele>391.79998779297</ele>
        <time>2013-12-07T14:45:08Z</time>
      </trkpt>
      <trkpt lat="43.42575" lon="6.00465">
        <ele>390.60000610352</ele>
        <time>2013-12-07T14:45:10Z</time>
      </trkpt>
      <trkpt lat="43.42574" lon="6.00463">
        <ele>390.20001220703</ele>
        <time>2013-12-07T14:45:11Z</time>
      </trkpt>
      <trkpt lat="43.42572" lon="6.00458">
        <ele>389.20001220703</ele>
        <time>2013-12-07T14:45:13Z</time>
      </trkpt>
      <trkpt lat="43.42574" lon="6.00443">
        <ele>387.39999389648</ele>
        <time>2013-12-07T14:45:17Z</time>
      </trkpt>
      <trkpt lat="43.42574" lon="6.00426">
        <ele>387.39999389648</ele>
        <time>2013-12-07T14:45:21Z</time>
      </trkpt>
      <trkpt lat="43.42569" lon="6.00407">
        <ele>387.39999389648</ele>
        <time>2013-12-07T14:45:25Z</time>
      </trkpt>
      <trkpt lat="43.42566" lon="6.00399">
        <ele>386.60000610352</ele>
        <time>2013-12-07T14:45:27Z</time>
      </trkpt>
      <trkpt lat="43.42564" lon="6.00391">
        <ele>385.20001220703</ele>
        <time>2013-12-07T14:45:30Z</time>
      </trkpt>
      <trkpt lat="43.42562" lon="6.00388">
        <ele>384.20001220703</ele>
        <time>2013-12-07T14:45:31Z</time>
      </trkpt>
      <trkpt lat="43.4256" lon="6.00385">
        <ele>383.60000610352</ele>
        <time>2013-12-07T14:45:32Z</time>
      </trkpt>
      <trkpt lat="43.42557" lon="6.0038">
        <ele>382.60000610352</ele>
        <time>2013-12-07T14:45:34Z</time>
      </trkpt>
      <trkpt lat="43.42552" lon="6.00372">
        <ele>381</ele>
        <time>2013-12-07T14:45:37Z</time>
      </trkpt>
      <trkpt lat="43.4255" lon="6.00369">
        <ele>380.60000610352</ele>
        <time>2013-12-07T14:45:38Z</time>
      </trkpt>
      <trkpt lat="43.42548" lon="6.00367">
        <ele>380</ele>
        <time>2013-12-07T14:45:39Z</time>
      </trkpt>
      <trkpt lat="43.42547" lon="6.00366">
        <ele>379.60000610352</ele>
        <time>2013-12-07T14:45:40Z</time>
      </trkpt>
      <trkpt lat="43.42546" lon="6.00365">
        <ele>379</ele>
        <time>2013-12-07T14:45:41Z</time>
      </trkpt>
      <trkpt lat="43.42546" lon="6.00365">
        <ele>378.60000610352</ele>
        <time>2013-12-07T14:45:42Z</time>
      </trkpt>
      <trkpt lat="43.42546" lon="6.00365">
        <ele>378.60000610352</ele>
        <time>2013-12-07T14:45:52Z</time>
      </trkpt>
      <trkpt lat="43.42546" lon="6.00365">
        <ele>378.60000610352</ele>
        <time>2013-12-07T14:45:57Z</time>
      </trkpt>
      <trkpt lat="43.42539" lon="6.00359">
        <ele>378</ele>
        <time>2013-12-07T14:46:01Z</time>
      </trkpt>
      <trkpt lat="43.42538" lon="6.00356">
        <ele>377.60000610352</ele>
        <time>2013-12-07T14:46:02Z</time>
      </trkpt>
      <trkpt lat="43.42537" lon="6.00354">
        <ele>377.20001220703</ele>
        <time>2013-12-07T14:46:03Z</time>
      </trkpt>
      <trkpt lat="43.42537" lon="6.00351">
        <ele>376.60000610352</ele>
        <time>2013-12-07T14:46:04Z</time>
      </trkpt>
      <trkpt lat="43.42537" lon="6.00347">
        <ele>376.20001220703</ele>
        <time>2013-12-07T14:46:05Z</time>
      </trkpt>
      <trkpt lat="43.42538" lon="6.00343">
        <ele>376.20001220703</ele>
        <time>2013-12-07T14:46:06Z</time>
      </trkpt>
      <trkpt lat="43.42537" lon="6.00326">
        <ele>376.20001220703</ele>
        <time>2013-12-07T14:46:10Z</time>
      </trkpt>
      <trkpt lat="43.42534" lon="6.00317">
        <ele>376.20001220703</ele>
        <time>2013-12-07T14:46:12Z</time>
      </trkpt>
      <trkpt lat="43.42532" lon="6.00308">
        <ele>375.79998779297</ele>
        <time>2013-12-07T14:46:14Z</time>
      </trkpt>
      <trkpt lat="43.4253" lon="6.00303">
        <ele>375.39999389648</ele>
        <time>2013-12-07T14:46:15Z</time>
      </trkpt>
      <trkpt lat="43.42529" lon="6.00299">
        <ele>375</ele>
        <time>2013-12-07T14:46:16Z</time>
      </trkpt>
      <trkpt lat="43.42528" lon="6.00291">
        <ele>374</ele>
        <time>2013-12-07T14:46:18Z</time>
      </trkpt>
      <trkpt lat="43.42526" lon="6.00283">
        <ele>373.60000610352</ele>
        <time>2013-12-07T14:46:20Z</time>
      </trkpt>
      <trkpt lat="43.42524" lon="6.00275">
        <ele>372</ele>
        <time>2013-12-07T14:46:22Z</time>
      </trkpt>
      <trkpt lat="43.42522" lon="6.00261">
        <ele>370.39999389648</ele>
        <time>2013-12-07T14:46:25Z</time>
      </trkpt>
      <trkpt lat="43.42521" lon="6.00258">
        <ele>370</ele>
        <time>2013-12-07T14:46:26Z</time>
      </trkpt>
      <trkpt lat="43.42521" lon="6.00256">
        <ele>369.39999389648</ele>
        <time>2013-12-07T14:46:27Z</time>
      </trkpt>
      <trkpt lat="43.42519" lon="6.0025">
        <ele>368.20001220703</ele>
        <time>2013-12-07T14:46:29Z</time>
      </trkpt>
      <trkpt lat="43.42519" lon="6.00247">
        <ele>367.79998779297</ele>
        <time>2013-12-07T14:46:30Z</time>
      </trkpt>
      <trkpt lat="43.42517" lon="6.00239">
        <ele>366.60000610352</ele>
        <time>2013-12-07T14:46:32Z</time>
      </trkpt>
      <trkpt lat="43.42516" lon="6.00237">
        <ele>366.20001220703</ele>
        <time>2013-12-07T14:46:33Z</time>
      </trkpt>
      <trkpt lat="43.42513" lon="6.00229">
        <ele>364.79998779297</ele>
        <time>2013-12-07T14:46:36Z</time>
      </trkpt>
      <trkpt lat="43.4251" lon="6.00224">
        <ele>363.60000610352</ele>
        <time>2013-12-07T14:46:38Z</time>
      </trkpt>
      <trkpt lat="43.42509" lon="6.00223">
        <ele>363.20001220703</ele>
        <time>2013-12-07T14:46:39Z</time>
      </trkpt>
      <trkpt lat="43.42508" lon="6.00219">
        <ele>362.60000610352</ele>
        <time>2013-12-07T14:46:40Z</time>
      </trkpt>
      <trkpt lat="43.42506" lon="6.00215">
        <ele>361.60000610352</ele>
        <time>2013-12-07T14:46:42Z</time>
      </trkpt>
      <trkpt lat="43.42506" lon="6.00213">
        <ele>361</ele>
        <time>2013-12-07T14:46:43Z</time>
      </trkpt>
      <trkpt lat="43.42505" lon="6.00209">
        <ele>360.60000610352</ele>
        <time>2013-12-07T14:46:44Z</time>
      </trkpt>
      <trkpt lat="43.42505" lon="6.00207">
        <ele>360</ele>
        <time>2013-12-07T14:46:45Z</time>
      </trkpt>
      <trkpt lat="43.42505" lon="6.00206">
        <ele>359</ele>
        <time>2013-12-07T14:46:46Z</time>
      </trkpt>
      <trkpt lat="43.42505" lon="6.00206">
        <ele>358.60000610352</ele>
        <time>2013-12-07T14:46:47Z</time>
      </trkpt>
      <trkpt lat="43.42505" lon="6.00206">
        <ele>358</ele>
        <time>2013-12-07T14:46:48Z</time>
      </trkpt>
      <trkpt lat="43.42505" lon="6.00206">
        <ele>357.60000610352</ele>
        <time>2013-12-07T14:46:49Z</time>
      </trkpt>
      <trkpt lat="43.42505" lon="6.00206">
        <ele>357.60000610352</ele>
        <time>2013-12-07T14:46:51Z</time>
      </trkpt>
      <trkpt lat="43.42503" lon="6.00196">
        <ele>357.60000610352</ele>
        <time>2013-12-07T14:46:56Z</time>
      </trkpt>
      <trkpt lat="43.42503" lon="6.00193">
        <ele>357.20001220703</ele>
        <time>2013-12-07T14:46:57Z</time>
      </trkpt>
      <trkpt lat="43.42503" lon="6.0019">
        <ele>356.79998779297</ele>
        <time>2013-12-07T14:46:58Z</time>
      </trkpt>
      <trkpt lat="43.42501" lon="6.00183">
        <ele>356</ele>
        <time>2013-12-07T14:47:00Z</time>
      </trkpt>
      <trkpt lat="43.42501" lon="6.0018">
        <ele>355.60000610352</ele>
        <time>2013-12-07T14:47:01Z</time>
      </trkpt>
      <trkpt lat="43.425" lon="6.00176">
        <ele>355.20001220703</ele>
        <time>2013-12-07T14:47:02Z</time>
      </trkpt>
      <trkpt lat="43.425" lon="6.00172">
        <ele>354.79998779297</ele>
        <time>2013-12-07T14:47:03Z</time>
      </trkpt>
      <trkpt lat="43.425" lon="6.00167">
        <ele>354.39999389648</ele>
        <time>2013-12-07T14:47:04Z</time>
      </trkpt>
      <trkpt lat="43.425" lon="6.00162">
        <ele>354</ele>
        <time>2013-12-07T14:47:05Z</time>
      </trkpt>
      <trkpt lat="43.425" lon="6.00158">
        <ele>353.60000610352</ele>
        <time>2013-12-07T14:47:06Z</time>
      </trkpt>
      <trkpt lat="43.42499" lon="6.00151">
        <ele>352.60000610352</ele>
        <time>2013-12-07T14:47:08Z</time>
      </trkpt>
      <trkpt lat="43.42499" lon="6.00138">
        <ele>350.79998779297</ele>
        <time>2013-12-07T14:47:12Z</time>
      </trkpt>
      <trkpt lat="43.42498" lon="6.00132">
        <ele>349.79998779297</ele>
        <time>2013-12-07T14:47:14Z</time>
      </trkpt>
      <trkpt lat="43.42495" lon="6.0013">
        <ele>348.79998779297</ele>
        <time>2013-12-07T14:47:16Z</time>
      </trkpt>
      <trkpt lat="43.42493" lon="6.00131">
        <ele>348.39999389648</ele>
        <time>2013-12-07T14:47:17Z</time>
      </trkpt>
      <trkpt lat="43.42492" lon="6.00131">
        <ele>347.79998779297</ele>
        <time>2013-12-07T14:47:18Z</time>
      </trkpt>
      <trkpt lat="43.42488" lon="6.00132">
        <ele>347</ele>
        <time>2013-12-07T14:47:20Z</time>
      </trkpt>
      <trkpt lat="43.42482" lon="6.00133">
        <ele>345.60000610352</ele>
        <time>2013-12-07T14:47:23Z</time>
      </trkpt>
      <trkpt lat="43.4248" lon="6.00135">
        <ele>344.79998779297</ele>
        <time>2013-12-07T14:47:25Z</time>
      </trkpt>
      <trkpt lat="43.42476" lon="6.00137">
        <ele>343.79998779297</ele>
        <time>2013-12-07T14:47:27Z</time>
      </trkpt>
      <trkpt lat="43.42471" lon="6.00138">
        <ele>342.79998779297</ele>
        <time>2013-12-07T14:47:29Z</time>
      </trkpt>
      <trkpt lat="43.4247" lon="6.0014">
        <ele>342.20001220703</ele>
        <time>2013-12-07T14:47:30Z</time>
      </trkpt>
      <trkpt lat="43.42466" lon="6.00143">
        <ele>341.39999389648</ele>
        <time>2013-12-07T14:47:32Z</time>
      </trkpt>
      <trkpt lat="43.42465" lon="6.00144">
        <ele>341</ele>
        <time>2013-12-07T14:47:33Z</time>
      </trkpt>
      <trkpt lat="43.42464" lon="6.00145">
        <ele>340.39999389648</ele>
        <time>2013-12-07T14:47:34Z</time>
      </trkpt>
      <trkpt lat="43.42461" lon="6.00147">
        <ele>337.39999389648</ele>
        <time>2013-12-07T14:47:40Z</time>
      </trkpt>
      <trkpt lat="43.42459" lon="6.00149">
        <ele>337.39999389648</ele>
        <time>2013-12-07T14:47:41Z</time>
      </trkpt>
      <trkpt lat="43.42451" lon="6.00156">
        <ele>336.79998779297</ele>
        <time>2013-12-07T14:47:45Z</time>
      </trkpt>
      <trkpt lat="43.4245" lon="6.00156">
        <ele>336.39999389648</ele>
        <time>2013-12-07T14:47:46Z</time>
      </trkpt>
      <trkpt lat="43.42448" lon="6.00158">
        <ele>335.79998779297</ele>
        <time>2013-12-07T14:47:47Z</time>
      </trkpt>
      <trkpt lat="43.42445" lon="6.00162">
        <ele>334.79998779297</ele>
        <time>2013-12-07T14:47:49Z</time>
      </trkpt>
      <trkpt lat="43.42444" lon="6.00163">
        <ele>334.79998779297</ele>
        <time>2013-12-07T14:47:50Z</time>
      </trkpt>
      <trkpt lat="43.42436" lon="6.00168">
        <ele>333.60000610352</ele>
        <time>2013-12-07T14:47:54Z</time>
      </trkpt>
      <trkpt lat="43.42432" lon="6.00171">
        <ele>332.79998779297</ele>
        <time>2013-12-07T14:47:56Z</time>
      </trkpt>
      <trkpt lat="43.42429" lon="6.00175">
        <ele>331.39999389648</ele>
        <time>2013-12-07T14:47:59Z</time>
      </trkpt>
      <trkpt lat="43.42422" lon="6.00184">
        <ele>330.20001220703</ele>
        <time>2013-12-07T14:48:04Z</time>
      </trkpt>
      <trkpt lat="43.42419" lon="6.00187">
        <ele>329.39999389648</ele>
        <time>2013-12-07T14:48:06Z</time>
      </trkpt>
      <trkpt lat="43.42418" lon="6.00189">
        <ele>329</ele>
        <time>2013-12-07T14:48:07Z</time>
      </trkpt>
      <trkpt lat="43.42417" lon="6.00191">
        <ele>328.60000610352</ele>
        <time>2013-12-07T14:48:08Z</time>
      </trkpt>
      <trkpt lat="43.42413" lon="6.00194">
        <ele>328.20001220703</ele>
        <time>2013-12-07T14:48:11Z</time>
      </trkpt>
      <trkpt lat="43.42411" lon="6.00192">
        <ele>327.79998779297</ele>
        <time>2013-12-07T14:48:12Z</time>
      </trkpt>
      <trkpt lat="43.42409" lon="6.00189">
        <ele>327.20001220703</ele>
        <time>2013-12-07T14:48:13Z</time>
      </trkpt>
      <trkpt lat="43.42408" lon="6.00187">
        <ele>326.79998779297</ele>
        <time>2013-12-07T14:48:14Z</time>
      </trkpt>
      <trkpt lat="43.42404" lon="6.00181">
        <ele>326</ele>
        <time>2013-12-07T14:48:16Z</time>
      </trkpt>
      <trkpt lat="43.42403" lon="6.00178">
        <ele>325.60000610352</ele>
        <time>2013-12-07T14:48:17Z</time>
      </trkpt>
      <trkpt lat="43.42402" lon="6.00175">
        <ele>325.20001220703</ele>
        <time>2013-12-07T14:48:18Z</time>
      </trkpt>
      <trkpt lat="43.424" lon="6.00171">
        <ele>324.79998779297</ele>
        <time>2013-12-07T14:48:19Z</time>
      </trkpt>
      <trkpt lat="43.42399" lon="6.0017">
        <ele>324.20001220703</ele>
        <time>2013-12-07T14:48:20Z</time>
      </trkpt>
      <trkpt lat="43.42398" lon="6.00167">
        <ele>323.60000610352</ele>
        <time>2013-12-07T14:48:21Z</time>
      </trkpt>
      <trkpt lat="43.42394" lon="6.00161">
        <ele>322.60000610352</ele>
        <time>2013-12-07T14:48:23Z</time>
      </trkpt>
      <trkpt lat="43.42393" lon="6.00157">
        <ele>321.39999389648</ele>
        <time>2013-12-07T14:48:24Z</time>
      </trkpt>
      <trkpt lat="43.42387" lon="6.00144">
        <ele>319.39999389648</ele>
        <time>2013-12-07T14:48:27Z</time>
      </trkpt>
      <trkpt lat="43.42385" lon="6.00117">
        <ele>316.20001220703</ele>
        <time>2013-12-07T14:48:32Z</time>
      </trkpt>
      <trkpt lat="43.42385" lon="6.00108">
        <ele>315.20001220703</ele>
        <time>2013-12-07T14:48:34Z</time>
      </trkpt>
      <trkpt lat="43.42384" lon="6.00099">
        <ele>314.79998779297</ele>
        <time>2013-12-07T14:48:36Z</time>
      </trkpt>
      <trkpt lat="43.42384" lon="6.00094">
        <ele>314.20001220703</ele>
        <time>2013-12-07T14:48:37Z</time>
      </trkpt>
      <trkpt lat="43.42383" lon="6.00088">
        <ele>313.79998779297</ele>
        <time>2013-12-07T14:48:38Z</time>
      </trkpt>
      <trkpt lat="43.42384" lon="6.00083">
        <ele>313.39999389648</ele>
        <time>2013-12-07T14:48:39Z</time>
      </trkpt>
      <trkpt lat="43.42384" lon="6.00071">
        <ele>313</ele>
        <time>2013-12-07T14:48:41Z</time>
      </trkpt>
      <trkpt lat="43.42384" lon="6.0005">
        <ele>313</ele>
        <time>2013-12-07T14:48:46Z</time>
      </trkpt>
      <trkpt lat="43.42384" lon="6.00049">
        <ele>313</ele>
        <time>2013-12-07T14:48:47Z</time>
      </trkpt>
      <trkpt lat="43.42383" lon="6.00047">
        <ele>312.60000610352</ele>
        <time>2013-12-07T14:48:48Z</time>
      </trkpt>
      <trkpt lat="43.4238" lon="6.0004">
        <ele>310.79998779297</ele>
        <time>2013-12-07T14:48:51Z</time>
      </trkpt>
      <trkpt lat="43.42375" lon="6.00023">
        <ele>310.39999389648</ele>
        <time>2013-12-07T14:48:55Z</time>
      </trkpt>
      <trkpt lat="43.42376" lon="6.00021">
        <ele>309.79998779297</ele>
        <time>2013-12-07T14:48:56Z</time>
      </trkpt>
      <trkpt lat="43.42376" lon="6.00016">
        <ele>309</ele>
        <time>2013-12-07T14:48:58Z</time>
      </trkpt>
      <trkpt lat="43.42377" lon="6.00013">
        <ele>308.39999389648</ele>
        <time>2013-12-07T14:48:59Z</time>
      </trkpt>
      <trkpt lat="43.42377" lon="6.00011">
        <ele>308.39999389648</ele>
        <time>2013-12-07T14:49:00Z</time>
      </trkpt>
      <trkpt lat="43.42376" lon="6.0001">
        <ele>308.39999389648</ele>
        <time>2013-12-07T14:49:01Z</time>
      </trkpt>
      <trkpt lat="43.42374" lon="6.00005">
        <ele>308</ele>
        <time>2013-12-07T14:49:03Z</time>
      </trkpt>
      <trkpt lat="43.42371" lon="6.00003">
        <ele>307.60000610352</ele>
        <time>2013-12-07T14:49:04Z</time>
      </trkpt>
      <trkpt lat="43.42367" lon="6.00004">
        <ele>307.20001220703</ele>
        <time>2013-12-07T14:49:05Z</time>
      </trkpt>
      <trkpt lat="43.42368" lon="6.00008">
        <ele>306.79998779297</ele>
        <time>2013-12-07T14:49:06Z</time>
      </trkpt>
      <trkpt lat="43.42369" lon="6.00006">
        <ele>306.39999389648</ele>
        <time>2013-12-07T14:49:07Z</time>
      </trkpt>
      <trkpt lat="43.42369" lon="6.00007">
        <ele>306.39999389648</ele>
        <time>2013-12-07T14:49:11Z</time>
      </trkpt>
      <trkpt lat="43.42369" lon="6.00006">
        <ele>306.39999389648</ele>
        <time>2013-12-07T14:49:17Z</time>
      </trkpt>
      <trkpt lat="43.42372" lon="6.00005">
        <ele>306.39999389648</ele>
        <time>2013-12-07T14:49:25Z</time>
      </trkpt>
      <trkpt lat="43.42373" lon="6.00007">
        <ele>306.39999389648</ele>
        <time>2013-12-07T14:49:27Z</time>
      </trkpt>
      <trkpt lat="43.42373" lon="6.00009">
        <ele>306.39999389648</ele>
        <time>2013-12-07T14:49:30Z</time>
      </trkpt>
      <trkpt lat="43.42373" lon="6.00009">
        <ele>304.39999389648</ele>
        <time>2013-12-07T14:50:04Z</time>
      </trkpt>
      <trkpt lat="43.42374" lon="6.00008">
        <ele>304.39999389648</ele>
        <time>2013-12-07T14:50:21Z</time>
      </trkpt>
      <trkpt lat="43.42374" lon="6.00008">
        <ele>304.39999389648</ele>
        <time>2013-12-07T14:50:40Z</time>
      </trkpt>
      <trkpt lat="43.42374" lon="6.00009">
        <ele>304.39999389648</ele>
        <time>2013-12-07T14:50:58Z</time>
      </trkpt>
      <trkpt lat="43.42374" lon="6.00009">
        <ele>304.39999389648</ele>
        <time>2013-12-07T14:51:10Z</time>
      </trkpt>
      <trkpt lat="43.42373" lon="6.00007">
        <ele>304.39999389648</ele>
        <time>2013-12-07T14:51:17Z</time>
      </trkpt>
      <trkpt lat="43.42373" lon="6.00007">
        <ele>304.39999389648</ele>
        <time>2013-12-07T14:51:22Z</time>
      </trkpt>
      <trkpt lat="43.42372" lon="6.00006">
        <ele>304.39999389648</ele>
        <time>2013-12-07T14:51:31Z</time>
      </trkpt>
      <trkpt lat="43.42368" lon="6.00007">
        <ele>304.39999389648</ele>
        <time>2013-12-07T14:51:33Z</time>
      </trkpt>
      <trkpt lat="43.42369" lon="6.00008">
        <ele>304.39999389648</ele>
        <time>2013-12-07T14:51:34Z</time>
      </trkpt>
      <trkpt lat="43.42368" lon="6.00009">
        <ele>304.39999389648</ele>
        <time>2013-12-07T14:51:38Z</time>
      </trkpt>
      <trkpt lat="43.42368" lon="6.00016">
        <ele>304.39999389648</ele>
        <time>2013-12-07T14:51:42Z</time>
      </trkpt>
      <trkpt lat="43.42369" lon="6.00023">
        <ele>304.39999389648</ele>
        <time>2013-12-07T14:51:45Z</time>
      </trkpt>
      <trkpt lat="43.42369" lon="6.00037">
        <ele>304.79998779297</ele>
        <time>2013-12-07T14:51:50Z</time>
      </trkpt>
      <trkpt lat="43.42369" lon="6.00042">
        <ele>305.60000610352</ele>
        <time>2013-12-07T14:51:52Z</time>
      </trkpt>
      <trkpt lat="43.42369" lon="6.00045">
        <ele>306</ele>
        <time>2013-12-07T14:51:53Z</time>
      </trkpt>
      <trkpt lat="43.42369" lon="6.00047">
        <ele>306.39999389648</ele>
        <time>2013-12-07T14:51:54Z</time>
      </trkpt>
      <trkpt lat="43.42372" lon="6.00068">
        <ele>306.79998779297</ele>
        <time>2013-12-07T14:52:03Z</time>
      </trkpt>
      <trkpt lat="43.42372" lon="6.00073">
        <ele>307.60000610352</ele>
        <time>2013-12-07T14:52:05Z</time>
      </trkpt>
      <trkpt lat="43.42375" lon="6.00132">
        <ele>310.79998779297</ele>
        <time>2013-12-07T14:52:30Z</time>
      </trkpt>
      <trkpt lat="43.42376" lon="6.00139">
        <ele>312.39999389648</ele>
        <time>2013-12-07T14:52:33Z</time>
      </trkpt>
      <trkpt lat="43.42379" lon="6.00169">
        <ele>314.20001220703</ele>
        <time>2013-12-07T14:52:46Z</time>
      </trkpt>
      <trkpt lat="43.42379" lon="6.00174">
        <ele>314.60000610352</ele>
        <time>2013-12-07T14:52:48Z</time>
      </trkpt>
      <trkpt lat="43.4238" lon="6.00191">
        <ele>314.60000610352</ele>
        <time>2013-12-07T14:52:55Z</time>
      </trkpt>
      <trkpt lat="43.42381" lon="6.00196">
        <ele>315.39999389648</ele>
        <time>2013-12-07T14:52:57Z</time>
      </trkpt>
      <trkpt lat="43.42382" lon="6.00202">
        <ele>316.20001220703</ele>
        <time>2013-12-07T14:52:59Z</time>
      </trkpt>
      <trkpt lat="43.42382" lon="6.00204">
        <ele>316.60000610352</ele>
        <time>2013-12-07T14:53:00Z</time>
      </trkpt>
      <trkpt lat="43.42381" lon="6.00212">
        <ele>316.60000610352</ele>
        <time>2013-12-07T14:53:03Z</time>
      </trkpt>
      <trkpt lat="43.42382" lon="6.00217">
        <ele>316.60000610352</ele>
        <time>2013-12-07T14:53:06Z</time>
      </trkpt>
      <trkpt lat="43.42384" lon="6.00217">
        <ele>316.60000610352</ele>
        <time>2013-12-07T14:53:09Z</time>
      </trkpt>
      <trkpt lat="43.42383" lon="6.00217">
        <ele>316.60000610352</ele>
        <time>2013-12-07T14:53:14Z</time>
      </trkpt>
      <trkpt lat="43.42383" lon="6.00217">
        <ele>316.60000610352</ele>
        <time>2013-12-07T14:53:23Z</time>
      </trkpt>
      <trkpt lat="43.42383" lon="6.00217">
        <ele>316.60000610352</ele>
        <time>2013-12-07T14:53:27Z</time>
      </trkpt>
      <trkpt lat="43.42384" lon="6.00217">
        <ele>316.60000610352</ele>
        <time>2013-12-07T14:53:34Z</time>
      </trkpt>
      <trkpt lat="43.42384" lon="6.00219">
        <ele>316.60000610352</ele>
        <time>2013-12-07T14:53:39Z</time>
      </trkpt>
      <trkpt lat="43.42384" lon="6.00221">
        <ele>316.60000610352</ele>
        <time>2013-12-07T14:53:40Z</time>
      </trkpt>
      <trkpt lat="43.42384" lon="6.00225">
        <ele>317</ele>
        <time>2013-12-07T14:53:42Z</time>
      </trkpt>
      <trkpt lat="43.42384" lon="6.00227">
        <ele>317.39999389648</ele>
        <time>2013-12-07T14:53:43Z</time>
      </trkpt>
      <trkpt lat="43.42384" lon="6.00232">
        <ele>318.20001220703</ele>
        <time>2013-12-07T14:53:45Z</time>
      </trkpt>
      <trkpt lat="43.42384" lon="6.00234">
        <ele>318.60000610352</ele>
        <time>2013-12-07T14:53:46Z</time>
      </trkpt>
      <trkpt lat="43.42384" lon="6.00247">
        <ele>318.60000610352</ele>
        <time>2013-12-07T14:53:51Z</time>
      </trkpt>
      <trkpt lat="43.42385" lon="6.00258">
        <ele>319</ele>
        <time>2013-12-07T14:53:55Z</time>
      </trkpt>
      <trkpt lat="43.42387" lon="6.00266">
        <ele>320.39999389648</ele>
        <time>2013-12-07T14:53:58Z</time>
      </trkpt>
      <trkpt lat="43.4239" lon="6.00285">
        <ele>320.79998779297</ele>
        <time>2013-12-07T14:54:06Z</time>
      </trkpt>
      <trkpt lat="43.4239" lon="6.00295">
        <ele>321.60000610352</ele>
        <time>2013-12-07T14:54:10Z</time>
      </trkpt>
      <trkpt lat="43.4239" lon="6.00302">
        <ele>322.79998779297</ele>
        <time>2013-12-07T14:54:13Z</time>
      </trkpt>
      <trkpt lat="43.42393" lon="6.00326">
        <ele>323.20001220703</ele>
        <time>2013-12-07T14:54:22Z</time>
      </trkpt>
      <trkpt lat="43.42395" lon="6.00334">
        <ele>324.39999389648</ele>
        <time>2013-12-07T14:54:25Z</time>
      </trkpt>
      <trkpt lat="43.42399" lon="6.00354">
        <ele>324.79998779297</ele>
        <time>2013-12-07T14:54:33Z</time>
      </trkpt>
      <trkpt lat="43.424" lon="6.0037">
        <ele>325.20001220703</ele>
        <time>2013-12-07T14:54:39Z</time>
      </trkpt>
      <trkpt lat="43.42401" lon="6.0038">
        <ele>326.79998779297</ele>
        <time>2013-12-07T14:54:43Z</time>
      </trkpt>
      <trkpt lat="43.42404" lon="6.00396">
        <ele>326.79998779297</ele>
        <time>2013-12-07T14:54:49Z</time>
      </trkpt>
      <trkpt lat="43.42405" lon="6.00412">
        <ele>326.79998779297</ele>
        <time>2013-12-07T14:54:55Z</time>
      </trkpt>
      <trkpt lat="43.42405" lon="6.00421">
        <ele>327.20001220703</ele>
        <time>2013-12-07T14:54:58Z</time>
      </trkpt>
      <trkpt lat="43.42403" lon="6.0046">
        <ele>328.79998779297</ele>
        <time>2013-12-07T14:55:12Z</time>
      </trkpt>
      <trkpt lat="43.42401" lon="6.0048">
        <ele>331</ele>
        <time>2013-12-07T14:55:19Z</time>
      </trkpt>
      <trkpt lat="43.42401" lon="6.00504">
        <ele>331</ele>
        <time>2013-12-07T14:55:27Z</time>
      </trkpt>
      <trkpt lat="43.42401" lon="6.00525">
        <ele>331.39999389648</ele>
        <time>2013-12-07T14:55:34Z</time>
      </trkpt>
      <trkpt lat="43.42402" lon="6.0053">
        <ele>332.20001220703</ele>
        <time>2013-12-07T14:55:36Z</time>
      </trkpt>
      <trkpt lat="43.42406" lon="6.0058">
        <ele>333.60000610352</ele>
        <time>2013-12-07T14:55:53Z</time>
      </trkpt>
      <trkpt lat="43.42407" lon="6.00589">
        <ele>334.79998779297</ele>
        <time>2013-12-07T14:55:56Z</time>
      </trkpt>
      <trkpt lat="43.4241" lon="6.00605">
        <ele>335.20001220703</ele>
        <time>2013-12-07T14:56:02Z</time>
      </trkpt>
      <trkpt lat="43.42414" lon="6.00624">
        <ele>336.79998779297</ele>
        <time>2013-12-07T14:56:09Z</time>
      </trkpt>
      <trkpt lat="43.42418" lon="6.00655">
        <ele>339.20001220703</ele>
        <time>2013-12-07T14:56:21Z</time>
      </trkpt>
      <trkpt lat="43.42421" lon="6.00679">
        <ele>340</ele>
        <time>2013-12-07T14:56:31Z</time>
      </trkpt>
      <trkpt lat="43.42422" lon="6.0069">
        <ele>341.20001220703</ele>
        <time>2013-12-07T14:56:35Z</time>
      </trkpt>
      <trkpt lat="43.42421" lon="6.00708">
        <ele>342</ele>
        <time>2013-12-07T14:56:43Z</time>
      </trkpt>
      <trkpt lat="43.42422" lon="6.00715">
        <ele>343.39999389648</ele>
        <time>2013-12-07T14:56:46Z</time>
      </trkpt>
      <trkpt lat="43.4242" lon="6.00744">
        <ele>345</ele>
        <time>2013-12-07T14:56:58Z</time>
      </trkpt>
      <trkpt lat="43.42419" lon="6.00749">
        <ele>345.39999389648</ele>
        <time>2013-12-07T14:57:00Z</time>
      </trkpt>
      <trkpt lat="43.42415" lon="6.00779">
        <ele>347.60000610352</ele>
        <time>2013-12-07T14:57:13Z</time>
      </trkpt>
      <trkpt lat="43.42413" lon="6.00788">
        <ele>347.60000610352</ele>
        <time>2013-12-07T14:57:17Z</time>
      </trkpt>
      <trkpt lat="43.4241" lon="6.00812">
        <ele>348.79998779297</ele>
        <time>2013-12-07T14:57:27Z</time>
      </trkpt>
      <trkpt lat="43.42411" lon="6.00828">
        <ele>349.60000610352</ele>
        <time>2013-12-07T14:57:34Z</time>
      </trkpt>
      <trkpt lat="43.42411" lon="6.00837">
        <ele>350.20001220703</ele>
        <time>2013-12-07T14:57:38Z</time>
      </trkpt>
      <trkpt lat="43.4241" lon="6.0087">
        <ele>352.20001220703</ele>
        <time>2013-12-07T14:57:52Z</time>
      </trkpt>
      <trkpt lat="43.4241" lon="6.00872">
        <ele>352.60000610352</ele>
        <time>2013-12-07T14:57:53Z</time>
      </trkpt>
      <trkpt lat="43.42411" lon="6.00884">
        <ele>353.79998779297</ele>
        <time>2013-12-07T14:57:58Z</time>
      </trkpt>
      <trkpt lat="43.42412" lon="6.00903">
        <ele>353.79998779297</ele>
        <time>2013-12-07T14:58:06Z</time>
      </trkpt>
      <trkpt lat="43.42412" lon="6.00913">
        <ele>356</ele>
        <time>2013-12-07T14:58:11Z</time>
      </trkpt>
      <trkpt lat="43.42413" lon="6.00922">
        <ele>356</ele>
        <time>2013-12-07T14:58:15Z</time>
      </trkpt>
      <trkpt lat="43.42414" lon="6.00945">
        <ele>358</ele>
        <time>2013-12-07T14:58:25Z</time>
      </trkpt>
      <trkpt lat="43.42415" lon="6.00966">
        <ele>358.79998779297</ele>
        <time>2013-12-07T14:58:34Z</time>
      </trkpt>
      <trkpt lat="43.42419" lon="6.01035">
        <ele>364.20001220703</ele>
        <time>2013-12-07T14:59:05Z</time>
      </trkpt>
      <trkpt lat="43.42419" lon="6.01037">
        <ele>364.20001220703</ele>
        <time>2013-12-07T14:59:06Z</time>
      </trkpt>
      <trkpt lat="43.42421" lon="6.01056">
        <ele>365</ele>
        <time>2013-12-07T14:59:15Z</time>
      </trkpt>
      <trkpt lat="43.42424" lon="6.01068">
        <ele>366.20001220703</ele>
        <time>2013-12-07T14:59:21Z</time>
      </trkpt>
      <trkpt lat="43.42426" lon="6.01083">
        <ele>366.60000610352</ele>
        <time>2013-12-07T14:59:28Z</time>
      </trkpt>
      <trkpt lat="43.42435" lon="6.01124">
        <ele>370.39999389648</ele>
        <time>2013-12-07T14:59:49Z</time>
      </trkpt>
      <trkpt lat="43.42443" lon="6.01144">
        <ele>372.60000610352</ele>
        <time>2013-12-07T15:00:00Z</time>
      </trkpt>
      <trkpt lat="43.42451" lon="6.01162">
        <ele>373</ele>
        <time>2013-12-07T15:00:10Z</time>
      </trkpt>
      <trkpt lat="43.42454" lon="6.0117">
        <ele>374.60000610352</ele>
        <time>2013-12-07T15:00:14Z</time>
      </trkpt>
      <trkpt lat="43.42462" lon="6.01194">
        <ele>376.79998779297</ele>
        <time>2013-12-07T15:00:26Z</time>
      </trkpt>
      <trkpt lat="43.42468" lon="6.0121">
        <ele>377.20001220703</ele>
        <time>2013-12-07T15:00:35Z</time>
      </trkpt>
      <trkpt lat="43.4247" lon="6.01218">
        <ele>378.79998779297</ele>
        <time>2013-12-07T15:00:39Z</time>
      </trkpt>
      <trkpt lat="43.42473" lon="6.01228">
        <ele>378.79998779297</ele>
        <time>2013-12-07T15:00:45Z</time>
      </trkpt>
      <trkpt lat="43.42476" lon="6.01239">
        <ele>380.60000610352</ele>
        <time>2013-12-07T15:00:51Z</time>
      </trkpt>
      <trkpt lat="43.42477" lon="6.01245">
        <ele>381</ele>
        <time>2013-12-07T15:00:56Z</time>
      </trkpt>
      <trkpt lat="43.42479" lon="6.01249">
        <ele>381</ele>
        <time>2013-12-07T15:00:59Z</time>
      </trkpt>
      <trkpt lat="43.42479" lon="6.01253">
        <ele>381</ele>
        <time>2013-12-07T15:01:02Z</time>
      </trkpt>
      <trkpt lat="43.42479" lon="6.01264">
        <ele>381.39999389648</ele>
        <time>2013-12-07T15:01:09Z</time>
      </trkpt>
      <trkpt lat="43.4248" lon="6.01271">
        <ele>383</ele>
        <time>2013-12-07T15:01:13Z</time>
      </trkpt>
      <trkpt lat="43.42482" lon="6.01281">
        <ele>383</ele>
        <time>2013-12-07T15:01:20Z</time>
      </trkpt>
      <trkpt lat="43.42485" lon="6.01303">
        <ele>386</ele>
        <time>2013-12-07T15:01:34Z</time>
      </trkpt>
      <trkpt lat="43.42487" lon="6.01316">
        <ele>387.60000610352</ele>
        <time>2013-12-07T15:01:43Z</time>
      </trkpt>
      <trkpt lat="43.4249" lon="6.01329">
        <ele>389.39999389648</ele>
        <time>2013-12-07T15:01:51Z</time>
      </trkpt>
      <trkpt lat="43.42492" lon="6.01336">
        <ele>390.60000610352</ele>
        <time>2013-12-07T15:01:56Z</time>
      </trkpt>
      <trkpt lat="43.42492" lon="6.0134">
        <ele>391.39999389648</ele>
        <time>2013-12-07T15:01:58Z</time>
      </trkpt>
      <trkpt lat="43.42492" lon="6.01351">
        <ele>392.20001220703</ele>
        <time>2013-12-07T15:02:05Z</time>
      </trkpt>
      <trkpt lat="43.42493" lon="6.01354">
        <ele>393</ele>
        <time>2013-12-07T15:02:07Z</time>
      </trkpt>
      <trkpt lat="43.42493" lon="6.01356">
        <ele>393.39999389648</ele>
        <time>2013-12-07T15:02:08Z</time>
      </trkpt>
      <trkpt lat="43.42492" lon="6.01367">
        <ele>393.39999389648</ele>
        <time>2013-12-07T15:02:15Z</time>
      </trkpt>
      <trkpt lat="43.42492" lon="6.01375">
        <ele>395.39999389648</ele>
        <time>2013-12-07T15:02:21Z</time>
      </trkpt>
      <trkpt lat="43.42492" lon="6.01382">
        <ele>395.39999389648</ele>
        <time>2013-12-07T15:02:27Z</time>
      </trkpt>
      <trkpt lat="43.42492" lon="6.0139">
        <ele>395.79998779297</ele>
        <time>2013-12-07T15:02:32Z</time>
      </trkpt>
      <trkpt lat="43.42492" lon="6.01393">
        <ele>397</ele>
        <time>2013-12-07T15:02:35Z</time>
      </trkpt>
      <trkpt lat="43.42491" lon="6.01404">
        <ele>397.39999389648</ele>
        <time>2013-12-07T15:02:41Z</time>
      </trkpt>
      <trkpt lat="43.4249" lon="6.01416">
        <ele>397.39999389648</ele>
        <time>2013-12-07T15:02:47Z</time>
      </trkpt>
      <trkpt lat="43.42488" lon="6.01429">
        <ele>397.79998779297</ele>
        <time>2013-12-07T15:02:53Z</time>
      </trkpt>
      <trkpt lat="43.42487" lon="6.01448">
        <ele>399.39999389648</ele>
        <time>2013-12-07T15:03:02Z</time>
      </trkpt>
      <trkpt lat="43.42487" lon="6.01458">
        <ele>399.39999389648</ele>
        <time>2013-12-07T15:03:07Z</time>
      </trkpt>
      <trkpt lat="43.42485" lon="6.01477">
        <ele>399.39999389648</ele>
        <time>2013-12-07T15:03:15Z</time>
      </trkpt>
      <trkpt lat="43.42484" lon="6.01497">
        <ele>399.39999389648</ele>
        <time>2013-12-07T15:03:23Z</time>
      </trkpt>
      <trkpt lat="43.42487" lon="6.01514">
        <ele>399.79998779297</ele>
        <time>2013-12-07T15:03:30Z</time>
      </trkpt>
      <trkpt lat="43.42488" lon="6.01522">
        <ele>401.60000610352</ele>
        <time>2013-12-07T15:03:34Z</time>
      </trkpt>
      <trkpt lat="43.42491" lon="6.01533">
        <ele>401.60000610352</ele>
        <time>2013-12-07T15:03:39Z</time>
      </trkpt>
      <trkpt lat="43.42494" lon="6.01544">
        <ele>402</ele>
        <time>2013-12-07T15:03:44Z</time>
      </trkpt>
      <trkpt lat="43.42495" lon="6.01548">
        <ele>402.79998779297</ele>
        <time>2013-12-07T15:03:46Z</time>
      </trkpt>
      <trkpt lat="43.42496" lon="6.01553">
        <ele>403.60000610352</ele>
        <time>2013-12-07T15:03:48Z</time>
      </trkpt>
      <trkpt lat="43.42499" lon="6.01566">
        <ele>403.60000610352</ele>
        <time>2013-12-07T15:03:53Z</time>
      </trkpt>
      <trkpt lat="43.425" lon="6.01572">
        <ele>403.60000610352</ele>
        <time>2013-12-07T15:03:55Z</time>
      </trkpt>
      <trkpt lat="43.42505" lon="6.01601">
        <ele>403.60000610352</ele>
        <time>2013-12-07T15:04:02Z</time>
      </trkpt>
      <trkpt lat="43.42504" lon="6.01619">
        <ele>403.60000610352</ele>
        <time>2013-12-07T15:04:07Z</time>
      </trkpt>
      <trkpt lat="43.42494" lon="6.01636">
        <ele>403.60000610352</ele>
        <time>2013-12-07T15:04:14Z</time>
      </trkpt>
      <trkpt lat="43.42482" lon="6.01652">
        <ele>403.60000610352</ele>
        <time>2013-12-07T15:04:20Z</time>
      </trkpt>
      <trkpt lat="43.42472" lon="6.01671">
        <ele>403.60000610352</ele>
        <time>2013-12-07T15:04:25Z</time>
      </trkpt>
      <trkpt lat="43.42471" lon="6.01675">
        <ele>403.60000610352</ele>
        <time>2013-12-07T15:04:26Z</time>
      </trkpt>
      <trkpt lat="43.42464" lon="6.01696">
        <ele>403.60000610352</ele>
        <time>2013-12-07T15:04:32Z</time>
      </trkpt>
      <trkpt lat="43.42458" lon="6.0171">
        <ele>403.60000610352</ele>
        <time>2013-12-07T15:04:36Z</time>
      </trkpt>
      <trkpt lat="43.42452" lon="6.01728">
        <ele>403.60000610352</ele>
        <time>2013-12-07T15:04:41Z</time>
      </trkpt>
      <trkpt lat="43.42447" lon="6.01757">
        <ele>403.60000610352</ele>
        <time>2013-12-07T15:04:48Z</time>
      </trkpt>
      <trkpt lat="43.42443" lon="6.01779">
        <ele>403.60000610352</ele>
        <time>2013-12-07T15:04:54Z</time>
      </trkpt>
      <trkpt lat="43.42439" lon="6.01807">
        <ele>403.60000610352</ele>
        <time>2013-12-07T15:05:02Z</time>
      </trkpt>
      <trkpt lat="43.42435" lon="6.01826">
        <ele>404.39999389648</ele>
        <time>2013-12-07T15:05:08Z</time>
      </trkpt>
      <trkpt lat="43.42434" lon="6.01835">
        <ele>405.60000610352</ele>
        <time>2013-12-07T15:05:11Z</time>
      </trkpt>
      <trkpt lat="43.42431" lon="6.01846">
        <ele>405.60000610352</ele>
        <time>2013-12-07T15:05:15Z</time>
      </trkpt>
      <trkpt lat="43.42428" lon="6.01865">
        <ele>406.79998779297</ele>
        <time>2013-12-07T15:05:21Z</time>
      </trkpt>
      <trkpt lat="43.42427" lon="6.01871">
        <ele>407.79998779297</ele>
        <time>2013-12-07T15:05:23Z</time>
      </trkpt>
      <trkpt lat="43.42422" lon="6.01894">
        <ele>407.79998779297</ele>
        <time>2013-12-07T15:05:30Z</time>
      </trkpt>
      <trkpt lat="43.42416" lon="6.01925">
        <ele>407.79998779297</ele>
        <time>2013-12-07T15:05:38Z</time>
      </trkpt>
      <trkpt lat="43.42411" lon="6.01952">
        <ele>407.79998779297</ele>
        <time>2013-12-07T15:05:45Z</time>
      </trkpt>
      <trkpt lat="43.42411" lon="6.01969">
        <ele>407.79998779297</ele>
        <time>2013-12-07T15:05:51Z</time>
      </trkpt>
      <trkpt lat="43.42417" lon="6.01982">
        <ele>407.79998779297</ele>
        <time>2013-12-07T15:05:57Z</time>
      </trkpt>
      <trkpt lat="43.42419" lon="6.01985">
        <ele>407.79998779297</ele>
        <time>2013-12-07T15:05:59Z</time>
      </trkpt>
      <trkpt lat="43.42421" lon="6.01986">
        <ele>408.20001220703</ele>
        <time>2013-12-07T15:06:00Z</time>
      </trkpt>
      <trkpt lat="43.42422" lon="6.01987">
        <ele>408.60000610352</ele>
        <time>2013-12-07T15:06:01Z</time>
      </trkpt>
      <trkpt lat="43.42424" lon="6.01988">
        <ele>409</ele>
        <time>2013-12-07T15:06:02Z</time>
      </trkpt>
      <trkpt lat="43.42427" lon="6.0199">
        <ele>410.20001220703</ele>
        <time>2013-12-07T15:06:05Z</time>
      </trkpt>
      <trkpt lat="43.4243" lon="6.01991">
        <ele>411</ele>
        <time>2013-12-07T15:06:07Z</time>
      </trkpt>
      <trkpt lat="43.42432" lon="6.01992">
        <ele>411.60000610352</ele>
        <time>2013-12-07T15:06:08Z</time>
      </trkpt>
      <trkpt lat="43.42432" lon="6.01992">
        <ele>412</ele>
        <time>2013-12-07T15:06:09Z</time>
      </trkpt>
      <trkpt lat="43.42432" lon="6.01991">
        <ele>412</ele>
        <time>2013-12-07T15:06:15Z</time>
      </trkpt>
      <trkpt lat="43.42433" lon="6.01991">
        <ele>412</ele>
        <time>2013-12-07T15:06:16Z</time>
      </trkpt>
      <trkpt lat="43.42433" lon="6.01991">
        <ele>412</ele>
        <time>2013-12-07T15:06:24Z</time>
      </trkpt>
      <trkpt lat="43.42433" lon="6.01991">
        <ele>412.39999389648</ele>
        <time>2013-12-07T15:06:35Z</time>
      </trkpt>
      <trkpt lat="43.42433" lon="6.01991">
        <ele>414</ele>
        <time>2013-12-07T15:06:41Z</time>
      </trkpt>
      <trkpt lat="43.42434" lon="6.01991">
        <ele>414</ele>
        <time>2013-12-07T15:06:47Z</time>
      </trkpt>
      <trkpt lat="43.42435" lon="6.01992">
        <ele>414</ele>
        <time>2013-12-07T15:06:51Z</time>
      </trkpt>
      <trkpt lat="43.42438" lon="6.01993">
        <ele>414</ele>
        <time>2013-12-07T15:06:53Z</time>
      </trkpt>
      <trkpt lat="43.42447" lon="6.01997">
        <ele>414.39999389648</ele>
        <time>2013-12-07T15:06:59Z</time>
      </trkpt>
      <trkpt lat="43.42448" lon="6.01997">
        <ele>414.79998779297</ele>
        <time>2013-12-07T15:07:00Z</time>
      </trkpt>
      <trkpt lat="43.4245" lon="6.01996">
        <ele>415.39999389648</ele>
        <time>2013-12-07T15:07:01Z</time>
      </trkpt>
      <trkpt lat="43.42451" lon="6.01996">
        <ele>415.79998779297</ele>
        <time>2013-12-07T15:07:02Z</time>
      </trkpt>
      <trkpt lat="43.42453" lon="6.01995">
        <ele>416.20001220703</ele>
        <time>2013-12-07T15:07:04Z</time>
      </trkpt>
      <trkpt lat="43.42459" lon="6.01996">
        <ele>418</ele>
        <time>2013-12-07T15:07:09Z</time>
      </trkpt>
      <trkpt lat="43.42472" lon="6.01998">
        <ele>420.60000610352</ele>
        <time>2013-12-07T15:07:21Z</time>
      </trkpt>
      <trkpt lat="43.42475" lon="6.01999">
        <ele>420.60000610352</ele>
        <time>2013-12-07T15:07:24Z</time>
      </trkpt>
      <trkpt lat="43.4248" lon="6.02003">
        <ele>420.60000610352</ele>
        <time>2013-12-07T15:07:30Z</time>
      </trkpt>
      <trkpt lat="43.42482" lon="6.02006">
        <ele>420.60000610352</ele>
        <time>2013-12-07T15:07:33Z</time>
      </trkpt>
      <trkpt lat="43.42482" lon="6.02008">
        <ele>420.60000610352</ele>
        <time>2013-12-07T15:07:36Z</time>
      </trkpt>
      <trkpt lat="43.42482" lon="6.02008">
        <ele>421</ele>
        <time>2013-12-07T15:07:39Z</time>
      </trkpt>
      <trkpt lat="43.42482" lon="6.02008">
        <ele>422.60000610352</ele>
        <time>2013-12-07T15:07:56Z</time>
      </trkpt>
      <trkpt lat="43.42482" lon="6.02008">
        <ele>422.60000610352</ele>
        <time>2013-12-07T15:08:13Z</time>
      </trkpt>
      <trkpt lat="43.42483" lon="6.02008">
        <ele>422.60000610352</ele>
        <time>2013-12-07T15:08:20Z</time>
      </trkpt>
      <trkpt lat="43.42483" lon="6.02008">
        <ele>422.60000610352</ele>
        <time>2013-12-07T15:08:26Z</time>
      </trkpt>
      <trkpt lat="43.42483" lon="6.02008">
        <ele>422.60000610352</ele>
        <time>2013-12-07T15:08:41Z</time>
      </trkpt>
      <trkpt lat="43.42482" lon="6.02009">
        <ele>422.60000610352</ele>
        <time>2013-12-07T15:08:44Z</time>
      </trkpt>
      <trkpt lat="43.42481" lon="6.02023">
        <ele>422.60000610352</ele>
        <time>2013-12-07T15:08:49Z</time>
      </trkpt>
      <trkpt lat="43.42481" lon="6.02046">
        <ele>422.60000610352</ele>
        <time>2013-12-07T15:08:54Z</time>
      </trkpt>
      <trkpt lat="43.4248" lon="6.02051">
        <ele>422.20001220703</ele>
        <time>2013-12-07T15:08:55Z</time>
      </trkpt>
      <trkpt lat="43.4248" lon="6.02057">
        <ele>421.79998779297</ele>
        <time>2013-12-07T15:08:56Z</time>
      </trkpt>
      <trkpt lat="43.4248" lon="6.02063">
        <ele>421</ele>
        <time>2013-12-07T15:08:57Z</time>
      </trkpt>
      <trkpt lat="43.4248" lon="6.0207">
        <ele>420.60000610352</ele>
        <time>2013-12-07T15:08:58Z</time>
      </trkpt>
      <trkpt lat="43.4248" lon="6.02077">
        <ele>420</ele>
        <time>2013-12-07T15:08:59Z</time>
      </trkpt>
      <trkpt lat="43.4248" lon="6.02084">
        <ele>419.60000610352</ele>
        <time>2013-12-07T15:09:00Z</time>
      </trkpt>
      <trkpt lat="43.42479" lon="6.02093">
        <ele>419.20001220703</ele>
        <time>2013-12-07T15:09:01Z</time>
      </trkpt>
      <trkpt lat="43.42479" lon="6.02101">
        <ele>418.60000610352</ele>
        <time>2013-12-07T15:09:02Z</time>
      </trkpt>
      <trkpt lat="43.42479" lon="6.0211">
        <ele>418</ele>
        <time>2013-12-07T15:09:03Z</time>
      </trkpt>
      <trkpt lat="43.42479" lon="6.02119">
        <ele>417.39999389648</ele>
        <time>2013-12-07T15:09:04Z</time>
      </trkpt>
      <trkpt lat="43.42479" lon="6.02129">
        <ele>416.60000610352</ele>
        <time>2013-12-07T15:09:05Z</time>
      </trkpt>
      <trkpt lat="43.42479" lon="6.02138">
        <ele>416</ele>
        <time>2013-12-07T15:09:06Z</time>
      </trkpt>
      <trkpt lat="43.42478" lon="6.02157">
        <ele>414.60000610352</ele>
        <time>2013-12-07T15:09:08Z</time>
      </trkpt>
      <trkpt lat="43.42477" lon="6.02181">
        <ele>413.20001220703</ele>
        <time>2013-12-07T15:09:11Z</time>
      </trkpt>
      <trkpt lat="43.42477" lon="6.02211">
        <ele>411.79998779297</ele>
        <time>2013-12-07T15:09:15Z</time>
      </trkpt>
      <trkpt lat="43.42477" lon="6.02228">
        <ele>411.79998779297</ele>
        <time>2013-12-07T15:09:17Z</time>
      </trkpt>
      <trkpt lat="43.42476" lon="6.02246">
        <ele>411.79998779297</ele>
        <time>2013-12-07T15:09:19Z</time>
      </trkpt>
      <trkpt lat="43.42475" lon="6.02255">
        <ele>411.79998779297</ele>
        <time>2013-12-07T15:09:20Z</time>
      </trkpt>
      <trkpt lat="43.42474" lon="6.02283">
        <ele>411.79998779297</ele>
        <time>2013-12-07T15:09:23Z</time>
      </trkpt>
      <trkpt lat="43.42473" lon="6.02293">
        <ele>411.39999389648</ele>
        <time>2013-12-07T15:09:24Z</time>
      </trkpt>
      <trkpt lat="43.42472" lon="6.02302">
        <ele>411</ele>
        <time>2013-12-07T15:09:25Z</time>
      </trkpt>
      <trkpt lat="43.42471" lon="6.02311">
        <ele>410.39999389648</ele>
        <time>2013-12-07T15:09:26Z</time>
      </trkpt>
      <trkpt lat="43.42469" lon="6.0232">
        <ele>410</ele>
        <time>2013-12-07T15:09:27Z</time>
      </trkpt>
      <trkpt lat="43.42469" lon="6.0233">
        <ele>409.60000610352</ele>
        <time>2013-12-07T15:09:28Z</time>
      </trkpt>
      <trkpt lat="43.42469" lon="6.0234">
        <ele>409</ele>
        <time>2013-12-07T15:09:29Z</time>
      </trkpt>
      <trkpt lat="43.42467" lon="6.02363">
        <ele>407.60000610352</ele>
        <time>2013-12-07T15:09:31Z</time>
      </trkpt>
      <trkpt lat="43.42466" lon="6.02384">
        <ele>406.20001220703</ele>
        <time>2013-12-07T15:09:33Z</time>
      </trkpt>
      <trkpt lat="43.42465" lon="6.02394">
        <ele>405.39999389648</ele>
        <time>2013-12-07T15:09:34Z</time>
      </trkpt>
      <trkpt lat="43.42462" lon="6.02402">
        <ele>404.79998779297</ele>
        <time>2013-12-07T15:09:35Z</time>
      </trkpt>
      <trkpt lat="43.42459" lon="6.02409">
        <ele>404</ele>
        <time>2013-12-07T15:09:36Z</time>
      </trkpt>
      <trkpt lat="43.42448" lon="6.0243">
        <ele>404</ele>
        <time>2013-12-07T15:09:39Z</time>
      </trkpt>
      <trkpt lat="43.42445" lon="6.02437">
        <ele>404</ele>
        <time>2013-12-07T15:09:40Z</time>
      </trkpt>
      <trkpt lat="43.42439" lon="6.0246">
        <ele>404</ele>
        <time>2013-12-07T15:09:43Z</time>
      </trkpt>
      <trkpt lat="43.42437" lon="6.02475">
        <ele>404</ele>
        <time>2013-12-07T15:09:45Z</time>
      </trkpt>
      <trkpt lat="43.42432" lon="6.02498">
        <ele>404</ele>
        <time>2013-12-07T15:09:48Z</time>
      </trkpt>
      <trkpt lat="43.42432" lon="6.02505">
        <ele>404</ele>
        <time>2013-12-07T15:09:49Z</time>
      </trkpt>
      <trkpt lat="43.42429" lon="6.02528">
        <ele>404</ele>
        <time>2013-12-07T15:09:52Z</time>
      </trkpt>
      <trkpt lat="43.42425" lon="6.02543">
        <ele>403.60000610352</ele>
        <time>2013-12-07T15:09:54Z</time>
      </trkpt>
      <trkpt lat="43.42423" lon="6.02551">
        <ele>403.20001220703</ele>
        <time>2013-12-07T15:09:55Z</time>
      </trkpt>
      <trkpt lat="43.42422" lon="6.0256">
        <ele>402.79998779297</ele>
        <time>2013-12-07T15:09:56Z</time>
      </trkpt>
      <trkpt lat="43.42421" lon="6.02569">
        <ele>402.39999389648</ele>
        <time>2013-12-07T15:09:57Z</time>
      </trkpt>
      <trkpt lat="43.4242" lon="6.02578">
        <ele>402</ele>
        <time>2013-12-07T15:09:58Z</time>
      </trkpt>
      <trkpt lat="43.4242" lon="6.02597">
        <ele>401.60000610352</ele>
        <time>2013-12-07T15:10:00Z</time>
      </trkpt>
      <trkpt lat="43.4242" lon="6.02606">
        <ele>401</ele>
        <time>2013-12-07T15:10:01Z</time>
      </trkpt>
      <trkpt lat="43.42421" lon="6.02615">
        <ele>400.60000610352</ele>
        <time>2013-12-07T15:10:02Z</time>
      </trkpt>
      <trkpt lat="43.42423" lon="6.02622">
        <ele>400.20001220703</ele>
        <time>2013-12-07T15:10:03Z</time>
      </trkpt>
      <trkpt lat="43.42426" lon="6.02627">
        <ele>399.79998779297</ele>
        <time>2013-12-07T15:10:04Z</time>
      </trkpt>
      <trkpt lat="43.42434" lon="6.02632">
        <ele>399.79998779297</ele>
        <time>2013-12-07T15:10:06Z</time>
      </trkpt>
      <trkpt lat="43.4244" lon="6.02648">
        <ele>399.79998779297</ele>
        <time>2013-12-07T15:10:10Z</time>
      </trkpt>
      <trkpt lat="43.42442" lon="6.02658">
        <ele>399.79998779297</ele>
        <time>2013-12-07T15:10:13Z</time>
      </trkpt>
      <trkpt lat="43.42442" lon="6.02666">
        <ele>399.79998779297</ele>
        <time>2013-12-07T15:10:15Z</time>
      </trkpt>
      <trkpt lat="43.42441" lon="6.02693">
        <ele>399.79998779297</ele>
        <time>2013-12-07T15:10:22Z</time>
      </trkpt>
      <trkpt lat="43.42442" lon="6.02721">
        <ele>399.79998779297</ele>
        <time>2013-12-07T15:10:30Z</time>
      </trkpt>
      <trkpt lat="43.42441" lon="6.02739">
        <ele>401.39999389648</ele>
        <time>2013-12-07T15:10:35Z</time>
      </trkpt>
      <trkpt lat="43.4244" lon="6.02745">
        <ele>401.79998779297</ele>
        <time>2013-12-07T15:10:37Z</time>
      </trkpt>
      <trkpt lat="43.42435" lon="6.02759">
        <ele>401.79998779297</ele>
        <time>2013-12-07T15:10:42Z</time>
      </trkpt>
      <trkpt lat="43.42431" lon="6.02777">
        <ele>401.79998779297</ele>
        <time>2013-12-07T15:10:49Z</time>
      </trkpt>
      <trkpt lat="43.42432" lon="6.0279">
        <ele>402.20001220703</ele>
        <time>2013-12-07T15:10:54Z</time>
      </trkpt>
      <trkpt lat="43.42433" lon="6.02796">
        <ele>403.20001220703</ele>
        <time>2013-12-07T15:10:56Z</time>
      </trkpt>
      <trkpt lat="43.42427" lon="6.02808">
        <ele>404</ele>
        <time>2013-12-07T15:11:01Z</time>
      </trkpt>
      <trkpt lat="43.42421" lon="6.02826">
        <ele>404</ele>
        <time>2013-12-07T15:11:08Z</time>
      </trkpt>
      <trkpt lat="43.42413" lon="6.02846">
        <ele>404</ele>
        <time>2013-12-07T15:11:16Z</time>
      </trkpt>
      <trkpt lat="43.42409" lon="6.02857">
        <ele>405.20001220703</ele>
        <time>2013-12-07T15:11:21Z</time>
      </trkpt>
      <trkpt lat="43.42407" lon="6.02861">
        <ele>406</ele>
        <time>2013-12-07T15:11:23Z</time>
      </trkpt>
      <trkpt lat="43.42392" lon="6.02897">
        <ele>406</ele>
        <time>2013-12-07T15:11:36Z</time>
      </trkpt>
      <trkpt lat="43.42384" lon="6.02922">
        <ele>406</ele>
        <time>2013-12-07T15:11:44Z</time>
      </trkpt>
      <trkpt lat="43.42379" lon="6.02943">
        <ele>406</ele>
        <time>2013-12-07T15:11:50Z</time>
      </trkpt>
      <trkpt lat="43.42377" lon="6.02961">
        <ele>406</ele>
        <time>2013-12-07T15:11:54Z</time>
      </trkpt>
      <trkpt lat="43.42377" lon="6.02976">
        <ele>406</ele>
        <time>2013-12-07T15:11:57Z</time>
      </trkpt>
      <trkpt lat="43.42377" lon="6.02994">
        <ele>406</ele>
        <time>2013-12-07T15:12:00Z</time>
      </trkpt>
      <trkpt lat="43.42379" lon="6.03008">
        <ele>406</ele>
        <time>2013-12-07T15:12:02Z</time>
      </trkpt>
      <trkpt lat="43.42382" lon="6.03023">
        <ele>405</ele>
        <time>2013-12-07T15:12:04Z</time>
      </trkpt>
      <trkpt lat="43.42383" lon="6.03031">
        <ele>404.60000610352</ele>
        <time>2013-12-07T15:12:05Z</time>
      </trkpt>
      <trkpt lat="43.42384" lon="6.0304">
        <ele>404.20001220703</ele>
        <time>2013-12-07T15:12:06Z</time>
      </trkpt>
      <trkpt lat="43.42383" lon="6.03049">
        <ele>403.60000610352</ele>
        <time>2013-12-07T15:12:07Z</time>
      </trkpt>
      <trkpt lat="43.42382" lon="6.03059">
        <ele>403</ele>
        <time>2013-12-07T15:12:08Z</time>
      </trkpt>
      <trkpt lat="43.42381" lon="6.03069">
        <ele>402.39999389648</ele>
        <time>2013-12-07T15:12:09Z</time>
      </trkpt>
      <trkpt lat="43.4238" lon="6.0308">
        <ele>401.79998779297</ele>
        <time>2013-12-07T15:12:10Z</time>
      </trkpt>
      <trkpt lat="43.42379" lon="6.03091">
        <ele>401</ele>
        <time>2013-12-07T15:12:11Z</time>
      </trkpt>
      <trkpt lat="43.42377" lon="6.03102">
        <ele>400.39999389648</ele>
        <time>2013-12-07T15:12:12Z</time>
      </trkpt>
      <trkpt lat="43.42375" lon="6.03112">
        <ele>399.60000610352</ele>
        <time>2013-12-07T15:12:13Z</time>
      </trkpt>
      <trkpt lat="43.42374" lon="6.03123">
        <ele>398.20001220703</ele>
        <time>2013-12-07T15:12:14Z</time>
      </trkpt>
      <trkpt lat="43.42374" lon="6.03133">
        <ele>397.60000610352</ele>
        <time>2013-12-07T15:12:15Z</time>
      </trkpt>
      <trkpt lat="43.42374" lon="6.03144">
        <ele>396.79998779297</ele>
        <time>2013-12-07T15:12:16Z</time>
      </trkpt>
      <trkpt lat="43.42373" lon="6.03154">
        <ele>396.20001220703</ele>
        <time>2013-12-07T15:12:17Z</time>
      </trkpt>
      <trkpt lat="43.42373" lon="6.03164">
        <ele>395.60000610352</ele>
        <time>2013-12-07T15:12:18Z</time>
      </trkpt>
      <trkpt lat="43.42372" lon="6.03174">
        <ele>395.20001220703</ele>
        <time>2013-12-07T15:12:19Z</time>
      </trkpt>
      <trkpt lat="43.42372" lon="6.03194">
        <ele>394</ele>
        <time>2013-12-07T15:12:21Z</time>
      </trkpt>
      <trkpt lat="43.42371" lon="6.0322">
        <ele>393.20001220703</ele>
        <time>2013-12-07T15:12:24Z</time>
      </trkpt>
      <trkpt lat="43.42369" lon="6.03244">
        <ele>392</ele>
        <time>2013-12-07T15:12:27Z</time>
      </trkpt>
      <trkpt lat="43.42369" lon="6.03251">
        <ele>392</ele>
        <time>2013-12-07T15:12:28Z</time>
      </trkpt>
      <trkpt lat="43.42374" lon="6.03281">
        <ele>392</ele>
        <time>2013-12-07T15:12:33Z</time>
      </trkpt>
      <trkpt lat="43.42378" lon="6.03301">
        <ele>392</ele>
        <time>2013-12-07T15:12:37Z</time>
      </trkpt>
      <trkpt lat="43.42377" lon="6.0331">
        <ele>392</ele>
        <time>2013-12-07T15:12:39Z</time>
      </trkpt>
      <trkpt lat="43.42376" lon="6.03323">
        <ele>392</ele>
        <time>2013-12-07T15:12:42Z</time>
      </trkpt>
      <trkpt lat="43.42379" lon="6.03329">
        <ele>392</ele>
        <time>2013-12-07T15:12:44Z</time>
      </trkpt>
      <trkpt lat="43.42385" lon="6.03331">
        <ele>392</ele>
        <time>2013-12-07T15:12:47Z</time>
      </trkpt>
      <trkpt lat="43.42385" lon="6.03331">
        <ele>392</ele>
        <time>2013-12-07T15:12:48Z</time>
      </trkpt>
      <trkpt lat="43.42385" lon="6.03331">
        <ele>392</ele>
        <time>2013-12-07T15:13:17Z</time>
      </trkpt>
      <trkpt lat="43.42385" lon="6.03331">
        <ele>392</ele>
        <time>2013-12-07T15:13:28Z</time>
      </trkpt>
      <trkpt lat="43.42385" lon="6.03331">
        <ele>392</ele>
        <time>2013-12-07T15:13:36Z</time>
      </trkpt>
      <trkpt lat="43.42386" lon="6.03331">
        <ele>392</ele>
        <time>2013-12-07T15:13:46Z</time>
      </trkpt>
      <trkpt lat="43.42393" lon="6.03328">
        <ele>392</ele>
        <time>2013-12-07T15:13:50Z</time>
      </trkpt>
      <trkpt lat="43.42409" lon="6.03324">
        <ele>391.39999389648</ele>
        <time>2013-12-07T15:13:55Z</time>
      </trkpt>
      <trkpt lat="43.42413" lon="6.03322">
        <ele>391</ele>
        <time>2013-12-07T15:13:56Z</time>
      </trkpt>
      <trkpt lat="43.42417" lon="6.03321">
        <ele>390.60000610352</ele>
        <time>2013-12-07T15:13:57Z</time>
      </trkpt>
      <trkpt lat="43.42421" lon="6.03319">
        <ele>390.20001220703</ele>
        <time>2013-12-07T15:13:58Z</time>
      </trkpt>
      <trkpt lat="43.42425" lon="6.03317">
        <ele>389.60000610352</ele>
        <time>2013-12-07T15:13:59Z</time>
      </trkpt>
      <trkpt lat="43.4243" lon="6.03316">
        <ele>389</ele>
        <time>2013-12-07T15:14:00Z</time>
      </trkpt>
      <trkpt lat="43.42435" lon="6.03315">
        <ele>388.60000610352</ele>
        <time>2013-12-07T15:14:01Z</time>
      </trkpt>
      <trkpt lat="43.4245" lon="6.03314">
        <ele>386.39999389648</ele>
        <time>2013-12-07T15:14:04Z</time>
      </trkpt>
      <trkpt lat="43.42455" lon="6.03314">
        <ele>385.39999389648</ele>
        <time>2013-12-07T15:14:05Z</time>
      </trkpt>
      <trkpt lat="43.4246" lon="6.03312">
        <ele>384.60000610352</ele>
        <time>2013-12-07T15:14:06Z</time>
      </trkpt>
      <trkpt lat="43.42465" lon="6.03309">
        <ele>383.60000610352</ele>
        <time>2013-12-07T15:14:07Z</time>
      </trkpt>
      <trkpt lat="43.42469" lon="6.03304">
        <ele>382.60000610352</ele>
        <time>2013-12-07T15:14:08Z</time>
      </trkpt>
      <trkpt lat="43.42474" lon="6.03299">
        <ele>381.79998779297</ele>
        <time>2013-12-07T15:14:09Z</time>
      </trkpt>
      <trkpt lat="43.42484" lon="6.03289">
        <ele>380</ele>
        <time>2013-12-07T15:14:11Z</time>
      </trkpt>
      <trkpt lat="43.42492" lon="6.03277">
        <ele>378.39999389648</ele>
        <time>2013-12-07T15:14:13Z</time>
      </trkpt>
      <trkpt lat="43.42495" lon="6.0327">
        <ele>377.39999389648</ele>
        <time>2013-12-07T15:14:14Z</time>
      </trkpt>
      <trkpt lat="43.42499" lon="6.03264">
        <ele>376.60000610352</ele>
        <time>2013-12-07T15:14:15Z</time>
      </trkpt>
      <trkpt lat="43.42504" lon="6.03258">
        <ele>376</ele>
        <time>2013-12-07T15:14:16Z</time>
      </trkpt>
      <trkpt lat="43.42508" lon="6.03255">
        <ele>374.60000610352</ele>
        <time>2013-12-07T15:14:17Z</time>
      </trkpt>
      <trkpt lat="43.42512" lon="6.03254">
        <ele>373.79998779297</ele>
        <time>2013-12-07T15:14:18Z</time>
      </trkpt>
      <trkpt lat="43.42527" lon="6.03258">
        <ele>372.20001220703</ele>
        <time>2013-12-07T15:14:21Z</time>
      </trkpt>
      <trkpt lat="43.42532" lon="6.03262">
        <ele>371.60000610352</ele>
        <time>2013-12-07T15:14:22Z</time>
      </trkpt>
      <trkpt lat="43.42535" lon="6.03267">
        <ele>371.20001220703</ele>
        <time>2013-12-07T15:14:23Z</time>
      </trkpt>
      <trkpt lat="43.42538" lon="6.03276">
        <ele>370.60000610352</ele>
        <time>2013-12-07T15:14:25Z</time>
      </trkpt>
      <trkpt lat="43.42539" lon="6.03288">
        <ele>370.60000610352</ele>
        <time>2013-12-07T15:14:28Z</time>
      </trkpt>
      <trkpt lat="43.4254" lon="6.03298">
        <ele>370.60000610352</ele>
        <time>2013-12-07T15:14:31Z</time>
      </trkpt>
      <trkpt lat="43.4254" lon="6.03305">
        <ele>370.60000610352</ele>
        <time>2013-12-07T15:14:33Z</time>
      </trkpt>
      <trkpt lat="43.4254" lon="6.0331">
        <ele>370.60000610352</ele>
        <time>2013-12-07T15:14:35Z</time>
      </trkpt>
      <trkpt lat="43.42541" lon="6.03322">
        <ele>371</ele>
        <time>2013-12-07T15:14:39Z</time>
      </trkpt>
      <trkpt lat="43.42541" lon="6.03326">
        <ele>371.39999389648</ele>
        <time>2013-12-07T15:14:40Z</time>
      </trkpt>
      <trkpt lat="43.4254" lon="6.03331">
        <ele>372.79998779297</ele>
        <time>2013-12-07T15:14:42Z</time>
      </trkpt>
      <trkpt lat="43.42538" lon="6.0334">
        <ele>372.79998779297</ele>
        <time>2013-12-07T15:14:46Z</time>
      </trkpt>
      <trkpt lat="43.42543" lon="6.03352">
        <ele>372.79998779297</ele>
        <time>2013-12-07T15:14:51Z</time>
      </trkpt>
      <trkpt lat="43.42546" lon="6.03362">
        <ele>373.20001220703</ele>
        <time>2013-12-07T15:14:55Z</time>
      </trkpt>
      <trkpt lat="43.42546" lon="6.03364">
        <ele>373.60000610352</ele>
        <time>2013-12-07T15:14:56Z</time>
      </trkpt>
      <trkpt lat="43.42546" lon="6.03372">
        <ele>374.79998779297</ele>
        <time>2013-12-07T15:14:59Z</time>
      </trkpt>
      <trkpt lat="43.42545" lon="6.03377">
        <ele>374.79998779297</ele>
        <time>2013-12-07T15:15:01Z</time>
      </trkpt>
      <trkpt lat="43.42543" lon="6.03386">
        <ele>374.79998779297</ele>
        <time>2013-12-07T15:15:06Z</time>
      </trkpt>
      <trkpt lat="43.42549" lon="6.03393">
        <ele>374.79998779297</ele>
        <time>2013-12-07T15:15:11Z</time>
      </trkpt>
      <trkpt lat="43.42551" lon="6.03395">
        <ele>375.20001220703</ele>
        <time>2013-12-07T15:15:12Z</time>
      </trkpt>
      <trkpt lat="43.42552" lon="6.03396">
        <ele>375.60000610352</ele>
        <time>2013-12-07T15:15:13Z</time>
      </trkpt>
      <trkpt lat="43.42554" lon="6.03396">
        <ele>376</ele>
        <time>2013-12-07T15:15:14Z</time>
      </trkpt>
      <trkpt lat="43.42559" lon="6.03398">
        <ele>377</ele>
        <time>2013-12-07T15:15:17Z</time>
      </trkpt>
      <trkpt lat="43.42566" lon="6.03405">
        <ele>377</ele>
        <time>2013-12-07T15:15:21Z</time>
      </trkpt>
      <trkpt lat="43.4257" lon="6.0341">
        <ele>377</ele>
        <time>2013-12-07T15:15:23Z</time>
      </trkpt>
      <trkpt lat="43.42578" lon="6.03425">
        <ele>377</ele>
        <time>2013-12-07T15:15:29Z</time>
      </trkpt>
      <trkpt lat="43.42584" lon="6.03436">
        <ele>377</ele>
        <time>2013-12-07T15:15:34Z</time>
      </trkpt>
      <trkpt lat="43.42593" lon="6.03446">
        <ele>377</ele>
        <time>2013-12-07T15:15:40Z</time>
      </trkpt>
      <trkpt lat="43.42604" lon="6.03454">
        <ele>377</ele>
        <time>2013-12-07T15:15:46Z</time>
      </trkpt>
      <trkpt lat="43.42612" lon="6.03459">
        <ele>377.39999389648</ele>
        <time>2013-12-07T15:15:51Z</time>
      </trkpt>
      <trkpt lat="43.42614" lon="6.0346">
        <ele>377.79998779297</ele>
        <time>2013-12-07T15:15:52Z</time>
      </trkpt>
      <trkpt lat="43.42614" lon="6.03461">
        <ele>378.20001220703</ele>
        <time>2013-12-07T15:15:53Z</time>
      </trkpt>
      <trkpt lat="43.42616" lon="6.03461">
        <ele>378.60000610352</ele>
        <time>2013-12-07T15:15:54Z</time>
      </trkpt>
      <trkpt lat="43.42619" lon="6.03464">
        <ele>379</ele>
        <time>2013-12-07T15:15:57Z</time>
      </trkpt>
      <trkpt lat="43.42622" lon="6.03467">
        <ele>379</ele>
        <time>2013-12-07T15:15:59Z</time>
      </trkpt>
      <trkpt lat="43.42629" lon="6.03471">
        <ele>381.20001220703</ele>
        <time>2013-12-07T15:16:06Z</time>
      </trkpt>
      <trkpt lat="43.42634" lon="6.03477">
        <ele>381.20001220703</ele>
        <time>2013-12-07T15:16:11Z</time>
      </trkpt>
      <trkpt lat="43.42638" lon="6.03483">
        <ele>383.39999389648</ele>
        <time>2013-12-07T15:16:17Z</time>
      </trkpt>
      <trkpt lat="43.42638" lon="6.03485">
        <ele>383.39999389648</ele>
        <time>2013-12-07T15:16:18Z</time>
      </trkpt>
      <trkpt lat="43.42642" lon="6.03495">
        <ele>383.39999389648</ele>
        <time>2013-12-07T15:16:25Z</time>
      </trkpt>
      <trkpt lat="43.42645" lon="6.03502">
        <ele>383.39999389648</ele>
        <time>2013-12-07T15:16:29Z</time>
      </trkpt>
      <trkpt lat="43.42646" lon="6.03505">
        <ele>383.39999389648</ele>
        <time>2013-12-07T15:16:31Z</time>
      </trkpt>
      <trkpt lat="43.42647" lon="6.03513">
        <ele>383.39999389648</ele>
        <time>2013-12-07T15:16:36Z</time>
      </trkpt>
      <trkpt lat="43.42647" lon="6.03514">
        <ele>383.39999389648</ele>
        <time>2013-12-07T15:16:37Z</time>
      </trkpt>
      <trkpt lat="43.42647" lon="6.03515">
        <ele>383.39999389648</ele>
        <time>2013-12-07T15:16:40Z</time>
      </trkpt>
      <trkpt lat="43.42647" lon="6.03515">
        <ele>383.39999389648</ele>
        <time>2013-12-07T15:16:55Z</time>
      </trkpt>
      <trkpt lat="43.42647" lon="6.03515">
        <ele>383.39999389648</ele>
        <time>2013-12-07T15:17:04Z</time>
      </trkpt>
      <trkpt lat="43.42647" lon="6.03516">
        <ele>383.39999389648</ele>
        <time>2013-12-07T15:17:08Z</time>
      </trkpt>
      <trkpt lat="43.42647" lon="6.03516">
        <ele>383.39999389648</ele>
        <time>2013-12-07T15:17:30Z</time>
      </trkpt>
      <trkpt lat="43.42647" lon="6.03516">
        <ele>383.39999389648</ele>
        <time>2013-12-07T15:18:45Z</time>
      </trkpt>
      <trkpt lat="43.42647" lon="6.03516">
        <ele>383.39999389648</ele>
        <time>2013-12-07T15:18:58Z</time>
      </trkpt>
      <trkpt lat="43.42647" lon="6.03515">
        <ele>383.39999389648</ele>
        <time>2013-12-07T15:19:11Z</time>
      </trkpt>
      <trkpt lat="43.42647" lon="6.03516">
        <ele>383.39999389648</ele>
        <time>2013-12-07T15:19:13Z</time>
      </trkpt>
      <trkpt lat="43.42648" lon="6.03522">
        <ele>383.39999389648</ele>
        <time>2013-12-07T15:19:16Z</time>
      </trkpt>
      <trkpt lat="43.42653" lon="6.03543">
        <ele>383.39999389648</ele>
        <time>2013-12-07T15:19:23Z</time>
      </trkpt>
      <trkpt lat="43.42655" lon="6.03567">
        <ele>383.39999389648</ele>
        <time>2013-12-07T15:19:29Z</time>
      </trkpt>
      <trkpt lat="43.42659" lon="6.03594">
        <ele>383.39999389648</ele>
        <time>2013-12-07T15:19:34Z</time>
      </trkpt>
      <trkpt lat="43.42664" lon="6.03607">
        <ele>383.39999389648</ele>
        <time>2013-12-07T15:19:37Z</time>
      </trkpt>
      <trkpt lat="43.42667" lon="6.0361">
        <ele>383.39999389648</ele>
        <time>2013-12-07T15:19:38Z</time>
      </trkpt>
      <trkpt lat="43.42675" lon="6.03622">
        <ele>383.39999389648</ele>
        <time>2013-12-07T15:19:41Z</time>
      </trkpt>
      <trkpt lat="43.42678" lon="6.03625">
        <ele>383.39999389648</ele>
        <time>2013-12-07T15:19:42Z</time>
      </trkpt>
      <trkpt lat="43.42682" lon="6.03645">
        <ele>383.39999389648</ele>
        <time>2013-12-07T15:19:46Z</time>
      </trkpt>
      <trkpt lat="43.42681" lon="6.03677">
        <ele>383</ele>
        <time>2013-12-07T15:19:52Z</time>
      </trkpt>
      <trkpt lat="43.42681" lon="6.03688">
        <ele>382.20001220703</ele>
        <time>2013-12-07T15:19:54Z</time>
      </trkpt>
      <trkpt lat="43.4268" lon="6.03698">
        <ele>381.20001220703</ele>
        <time>2013-12-07T15:19:56Z</time>
      </trkpt>
      <trkpt lat="43.42678" lon="6.03708">
        <ele>380.79998779297</ele>
        <time>2013-12-07T15:19:58Z</time>
      </trkpt>
      <trkpt lat="43.42678" lon="6.03713">
        <ele>380.39999389648</ele>
        <time>2013-12-07T15:19:59Z</time>
      </trkpt>
      <trkpt lat="43.42679" lon="6.03719">
        <ele>379.79998779297</ele>
        <time>2013-12-07T15:20:00Z</time>
      </trkpt>
      <trkpt lat="43.4268" lon="6.03724">
        <ele>379.39999389648</ele>
        <time>2013-12-07T15:20:01Z</time>
      </trkpt>
      <trkpt lat="43.4268" lon="6.03747">
        <ele>376.79998779297</ele>
        <time>2013-12-07T15:20:06Z</time>
      </trkpt>
      <trkpt lat="43.42678" lon="6.03759">
        <ele>376</ele>
        <time>2013-12-07T15:20:09Z</time>
      </trkpt>
      <trkpt lat="43.42676" lon="6.0377">
        <ele>374.20001220703</ele>
        <time>2013-12-07T15:20:13Z</time>
      </trkpt>
      <trkpt lat="43.42676" lon="6.03773">
        <ele>373.79998779297</ele>
        <time>2013-12-07T15:20:14Z</time>
      </trkpt>
      <trkpt lat="43.42677" lon="6.03777">
        <ele>373.39999389648</ele>
        <time>2013-12-07T15:20:15Z</time>
      </trkpt>
      <trkpt lat="43.42677" lon="6.0378">
        <ele>373</ele>
        <time>2013-12-07T15:20:16Z</time>
      </trkpt>
      <trkpt lat="43.42677" lon="6.03784">
        <ele>372.39999389648</ele>
        <time>2013-12-07T15:20:17Z</time>
      </trkpt>
      <trkpt lat="43.42677" lon="6.03787">
        <ele>372</ele>
        <time>2013-12-07T15:20:18Z</time>
      </trkpt>
      <trkpt lat="43.42674" lon="6.03796">
        <ele>370.60000610352</ele>
        <time>2013-12-07T15:20:21Z</time>
      </trkpt>
      <trkpt lat="43.42671" lon="6.03807">
        <ele>369.79998779297</ele>
        <time>2013-12-07T15:20:24Z</time>
      </trkpt>
      <trkpt lat="43.42676" lon="6.03813">
        <ele>368.39999389648</ele>
        <time>2013-12-07T15:20:26Z</time>
      </trkpt>
      <trkpt lat="43.42678" lon="6.03815">
        <ele>367.79998779297</ele>
        <time>2013-12-07T15:20:27Z</time>
      </trkpt>
      <trkpt lat="43.4268" lon="6.03817">
        <ele>367.20001220703</ele>
        <time>2013-12-07T15:20:28Z</time>
      </trkpt>
      <trkpt lat="43.42683" lon="6.03826">
        <ele>365.60000610352</ele>
        <time>2013-12-07T15:20:31Z</time>
      </trkpt>
      <trkpt lat="43.42683" lon="6.03837">
        <ele>364</ele>
        <time>2013-12-07T15:20:34Z</time>
      </trkpt>
      <trkpt lat="43.42683" lon="6.03858">
        <ele>361.79998779297</ele>
        <time>2013-12-07T15:20:39Z</time>
      </trkpt>
      <trkpt lat="43.42684" lon="6.03863">
        <ele>361.39999389648</ele>
        <time>2013-12-07T15:20:40Z</time>
      </trkpt>
      <trkpt lat="43.42683" lon="6.03872">
        <ele>360.79998779297</ele>
        <time>2013-12-07T15:20:42Z</time>
      </trkpt>
      <trkpt lat="43.42683" lon="6.0388">
        <ele>359.79998779297</ele>
        <time>2013-12-07T15:20:44Z</time>
      </trkpt>
      <trkpt lat="43.42682" lon="6.03889">
        <ele>358.79998779297</ele>
        <time>2013-12-07T15:20:46Z</time>
      </trkpt>
      <trkpt lat="43.42683" lon="6.03905">
        <ele>358.39999389648</ele>
        <time>2013-12-07T15:20:50Z</time>
      </trkpt>
      <trkpt lat="43.42686" lon="6.03908">
        <ele>357.39999389648</ele>
        <time>2013-12-07T15:20:51Z</time>
      </trkpt>
      <trkpt lat="43.4269" lon="6.03915">
        <ele>356.39999389648</ele>
        <time>2013-12-07T15:20:53Z</time>
      </trkpt>
      <trkpt lat="43.42688" lon="6.03926">
        <ele>356</ele>
        <time>2013-12-07T15:20:56Z</time>
      </trkpt>
      <trkpt lat="43.42688" lon="6.0393">
        <ele>355.60000610352</ele>
        <time>2013-12-07T15:20:57Z</time>
      </trkpt>
      <trkpt lat="43.42687" lon="6.03933">
        <ele>355</ele>
        <time>2013-12-07T15:20:58Z</time>
      </trkpt>
      <trkpt lat="43.42688" lon="6.03937">
        <ele>354.60000610352</ele>
        <time>2013-12-07T15:20:59Z</time>
      </trkpt>
      <trkpt lat="43.4269" lon="6.03939">
        <ele>354.20001220703</ele>
        <time>2013-12-07T15:21:00Z</time>
      </trkpt>
      <trkpt lat="43.4269" lon="6.03943">
        <ele>354.20001220703</ele>
        <time>2013-12-07T15:21:01Z</time>
      </trkpt>
      <trkpt lat="43.42693" lon="6.03948">
        <ele>353.39999389648</ele>
        <time>2013-12-07T15:21:03Z</time>
      </trkpt>
      <trkpt lat="43.42709" lon="6.03951">
        <ele>352</ele>
        <time>2013-12-07T15:21:06Z</time>
      </trkpt>
      <trkpt lat="43.42723" lon="6.03954">
        <ele>352</ele>
        <time>2013-12-07T15:21:09Z</time>
      </trkpt>
      <trkpt lat="43.42724" lon="6.03965">
        <ele>352</ele>
        <time>2013-12-07T15:21:11Z</time>
      </trkpt>
      <trkpt lat="43.42724" lon="6.0397">
        <ele>352</ele>
        <time>2013-12-07T15:21:12Z</time>
      </trkpt>
      <trkpt lat="43.42722" lon="6.03987">
        <ele>352</ele>
        <time>2013-12-07T15:21:16Z</time>
      </trkpt>
      <trkpt lat="43.42718" lon="6.04004">
        <ele>352</ele>
        <time>2013-12-07T15:21:21Z</time>
      </trkpt>
      <trkpt lat="43.42717" lon="6.04012">
        <ele>351</ele>
        <time>2013-12-07T15:21:23Z</time>
      </trkpt>
      <trkpt lat="43.4271" lon="6.04023">
        <ele>349.79998779297</ele>
        <time>2013-12-07T15:21:26Z</time>
      </trkpt>
      <trkpt lat="43.42701" lon="6.04037">
        <ele>349.79998779297</ele>
        <time>2013-12-07T15:21:29Z</time>
      </trkpt>
      <trkpt lat="43.42697" lon="6.04047">
        <ele>349.79998779297</ele>
        <time>2013-12-07T15:21:31Z</time>
      </trkpt>
      <trkpt lat="43.42696" lon="6.04052">
        <ele>349.20001220703</ele>
        <time>2013-12-07T15:21:32Z</time>
      </trkpt>
      <trkpt lat="43.42695" lon="6.04057">
        <ele>348.79998779297</ele>
        <time>2013-12-07T15:21:33Z</time>
      </trkpt>
      <trkpt lat="43.42694" lon="6.04062">
        <ele>348.39999389648</ele>
        <time>2013-12-07T15:21:34Z</time>
      </trkpt>
      <trkpt lat="43.42694" lon="6.04067">
        <ele>348</ele>
        <time>2013-12-07T15:21:35Z</time>
      </trkpt>
      <trkpt lat="43.42693" lon="6.04071">
        <ele>347.39999389648</ele>
        <time>2013-12-07T15:21:36Z</time>
      </trkpt>
      <trkpt lat="43.42693" lon="6.0408">
        <ele>347.39999389648</ele>
        <time>2013-12-07T15:21:38Z</time>
      </trkpt>
      <trkpt lat="43.42696" lon="6.04097">
        <ele>347.39999389648</ele>
        <time>2013-12-07T15:21:42Z</time>
      </trkpt>
      <trkpt lat="43.42697" lon="6.04101">
        <ele>347.39999389648</ele>
        <time>2013-12-07T15:21:43Z</time>
      </trkpt>
      <trkpt lat="43.42696" lon="6.04106">
        <ele>347.39999389648</ele>
        <time>2013-12-07T15:21:45Z</time>
      </trkpt>
      <trkpt lat="43.42695" lon="6.04108">
        <ele>347.39999389648</ele>
        <time>2013-12-07T15:21:46Z</time>
      </trkpt>
      <trkpt lat="43.42693" lon="6.04112">
        <ele>347.39999389648</ele>
        <time>2013-12-07T15:21:49Z</time>
      </trkpt>
      <trkpt lat="43.42693" lon="6.04112">
        <ele>347.39999389648</ele>
        <time>2013-12-07T15:21:52Z</time>
      </trkpt>
      <trkpt lat="43.42693" lon="6.04112">
        <ele>347.39999389648</ele>
        <time>2013-12-07T15:22:12Z</time>
      </trkpt>
      <trkpt lat="43.42693" lon="6.04112">
        <ele>347.39999389648</ele>
        <time>2013-12-07T15:22:36Z</time>
      </trkpt>
      <trkpt lat="43.42693" lon="6.04112">
        <ele>347.39999389648</ele>
        <time>2013-12-07T15:22:50Z</time>
      </trkpt>
      <trkpt lat="43.4269" lon="6.04113">
        <ele>347.39999389648</ele>
        <time>2013-12-07T15:22:58Z</time>
      </trkpt>
      <trkpt lat="43.42675" lon="6.0412">
        <ele>347.39999389648</ele>
        <time>2013-12-07T15:23:02Z</time>
      </trkpt>
      <trkpt lat="43.42667" lon="6.04126">
        <ele>347.39999389648</ele>
        <time>2013-12-07T15:23:04Z</time>
      </trkpt>
      <trkpt lat="43.42664" lon="6.0413">
        <ele>347</ele>
        <time>2013-12-07T15:23:05Z</time>
      </trkpt>
      <trkpt lat="43.42662" lon="6.04136">
        <ele>346.60000610352</ele>
        <time>2013-12-07T15:23:06Z</time>
      </trkpt>
      <trkpt lat="43.4266" lon="6.04143">
        <ele>346.20001220703</ele>
        <time>2013-12-07T15:23:07Z</time>
      </trkpt>
      <trkpt lat="43.42658" lon="6.04149">
        <ele>345.79998779297</ele>
        <time>2013-12-07T15:23:08Z</time>
      </trkpt>
      <trkpt lat="43.42656" lon="6.04155">
        <ele>345.39999389648</ele>
        <time>2013-12-07T15:23:09Z</time>
      </trkpt>
      <trkpt lat="43.42651" lon="6.04168">
        <ele>345.39999389648</ele>
        <time>2013-12-07T15:23:11Z</time>
      </trkpt>
      <trkpt lat="43.42645" lon="6.0418">
        <ele>345</ele>
        <time>2013-12-07T15:23:13Z</time>
      </trkpt>
      <trkpt lat="43.42636" lon="6.04198">
        <ele>343.60000610352</ele>
        <time>2013-12-07T15:23:16Z</time>
      </trkpt>
      <trkpt lat="43.42636" lon="6.04204">
        <ele>343.20001220703</ele>
        <time>2013-12-07T15:23:17Z</time>
      </trkpt>
      <trkpt lat="43.42637" lon="6.04225">
        <ele>342.79998779297</ele>
        <time>2013-12-07T15:23:20Z</time>
      </trkpt>
      <trkpt lat="43.42638" lon="6.04232">
        <ele>342.39999389648</ele>
        <time>2013-12-07T15:23:21Z</time>
      </trkpt>
      <trkpt lat="43.42639" lon="6.04239">
        <ele>342</ele>
        <time>2013-12-07T15:23:22Z</time>
      </trkpt>
      <trkpt lat="43.4264" lon="6.04247">
        <ele>341.60000610352</ele>
        <time>2013-12-07T15:23:23Z</time>
      </trkpt>
      <trkpt lat="43.42641" lon="6.04254">
        <ele>341.20001220703</ele>
        <time>2013-12-07T15:23:24Z</time>
      </trkpt>
      <trkpt lat="43.42643" lon="6.04261">
        <ele>340.79998779297</ele>
        <time>2013-12-07T15:23:25Z</time>
      </trkpt>
      <trkpt lat="43.42646" lon="6.04269">
        <ele>340.20001220703</ele>
        <time>2013-12-07T15:23:26Z</time>
      </trkpt>
      <trkpt lat="43.42647" lon="6.04277">
        <ele>339.79998779297</ele>
        <time>2013-12-07T15:23:27Z</time>
      </trkpt>
      <trkpt lat="43.42649" lon="6.04282">
        <ele>339.39999389648</ele>
        <time>2013-12-07T15:23:28Z</time>
      </trkpt>
      <trkpt lat="43.4265" lon="6.04287">
        <ele>338.79998779297</ele>
        <time>2013-12-07T15:23:29Z</time>
      </trkpt>
      <trkpt lat="43.42653" lon="6.04299">
        <ele>338.39999389648</ele>
        <time>2013-12-07T15:23:32Z</time>
      </trkpt>
      <trkpt lat="43.42653" lon="6.04302">
        <ele>338</ele>
        <time>2013-12-07T15:23:33Z</time>
      </trkpt>
      <trkpt lat="43.42652" lon="6.04305">
        <ele>337.60000610352</ele>
        <time>2013-12-07T15:23:34Z</time>
      </trkpt>
      <trkpt lat="43.42651" lon="6.04306">
        <ele>337.20001220703</ele>
        <time>2013-12-07T15:23:35Z</time>
      </trkpt>
      <trkpt lat="43.42649" lon="6.04306">
        <ele>336.79998779297</ele>
        <time>2013-12-07T15:23:36Z</time>
      </trkpt>
      <trkpt lat="43.42649" lon="6.04305">
        <ele>336.79998779297</ele>
        <time>2013-12-07T15:23:37Z</time>
      </trkpt>
      <trkpt lat="43.42649" lon="6.04305">
        <ele>336.79998779297</ele>
        <time>2013-12-07T15:23:40Z</time>
      </trkpt>
      <trkpt lat="43.42645" lon="6.04304">
        <ele>336.79998779297</ele>
        <time>2013-12-07T15:23:46Z</time>
      </trkpt>
      <trkpt lat="43.42645" lon="6.04304">
        <ele>336.79998779297</ele>
        <time>2013-12-07T15:23:58Z</time>
      </trkpt>
      <trkpt lat="43.42645" lon="6.04304">
        <ele>336.79998779297</ele>
        <time>2013-12-07T15:24:09Z</time>
      </trkpt>
      <trkpt lat="43.42643" lon="6.04303">
        <ele>336.79998779297</ele>
        <time>2013-12-07T15:24:20Z</time>
      </trkpt>
      <trkpt lat="43.42641" lon="6.04302">
        <ele>336.79998779297</ele>
        <time>2013-12-07T15:24:23Z</time>
      </trkpt>
      <trkpt lat="43.4264" lon="6.04303">
        <ele>336.79998779297</ele>
        <time>2013-12-07T15:24:24Z</time>
      </trkpt>
      <trkpt lat="43.42638" lon="6.04305">
        <ele>336.79998779297</ele>
        <time>2013-12-07T15:24:26Z</time>
      </trkpt>
      <trkpt lat="43.42636" lon="6.04306">
        <ele>337.20001220703</ele>
        <time>2013-12-07T15:24:28Z</time>
      </trkpt>
      <trkpt lat="43.42634" lon="6.04307">
        <ele>338.39999389648</ele>
        <time>2013-12-07T15:24:31Z</time>
      </trkpt>
      <trkpt lat="43.42633" lon="6.04308">
        <ele>338.79998779297</ele>
        <time>2013-12-07T15:24:32Z</time>
      </trkpt>
      <trkpt lat="43.42626" lon="6.0431">
        <ele>338.79998779297</ele>
        <time>2013-12-07T15:24:40Z</time>
      </trkpt>
      <trkpt lat="43.42623" lon="6.04313">
        <ele>340.20001220703</ele>
        <time>2013-12-07T15:24:43Z</time>
      </trkpt>
      <trkpt lat="43.42622" lon="6.04315">
        <ele>341</ele>
        <time>2013-12-07T15:24:45Z</time>
      </trkpt>
      <trkpt lat="43.4262" lon="6.04315">
        <ele>341</ele>
        <time>2013-12-07T15:24:46Z</time>
      </trkpt>
      <trkpt lat="43.42616" lon="6.04316">
        <ele>341</ele>
        <time>2013-12-07T15:24:52Z</time>
      </trkpt>
      <trkpt lat="43.42613" lon="6.04316">
        <ele>341.39999389648</ele>
        <time>2013-12-07T15:24:57Z</time>
      </trkpt>
      <trkpt lat="43.42606" lon="6.04319">
        <ele>343.20001220703</ele>
        <time>2013-12-07T15:25:06Z</time>
      </trkpt>
      <trkpt lat="43.42604" lon="6.04319">
        <ele>343.20001220703</ele>
        <time>2013-12-07T15:25:08Z</time>
      </trkpt>
      <trkpt lat="43.42601" lon="6.0432">
        <ele>343.60000610352</ele>
        <time>2013-12-07T15:25:11Z</time>
      </trkpt>
      <trkpt lat="43.42601" lon="6.0432">
        <ele>344</ele>
        <time>2013-12-07T15:25:12Z</time>
      </trkpt>
      <trkpt lat="43.42599" lon="6.0432">
        <ele>345.20001220703</ele>
        <time>2013-12-07T15:25:15Z</time>
      </trkpt>
      <trkpt lat="43.42597" lon="6.04321">
        <ele>345.20001220703</ele>
        <time>2013-12-07T15:25:19Z</time>
      </trkpt>
      <trkpt lat="43.42595" lon="6.04322">
        <ele>345.60000610352</ele>
        <time>2013-12-07T15:25:23Z</time>
      </trkpt>
      <trkpt lat="43.42592" lon="6.04325">
        <ele>347.20001220703</ele>
        <time>2013-12-07T15:25:27Z</time>
      </trkpt>
      <trkpt lat="43.42588" lon="6.04326">
        <ele>347.20001220703</ele>
        <time>2013-12-07T15:25:33Z</time>
      </trkpt>
      <trkpt lat="43.42582" lon="6.04329">
        <ele>347.79998779297</ele>
        <time>2013-12-07T15:25:41Z</time>
      </trkpt>
      <trkpt lat="43.42582" lon="6.04329">
        <ele>348.20001220703</ele>
        <time>2013-12-07T15:25:42Z</time>
      </trkpt>
      <trkpt lat="43.4258" lon="6.04332">
        <ele>349.39999389648</ele>
        <time>2013-12-07T15:25:47Z</time>
      </trkpt>
      <trkpt lat="43.42577" lon="6.04335">
        <ele>349.39999389648</ele>
        <time>2013-12-07T15:25:56Z</time>
      </trkpt>
      <trkpt lat="43.42575" lon="6.04335">
        <ele>349.79998779297</ele>
        <time>2013-12-07T15:25:58Z</time>
      </trkpt>
      <trkpt lat="43.42575" lon="6.04334">
        <ele>350.60000610352</ele>
        <time>2013-12-07T15:26:00Z</time>
      </trkpt>
      <trkpt lat="43.42569" lon="6.04331">
        <ele>351.39999389648</ele>
        <time>2013-12-07T15:26:09Z</time>
      </trkpt>
      <trkpt lat="43.42564" lon="6.04333">
        <ele>351.39999389648</ele>
        <time>2013-12-07T15:26:16Z</time>
      </trkpt>
      <trkpt lat="43.42561" lon="6.04333">
        <ele>351.39999389648</ele>
        <time>2013-12-07T15:26:23Z</time>
      </trkpt>
      <trkpt lat="43.42561" lon="6.04333">
        <ele>351.39999389648</ele>
        <time>2013-12-07T15:26:32Z</time>
      </trkpt>
      <trkpt lat="43.4256" lon="6.04334">
        <ele>352.20001220703</ele>
        <time>2013-12-07T15:26:37Z</time>
      </trkpt>
      <trkpt lat="43.42553" lon="6.04336">
        <ele>353.39999389648</ele>
        <time>2013-12-07T15:26:45Z</time>
      </trkpt>
      <trkpt lat="43.42551" lon="6.04337">
        <ele>353.39999389648</ele>
        <time>2013-12-07T15:26:48Z</time>
      </trkpt>
      <trkpt lat="43.42544" lon="6.04337">
        <ele>355.60000610352</ele>
        <time>2013-12-07T15:26:57Z</time>
      </trkpt>
      <trkpt lat="43.42541" lon="6.04338">
        <ele>355.60000610352</ele>
        <time>2013-12-07T15:27:03Z</time>
      </trkpt>
      <trkpt lat="43.42537" lon="6.04339">
        <ele>355.60000610352</ele>
        <time>2013-12-07T15:27:08Z</time>
      </trkpt>
      <trkpt lat="43.42536" lon="6.04338">
        <ele>355.60000610352</ele>
        <time>2013-12-07T15:27:09Z</time>
      </trkpt>
      <trkpt lat="43.42531" lon="6.04339">
        <ele>355.60000610352</ele>
        <time>2013-12-07T15:27:12Z</time>
      </trkpt>
      <trkpt lat="43.42527" lon="6.0434">
        <ele>355.60000610352</ele>
        <time>2013-12-07T15:27:14Z</time>
      </trkpt>
      <trkpt lat="43.4252" lon="6.04341">
        <ele>356</ele>
        <time>2013-12-07T15:27:17Z</time>
      </trkpt>
      <trkpt lat="43.42516" lon="6.04337">
        <ele>356.79998779297</ele>
        <time>2013-12-07T15:27:19Z</time>
      </trkpt>
      <trkpt lat="43.42514" lon="6.04335">
        <ele>357.20001220703</ele>
        <time>2013-12-07T15:27:20Z</time>
      </trkpt>
      <trkpt lat="43.42511" lon="6.04334">
        <ele>357.60000610352</ele>
        <time>2013-12-07T15:27:21Z</time>
      </trkpt>
      <trkpt lat="43.42509" lon="6.04332">
        <ele>357.60000610352</ele>
        <time>2013-12-07T15:27:22Z</time>
      </trkpt>
      <trkpt lat="43.42503" lon="6.04329">
        <ele>357.60000610352</ele>
        <time>2013-12-07T15:27:25Z</time>
      </trkpt>
      <trkpt lat="43.42497" lon="6.04327">
        <ele>357.60000610352</ele>
        <time>2013-12-07T15:27:28Z</time>
      </trkpt>
      <trkpt lat="43.42495" lon="6.04325">
        <ele>358</ele>
        <time>2013-12-07T15:27:30Z</time>
      </trkpt>
      <trkpt lat="43.42493" lon="6.04324">
        <ele>358.39999389648</ele>
        <time>2013-12-07T15:27:31Z</time>
      </trkpt>
      <trkpt lat="43.42493" lon="6.04323">
        <ele>358.79998779297</ele>
        <time>2013-12-07T15:27:32Z</time>
      </trkpt>
      <trkpt lat="43.42491" lon="6.04322">
        <ele>359.39999389648</ele>
        <time>2013-12-07T15:27:33Z</time>
      </trkpt>
      <trkpt lat="43.4249" lon="6.04322">
        <ele>359.79998779297</ele>
        <time>2013-12-07T15:27:34Z</time>
      </trkpt>
      <trkpt lat="43.42485" lon="6.04321">
        <ele>359.79998779297</ele>
        <time>2013-12-07T15:27:37Z</time>
      </trkpt>
      <trkpt lat="43.4248" lon="6.0432">
        <ele>359.79998779297</ele>
        <time>2013-12-07T15:27:41Z</time>
      </trkpt>
      <trkpt lat="43.42477" lon="6.04317">
        <ele>359.79998779297</ele>
        <time>2013-12-07T15:27:43Z</time>
      </trkpt>
      <trkpt lat="43.42473" lon="6.04315">
        <ele>359.79998779297</ele>
        <time>2013-12-07T15:27:46Z</time>
      </trkpt>
      <trkpt lat="43.42471" lon="6.04313">
        <ele>359.79998779297</ele>
        <time>2013-12-07T15:27:48Z</time>
      </trkpt>
      <trkpt lat="43.42468" lon="6.04313">
        <ele>360.60000610352</ele>
        <time>2013-12-07T15:27:51Z</time>
      </trkpt>
      <trkpt lat="43.42467" lon="6.04313">
        <ele>361</ele>
        <time>2013-12-07T15:27:52Z</time>
      </trkpt>
      <trkpt lat="43.42466" lon="6.04313">
        <ele>361.39999389648</ele>
        <time>2013-12-07T15:27:53Z</time>
      </trkpt>
      <trkpt lat="43.42467" lon="6.04313">
        <ele>361.79998779297</ele>
        <time>2013-12-07T15:27:54Z</time>
      </trkpt>
      <trkpt lat="43.42467" lon="6.04313">
        <ele>361.79998779297</ele>
        <time>2013-12-07T15:27:58Z</time>
      </trkpt>
      <trkpt lat="43.42467" lon="6.04313">
        <ele>361.79998779297</ele>
        <time>2013-12-07T15:28:03Z</time>
      </trkpt>
      <trkpt lat="43.42466" lon="6.04313">
        <ele>361.79998779297</ele>
        <time>2013-12-07T15:28:07Z</time>
      </trkpt>
      <trkpt lat="43.42466" lon="6.04313">
        <ele>361.79998779297</ele>
        <time>2013-12-07T15:28:11Z</time>
      </trkpt>
      <trkpt lat="43.42466" lon="6.04313">
        <ele>361.79998779297</ele>
        <time>2013-12-07T15:28:19Z</time>
      </trkpt>
      <trkpt lat="43.42466" lon="6.04313">
        <ele>361.79998779297</ele>
        <time>2013-12-07T15:28:22Z</time>
      </trkpt>
      <trkpt lat="43.42466" lon="6.04313">
        <ele>361.79998779297</ele>
        <time>2013-12-07T15:28:25Z</time>
      </trkpt>
      <trkpt lat="43.42469" lon="6.04312">
        <ele>361.79998779297</ele>
        <time>2013-12-07T15:28:28Z</time>
      </trkpt>
      <trkpt lat="43.42469" lon="6.04312">
        <ele>361.79998779297</ele>
        <time>2013-12-07T15:28:30Z</time>
      </trkpt>
      <trkpt lat="43.42467" lon="6.04313">
        <ele>361.79998779297</ele>
        <time>2013-12-07T15:28:31Z</time>
      </trkpt>
      <trkpt lat="43.4247" lon="6.04314">
        <ele>361.79998779297</ele>
        <time>2013-12-07T15:28:35Z</time>
      </trkpt>
      <trkpt lat="43.42477" lon="6.04318">
        <ele>361.79998779297</ele>
        <time>2013-12-07T15:28:41Z</time>
      </trkpt>
      <trkpt lat="43.42492" lon="6.04326">
        <ele>361.79998779297</ele>
        <time>2013-12-07T15:28:49Z</time>
      </trkpt>
      <trkpt lat="43.42493" lon="6.04327">
        <ele>361.39999389648</ele>
        <time>2013-12-07T15:28:50Z</time>
      </trkpt>
      <trkpt lat="43.42495" lon="6.04327">
        <ele>361</ele>
        <time>2013-12-07T15:28:51Z</time>
      </trkpt>
      <trkpt lat="43.42497" lon="6.04327">
        <ele>360.39999389648</ele>
        <time>2013-12-07T15:28:52Z</time>
      </trkpt>
      <trkpt lat="43.42502" lon="6.0433">
        <ele>359.60000610352</ele>
        <time>2013-12-07T15:28:54Z</time>
      </trkpt>
      <trkpt lat="43.42507" lon="6.04333">
        <ele>359.60000610352</ele>
        <time>2013-12-07T15:28:56Z</time>
      </trkpt>
      <trkpt lat="43.42515" lon="6.04336">
        <ele>359.60000610352</ele>
        <time>2013-12-07T15:29:01Z</time>
      </trkpt>
      <trkpt lat="43.42516" lon="6.04336">
        <ele>359.60000610352</ele>
        <time>2013-12-07T15:29:02Z</time>
      </trkpt>
      <trkpt lat="43.42517" lon="6.04336">
        <ele>359.60000610352</ele>
        <time>2013-12-07T15:29:06Z</time>
      </trkpt>
      <trkpt lat="43.42517" lon="6.04338">
        <ele>359.60000610352</ele>
        <time>2013-12-07T15:29:07Z</time>
      </trkpt>
      <trkpt lat="43.42523" lon="6.04343">
        <ele>359.60000610352</ele>
        <time>2013-12-07T15:29:11Z</time>
      </trkpt>
      <trkpt lat="43.42524" lon="6.04342">
        <ele>359.20001220703</ele>
        <time>2013-12-07T15:29:15Z</time>
      </trkpt>
      <trkpt lat="43.42524" lon="6.04341">
        <ele>358.79998779297</ele>
        <time>2013-12-07T15:29:16Z</time>
      </trkpt>
      <trkpt lat="43.42524" lon="6.04341">
        <ele>357.60000610352</ele>
        <time>2013-12-07T15:29:19Z</time>
      </trkpt>
      <trkpt lat="43.42527" lon="6.04342">
        <ele>357.60000610352</ele>
        <time>2013-12-07T15:29:21Z</time>
      </trkpt>
      <trkpt lat="43.42529" lon="6.04342">
        <ele>357.60000610352</ele>
        <time>2013-12-07T15:29:26Z</time>
      </trkpt>
      <trkpt lat="43.42529" lon="6.04342">
        <ele>357.60000610352</ele>
        <time>2013-12-07T15:29:32Z</time>
      </trkpt>
      <trkpt lat="43.42529" lon="6.04342">
        <ele>357.60000610352</ele>
        <time>2013-12-07T15:29:38Z</time>
      </trkpt>
      <trkpt lat="43.42527" lon="6.0434">
        <ele>357.60000610352</ele>
        <time>2013-12-07T15:29:41Z</time>
      </trkpt>
      <trkpt lat="43.42523" lon="6.04341">
        <ele>357.60000610352</ele>
        <time>2013-12-07T15:29:48Z</time>
      </trkpt>
      <trkpt lat="43.42516" lon="6.04336">
        <ele>357.60000610352</ele>
        <time>2013-12-07T15:29:52Z</time>
      </trkpt>
      <trkpt lat="43.42511" lon="6.04335">
        <ele>357.60000610352</ele>
        <time>2013-12-07T15:29:57Z</time>
      </trkpt>
      <trkpt lat="43.4251" lon="6.04335">
        <ele>357.60000610352</ele>
        <time>2013-12-07T15:29:58Z</time>
      </trkpt>
      <trkpt lat="43.42505" lon="6.0433">
        <ele>357.60000610352</ele>
        <time>2013-12-07T15:30:02Z</time>
      </trkpt>
      <trkpt lat="43.42501" lon="6.04328">
        <ele>357.60000610352</ele>
        <time>2013-12-07T15:30:04Z</time>
      </trkpt>
      <trkpt lat="43.42496" lon="6.04327">
        <ele>357.60000610352</ele>
        <time>2013-12-07T15:30:08Z</time>
      </trkpt>
      <trkpt lat="43.42493" lon="6.04325">
        <ele>357.60000610352</ele>
        <time>2013-12-07T15:30:14Z</time>
      </trkpt>
      <trkpt lat="43.42493" lon="6.04325">
        <ele>358</ele>
        <time>2013-12-07T15:30:16Z</time>
      </trkpt>
      <trkpt lat="43.42492" lon="6.04324">
        <ele>358.79998779297</ele>
        <time>2013-12-07T15:30:18Z</time>
      </trkpt>
      <trkpt lat="43.4249" lon="6.04323">
        <ele>359.20001220703</ele>
        <time>2013-12-07T15:30:19Z</time>
      </trkpt>
      <trkpt lat="43.42491" lon="6.04323">
        <ele>359.79998779297</ele>
        <time>2013-12-07T15:30:20Z</time>
      </trkpt>
      <trkpt lat="43.42486" lon="6.04323">
        <ele>359.79998779297</ele>
        <time>2013-12-07T15:30:24Z</time>
      </trkpt>
      <trkpt lat="43.42484" lon="6.04323">
        <ele>359.79998779297</ele>
        <time>2013-12-07T15:30:27Z</time>
      </trkpt>
      <trkpt lat="43.4248" lon="6.04321">
        <ele>359.79998779297</ele>
        <time>2013-12-07T15:30:30Z</time>
      </trkpt>
      <trkpt lat="43.42472" lon="6.04316">
        <ele>359.79998779297</ele>
        <time>2013-12-07T15:30:35Z</time>
      </trkpt>
      <trkpt lat="43.42469" lon="6.04315">
        <ele>359.79998779297</ele>
        <time>2013-12-07T15:30:37Z</time>
      </trkpt>
      <trkpt lat="43.42466" lon="6.04313">
        <ele>360.60000610352</ele>
        <time>2013-12-07T15:30:41Z</time>
      </trkpt>
      <trkpt lat="43.42466" lon="6.04313">
        <ele>361</ele>
        <time>2013-12-07T15:30:42Z</time>
      </trkpt>
      <trkpt lat="43.42466" lon="6.04313">
        <ele>361.79998779297</ele>
        <time>2013-12-07T15:30:45Z</time>
      </trkpt>
      <trkpt lat="43.42466" lon="6.04314">
        <ele>361.79998779297</ele>
        <time>2013-12-07T15:30:51Z</time>
      </trkpt>
      <trkpt lat="43.42466" lon="6.04314">
        <ele>361.79998779297</ele>
        <time>2013-12-07T15:31:17Z</time>
      </trkpt>
      <trkpt lat="43.42466" lon="6.04314">
        <ele>361.79998779297</ele>
        <time>2013-12-07T15:33:38Z</time>
      </trkpt>
      <trkpt lat="43.42466" lon="6.04314">
        <ele>361.79998779297</ele>
        <time>2013-12-07T15:33:56Z</time>
      </trkpt>
      <trkpt lat="43.42465" lon="6.04314">
        <ele>361.79998779297</ele>
        <time>2013-12-07T15:34:16Z</time>
      </trkpt>
      <trkpt lat="43.42465" lon="6.04314">
        <ele>361.79998779297</ele>
        <time>2013-12-07T15:34:35Z</time>
      </trkpt>
      <trkpt lat="43.42465" lon="6.04314">
        <ele>361.79998779297</ele>
        <time>2013-12-07T15:34:45Z</time>
      </trkpt>
      <trkpt lat="43.42466" lon="6.04314">
        <ele>361.79998779297</ele>
        <time>2013-12-07T15:34:50Z</time>
      </trkpt>
      <trkpt lat="43.42466" lon="6.04314">
        <ele>361.79998779297</ele>
        <time>2013-12-07T15:35:17Z</time>
      </trkpt>
      <trkpt lat="43.42466" lon="6.04314">
        <ele>361.79998779297</ele>
        <time>2013-12-07T15:36:13Z</time>
      </trkpt>
      <trkpt lat="43.42466" lon="6.04314">
        <ele>361.79998779297</ele>
        <time>2013-12-07T15:36:28Z</time>
      </trkpt>
      <trkpt lat="43.42466" lon="6.04313">
        <ele>361.79998779297</ele>
        <time>2013-12-07T15:36:51Z</time>
      </trkpt>
      <trkpt lat="43.42466" lon="6.04313">
        <ele>361.79998779297</ele>
        <time>2013-12-07T15:37:16Z</time>
      </trkpt>
      <trkpt lat="43.42466" lon="6.04313">
        <ele>361.79998779297</ele>
        <time>2013-12-07T15:38:05Z</time>
      </trkpt>
      <trkpt lat="43.42466" lon="6.04314">
        <ele>361.79998779297</ele>
        <time>2013-12-07T15:38:17Z</time>
      </trkpt>
      <trkpt lat="43.42466" lon="6.04314">
        <ele>361.79998779297</ele>
        <time>2013-12-07T15:38:24Z</time>
      </trkpt>
      <trkpt lat="43.42466" lon="6.04315">
        <ele>361.79998779297</ele>
        <time>2013-12-07T15:38:31Z</time>
      </trkpt>
      <trkpt lat="43.42466" lon="6.04315">
        <ele>361.79998779297</ele>
        <time>2013-12-07T15:38:38Z</time>
      </trkpt>
      <trkpt lat="43.42466" lon="6.04316">
        <ele>361.79998779297</ele>
        <time>2013-12-07T15:38:43Z</time>
      </trkpt>
      <trkpt lat="43.42467" lon="6.04318">
        <ele>361.79998779297</ele>
        <time>2013-12-07T15:38:45Z</time>
      </trkpt>
      <trkpt lat="43.42467" lon="6.04328">
        <ele>361.79998779297</ele>
        <time>2013-12-07T15:38:50Z</time>
      </trkpt>
      <trkpt lat="43.42465" lon="6.04334">
        <ele>361.79998779297</ele>
        <time>2013-12-07T15:38:54Z</time>
      </trkpt>
      <trkpt lat="43.42464" lon="6.04334">
        <ele>361.79998779297</ele>
        <time>2013-12-07T15:38:56Z</time>
      </trkpt>
      <trkpt lat="43.42464" lon="6.04334">
        <ele>361.79998779297</ele>
        <time>2013-12-07T15:38:59Z</time>
      </trkpt>
      <trkpt lat="43.42464" lon="6.04337">
        <ele>361.79998779297</ele>
        <time>2013-12-07T15:39:05Z</time>
      </trkpt>
      <trkpt lat="43.42464" lon="6.04337">
        <ele>361.79998779297</ele>
        <time>2013-12-07T15:39:12Z</time>
      </trkpt>
      <trkpt lat="43.42464" lon="6.04338">
        <ele>361.79998779297</ele>
        <time>2013-12-07T15:39:16Z</time>
      </trkpt>
      <trkpt lat="43.42463" lon="6.04343">
        <ele>361.79998779297</ele>
        <time>2013-12-07T15:39:18Z</time>
      </trkpt>
      <trkpt lat="43.42461" lon="6.04351">
        <ele>361.79998779297</ele>
        <time>2013-12-07T15:39:23Z</time>
      </trkpt>
      <trkpt lat="43.42461" lon="6.04358">
        <ele>361.79998779297</ele>
        <time>2013-12-07T15:39:26Z</time>
      </trkpt>
      <trkpt lat="43.4246" lon="6.04361">
        <ele>361.79998779297</ele>
        <time>2013-12-07T15:39:28Z</time>
      </trkpt>
      <trkpt lat="43.42461" lon="6.04369">
        <ele>361.79998779297</ele>
        <time>2013-12-07T15:39:31Z</time>
      </trkpt>
      <trkpt lat="43.42462" lon="6.04373">
        <ele>361.79998779297</ele>
        <time>2013-12-07T15:39:33Z</time>
      </trkpt>
      <trkpt lat="43.42462" lon="6.04393">
        <ele>361.79998779297</ele>
        <time>2013-12-07T15:39:40Z</time>
      </trkpt>
      <trkpt lat="43.42457" lon="6.04406">
        <ele>361.79998779297</ele>
        <time>2013-12-07T15:39:44Z</time>
      </trkpt>
      <trkpt lat="43.42455" lon="6.04415">
        <ele>361.39999389648</ele>
        <time>2013-12-07T15:39:47Z</time>
      </trkpt>
      <trkpt lat="43.42453" lon="6.04419">
        <ele>360.79998779297</ele>
        <time>2013-12-07T15:39:48Z</time>
      </trkpt>
      <trkpt lat="43.42451" lon="6.04423">
        <ele>360.39999389648</ele>
        <time>2013-12-07T15:39:49Z</time>
      </trkpt>
      <trkpt lat="43.4245" lon="6.04432">
        <ele>359.60000610352</ele>
        <time>2013-12-07T15:39:51Z</time>
      </trkpt>
      <trkpt lat="43.42448" lon="6.04439">
        <ele>358.39999389648</ele>
        <time>2013-12-07T15:39:53Z</time>
      </trkpt>
      <trkpt lat="43.42448" lon="6.04442">
        <ele>357.79998779297</ele>
        <time>2013-12-07T15:39:54Z</time>
      </trkpt>
      <trkpt lat="43.42448" lon="6.04446">
        <ele>357.39999389648</ele>
        <time>2013-12-07T15:39:55Z</time>
      </trkpt>
      <trkpt lat="43.4245" lon="6.04449">
        <ele>356.79998779297</ele>
        <time>2013-12-07T15:39:56Z</time>
      </trkpt>
      <trkpt lat="43.42454" lon="6.04454">
        <ele>355.79998779297</ele>
        <time>2013-12-07T15:39:58Z</time>
      </trkpt>
      <trkpt lat="43.42456" lon="6.04456">
        <ele>355.20001220703</ele>
        <time>2013-12-07T15:39:59Z</time>
      </trkpt>
      <trkpt lat="43.42458" lon="6.04462">
        <ele>355.20001220703</ele>
        <time>2013-12-07T15:40:01Z</time>
      </trkpt>
      <trkpt lat="43.42462" lon="6.04468">
        <ele>354.79998779297</ele>
        <time>2013-12-07T15:40:05Z</time>
      </trkpt>
      <trkpt lat="43.42464" lon="6.04469">
        <ele>354</ele>
        <time>2013-12-07T15:40:07Z</time>
      </trkpt>
      <trkpt lat="43.42466" lon="6.04469">
        <ele>353.60000610352</ele>
        <time>2013-12-07T15:40:08Z</time>
      </trkpt>
      <trkpt lat="43.42468" lon="6.04469">
        <ele>353.20001220703</ele>
        <time>2013-12-07T15:40:09Z</time>
      </trkpt>
      <trkpt lat="43.4247" lon="6.0447">
        <ele>353.20001220703</ele>
        <time>2013-12-07T15:40:12Z</time>
      </trkpt>
      <trkpt lat="43.4247" lon="6.0447">
        <ele>353.20001220703</ele>
        <time>2013-12-07T15:40:13Z</time>
      </trkpt>
      <trkpt lat="43.42471" lon="6.0447">
        <ele>353.20001220703</ele>
        <time>2013-12-07T15:40:22Z</time>
      </trkpt>
      <trkpt lat="43.42471" lon="6.0447">
        <ele>353.20001220703</ele>
        <time>2013-12-07T15:40:25Z</time>
      </trkpt>
      <trkpt lat="43.42471" lon="6.0447">
        <ele>353.20001220703</ele>
        <time>2013-12-07T15:40:26Z</time>
      </trkpt>
      <trkpt lat="43.42472" lon="6.04476">
        <ele>353.20001220703</ele>
        <time>2013-12-07T15:40:28Z</time>
      </trkpt>
      <trkpt lat="43.42479" lon="6.04494">
        <ele>353.20001220703</ele>
        <time>2013-12-07T15:40:32Z</time>
      </trkpt>
      <trkpt lat="43.4248" lon="6.04498">
        <ele>353.20001220703</ele>
        <time>2013-12-07T15:40:33Z</time>
      </trkpt>
      <trkpt lat="43.42481" lon="6.04502">
        <ele>352.79998779297</ele>
        <time>2013-12-07T15:40:34Z</time>
      </trkpt>
      <trkpt lat="43.42481" lon="6.04506">
        <ele>352.39999389648</ele>
        <time>2013-12-07T15:40:35Z</time>
      </trkpt>
      <trkpt lat="43.42481" lon="6.04509">
        <ele>351.60000610352</ele>
        <time>2013-12-07T15:40:36Z</time>
      </trkpt>
      <trkpt lat="43.42479" lon="6.04512">
        <ele>351.20001220703</ele>
        <time>2013-12-07T15:40:37Z</time>
      </trkpt>
      <trkpt lat="43.42478" lon="6.04516">
        <ele>351.20001220703</ele>
        <time>2013-12-07T15:40:38Z</time>
      </trkpt>
      <trkpt lat="43.42478" lon="6.0452">
        <ele>350.60000610352</ele>
        <time>2013-12-07T15:40:39Z</time>
      </trkpt>
      <trkpt lat="43.42478" lon="6.04528">
        <ele>349.79998779297</ele>
        <time>2013-12-07T15:40:41Z</time>
      </trkpt>
      <trkpt lat="43.42478" lon="6.04534">
        <ele>348.60000610352</ele>
        <time>2013-12-07T15:40:43Z</time>
      </trkpt>
      <trkpt lat="43.42477" lon="6.04541">
        <ele>347.39999389648</ele>
        <time>2013-12-07T15:40:45Z</time>
      </trkpt>
      <trkpt lat="43.42476" lon="6.04545">
        <ele>346.79998779297</ele>
        <time>2013-12-07T15:40:46Z</time>
      </trkpt>
      <trkpt lat="43.42473" lon="6.04552">
        <ele>345.39999389648</ele>
        <time>2013-12-07T15:40:49Z</time>
      </trkpt>
      <trkpt lat="43.42472" lon="6.04557">
        <ele>344.39999389648</ele>
        <time>2013-12-07T15:40:51Z</time>
      </trkpt>
      <trkpt lat="43.42473" lon="6.0456">
        <ele>343.79998779297</ele>
        <time>2013-12-07T15:40:52Z</time>
      </trkpt>
      <trkpt lat="43.42474" lon="6.04562">
        <ele>343.39999389648</ele>
        <time>2013-12-07T15:40:53Z</time>
      </trkpt>
      <trkpt lat="43.42476" lon="6.04564">
        <ele>342.79998779297</ele>
        <time>2013-12-07T15:40:54Z</time>
      </trkpt>
      <trkpt lat="43.42477" lon="6.04566">
        <ele>342.20001220703</ele>
        <time>2013-12-07T15:40:55Z</time>
      </trkpt>
      <trkpt lat="43.42476" lon="6.04568">
        <ele>342.20001220703</ele>
        <time>2013-12-07T15:40:56Z</time>
      </trkpt>
      <trkpt lat="43.42472" lon="6.04577">
        <ele>341.79998779297</ele>
        <time>2013-12-07T15:41:00Z</time>
      </trkpt>
      <trkpt lat="43.4247" lon="6.0458">
        <ele>341.39999389648</ele>
        <time>2013-12-07T15:41:01Z</time>
      </trkpt>
      <trkpt lat="43.4247" lon="6.04584">
        <ele>340.39999389648</ele>
        <time>2013-12-07T15:41:02Z</time>
      </trkpt>
      <trkpt lat="43.42468" lon="6.04593">
        <ele>339.39999389648</ele>
        <time>2013-12-07T15:41:04Z</time>
      </trkpt>
      <trkpt lat="43.42463" lon="6.04606">
        <ele>337.39999389648</ele>
        <time>2013-12-07T15:41:08Z</time>
      </trkpt>
      <trkpt lat="43.4246" lon="6.04609">
        <ele>336.20001220703</ele>
        <time>2013-12-07T15:41:10Z</time>
      </trkpt>
      <trkpt lat="43.42458" lon="6.0461">
        <ele>335.60000610352</ele>
        <time>2013-12-07T15:41:11Z</time>
      </trkpt>
      <trkpt lat="43.42456" lon="6.04615">
        <ele>335.20001220703</ele>
        <time>2013-12-07T15:41:13Z</time>
      </trkpt>
      <trkpt lat="43.42456" lon="6.04618">
        <ele>334.79998779297</ele>
        <time>2013-12-07T15:41:14Z</time>
      </trkpt>
      <trkpt lat="43.42455" lon="6.04621">
        <ele>334.39999389648</ele>
        <time>2013-12-07T15:41:15Z</time>
      </trkpt>
      <trkpt lat="43.42455" lon="6.04623">
        <ele>334</ele>
        <time>2013-12-07T15:41:16Z</time>
      </trkpt>
      <trkpt lat="43.42454" lon="6.04626">
        <ele>333.60000610352</ele>
        <time>2013-12-07T15:41:17Z</time>
      </trkpt>
      <trkpt lat="43.42452" lon="6.04635">
        <ele>333</ele>
        <time>2013-12-07T15:41:19Z</time>
      </trkpt>
      <trkpt lat="43.42451" lon="6.0464">
        <ele>332.60000610352</ele>
        <time>2013-12-07T15:41:20Z</time>
      </trkpt>
      <trkpt lat="43.4245" lon="6.04646">
        <ele>332</ele>
        <time>2013-12-07T15:41:21Z</time>
      </trkpt>
      <trkpt lat="43.42449" lon="6.04652">
        <ele>331.39999389648</ele>
        <time>2013-12-07T15:41:22Z</time>
      </trkpt>
      <trkpt lat="43.42447" lon="6.04657">
        <ele>330.79998779297</ele>
        <time>2013-12-07T15:41:23Z</time>
      </trkpt>
      <trkpt lat="43.42443" lon="6.04667">
        <ele>329.39999389648</ele>
        <time>2013-12-07T15:41:25Z</time>
      </trkpt>
      <trkpt lat="43.42441" lon="6.0467">
        <ele>328</ele>
        <time>2013-12-07T15:41:26Z</time>
      </trkpt>
      <trkpt lat="43.42439" lon="6.04672">
        <ele>327.39999389648</ele>
        <time>2013-12-07T15:41:27Z</time>
      </trkpt>
      <trkpt lat="43.42438" lon="6.04672">
        <ele>326.60000610352</ele>
        <time>2013-12-07T15:41:28Z</time>
      </trkpt>
      <trkpt lat="43.42437" lon="6.04671">
        <ele>326.60000610352</ele>
        <time>2013-12-07T15:41:30Z</time>
      </trkpt>
      <trkpt lat="43.42436" lon="6.0467">
        <ele>326.60000610352</ele>
        <time>2013-12-07T15:41:31Z</time>
      </trkpt>
      <trkpt lat="43.42435" lon="6.04669">
        <ele>326.60000610352</ele>
        <time>2013-12-07T15:41:32Z</time>
      </trkpt>
      <trkpt lat="43.42433" lon="6.04668">
        <ele>326.60000610352</ele>
        <time>2013-12-07T15:41:34Z</time>
      </trkpt>
      <trkpt lat="43.42431" lon="6.04668">
        <ele>326.60000610352</ele>
        <time>2013-12-07T15:41:36Z</time>
      </trkpt>
      <trkpt lat="43.42427" lon="6.0467">
        <ele>326.60000610352</ele>
        <time>2013-12-07T15:41:39Z</time>
      </trkpt>
      <trkpt lat="43.4242" lon="6.0468">
        <ele>326.60000610352</ele>
        <time>2013-12-07T15:41:44Z</time>
      </trkpt>
      <trkpt lat="43.42418" lon="6.04686">
        <ele>326.60000610352</ele>
        <time>2013-12-07T15:41:47Z</time>
      </trkpt>
      <trkpt lat="43.42411" lon="6.04697">
        <ele>326.60000610352</ele>
        <time>2013-12-07T15:41:52Z</time>
      </trkpt>
      <trkpt lat="43.42407" lon="6.04704">
        <ele>326.60000610352</ele>
        <time>2013-12-07T15:41:56Z</time>
      </trkpt>
      <trkpt lat="43.42403" lon="6.04715">
        <ele>326.60000610352</ele>
        <time>2013-12-07T15:42:01Z</time>
      </trkpt>
      <trkpt lat="43.42393" lon="6.04717">
        <ele>327.79998779297</ele>
        <time>2013-12-07T15:42:06Z</time>
      </trkpt>
      <trkpt lat="43.4239" lon="6.04718">
        <ele>328.60000610352</ele>
        <time>2013-12-07T15:42:08Z</time>
      </trkpt>
      <trkpt lat="43.42389" lon="6.0472">
        <ele>328.60000610352</ele>
        <time>2013-12-07T15:42:09Z</time>
      </trkpt>
      <trkpt lat="43.42388" lon="6.0473">
        <ele>328.60000610352</ele>
        <time>2013-12-07T15:42:12Z</time>
      </trkpt>
      <trkpt lat="43.42385" lon="6.04735">
        <ele>328.60000610352</ele>
        <time>2013-12-07T15:42:15Z</time>
      </trkpt>
      <trkpt lat="43.42383" lon="6.04741">
        <ele>328.60000610352</ele>
        <time>2013-12-07T15:42:20Z</time>
      </trkpt>
      <trkpt lat="43.42383" lon="6.04741">
        <ele>328.60000610352</ele>
        <time>2013-12-07T15:42:38Z</time>
      </trkpt>
      <trkpt lat="43.42383" lon="6.04741">
        <ele>328.60000610352</ele>
        <time>2013-12-07T15:42:46Z</time>
      </trkpt>
      <trkpt lat="43.42382" lon="6.04742">
        <ele>328.60000610352</ele>
        <time>2013-12-07T15:42:51Z</time>
      </trkpt>
      <trkpt lat="43.42382" lon="6.04742">
        <ele>330.60000610352</ele>
        <time>2013-12-07T15:43:08Z</time>
      </trkpt>
      <trkpt lat="43.42382" lon="6.04742">
        <ele>330.60000610352</ele>
        <time>2013-12-07T15:43:23Z</time>
      </trkpt>
      <trkpt lat="43.42382" lon="6.04743">
        <ele>330.60000610352</ele>
        <time>2013-12-07T15:43:30Z</time>
      </trkpt>
      <trkpt lat="43.42382" lon="6.04743">
        <ele>330.60000610352</ele>
        <time>2013-12-07T15:43:50Z</time>
      </trkpt>
      <trkpt lat="43.42382" lon="6.04743">
        <ele>330.60000610352</ele>
        <time>2013-12-07T15:44:14Z</time>
      </trkpt>
      <trkpt lat="43.42381" lon="6.04744">
        <ele>330.60000610352</ele>
        <time>2013-12-07T15:44:18Z</time>
      </trkpt>
      <trkpt lat="43.42383" lon="6.04747">
        <ele>330.60000610352</ele>
        <time>2013-12-07T15:44:33Z</time>
      </trkpt>
      <trkpt lat="43.42384" lon="6.04749">
        <ele>330.60000610352</ele>
        <time>2013-12-07T15:44:34Z</time>
      </trkpt>
      <trkpt lat="43.42385" lon="6.04754">
        <ele>330.60000610352</ele>
        <time>2013-12-07T15:44:38Z</time>
      </trkpt>
      <trkpt lat="43.42385" lon="6.04754">
        <ele>330.60000610352</ele>
        <time>2013-12-07T15:44:40Z</time>
      </trkpt>
      <trkpt lat="43.42385" lon="6.04754">
        <ele>330.60000610352</ele>
        <time>2013-12-07T15:44:44Z</time>
      </trkpt>
      <trkpt lat="43.42385" lon="6.04754">
        <ele>330.60000610352</ele>
        <time>2013-12-07T15:44:45Z</time>
      </trkpt>
      <trkpt lat="43.42386" lon="6.04757">
        <ele>330.60000610352</ele>
        <time>2013-12-07T15:44:48Z</time>
      </trkpt>
      <trkpt lat="43.42389" lon="6.0476">
        <ele>330.60000610352</ele>
        <time>2013-12-07T15:44:50Z</time>
      </trkpt>
      <trkpt lat="43.42395" lon="6.04761">
        <ele>330.60000610352</ele>
        <time>2013-12-07T15:44:53Z</time>
      </trkpt>
      <trkpt lat="43.42397" lon="6.04759">
        <ele>330.60000610352</ele>
        <time>2013-12-07T15:44:54Z</time>
      </trkpt>
      <trkpt lat="43.42398" lon="6.04757">
        <ele>330.20001220703</ele>
        <time>2013-12-07T15:44:55Z</time>
      </trkpt>
      <trkpt lat="43.42402" lon="6.04753">
        <ele>329.39999389648</ele>
        <time>2013-12-07T15:44:57Z</time>
      </trkpt>
      <trkpt lat="43.42403" lon="6.04752">
        <ele>329</ele>
        <time>2013-12-07T15:44:58Z</time>
      </trkpt>
      <trkpt lat="43.42405" lon="6.04752">
        <ele>328.60000610352</ele>
        <time>2013-12-07T15:44:59Z</time>
      </trkpt>
      <trkpt lat="43.42408" lon="6.04752">
        <ele>328.60000610352</ele>
        <time>2013-12-07T15:45:00Z</time>
      </trkpt>
      <trkpt lat="43.42412" lon="6.04752">
        <ele>328.20001220703</ele>
        <time>2013-12-07T15:45:02Z</time>
      </trkpt>
      <trkpt lat="43.42417" lon="6.04754">
        <ele>327.20001220703</ele>
        <time>2013-12-07T15:45:04Z</time>
      </trkpt>
      <trkpt lat="43.42419" lon="6.04753">
        <ele>326.79998779297</ele>
        <time>2013-12-07T15:45:05Z</time>
      </trkpt>
      <trkpt lat="43.42426" lon="6.04749">
        <ele>326</ele>
        <time>2013-12-07T15:45:09Z</time>
      </trkpt>
      <trkpt lat="43.42429" lon="6.04748">
        <ele>325</ele>
        <time>2013-12-07T15:45:11Z</time>
      </trkpt>
      <trkpt lat="43.4243" lon="6.04748">
        <ele>324.60000610352</ele>
        <time>2013-12-07T15:45:12Z</time>
      </trkpt>
      <trkpt lat="43.42431" lon="6.04748">
        <ele>324.20001220703</ele>
        <time>2013-12-07T15:45:13Z</time>
      </trkpt>
      <trkpt lat="43.42433" lon="6.04753">
        <ele>324.20001220703</ele>
        <time>2013-12-07T15:45:16Z</time>
      </trkpt>
      <trkpt lat="43.42434" lon="6.04761">
        <ele>324.20001220703</ele>
        <time>2013-12-07T15:45:19Z</time>
      </trkpt>
      <trkpt lat="43.42434" lon="6.04762">
        <ele>324.20001220703</ele>
        <time>2013-12-07T15:45:21Z</time>
      </trkpt>
      <trkpt lat="43.42433" lon="6.04763">
        <ele>324.20001220703</ele>
        <time>2013-12-07T15:45:26Z</time>
      </trkpt>
      <trkpt lat="43.42432" lon="6.04767">
        <ele>324.20001220703</ele>
        <time>2013-12-07T15:45:31Z</time>
      </trkpt>
      <trkpt lat="43.42431" lon="6.04771">
        <ele>324.20001220703</ele>
        <time>2013-12-07T15:45:37Z</time>
      </trkpt>
      <trkpt lat="43.42433" lon="6.04778">
        <ele>325.39999389648</ele>
        <time>2013-12-07T15:45:44Z</time>
      </trkpt>
      <trkpt lat="43.42433" lon="6.04778">
        <ele>325.79998779297</ele>
        <time>2013-12-07T15:45:45Z</time>
      </trkpt>
      <trkpt lat="43.42433" lon="6.04778">
        <ele>326.20001220703</ele>
        <time>2013-12-07T15:45:47Z</time>
      </trkpt>
      <trkpt lat="43.42432" lon="6.04779">
        <ele>326.20001220703</ele>
        <time>2013-12-07T15:45:54Z</time>
      </trkpt>
      <trkpt lat="43.42433" lon="6.0478">
        <ele>326.20001220703</ele>
        <time>2013-12-07T15:46:02Z</time>
      </trkpt>
      <trkpt lat="43.42433" lon="6.0478">
        <ele>326.20001220703</ele>
        <time>2013-12-07T15:46:17Z</time>
      </trkpt>
      <trkpt lat="43.42433" lon="6.04779">
        <ele>326.20001220703</ele>
        <time>2013-12-07T15:46:47Z</time>
      </trkpt>
      <trkpt lat="43.42433" lon="6.0478">
        <ele>326.20001220703</ele>
        <time>2013-12-07T15:46:51Z</time>
      </trkpt>
      <trkpt lat="43.42433" lon="6.04784">
        <ele>326.20001220703</ele>
        <time>2013-12-07T15:46:53Z</time>
      </trkpt>
      <trkpt lat="43.42433" lon="6.04788">
        <ele>326.20001220703</ele>
        <time>2013-12-07T15:46:55Z</time>
      </trkpt>
      <trkpt lat="43.4243" lon="6.04794">
        <ele>326.20001220703</ele>
        <time>2013-12-07T15:46:58Z</time>
      </trkpt>
      <trkpt lat="43.42429" lon="6.04798">
        <ele>327.20001220703</ele>
        <time>2013-12-07T15:47:00Z</time>
      </trkpt>
      <trkpt lat="43.42428" lon="6.048">
        <ele>327.60000610352</ele>
        <time>2013-12-07T15:47:01Z</time>
      </trkpt>
      <trkpt lat="43.42429" lon="6.04802">
        <ele>328</ele>
        <time>2013-12-07T15:47:02Z</time>
      </trkpt>
      <trkpt lat="43.4243" lon="6.04809">
        <ele>328.39999389648</ele>
        <time>2013-12-07T15:47:05Z</time>
      </trkpt>
      <trkpt lat="43.42431" lon="6.0481">
        <ele>328.79998779297</ele>
        <time>2013-12-07T15:47:06Z</time>
      </trkpt>
      <trkpt lat="43.42434" lon="6.04812">
        <ele>329.60000610352</ele>
        <time>2013-12-07T15:47:08Z</time>
      </trkpt>
      <trkpt lat="43.42437" lon="6.04817">
        <ele>330.39999389648</ele>
        <time>2013-12-07T15:47:10Z</time>
      </trkpt>
      <trkpt lat="43.4244" lon="6.04828">
        <ele>330.39999389648</ele>
        <time>2013-12-07T15:47:14Z</time>
      </trkpt>
      <trkpt lat="43.4244" lon="6.04835">
        <ele>330.39999389648</ele>
        <time>2013-12-07T15:47:17Z</time>
      </trkpt>
      <trkpt lat="43.4244" lon="6.04841">
        <ele>330.79998779297</ele>
        <time>2013-12-07T15:47:20Z</time>
      </trkpt>
      <trkpt lat="43.42439" lon="6.04846">
        <ele>331.60000610352</ele>
        <time>2013-12-07T15:47:22Z</time>
      </trkpt>
      <trkpt lat="43.42438" lon="6.0485">
        <ele>332.39999389648</ele>
        <time>2013-12-07T15:47:24Z</time>
      </trkpt>
      <trkpt lat="43.42439" lon="6.04854">
        <ele>332.39999389648</ele>
        <time>2013-12-07T15:47:26Z</time>
      </trkpt>
      <trkpt lat="43.4244" lon="6.04861">
        <ele>332.39999389648</ele>
        <time>2013-12-07T15:47:30Z</time>
      </trkpt>
      <trkpt lat="43.4244" lon="6.04863">
        <ele>332.39999389648</ele>
        <time>2013-12-07T15:47:31Z</time>
      </trkpt>
      <trkpt lat="43.4244" lon="6.04863">
        <ele>332.39999389648</ele>
        <time>2013-12-07T15:47:36Z</time>
      </trkpt>
      <trkpt lat="43.4244" lon="6.04863">
        <ele>332.39999389648</ele>
        <time>2013-12-07T15:47:48Z</time>
      </trkpt>
      <trkpt lat="43.4244" lon="6.04863">
        <ele>332.39999389648</ele>
        <time>2013-12-07T15:48:08Z</time>
      </trkpt>
      <trkpt lat="43.4244" lon="6.04863">
        <ele>332.39999389648</ele>
        <time>2013-12-07T15:48:23Z</time>
      </trkpt>
      <trkpt lat="43.4244" lon="6.04863">
        <ele>332.39999389648</ele>
        <time>2013-12-07T15:48:25Z</time>
      </trkpt>
      <trkpt lat="43.42439" lon="6.04863">
        <ele>332.39999389648</ele>
        <time>2013-12-07T15:48:31Z</time>
      </trkpt>
      <trkpt lat="43.42439" lon="6.04864">
        <ele>332.39999389648</ele>
        <time>2013-12-07T15:48:41Z</time>
      </trkpt>
      <trkpt lat="43.4244" lon="6.04866">
        <ele>332.39999389648</ele>
        <time>2013-12-07T15:48:46Z</time>
      </trkpt>
      <trkpt lat="43.4244" lon="6.04866">
        <ele>332.39999389648</ele>
        <time>2013-12-07T15:48:56Z</time>
      </trkpt>
      <trkpt lat="43.4244" lon="6.04866">
        <ele>332.39999389648</ele>
        <time>2013-12-07T15:49:08Z</time>
      </trkpt>
      <trkpt lat="43.42439" lon="6.04871">
        <ele>332.39999389648</ele>
        <time>2013-12-07T15:49:14Z</time>
      </trkpt>
      <trkpt lat="43.4244" lon="6.04876">
        <ele>333.20001220703</ele>
        <time>2013-12-07T15:49:16Z</time>
      </trkpt>
      <trkpt lat="43.4244" lon="6.04882">
        <ele>334.60000610352</ele>
        <time>2013-12-07T15:49:19Z</time>
      </trkpt>
      <trkpt lat="43.4244" lon="6.04886">
        <ele>334.60000610352</ele>
        <time>2013-12-07T15:49:21Z</time>
      </trkpt>
      <trkpt lat="43.42441" lon="6.04889">
        <ele>334.60000610352</ele>
        <time>2013-12-07T15:49:23Z</time>
      </trkpt>
      <trkpt lat="43.42442" lon="6.04891">
        <ele>334.60000610352</ele>
        <time>2013-12-07T15:49:25Z</time>
      </trkpt>
      <trkpt lat="43.42447" lon="6.04892">
        <ele>334.60000610352</ele>
        <time>2013-12-07T15:49:29Z</time>
      </trkpt>
      <trkpt lat="43.42455" lon="6.04896">
        <ele>334.20001220703</ele>
        <time>2013-12-07T15:49:35Z</time>
      </trkpt>
      <trkpt lat="43.42456" lon="6.04897">
        <ele>333.79998779297</ele>
        <time>2013-12-07T15:49:36Z</time>
      </trkpt>
      <trkpt lat="43.42456" lon="6.04897">
        <ele>333.39999389648</ele>
        <time>2013-12-07T15:49:37Z</time>
      </trkpt>
      <trkpt lat="43.42456" lon="6.04897">
        <ele>333</ele>
        <time>2013-12-07T15:49:38Z</time>
      </trkpt>
      <trkpt lat="43.42456" lon="6.04897">
        <ele>332.39999389648</ele>
        <time>2013-12-07T15:49:39Z</time>
      </trkpt>
      <trkpt lat="43.42457" lon="6.04898">
        <ele>332.39999389648</ele>
        <time>2013-12-07T15:49:49Z</time>
      </trkpt>
      <trkpt lat="43.42457" lon="6.04898">
        <ele>332.39999389648</ele>
        <time>2013-12-07T15:49:51Z</time>
      </trkpt>
      <trkpt lat="43.42459" lon="6.04901">
        <ele>330.79998779297</ele>
        <time>2013-12-07T15:50:00Z</time>
      </trkpt>
      <trkpt lat="43.42459" lon="6.04901">
        <ele>330.39999389648</ele>
        <time>2013-12-07T15:50:19Z</time>
      </trkpt>
      <trkpt lat="43.42459" lon="6.04901">
        <ele>330.39999389648</ele>
        <time>2013-12-07T15:50:33Z</time>
      </trkpt>
      <trkpt lat="43.42459" lon="6.04903">
        <ele>330.39999389648</ele>
        <time>2013-12-07T15:50:35Z</time>
      </trkpt>
      <trkpt lat="43.42459" lon="6.04905">
        <ele>330.39999389648</ele>
        <time>2013-12-07T15:50:36Z</time>
      </trkpt>
      <trkpt lat="43.42459" lon="6.04906">
        <ele>330.39999389648</ele>
        <time>2013-12-07T15:50:39Z</time>
      </trkpt>
      <trkpt lat="43.42458" lon="6.04914">
        <ele>330.39999389648</ele>
        <time>2013-12-07T15:50:44Z</time>
      </trkpt>
      <trkpt lat="43.42458" lon="6.04915">
        <ele>330.39999389648</ele>
        <time>2013-12-07T15:50:45Z</time>
      </trkpt>
      <trkpt lat="43.42458" lon="6.04917">
        <ele>330.39999389648</ele>
        <time>2013-12-07T15:50:48Z</time>
      </trkpt>
      <trkpt lat="43.42458" lon="6.04917">
        <ele>330.39999389648</ele>
        <time>2013-12-07T15:50:59Z</time>
      </trkpt>
      <trkpt lat="43.42457" lon="6.04924">
        <ele>330.39999389648</ele>
        <time>2013-12-07T15:51:10Z</time>
      </trkpt>
      <trkpt lat="43.42457" lon="6.04925">
        <ele>330.39999389648</ele>
        <time>2013-12-07T15:51:12Z</time>
      </trkpt>
      <trkpt lat="43.42457" lon="6.04925">
        <ele>330.20001220703</ele>
        <time>2013-12-07T15:51:17Z</time>
      </trkpt>
      <trkpt lat="43.42457" lon="6.04926">
        <ele>330.60000610352</ele>
        <time>2013-12-07T15:51:18Z</time>
      </trkpt>
      <trkpt lat="43.42457" lon="6.04926">
        <ele>331.60000610352</ele>
        <time>2013-12-07T15:51:22Z</time>
      </trkpt>
      <trkpt lat="43.42458" lon="6.0493">
        <ele>331.79998779297</ele>
        <time>2013-12-07T15:51:25Z</time>
      </trkpt>
      <trkpt lat="43.42459" lon="6.04931">
        <ele>331.79998779297</ele>
        <time>2013-12-07T15:51:26Z</time>
      </trkpt>
      <trkpt lat="43.42459" lon="6.0493">
        <ele>331.79998779297</ele>
        <time>2013-12-07T15:51:32Z</time>
      </trkpt>
      <trkpt lat="43.42459" lon="6.0493">
        <ele>331.79998779297</ele>
        <time>2013-12-07T15:51:40Z</time>
      </trkpt>
      <trkpt lat="43.4246" lon="6.04931">
        <ele>331.79998779297</ele>
        <time>2013-12-07T15:51:45Z</time>
      </trkpt>
      <trkpt lat="43.42461" lon="6.04932">
        <ele>331.39999389648</ele>
        <time>2013-12-07T15:51:49Z</time>
      </trkpt>
      <trkpt lat="43.42461" lon="6.04932">
        <ele>329.60000610352</ele>
        <time>2013-12-07T15:51:59Z</time>
      </trkpt>
      <trkpt lat="43.42461" lon="6.04932">
        <ele>329.60000610352</ele>
        <time>2013-12-07T15:52:07Z</time>
      </trkpt>
      <trkpt lat="43.42461" lon="6.04933">
        <ele>329.60000610352</ele>
        <time>2013-12-07T15:52:14Z</time>
      </trkpt>
      <trkpt lat="43.42463" lon="6.04936">
        <ele>329.60000610352</ele>
        <time>2013-12-07T15:52:20Z</time>
      </trkpt>
      <trkpt lat="43.42464" lon="6.04939">
        <ele>329.60000610352</ele>
        <time>2013-12-07T15:52:21Z</time>
      </trkpt>
      <trkpt lat="43.42465" lon="6.0494">
        <ele>329.60000610352</ele>
        <time>2013-12-07T15:52:23Z</time>
      </trkpt>
      <trkpt lat="43.42466" lon="6.04945">
        <ele>329.60000610352</ele>
        <time>2013-12-07T15:52:26Z</time>
      </trkpt>
      <trkpt lat="43.42467" lon="6.04947">
        <ele>329.60000610352</ele>
        <time>2013-12-07T15:52:27Z</time>
      </trkpt>
      <trkpt lat="43.42472" lon="6.04954">
        <ele>328.79998779297</ele>
        <time>2013-12-07T15:52:32Z</time>
      </trkpt>
      <trkpt lat="43.42474" lon="6.04956">
        <ele>328.39999389648</ele>
        <time>2013-12-07T15:52:33Z</time>
      </trkpt>
      <trkpt lat="43.42474" lon="6.04958">
        <ele>327.39999389648</ele>
        <time>2013-12-07T15:52:34Z</time>
      </trkpt>
      <trkpt lat="43.42474" lon="6.04962">
        <ele>327.39999389648</ele>
        <time>2013-12-07T15:52:36Z</time>
      </trkpt>
      <trkpt lat="43.42474" lon="6.04965">
        <ele>327</ele>
        <time>2013-12-07T15:52:37Z</time>
      </trkpt>
      <trkpt lat="43.42477" lon="6.04969">
        <ele>326.20001220703</ele>
        <time>2013-12-07T15:52:39Z</time>
      </trkpt>
      <trkpt lat="43.42479" lon="6.04973">
        <ele>325.20001220703</ele>
        <time>2013-12-07T15:52:41Z</time>
      </trkpt>
      <trkpt lat="43.42482" lon="6.04976">
        <ele>324.79998779297</ele>
        <time>2013-12-07T15:52:43Z</time>
      </trkpt>
      <trkpt lat="43.42487" lon="6.04986">
        <ele>323.20001220703</ele>
        <time>2013-12-07T15:52:48Z</time>
      </trkpt>
      <trkpt lat="43.42489" lon="6.04988">
        <ele>322.39999389648</ele>
        <time>2013-12-07T15:52:50Z</time>
      </trkpt>
      <trkpt lat="43.42493" lon="6.0499">
        <ele>321.20001220703</ele>
        <time>2013-12-07T15:52:53Z</time>
      </trkpt>
      <trkpt lat="43.42499" lon="6.04997">
        <ele>320.60000610352</ele>
        <time>2013-12-07T15:52:57Z</time>
      </trkpt>
      <trkpt lat="43.42503" lon="6.05004">
        <ele>318.79998779297</ele>
        <time>2013-12-07T15:53:00Z</time>
      </trkpt>
      <trkpt lat="43.42505" lon="6.05007">
        <ele>318.39999389648</ele>
        <time>2013-12-07T15:53:02Z</time>
      </trkpt>
      <trkpt lat="43.42507" lon="6.05009">
        <ele>318</ele>
        <time>2013-12-07T15:53:03Z</time>
      </trkpt>
      <trkpt lat="43.42508" lon="6.05012">
        <ele>317.60000610352</ele>
        <time>2013-12-07T15:53:04Z</time>
      </trkpt>
      <trkpt lat="43.42509" lon="6.0502">
        <ele>316.60000610352</ele>
        <time>2013-12-07T15:53:07Z</time>
      </trkpt>
      <trkpt lat="43.4251" lon="6.05028">
        <ele>316.20001220703</ele>
        <time>2013-12-07T15:53:10Z</time>
      </trkpt>
      <trkpt lat="43.42509" lon="6.0503">
        <ele>315.79998779297</ele>
        <time>2013-12-07T15:53:11Z</time>
      </trkpt>
      <trkpt lat="43.42507" lon="6.05031">
        <ele>315.20001220703</ele>
        <time>2013-12-07T15:53:12Z</time>
      </trkpt>
      <trkpt lat="43.42507" lon="6.05036">
        <ele>314.39999389648</ele>
        <time>2013-12-07T15:53:14Z</time>
      </trkpt>
      <trkpt lat="43.42509" lon="6.05039">
        <ele>314.39999389648</ele>
        <time>2013-12-07T15:53:15Z</time>
      </trkpt>
      <trkpt lat="43.42511" lon="6.05042">
        <ele>314.39999389648</ele>
        <time>2013-12-07T15:53:16Z</time>
      </trkpt>
      <trkpt lat="43.42514" lon="6.05049">
        <ele>314.39999389648</ele>
        <time>2013-12-07T15:53:19Z</time>
      </trkpt>
      <trkpt lat="43.42515" lon="6.05051">
        <ele>314</ele>
        <time>2013-12-07T15:53:21Z</time>
      </trkpt>
      <trkpt lat="43.42515" lon="6.05051">
        <ele>312.39999389648</ele>
        <time>2013-12-07T15:53:39Z</time>
      </trkpt>
      <trkpt lat="43.42515" lon="6.05051">
        <ele>312.39999389648</ele>
        <time>2013-12-07T15:53:45Z</time>
      </trkpt>
      <trkpt lat="43.42514" lon="6.05051">
        <ele>312.39999389648</ele>
        <time>2013-12-07T15:53:56Z</time>
      </trkpt>
      <trkpt lat="43.42512" lon="6.05062">
        <ele>312.39999389648</ele>
        <time>2013-12-07T15:54:01Z</time>
      </trkpt>
      <trkpt lat="43.42513" lon="6.05071">
        <ele>312.39999389648</ele>
        <time>2013-12-07T15:54:04Z</time>
      </trkpt>
      <trkpt lat="43.42512" lon="6.05075">
        <ele>312.39999389648</ele>
        <time>2013-12-07T15:54:05Z</time>
      </trkpt>
      <trkpt lat="43.42511" lon="6.05078">
        <ele>312</ele>
        <time>2013-12-07T15:54:06Z</time>
      </trkpt>
      <trkpt lat="43.4251" lon="6.05079">
        <ele>311.60000610352</ele>
        <time>2013-12-07T15:54:07Z</time>
      </trkpt>
      <trkpt lat="43.42509" lon="6.0508">
        <ele>311.20001220703</ele>
        <time>2013-12-07T15:54:08Z</time>
      </trkpt>
      <trkpt lat="43.42508" lon="6.05081">
        <ele>310.79998779297</ele>
        <time>2013-12-07T15:54:09Z</time>
      </trkpt>
      <trkpt lat="43.42506" lon="6.05082">
        <ele>310.39999389648</ele>
        <time>2013-12-07T15:54:10Z</time>
      </trkpt>
      <trkpt lat="43.42501" lon="6.05083">
        <ele>310</ele>
        <time>2013-12-07T15:54:13Z</time>
      </trkpt>
      <trkpt lat="43.42492" lon="6.05084">
        <ele>308.20001220703</ele>
        <time>2013-12-07T15:54:17Z</time>
      </trkpt>
      <trkpt lat="43.42486" lon="6.05085">
        <ele>308.20001220703</ele>
        <time>2013-12-07T15:54:20Z</time>
      </trkpt>
      <trkpt lat="43.42479" lon="6.05087">
        <ele>307.39999389648</ele>
        <time>2013-12-07T15:54:23Z</time>
      </trkpt>
      <trkpt lat="43.42475" lon="6.05089">
        <ele>306.39999389648</ele>
        <time>2013-12-07T15:54:25Z</time>
      </trkpt>
      <trkpt lat="43.42474" lon="6.0509">
        <ele>305.79998779297</ele>
        <time>2013-12-07T15:54:26Z</time>
      </trkpt>
      <trkpt lat="43.42469" lon="6.05095">
        <ele>304.39999389648</ele>
        <time>2013-12-07T15:54:30Z</time>
      </trkpt>
      <trkpt lat="43.42467" lon="6.05098">
        <ele>303.60000610352</ele>
        <time>2013-12-07T15:54:32Z</time>
      </trkpt>
      <trkpt lat="43.42463" lon="6.05101">
        <ele>302.79998779297</ele>
        <time>2013-12-07T15:54:35Z</time>
      </trkpt>
      <trkpt lat="43.42455" lon="6.05107">
        <ele>300</ele>
        <time>2013-12-07T15:54:40Z</time>
      </trkpt>
      <trkpt lat="43.42451" lon="6.05112">
        <ele>298.20001220703</ele>
        <time>2013-12-07T15:54:44Z</time>
      </trkpt>
      <trkpt lat="43.42449" lon="6.05115">
        <ele>297.20001220703</ele>
        <time>2013-12-07T15:54:46Z</time>
      </trkpt>
      <trkpt lat="43.42447" lon="6.05119">
        <ele>296.20001220703</ele>
        <time>2013-12-07T15:54:48Z</time>
      </trkpt>
      <trkpt lat="43.42444" lon="6.05124">
        <ele>294.39999389648</ele>
        <time>2013-12-07T15:54:52Z</time>
      </trkpt>
      <trkpt lat="43.4244" lon="6.05126">
        <ele>293.39999389648</ele>
        <time>2013-12-07T15:54:54Z</time>
      </trkpt>
      <trkpt lat="43.42435" lon="6.05137">
        <ele>291</ele>
        <time>2013-12-07T15:54:59Z</time>
      </trkpt>
      <trkpt lat="43.42432" lon="6.05139">
        <ele>289.39999389648</ele>
        <time>2013-12-07T15:55:01Z</time>
      </trkpt>
      <trkpt lat="43.42432" lon="6.05141">
        <ele>288.79998779297</ele>
        <time>2013-12-07T15:55:02Z</time>
      </trkpt>
      <trkpt lat="43.4243" lon="6.05142">
        <ele>288.20001220703</ele>
        <time>2013-12-07T15:55:03Z</time>
      </trkpt>
      <trkpt lat="43.42427" lon="6.05143">
        <ele>287.79998779297</ele>
        <time>2013-12-07T15:55:05Z</time>
      </trkpt>
      <trkpt lat="43.42426" lon="6.05143">
        <ele>287.39999389648</ele>
        <time>2013-12-07T15:55:06Z</time>
      </trkpt>
      <trkpt lat="43.42424" lon="6.05143">
        <ele>287</ele>
        <time>2013-12-07T15:55:07Z</time>
      </trkpt>
      <trkpt lat="43.42424" lon="6.05143">
        <ele>286.60000610352</ele>
        <time>2013-12-07T15:55:08Z</time>
      </trkpt>
      <trkpt lat="43.42422" lon="6.05144">
        <ele>286</ele>
        <time>2013-12-07T15:55:09Z</time>
      </trkpt>
      <trkpt lat="43.42421" lon="6.05143">
        <ele>286</ele>
        <time>2013-12-07T15:55:10Z</time>
      </trkpt>
      <trkpt lat="43.4242" lon="6.05142">
        <ele>285.60000610352</ele>
        <time>2013-12-07T15:55:12Z</time>
      </trkpt>
      <trkpt lat="43.4242" lon="6.05142">
        <ele>284</ele>
        <time>2013-12-07T15:55:16Z</time>
      </trkpt>
      <trkpt lat="43.42419" lon="6.05143">
        <ele>284</ele>
        <time>2013-12-07T15:55:23Z</time>
      </trkpt>
      <trkpt lat="43.42418" lon="6.05144">
        <ele>284</ele>
        <time>2013-12-07T15:55:29Z</time>
      </trkpt>
      <trkpt lat="43.42418" lon="6.05144">
        <ele>284</ele>
        <time>2013-12-07T15:55:37Z</time>
      </trkpt>
      <trkpt lat="43.42414" lon="6.05144">
        <ele>284</ele>
        <time>2013-12-07T15:55:43Z</time>
      </trkpt>
      <trkpt lat="43.42414" lon="6.05144">
        <ele>284</ele>
        <time>2013-12-07T15:55:44Z</time>
      </trkpt>
      <trkpt lat="43.42413" lon="6.05145">
        <ele>283.39999389648</ele>
        <time>2013-12-07T15:55:46Z</time>
      </trkpt>
      <trkpt lat="43.42413" lon="6.05145">
        <ele>283</ele>
        <time>2013-12-07T15:55:47Z</time>
      </trkpt>
      <trkpt lat="43.42412" lon="6.05145">
        <ele>282.60000610352</ele>
        <time>2013-12-07T15:55:48Z</time>
      </trkpt>
      <trkpt lat="43.42411" lon="6.05144">
        <ele>282.20001220703</ele>
        <time>2013-12-07T15:55:49Z</time>
      </trkpt>
      <trkpt lat="43.42408" lon="6.05143">
        <ele>281.79998779297</ele>
        <time>2013-12-07T15:55:50Z</time>
      </trkpt>
      <trkpt lat="43.42402" lon="6.05144">
        <ele>280.79998779297</ele>
        <time>2013-12-07T15:55:53Z</time>
      </trkpt>
      <trkpt lat="43.424" lon="6.05146">
        <ele>280.39999389648</ele>
        <time>2013-12-07T15:55:54Z</time>
      </trkpt>
      <trkpt lat="43.42399" lon="6.05147">
        <ele>279.79998779297</ele>
        <time>2013-12-07T15:55:55Z</time>
      </trkpt>
      <trkpt lat="43.42396" lon="6.05149">
        <ele>279.20001220703</ele>
        <time>2013-12-07T15:55:56Z</time>
      </trkpt>
      <trkpt lat="43.42393" lon="6.05153">
        <ele>278.20001220703</ele>
        <time>2013-12-07T15:55:58Z</time>
      </trkpt>
      <trkpt lat="43.42392" lon="6.05156">
        <ele>277.60000610352</ele>
        <time>2013-12-07T15:55:59Z</time>
      </trkpt>
      <trkpt lat="43.42392" lon="6.05159">
        <ele>277</ele>
        <time>2013-12-07T15:56:00Z</time>
      </trkpt>
      <trkpt lat="43.42393" lon="6.05161">
        <ele>277</ele>
        <time>2013-12-07T15:56:01Z</time>
      </trkpt>
      <trkpt lat="43.42393" lon="6.05163">
        <ele>276.60000610352</ele>
        <time>2013-12-07T15:56:02Z</time>
      </trkpt>
      <trkpt lat="43.42394" lon="6.05164">
        <ele>276.20001220703</ele>
        <time>2013-12-07T15:56:03Z</time>
      </trkpt>
      <trkpt lat="43.42394" lon="6.05164">
        <ele>275.60000610352</ele>
        <time>2013-12-07T15:56:04Z</time>
      </trkpt>
      <trkpt lat="43.42394" lon="6.05164">
        <ele>274.79998779297</ele>
        <time>2013-12-07T15:56:30Z</time>
      </trkpt>
      <trkpt lat="43.42394" lon="6.05164">
        <ele>274.79998779297</ele>
        <time>2013-12-07T15:56:39Z</time>
      </trkpt>
      <trkpt lat="43.42393" lon="6.05165">
        <ele>274.79998779297</ele>
        <time>2013-12-07T15:56:41Z</time>
      </trkpt>
      <trkpt lat="43.42393" lon="6.05165">
        <ele>274.79998779297</ele>
        <time>2013-12-07T15:56:51Z</time>
      </trkpt>
      <trkpt lat="43.42394" lon="6.05168">
        <ele>274.79998779297</ele>
        <time>2013-12-07T15:56:57Z</time>
      </trkpt>
      <trkpt lat="43.42394" lon="6.05168">
        <ele>274.79998779297</ele>
        <time>2013-12-07T15:57:04Z</time>
      </trkpt>
      <trkpt lat="43.42394" lon="6.05168">
        <ele>274.79998779297</ele>
        <time>2013-12-07T15:57:26Z</time>
      </trkpt>
      <trkpt lat="43.42394" lon="6.05169">
        <ele>274.79998779297</ele>
        <time>2013-12-07T15:57:45Z</time>
      </trkpt>
      <trkpt lat="43.42394" lon="6.05169">
        <ele>274.79998779297</ele>
        <time>2013-12-07T15:58:10Z</time>
      </trkpt>
      <trkpt lat="43.42394" lon="6.05169">
        <ele>274.79998779297</ele>
        <time>2013-12-07T15:58:24Z</time>
      </trkpt>
      <trkpt lat="43.42394" lon="6.05169">
        <ele>274.79998779297</ele>
        <time>2013-12-07T15:58:32Z</time>
      </trkpt>
      <trkpt lat="43.42394" lon="6.05169">
        <ele>274.79998779297</ele>
        <time>2013-12-07T15:58:38Z</time>
      </trkpt>
      <trkpt lat="43.42394" lon="6.05169">
        <ele>274.79998779297</ele>
        <time>2013-12-07T15:58:52Z</time>
      </trkpt>
      <trkpt lat="43.42394" lon="6.0517">
        <ele>274.79998779297</ele>
        <time>2013-12-07T15:58:56Z</time>
      </trkpt>
      <trkpt lat="43.42393" lon="6.05172">
        <ele>274.79998779297</ele>
        <time>2013-12-07T15:58:57Z</time>
      </trkpt>
      <trkpt lat="43.42389" lon="6.05179">
        <ele>274.79998779297</ele>
        <time>2013-12-07T15:59:00Z</time>
      </trkpt>
      <trkpt lat="43.42381" lon="6.05184">
        <ele>274.39999389648</ele>
        <time>2013-12-07T15:59:02Z</time>
      </trkpt>
      <trkpt lat="43.42373" lon="6.05184">
        <ele>273.39999389648</ele>
        <time>2013-12-07T15:59:04Z</time>
      </trkpt>
      <trkpt lat="43.4237" lon="6.05186">
        <ele>273</ele>
        <time>2013-12-07T15:59:05Z</time>
      </trkpt>
      <trkpt lat="43.42365" lon="6.05187">
        <ele>272.39999389648</ele>
        <time>2013-12-07T15:59:06Z</time>
      </trkpt>
      <trkpt lat="43.4236" lon="6.05194">
        <ele>270.79998779297</ele>
        <time>2013-12-07T15:59:08Z</time>
      </trkpt>
      <trkpt lat="43.42358" lon="6.05197">
        <ele>270.39999389648</ele>
        <time>2013-12-07T15:59:09Z</time>
      </trkpt>
      <trkpt lat="43.42355" lon="6.05198">
        <ele>269.79998779297</ele>
        <time>2013-12-07T15:59:10Z</time>
      </trkpt>
      <trkpt lat="43.42352" lon="6.052">
        <ele>269.39999389648</ele>
        <time>2013-12-07T15:59:11Z</time>
      </trkpt>
      <trkpt lat="43.4235" lon="6.052">
        <ele>268.79998779297</ele>
        <time>2013-12-07T15:59:12Z</time>
      </trkpt>
      <trkpt lat="43.42344" lon="6.05198">
        <ele>268</ele>
        <time>2013-12-07T15:59:14Z</time>
      </trkpt>
      <trkpt lat="43.42337" lon="6.052">
        <ele>267.39999389648</ele>
        <time>2013-12-07T15:59:16Z</time>
      </trkpt>
      <trkpt lat="43.42332" lon="6.05201">
        <ele>267</ele>
        <time>2013-12-07T15:59:17Z</time>
      </trkpt>
      <trkpt lat="43.42323" lon="6.05198">
        <ele>266.20001220703</ele>
        <time>2013-12-07T15:59:19Z</time>
      </trkpt>
      <trkpt lat="43.42318" lon="6.05203">
        <ele>265.79998779297</ele>
        <time>2013-12-07T15:59:20Z</time>
      </trkpt>
      <trkpt lat="43.42313" lon="6.05204">
        <ele>265.39999389648</ele>
        <time>2013-12-07T15:59:21Z</time>
      </trkpt>
      <trkpt lat="43.42309" lon="6.05204">
        <ele>265</ele>
        <time>2013-12-07T15:59:22Z</time>
      </trkpt>
      <trkpt lat="43.42304" lon="6.05203">
        <ele>264.39999389648</ele>
        <time>2013-12-07T15:59:23Z</time>
      </trkpt>
      <trkpt lat="43.4229" lon="6.05194">
        <ele>263.60000610352</ele>
        <time>2013-12-07T15:59:27Z</time>
      </trkpt>
      <trkpt lat="43.42284" lon="6.05192">
        <ele>263.60000610352</ele>
        <time>2013-12-07T15:59:30Z</time>
      </trkpt>
      <trkpt lat="43.42274" lon="6.05202">
        <ele>263.60000610352</ele>
        <time>2013-12-07T15:59:34Z</time>
      </trkpt>
      <trkpt lat="43.42271" lon="6.05205">
        <ele>263.20001220703</ele>
        <time>2013-12-07T15:59:35Z</time>
      </trkpt>
      <trkpt lat="43.42261" lon="6.05209">
        <ele>262.39999389648</ele>
        <time>2013-12-07T15:59:37Z</time>
      </trkpt>
      <trkpt lat="43.42251" lon="6.05207">
        <ele>261.39999389648</ele>
        <time>2013-12-07T15:59:39Z</time>
      </trkpt>
      <trkpt lat="43.42244" lon="6.05206">
        <ele>261.39999389648</ele>
        <time>2013-12-07T15:59:41Z</time>
      </trkpt>
      <trkpt lat="43.4224" lon="6.05203">
        <ele>261</ele>
        <time>2013-12-07T15:59:42Z</time>
      </trkpt>
      <trkpt lat="43.42237" lon="6.052">
        <ele>260.60000610352</ele>
        <time>2013-12-07T15:59:43Z</time>
      </trkpt>
      <trkpt lat="43.42234" lon="6.05198">
        <ele>260.20001220703</ele>
        <time>2013-12-07T15:59:44Z</time>
      </trkpt>
      <trkpt lat="43.42232" lon="6.05194">
        <ele>259.79998779297</ele>
        <time>2013-12-07T15:59:45Z</time>
      </trkpt>
      <trkpt lat="43.4223" lon="6.05191">
        <ele>259.39999389648</ele>
        <time>2013-12-07T15:59:46Z</time>
      </trkpt>
      <trkpt lat="43.42228" lon="6.0519">
        <ele>259.39999389648</ele>
        <time>2013-12-07T15:59:47Z</time>
      </trkpt>
      <trkpt lat="43.42213" lon="6.0518">
        <ele>259.39999389648</ele>
        <time>2013-12-07T15:59:54Z</time>
      </trkpt>
      <trkpt lat="43.42208" lon="6.05177">
        <ele>259.39999389648</ele>
        <time>2013-12-07T15:59:57Z</time>
      </trkpt>
      <trkpt lat="43.42204" lon="6.05173">
        <ele>259</ele>
        <time>2013-12-07T15:59:59Z</time>
      </trkpt>
      <trkpt lat="43.42203" lon="6.05172">
        <ele>258.60000610352</ele>
        <time>2013-12-07T16:00:00Z</time>
      </trkpt>
      <trkpt lat="43.42202" lon="6.0517">
        <ele>258.20001220703</ele>
        <time>2013-12-07T16:00:01Z</time>
      </trkpt>
      <trkpt lat="43.422" lon="6.0517">
        <ele>257.20001220703</ele>
        <time>2013-12-07T16:00:03Z</time>
      </trkpt>
      <trkpt lat="43.42198" lon="6.05169">
        <ele>257.20001220703</ele>
        <time>2013-12-07T16:00:05Z</time>
      </trkpt>
      <trkpt lat="43.4219" lon="6.05173">
        <ele>256.79998779297</ele>
        <time>2013-12-07T16:00:08Z</time>
      </trkpt>
      <trkpt lat="43.42186" lon="6.05173">
        <ele>256.39999389648</ele>
        <time>2013-12-07T16:00:09Z</time>
      </trkpt>
      <trkpt lat="43.42182" lon="6.05171">
        <ele>256</ele>
        <time>2013-12-07T16:00:10Z</time>
      </trkpt>
      <trkpt lat="43.42173" lon="6.05166">
        <ele>255.19999694824</ele>
        <time>2013-12-07T16:00:13Z</time>
      </trkpt>
      <trkpt lat="43.42158" lon="6.05154">
        <ele>255.19999694824</ele>
        <time>2013-12-07T16:00:19Z</time>
      </trkpt>
      <trkpt lat="43.42142" lon="6.05135">
        <ele>255.19999694824</ele>
        <time>2013-12-07T16:00:26Z</time>
      </trkpt>
      <trkpt lat="43.42134" lon="6.05125">
        <ele>254.80000305176</ele>
        <time>2013-12-07T16:00:29Z</time>
      </trkpt>
      <trkpt lat="43.42131" lon="6.05123">
        <ele>254.39999389648</ele>
        <time>2013-12-07T16:00:30Z</time>
      </trkpt>
      <trkpt lat="43.42128" lon="6.05121">
        <ele>254</ele>
        <time>2013-12-07T16:00:31Z</time>
      </trkpt>
      <trkpt lat="43.42126" lon="6.05119">
        <ele>253.60000610352</ele>
        <time>2013-12-07T16:00:32Z</time>
      </trkpt>
      <trkpt lat="43.42124" lon="6.05118">
        <ele>253.19999694824</ele>
        <time>2013-12-07T16:00:33Z</time>
      </trkpt>
      <trkpt lat="43.42117" lon="6.05117">
        <ele>253.19999694824</ele>
        <time>2013-12-07T16:00:37Z</time>
      </trkpt>
      <trkpt lat="43.42116" lon="6.05115">
        <ele>253.19999694824</ele>
        <time>2013-12-07T16:00:42Z</time>
      </trkpt>
      <trkpt lat="43.42116" lon="6.05115">
        <ele>253.19999694824</ele>
        <time>2013-12-07T16:00:52Z</time>
      </trkpt>
      <trkpt lat="43.42116" lon="6.05115">
        <ele>253.19999694824</ele>
        <time>2013-12-07T16:01:09Z</time>
      </trkpt>
      <trkpt lat="43.42115" lon="6.05116">
        <ele>253.19999694824</ele>
        <time>2013-12-07T16:01:14Z</time>
      </trkpt>
      <trkpt lat="43.42113" lon="6.05116">
        <ele>253.19999694824</ele>
        <time>2013-12-07T16:01:15Z</time>
      </trkpt>
      <trkpt lat="43.42109" lon="6.05115">
        <ele>253.19999694824</ele>
        <time>2013-12-07T16:01:16Z</time>
      </trkpt>
      <trkpt lat="43.42101" lon="6.05115">
        <ele>253.19999694824</ele>
        <time>2013-12-07T16:01:18Z</time>
      </trkpt>
      <trkpt lat="43.42093" lon="6.05115">
        <ele>252.80000305176</ele>
        <time>2013-12-07T16:01:20Z</time>
      </trkpt>
      <trkpt lat="43.42082" lon="6.05113">
        <ele>252</ele>
        <time>2013-12-07T16:01:22Z</time>
      </trkpt>
      <trkpt lat="43.42077" lon="6.05113">
        <ele>251.39999389648</ele>
        <time>2013-12-07T16:01:23Z</time>
      </trkpt>
      <trkpt lat="43.42071" lon="6.05113">
        <ele>251</ele>
        <time>2013-12-07T16:01:24Z</time>
      </trkpt>
      <trkpt lat="43.42066" lon="6.05114">
        <ele>251</ele>
        <time>2013-12-07T16:01:25Z</time>
      </trkpt>
      <trkpt lat="43.42043" lon="6.05119">
        <ele>250.60000610352</ele>
        <time>2013-12-07T16:01:29Z</time>
      </trkpt>
      <trkpt lat="43.42036" lon="6.0512">
        <ele>250.19999694824</ele>
        <time>2013-12-07T16:01:30Z</time>
      </trkpt>
      <trkpt lat="43.42018" lon="6.05123">
        <ele>249</ele>
        <time>2013-12-07T16:01:33Z</time>
      </trkpt>
      <trkpt lat="43.42007" lon="6.05126">
        <ele>249</ele>
        <time>2013-12-07T16:01:35Z</time>
      </trkpt>
      <trkpt lat="43.41997" lon="6.0513">
        <ele>249</ele>
        <time>2013-12-07T16:01:37Z</time>
      </trkpt>
      <trkpt lat="43.41968" lon="6.05136">
        <ele>247.80000305176</ele>
        <time>2013-12-07T16:01:42Z</time>
      </trkpt>
      <trkpt lat="43.41962" lon="6.05137">
        <ele>247.39999389648</ele>
        <time>2013-12-07T16:01:43Z</time>
      </trkpt>
      <trkpt lat="43.41957" lon="6.0514">
        <ele>247</ele>
        <time>2013-12-07T16:01:44Z</time>
      </trkpt>
      <trkpt lat="43.41939" lon="6.05149">
        <ele>246.60000610352</ele>
        <time>2013-12-07T16:01:47Z</time>
      </trkpt>
      <trkpt lat="43.41933" lon="6.05153">
        <ele>246.19999694824</ele>
        <time>2013-12-07T16:01:48Z</time>
      </trkpt>
      <trkpt lat="43.41928" lon="6.05156">
        <ele>245.80000305176</ele>
        <time>2013-12-07T16:01:49Z</time>
      </trkpt>
      <trkpt lat="43.41917" lon="6.0516">
        <ele>245</ele>
        <time>2013-12-07T16:01:51Z</time>
      </trkpt>
      <trkpt lat="43.41911" lon="6.05163">
        <ele>245</ele>
        <time>2013-12-07T16:01:52Z</time>
      </trkpt>
      <trkpt lat="43.41892" lon="6.05171">
        <ele>244.39999389648</ele>
        <time>2013-12-07T16:01:55Z</time>
      </trkpt>
      <trkpt lat="43.41885" lon="6.05174">
        <ele>244</ele>
        <time>2013-12-07T16:01:56Z</time>
      </trkpt>
      <trkpt lat="43.41877" lon="6.05178">
        <ele>243.60000610352</ele>
        <time>2013-12-07T16:01:57Z</time>
      </trkpt>
      <trkpt lat="43.41868" lon="6.0518">
        <ele>243</ele>
        <time>2013-12-07T16:01:58Z</time>
      </trkpt>
      <trkpt lat="43.4185" lon="6.05187">
        <ele>242</ele>
        <time>2013-12-07T16:02:00Z</time>
      </trkpt>
      <trkpt lat="43.41841" lon="6.05188">
        <ele>241.19999694824</ele>
        <time>2013-12-07T16:02:01Z</time>
      </trkpt>
      <trkpt lat="43.41832" lon="6.05188">
        <ele>240.80000305176</ele>
        <time>2013-12-07T16:02:02Z</time>
      </trkpt>
      <trkpt lat="43.41823" lon="6.05187">
        <ele>240.19999694824</ele>
        <time>2013-12-07T16:02:03Z</time>
      </trkpt>
      <trkpt lat="43.41814" lon="6.05186">
        <ele>239.80000305176</ele>
        <time>2013-12-07T16:02:04Z</time>
      </trkpt>
      <trkpt lat="43.41805" lon="6.05185">
        <ele>239.39999389648</ele>
        <time>2013-12-07T16:02:05Z</time>
      </trkpt>
      <trkpt lat="43.41796" lon="6.05184">
        <ele>239</ele>
        <time>2013-12-07T16:02:06Z</time>
      </trkpt>
      <trkpt lat="43.41787" lon="6.05183">
        <ele>238.60000610352</ele>
        <time>2013-12-07T16:02:07Z</time>
      </trkpt>
      <trkpt lat="43.41777" lon="6.05182">
        <ele>238.19999694824</ele>
        <time>2013-12-07T16:02:08Z</time>
      </trkpt>
      <trkpt lat="43.41769" lon="6.05181">
        <ele>237.80000305176</ele>
        <time>2013-12-07T16:02:09Z</time>
      </trkpt>
      <trkpt lat="43.41759" lon="6.0518">
        <ele>237.19999694824</ele>
        <time>2013-12-07T16:02:10Z</time>
      </trkpt>
      <trkpt lat="43.41751" lon="6.05179">
        <ele>236.80000305176</ele>
        <time>2013-12-07T16:02:11Z</time>
      </trkpt>
      <trkpt lat="43.41744" lon="6.05176">
        <ele>236.39999389648</ele>
        <time>2013-12-07T16:02:12Z</time>
      </trkpt>
      <trkpt lat="43.41739" lon="6.05172">
        <ele>235.80000305176</ele>
        <time>2013-12-07T16:02:13Z</time>
      </trkpt>
      <trkpt lat="43.41735" lon="6.05166">
        <ele>235.39999389648</ele>
        <time>2013-12-07T16:02:14Z</time>
      </trkpt>
      <trkpt lat="43.41734" lon="6.05158">
        <ele>234.80000305176</ele>
        <time>2013-12-07T16:02:15Z</time>
      </trkpt>
      <trkpt lat="43.41735" lon="6.05142">
        <ele>233.80000305176</ele>
        <time>2013-12-07T16:02:17Z</time>
      </trkpt>
      <trkpt lat="43.41735" lon="6.05126">
        <ele>233.80000305176</ele>
        <time>2013-12-07T16:02:19Z</time>
      </trkpt>
      <trkpt lat="43.41734" lon="6.05111">
        <ele>233.80000305176</ele>
        <time>2013-12-07T16:02:21Z</time>
      </trkpt>
      <trkpt lat="43.41726" lon="6.05105">
        <ele>233.80000305176</ele>
        <time>2013-12-07T16:02:23Z</time>
      </trkpt>
      <trkpt lat="43.41712" lon="6.05109">
        <ele>233</ele>
        <time>2013-12-07T16:02:26Z</time>
      </trkpt>
      <trkpt lat="43.41707" lon="6.05112">
        <ele>232.39999389648</ele>
        <time>2013-12-07T16:02:27Z</time>
      </trkpt>
      <trkpt lat="43.41696" lon="6.05119">
        <ele>231.60000610352</ele>
        <time>2013-12-07T16:02:29Z</time>
      </trkpt>
      <trkpt lat="43.4169" lon="6.05123">
        <ele>231.19999694824</ele>
        <time>2013-12-07T16:02:30Z</time>
      </trkpt>
      <trkpt lat="43.41685" lon="6.05129">
        <ele>230.60000610352</ele>
        <time>2013-12-07T16:02:31Z</time>
      </trkpt>
      <trkpt lat="43.41677" lon="6.0514">
        <ele>229.80000305176</ele>
        <time>2013-12-07T16:02:33Z</time>
      </trkpt>
      <trkpt lat="43.41668" lon="6.05151">
        <ele>229.39999389648</ele>
        <time>2013-12-07T16:02:35Z</time>
      </trkpt>
      <trkpt lat="43.41662" lon="6.05154">
        <ele>229</ele>
        <time>2013-12-07T16:02:36Z</time>
      </trkpt>
      <trkpt lat="43.41656" lon="6.05156">
        <ele>228.60000610352</ele>
        <time>2013-12-07T16:02:37Z</time>
      </trkpt>
      <trkpt lat="43.41644" lon="6.05158">
        <ele>227.60000610352</ele>
        <time>2013-12-07T16:02:39Z</time>
      </trkpt>
      <trkpt lat="43.41639" lon="6.05159">
        <ele>227.19999694824</ele>
        <time>2013-12-07T16:02:40Z</time>
      </trkpt>
      <trkpt lat="43.41632" lon="6.05159">
        <ele>226.80000305176</ele>
        <time>2013-12-07T16:02:41Z</time>
      </trkpt>
      <trkpt lat="43.41626" lon="6.05159">
        <ele>226.39999389648</ele>
        <time>2013-12-07T16:02:42Z</time>
      </trkpt>
      <trkpt lat="43.4162" lon="6.0516">
        <ele>225.80000305176</ele>
        <time>2013-12-07T16:02:43Z</time>
      </trkpt>
      <trkpt lat="43.41614" lon="6.0516">
        <ele>225.39999389648</ele>
        <time>2013-12-07T16:02:44Z</time>
      </trkpt>
      <trkpt lat="43.41608" lon="6.0516">
        <ele>225</ele>
        <time>2013-12-07T16:02:45Z</time>
      </trkpt>
      <trkpt lat="43.41589" lon="6.05159">
        <ele>224.60000610352</ele>
        <time>2013-12-07T16:02:48Z</time>
      </trkpt>
      <trkpt lat="43.41581" lon="6.05157">
        <ele>224.19999694824</ele>
        <time>2013-12-07T16:02:49Z</time>
      </trkpt>
      <trkpt lat="43.41574" lon="6.05156">
        <ele>223.39999389648</ele>
        <time>2013-12-07T16:02:50Z</time>
      </trkpt>
      <trkpt lat="43.41566" lon="6.05154">
        <ele>223</ele>
        <time>2013-12-07T16:02:51Z</time>
      </trkpt>
      <trkpt lat="43.41557" lon="6.05153">
        <ele>222.60000610352</ele>
        <time>2013-12-07T16:02:52Z</time>
      </trkpt>
      <trkpt lat="43.41549" lon="6.05152">
        <ele>222.19999694824</ele>
        <time>2013-12-07T16:02:53Z</time>
      </trkpt>
      <trkpt lat="43.4154" lon="6.05152">
        <ele>221.60000610352</ele>
        <time>2013-12-07T16:02:54Z</time>
      </trkpt>
      <trkpt lat="43.41531" lon="6.05153">
        <ele>221.19999694824</ele>
        <time>2013-12-07T16:02:55Z</time>
      </trkpt>
      <trkpt lat="43.41522" lon="6.05154">
        <ele>220.80000305176</ele>
        <time>2013-12-07T16:02:56Z</time>
      </trkpt>
      <trkpt lat="43.41515" lon="6.05155">
        <ele>220.19999694824</ele>
        <time>2013-12-07T16:02:57Z</time>
      </trkpt>
      <trkpt lat="43.41508" lon="6.05157">
        <ele>219.60000610352</ele>
        <time>2013-12-07T16:02:58Z</time>
      </trkpt>
      <trkpt lat="43.41502" lon="6.05159">
        <ele>219.19999694824</ele>
        <time>2013-12-07T16:02:59Z</time>
      </trkpt>
      <trkpt lat="43.41498" lon="6.05161">
        <ele>218.60000610352</ele>
        <time>2013-12-07T16:03:00Z</time>
      </trkpt>
      <trkpt lat="43.41492" lon="6.05173">
        <ele>218.60000610352</ele>
        <time>2013-12-07T16:03:03Z</time>
      </trkpt>
      <trkpt lat="43.41497" lon="6.05187">
        <ele>218.60000610352</ele>
        <time>2013-12-07T16:03:06Z</time>
      </trkpt>
      <trkpt lat="43.41499" lon="6.05192">
        <ele>218.60000610352</ele>
        <time>2013-12-07T16:03:07Z</time>
      </trkpt>
      <trkpt lat="43.41506" lon="6.05206">
        <ele>218.60000610352</ele>
        <time>2013-12-07T16:03:10Z</time>
      </trkpt>
      <trkpt lat="43.41513" lon="6.05222">
        <ele>218.60000610352</ele>
        <time>2013-12-07T16:03:13Z</time>
      </trkpt>
      <trkpt lat="43.41523" lon="6.05244">
        <ele>218.60000610352</ele>
        <time>2013-12-07T16:03:17Z</time>
      </trkpt>
      <trkpt lat="43.41531" lon="6.0526">
        <ele>218.60000610352</ele>
        <time>2013-12-07T16:03:20Z</time>
      </trkpt>
      <trkpt lat="43.41534" lon="6.05272">
        <ele>218.60000610352</ele>
        <time>2013-12-07T16:03:22Z</time>
      </trkpt>
      <trkpt lat="43.41538" lon="6.05283">
        <ele>218.60000610352</ele>
        <time>2013-12-07T16:03:24Z</time>
      </trkpt>
      <trkpt lat="43.41553" lon="6.05334">
        <ele>218.60000610352</ele>
        <time>2013-12-07T16:03:33Z</time>
      </trkpt>
      <trkpt lat="43.41578" lon="6.05397">
        <ele>220.60000610352</ele>
        <time>2013-12-07T16:03:45Z</time>
      </trkpt>
      <trkpt lat="43.41592" lon="6.05439">
        <ele>220.60000610352</ele>
        <time>2013-12-07T16:03:53Z</time>
      </trkpt>
      <trkpt lat="43.41615" lon="6.05518">
        <ele>220.60000610352</ele>
        <time>2013-12-07T16:04:08Z</time>
      </trkpt>
      <trkpt lat="43.41623" lon="6.0555">
        <ele>220.60000610352</ele>
        <time>2013-12-07T16:04:14Z</time>
      </trkpt>
      <trkpt lat="43.41624" lon="6.0556">
        <ele>220.60000610352</ele>
        <time>2013-12-07T16:04:16Z</time>
      </trkpt>
      <trkpt lat="43.41631" lon="6.05603">
        <ele>220.60000610352</ele>
        <time>2013-12-07T16:04:24Z</time>
      </trkpt>
      <trkpt lat="43.41637" lon="6.05648">
        <ele>220.60000610352</ele>
        <time>2013-12-07T16:04:32Z</time>
      </trkpt>
      <trkpt lat="43.41639" lon="6.0567">
        <ele>221</ele>
        <time>2013-12-07T16:04:36Z</time>
      </trkpt>
      <trkpt lat="43.41641" lon="6.05692">
        <ele>222.80000305176</ele>
        <time>2013-12-07T16:04:40Z</time>
      </trkpt>
      <trkpt lat="43.41644" lon="6.05755">
        <ele>222.80000305176</ele>
        <time>2013-12-07T16:04:51Z</time>
      </trkpt>
      <trkpt lat="43.41643" lon="6.05809">
        <ele>222.80000305176</ele>
        <time>2013-12-07T16:05:00Z</time>
      </trkpt>
      <trkpt lat="43.41641" lon="6.05857">
        <ele>222.80000305176</ele>
        <time>2013-12-07T16:05:07Z</time>
      </trkpt>
      <trkpt lat="43.41638" lon="6.05893">
        <ele>222.80000305176</ele>
        <time>2013-12-07T16:05:12Z</time>
      </trkpt>
      <trkpt lat="43.41636" lon="6.05915">
        <ele>222.80000305176</ele>
        <time>2013-12-07T16:05:15Z</time>
      </trkpt>
      <trkpt lat="43.41631" lon="6.05943">
        <ele>222.80000305176</ele>
        <time>2013-12-07T16:05:19Z</time>
      </trkpt>
      <trkpt lat="43.41623" lon="6.05999">
        <ele>222.19999694824</ele>
        <time>2013-12-07T16:05:27Z</time>
      </trkpt>
      <trkpt lat="43.4162" lon="6.06014">
        <ele>221.39999389648</ele>
        <time>2013-12-07T16:05:29Z</time>
      </trkpt>
      <trkpt lat="43.41619" lon="6.06022">
        <ele>221</ele>
        <time>2013-12-07T16:05:30Z</time>
      </trkpt>
      <trkpt lat="43.41618" lon="6.0603">
        <ele>220.60000610352</ele>
        <time>2013-12-07T16:05:31Z</time>
      </trkpt>
      <trkpt lat="43.41616" lon="6.06044">
        <ele>220.60000610352</ele>
        <time>2013-12-07T16:05:33Z</time>
      </trkpt>
      <trkpt lat="43.41614" lon="6.06067">
        <ele>220</ele>
        <time>2013-12-07T16:05:36Z</time>
      </trkpt>
      <trkpt lat="43.41613" lon="6.06074">
        <ele>219.60000610352</ele>
        <time>2013-12-07T16:05:37Z</time>
      </trkpt>
      <trkpt lat="43.41614" lon="6.06081">
        <ele>219.19999694824</ele>
        <time>2013-12-07T16:05:38Z</time>
      </trkpt>
      <trkpt lat="43.41615" lon="6.06093">
        <ele>218.39999389648</ele>
        <time>2013-12-07T16:05:40Z</time>
      </trkpt>
      <trkpt lat="43.41616" lon="6.06099">
        <ele>218.39999389648</ele>
        <time>2013-12-07T16:05:41Z</time>
      </trkpt>
      <trkpt lat="43.4162" lon="6.0611">
        <ele>218.39999389648</ele>
        <time>2013-12-07T16:05:43Z</time>
      </trkpt>
      <trkpt lat="43.41624" lon="6.06121">
        <ele>218.39999389648</ele>
        <time>2013-12-07T16:05:46Z</time>
      </trkpt>
      <trkpt lat="43.41627" lon="6.06132">
        <ele>218.39999389648</ele>
        <time>2013-12-07T16:05:51Z</time>
      </trkpt>
      <trkpt lat="43.41617" lon="6.06145">
        <ele>218.39999389648</ele>
        <time>2013-12-07T16:05:55Z</time>
      </trkpt>
      <trkpt lat="43.41605" lon="6.06164">
        <ele>218.39999389648</ele>
        <time>2013-12-07T16:05:59Z</time>
      </trkpt>
      <trkpt lat="43.41602" lon="6.06169">
        <ele>218.39999389648</ele>
        <time>2013-12-07T16:06:00Z</time>
      </trkpt>
      <trkpt lat="43.41599" lon="6.06187">
        <ele>218.39999389648</ele>
        <time>2013-12-07T16:06:04Z</time>
      </trkpt>
      <trkpt lat="43.41599" lon="6.06195">
        <ele>218.39999389648</ele>
        <time>2013-12-07T16:06:08Z</time>
      </trkpt>
      <trkpt lat="43.41591" lon="6.06202">
        <ele>218.39999389648</ele>
        <time>2013-12-07T16:06:14Z</time>
      </trkpt>
      <trkpt lat="43.41584" lon="6.06194">
        <ele>218.39999389648</ele>
        <time>2013-12-07T16:06:17Z</time>
      </trkpt>
      <trkpt lat="43.4158" lon="6.06192">
        <ele>218.39999389648</ele>
        <time>2013-12-07T16:06:18Z</time>
      </trkpt>
      <trkpt lat="43.41568" lon="6.06186">
        <ele>218.39999389648</ele>
        <time>2013-12-07T16:06:21Z</time>
      </trkpt>
      <trkpt lat="43.41558" lon="6.06186">
        <ele>218.39999389648</ele>
        <time>2013-12-07T16:06:23Z</time>
      </trkpt>
      <trkpt lat="43.41543" lon="6.0619">
        <ele>218.39999389648</ele>
        <time>2013-12-07T16:06:27Z</time>
      </trkpt>
      <trkpt lat="43.41533" lon="6.06183">
        <ele>218.39999389648</ele>
        <time>2013-12-07T16:06:30Z</time>
      </trkpt>
      <trkpt lat="43.4152" lon="6.06185">
        <ele>218.39999389648</ele>
        <time>2013-12-07T16:06:33Z</time>
      </trkpt>
      <trkpt lat="43.4151" lon="6.06186">
        <ele>218</ele>
        <time>2013-12-07T16:06:35Z</time>
      </trkpt>
      <trkpt lat="43.41495" lon="6.06186">
        <ele>216.80000305176</ele>
        <time>2013-12-07T16:06:38Z</time>
      </trkpt>
      <trkpt lat="43.41489" lon="6.06186">
        <ele>216.39999389648</ele>
        <time>2013-12-07T16:06:39Z</time>
      </trkpt>
      <trkpt lat="43.4148" lon="6.06183">
        <ele>216.39999389648</ele>
        <time>2013-12-07T16:06:41Z</time>
      </trkpt>
      <trkpt lat="43.41475" lon="6.06181">
        <ele>216.39999389648</ele>
        <time>2013-12-07T16:06:42Z</time>
      </trkpt>
      <trkpt lat="43.41454" lon="6.06176">
        <ele>216.39999389648</ele>
        <time>2013-12-07T16:06:46Z</time>
      </trkpt>
      <trkpt lat="43.41416" lon="6.06164">
        <ele>216.39999389648</ele>
        <time>2013-12-07T16:06:53Z</time>
      </trkpt>
      <trkpt lat="43.41405" lon="6.06157">
        <ele>215.39999389648</ele>
        <time>2013-12-07T16:06:55Z</time>
      </trkpt>
      <trkpt lat="43.41394" lon="6.06147">
        <ele>214.19999694824</ele>
        <time>2013-12-07T16:06:57Z</time>
      </trkpt>
      <trkpt lat="43.41389" lon="6.06142">
        <ele>214.19999694824</ele>
        <time>2013-12-07T16:06:58Z</time>
      </trkpt>
      <trkpt lat="43.41377" lon="6.0613">
        <ele>213.80000305176</ele>
        <time>2013-12-07T16:07:00Z</time>
      </trkpt>
      <trkpt lat="43.41372" lon="6.06124">
        <ele>213.19999694824</ele>
        <time>2013-12-07T16:07:01Z</time>
      </trkpt>
      <trkpt lat="43.41365" lon="6.06117">
        <ele>212.80000305176</ele>
        <time>2013-12-07T16:07:02Z</time>
      </trkpt>
      <trkpt lat="43.41359" lon="6.06111">
        <ele>212.39999389648</ele>
        <time>2013-12-07T16:07:03Z</time>
      </trkpt>
      <trkpt lat="43.41353" lon="6.06104">
        <ele>212</ele>
        <time>2013-12-07T16:07:04Z</time>
      </trkpt>
      <trkpt lat="43.41346" lon="6.06097">
        <ele>212</ele>
        <time>2013-12-07T16:07:05Z</time>
      </trkpt>
      <trkpt lat="43.41334" lon="6.06084">
        <ele>211.39999389648</ele>
        <time>2013-12-07T16:07:07Z</time>
      </trkpt>
      <trkpt lat="43.41328" lon="6.06077">
        <ele>211</ele>
        <time>2013-12-07T16:07:08Z</time>
      </trkpt>
      <trkpt lat="43.41322" lon="6.06071">
        <ele>210.60000610352</ele>
        <time>2013-12-07T16:07:09Z</time>
      </trkpt>
      <trkpt lat="43.41316" lon="6.06065">
        <ele>210.19999694824</ele>
        <time>2013-12-07T16:07:10Z</time>
      </trkpt>
      <trkpt lat="43.4131" lon="6.06061">
        <ele>209.60000610352</ele>
        <time>2013-12-07T16:07:11Z</time>
      </trkpt>
      <trkpt lat="43.41303" lon="6.06059">
        <ele>209.60000610352</ele>
        <time>2013-12-07T16:07:12Z</time>
      </trkpt>
      <trkpt lat="43.41283" lon="6.06067">
        <ele>209.60000610352</ele>
        <time>2013-12-07T16:07:15Z</time>
      </trkpt>
      <trkpt lat="43.41264" lon="6.06077">
        <ele>208.80000305176</ele>
        <time>2013-12-07T16:07:18Z</time>
      </trkpt>
      <trkpt lat="43.41257" lon="6.0608">
        <ele>208.39999389648</ele>
        <time>2013-12-07T16:07:19Z</time>
      </trkpt>
      <trkpt lat="43.41252" lon="6.06084">
        <ele>208</ele>
        <time>2013-12-07T16:07:20Z</time>
      </trkpt>
      <trkpt lat="43.41246" lon="6.06087">
        <ele>207.39999389648</ele>
        <time>2013-12-07T16:07:21Z</time>
      </trkpt>
      <trkpt lat="43.41227" lon="6.06097">
        <ele>207.39999389648</ele>
        <time>2013-12-07T16:07:24Z</time>
      </trkpt>
      <trkpt lat="43.41214" lon="6.06104">
        <ele>207</ele>
        <time>2013-12-07T16:07:26Z</time>
      </trkpt>
      <trkpt lat="43.41209" lon="6.06107">
        <ele>206.60000610352</ele>
        <time>2013-12-07T16:07:27Z</time>
      </trkpt>
      <trkpt lat="43.41204" lon="6.06111">
        <ele>206.19999694824</ele>
        <time>2013-12-07T16:07:28Z</time>
      </trkpt>
      <trkpt lat="43.41203" lon="6.06113">
        <ele>205.60000610352</ele>
        <time>2013-12-07T16:07:29Z</time>
      </trkpt>
      <trkpt lat="43.41202" lon="6.06114">
        <ele>205.19999694824</ele>
        <time>2013-12-07T16:07:30Z</time>
      </trkpt>
      <trkpt lat="43.41201" lon="6.06114">
        <ele>205.19999694824</ele>
        <time>2013-12-07T16:07:33Z</time>
      </trkpt>
      <trkpt lat="43.41201" lon="6.06114">
        <ele>205.19999694824</ele>
        <time>2013-12-07T16:07:36Z</time>
      </trkpt>
      <trkpt lat="43.41199" lon="6.06115">
        <ele>205.19999694824</ele>
        <time>2013-12-07T16:07:39Z</time>
      </trkpt>
      <trkpt lat="43.41199" lon="6.06115">
        <ele>205.19999694824</ele>
        <time>2013-12-07T16:07:42Z</time>
      </trkpt>
      <trkpt lat="43.41195" lon="6.06118">
        <ele>205.19999694824</ele>
        <time>2013-12-07T16:07:44Z</time>
      </trkpt>
      <trkpt lat="43.41194" lon="6.06123">
        <ele>205.19999694824</ele>
        <time>2013-12-07T16:07:46Z</time>
      </trkpt>
      <trkpt lat="43.41195" lon="6.0613">
        <ele>205.19999694824</ele>
        <time>2013-12-07T16:07:48Z</time>
      </trkpt>
      <trkpt lat="43.41197" lon="6.06157">
        <ele>205.19999694824</ele>
        <time>2013-12-07T16:07:55Z</time>
      </trkpt>
      <trkpt lat="43.41199" lon="6.06179">
        <ele>205.19999694824</ele>
        <time>2013-12-07T16:08:01Z</time>
      </trkpt>
      <trkpt lat="43.41199" lon="6.06183">
        <ele>205.19999694824</ele>
        <time>2013-12-07T16:08:02Z</time>
      </trkpt>
      <trkpt lat="43.41199" lon="6.06197">
        <ele>205.19999694824</ele>
        <time>2013-12-07T16:08:06Z</time>
      </trkpt>
      <trkpt lat="43.41193" lon="6.06205">
        <ele>205.19999694824</ele>
        <time>2013-12-07T16:08:09Z</time>
      </trkpt>
      <trkpt lat="43.41165" lon="6.0621">
        <ele>205.19999694824</ele>
        <time>2013-12-07T16:08:16Z</time>
      </trkpt>
      <trkpt lat="43.41141" lon="6.06219">
        <ele>205.19999694824</ele>
        <time>2013-12-07T16:08:22Z</time>
      </trkpt>
      <trkpt lat="43.41128" lon="6.06227">
        <ele>205.19999694824</ele>
        <time>2013-12-07T16:08:25Z</time>
      </trkpt>
      <trkpt lat="43.41123" lon="6.06228">
        <ele>204.80000305176</ele>
        <time>2013-12-07T16:08:26Z</time>
      </trkpt>
      <trkpt lat="43.41113" lon="6.06232">
        <ele>204</ele>
        <time>2013-12-07T16:08:28Z</time>
      </trkpt>
      <trkpt lat="43.41103" lon="6.06234">
        <ele>203.19999694824</ele>
        <time>2013-12-07T16:08:30Z</time>
      </trkpt>
      <trkpt lat="43.41073" lon="6.06245">
        <ele>203.19999694824</ele>
        <time>2013-12-07T16:08:36Z</time>
      </trkpt>
      <trkpt lat="43.4104" lon="6.06253">
        <ele>203.19999694824</ele>
        <time>2013-12-07T16:08:43Z</time>
      </trkpt>
      <trkpt lat="43.41002" lon="6.06259">
        <ele>203.19999694824</ele>
        <time>2013-12-07T16:08:51Z</time>
      </trkpt>
      <trkpt lat="43.40976" lon="6.06262">
        <ele>203.19999694824</ele>
        <time>2013-12-07T16:08:57Z</time>
      </trkpt>
      <trkpt lat="43.40965" lon="6.06254">
        <ele>203.19999694824</ele>
        <time>2013-12-07T16:09:01Z</time>
      </trkpt>
      <trkpt lat="43.40964" lon="6.06254">
        <ele>203.19999694824</ele>
        <time>2013-12-07T16:09:04Z</time>
      </trkpt>
      <trkpt lat="43.40963" lon="6.06253">
        <ele>203.19999694824</ele>
        <time>2013-12-07T16:09:13Z</time>
      </trkpt>
      <trkpt lat="43.40964" lon="6.06254">
        <ele>203.19999694824</ele>
        <time>2013-12-07T16:09:22Z</time>
      </trkpt>
      <trkpt lat="43.40964" lon="6.06254">
        <ele>203.19999694824</ele>
        <time>2013-12-07T16:09:39Z</time>
      </trkpt>
      <trkpt lat="43.40964" lon="6.06253">
        <ele>203.19999694824</ele>
        <time>2013-12-07T16:09:47Z</time>
      </trkpt>
      <trkpt lat="43.40964" lon="6.06253">
        <ele>203.19999694824</ele>
        <time>2013-12-07T16:09:58Z</time>
      </trkpt>
      <trkpt lat="43.40963" lon="6.06254">
        <ele>203.19999694824</ele>
        <time>2013-12-07T16:10:02Z</time>
      </trkpt>
      <trkpt lat="43.40961" lon="6.06255">
        <ele>203.19999694824</ele>
        <time>2013-12-07T16:10:03Z</time>
      </trkpt>
      <trkpt lat="43.40956" lon="6.0626">
        <ele>203.19999694824</ele>
        <time>2013-12-07T16:10:05Z</time>
      </trkpt>
      <trkpt lat="43.40954" lon="6.06271">
        <ele>203.19999694824</ele>
        <time>2013-12-07T16:10:07Z</time>
      </trkpt>
      <trkpt lat="43.4095" lon="6.06283">
        <ele>203.19999694824</ele>
        <time>2013-12-07T16:10:10Z</time>
      </trkpt>
      <trkpt lat="43.40947" lon="6.06288">
        <ele>203.19999694824</ele>
        <time>2013-12-07T16:10:11Z</time>
      </trkpt>
      <trkpt lat="43.40932" lon="6.06307">
        <ele>203.19999694824</ele>
        <time>2013-12-07T16:10:16Z</time>
      </trkpt>
      <trkpt lat="43.4093" lon="6.06311">
        <ele>203.19999694824</ele>
        <time>2013-12-07T16:10:17Z</time>
      </trkpt>
      <trkpt lat="43.40911" lon="6.06335">
        <ele>203.19999694824</ele>
        <time>2013-12-07T16:10:23Z</time>
      </trkpt>
      <trkpt lat="43.40892" lon="6.06358">
        <ele>203.19999694824</ele>
        <time>2013-12-07T16:10:29Z</time>
      </trkpt>
      <trkpt lat="43.40876" lon="6.06378">
        <ele>203.19999694824</ele>
        <time>2013-12-07T16:10:35Z</time>
      </trkpt>
      <trkpt lat="43.40874" lon="6.06382">
        <ele>202.80000305176</ele>
        <time>2013-12-07T16:10:36Z</time>
      </trkpt>
      <trkpt lat="43.40866" lon="6.06389">
        <ele>202</ele>
        <time>2013-12-07T16:10:38Z</time>
      </trkpt>
      <trkpt lat="43.40863" lon="6.06394">
        <ele>201.60000610352</ele>
        <time>2013-12-07T16:10:39Z</time>
      </trkpt>
      <trkpt lat="43.40836" lon="6.06412">
        <ele>201.19999694824</ele>
        <time>2013-12-07T16:10:46Z</time>
      </trkpt>
      <trkpt lat="43.40831" lon="6.06414">
        <ele>201.19999694824</ele>
        <time>2013-12-07T16:10:47Z</time>
      </trkpt>
      <trkpt lat="43.40817" lon="6.06413">
        <ele>201.19999694824</ele>
        <time>2013-12-07T16:10:50Z</time>
      </trkpt>
      <trkpt lat="43.40804" lon="6.06404">
        <ele>201.19999694824</ele>
        <time>2013-12-07T16:10:53Z</time>
      </trkpt>
      <trkpt lat="43.40797" lon="6.06401">
        <ele>201.19999694824</ele>
        <time>2013-12-07T16:10:55Z</time>
      </trkpt>
      <trkpt lat="43.40784" lon="6.06405">
        <ele>201.19999694824</ele>
        <time>2013-12-07T16:10:59Z</time>
      </trkpt>
      <trkpt lat="43.4077" lon="6.06409">
        <ele>201.19999694824</ele>
        <time>2013-12-07T16:11:04Z</time>
      </trkpt>
      <trkpt lat="43.40759" lon="6.06411">
        <ele>201.19999694824</ele>
        <time>2013-12-07T16:11:08Z</time>
      </trkpt>
      <trkpt lat="43.40754" lon="6.06412">
        <ele>201.19999694824</ele>
        <time>2013-12-07T16:11:09Z</time>
      </trkpt>
      <trkpt lat="43.40735" lon="6.06417">
        <ele>201.19999694824</ele>
        <time>2013-12-07T16:11:14Z</time>
      </trkpt>
      <trkpt lat="43.40727" lon="6.06421">
        <ele>201.19999694824</ele>
        <time>2013-12-07T16:11:16Z</time>
      </trkpt>
      <trkpt lat="43.4071" lon="6.06423">
        <ele>201.19999694824</ele>
        <time>2013-12-07T16:11:20Z</time>
      </trkpt>
      <trkpt lat="43.40702" lon="6.06426">
        <ele>201.19999694824</ele>
        <time>2013-12-07T16:11:22Z</time>
      </trkpt>
      <trkpt lat="43.40691" lon="6.0643">
        <ele>201.19999694824</ele>
        <time>2013-12-07T16:11:25Z</time>
      </trkpt>
      <trkpt lat="43.40681" lon="6.06438">
        <ele>202.60000610352</ele>
        <time>2013-12-07T16:11:28Z</time>
      </trkpt>
      <trkpt lat="43.4067" lon="6.0645">
        <ele>203.39999389648</ele>
        <time>2013-12-07T16:11:32Z</time>
      </trkpt>
      <trkpt lat="43.40649" lon="6.06473">
        <ele>205.39999389648</ele>
        <time>2013-12-07T16:11:40Z</time>
      </trkpt>
      <trkpt lat="43.40635" lon="6.06491">
        <ele>206</ele>
        <time>2013-12-07T16:11:46Z</time>
      </trkpt>
      <trkpt lat="43.4063" lon="6.06495">
        <ele>206.80000305176</ele>
        <time>2013-12-07T16:11:48Z</time>
      </trkpt>
      <trkpt lat="43.40625" lon="6.06499">
        <ele>207.60000610352</ele>
        <time>2013-12-07T16:11:50Z</time>
      </trkpt>
      <trkpt lat="43.4062" lon="6.06503">
        <ele>207.60000610352</ele>
        <time>2013-12-07T16:11:52Z</time>
      </trkpt>
      <trkpt lat="43.40611" lon="6.06505">
        <ele>208.39999389648</ele>
        <time>2013-12-07T16:11:56Z</time>
      </trkpt>
      <trkpt lat="43.40606" lon="6.06504">
        <ele>209.19999694824</ele>
        <time>2013-12-07T16:11:58Z</time>
      </trkpt>
      <trkpt lat="43.40604" lon="6.06505">
        <ele>209.80000305176</ele>
        <time>2013-12-07T16:11:59Z</time>
      </trkpt>
      <trkpt lat="43.40596" lon="6.06502">
        <ele>209.80000305176</ele>
        <time>2013-12-07T16:12:04Z</time>
      </trkpt>
      <trkpt lat="43.4059" lon="6.06501">
        <ele>210.19999694824</ele>
        <time>2013-12-07T16:12:07Z</time>
      </trkpt>
      <trkpt lat="43.40556" lon="6.06493">
        <ele>211.80000305176</ele>
        <time>2013-12-07T16:12:24Z</time>
      </trkpt>
      <trkpt lat="43.40549" lon="6.06491">
        <ele>212.19999694824</ele>
        <time>2013-12-07T16:12:27Z</time>
      </trkpt>
      <trkpt lat="43.40541" lon="6.06487">
        <ele>213.80000305176</ele>
        <time>2013-12-07T16:12:31Z</time>
      </trkpt>
      <trkpt lat="43.40532" lon="6.06484">
        <ele>213.80000305176</ele>
        <time>2013-12-07T16:12:35Z</time>
      </trkpt>
      <trkpt lat="43.4053" lon="6.06483">
        <ele>213.80000305176</ele>
        <time>2013-12-07T16:12:36Z</time>
      </trkpt>
      <trkpt lat="43.40506" lon="6.06474">
        <ele>213.80000305176</ele>
        <time>2013-12-07T16:12:48Z</time>
      </trkpt>
      <trkpt lat="43.40503" lon="6.06472">
        <ele>214.60000610352</ele>
        <time>2013-12-07T16:12:50Z</time>
      </trkpt>
      <trkpt lat="43.40498" lon="6.06472">
        <ele>215.39999389648</ele>
        <time>2013-12-07T16:12:52Z</time>
      </trkpt>
      <trkpt lat="43.40496" lon="6.06473">
        <ele>215.80000305176</ele>
        <time>2013-12-07T16:12:53Z</time>
      </trkpt>
      <trkpt lat="43.40485" lon="6.0647">
        <ele>215.80000305176</ele>
        <time>2013-12-07T16:12:58Z</time>
      </trkpt>
      <trkpt lat="43.40471" lon="6.06467">
        <ele>215.80000305176</ele>
        <time>2013-12-07T16:13:03Z</time>
      </trkpt>
      <trkpt lat="43.40458" lon="6.06463">
        <ele>215.80000305176</ele>
        <time>2013-12-07T16:13:08Z</time>
      </trkpt>
      <trkpt lat="43.40448" lon="6.06459">
        <ele>216.19999694824</ele>
        <time>2013-12-07T16:13:12Z</time>
      </trkpt>
      <trkpt lat="43.40436" lon="6.06456">
        <ele>218</ele>
        <time>2013-12-07T16:13:16Z</time>
      </trkpt>
      <trkpt lat="43.40427" lon="6.06453">
        <ele>218</ele>
        <time>2013-12-07T16:13:19Z</time>
      </trkpt>
      <trkpt lat="43.4042" lon="6.06461">
        <ele>218</ele>
        <time>2013-12-07T16:13:22Z</time>
      </trkpt>
      <trkpt lat="43.40412" lon="6.0648">
        <ele>218</ele>
        <time>2013-12-07T16:13:27Z</time>
      </trkpt>
      <trkpt lat="43.40405" lon="6.06506">
        <ele>218</ele>
        <time>2013-12-07T16:13:33Z</time>
      </trkpt>
      <trkpt lat="43.40401" lon="6.06523">
        <ele>218</ele>
        <time>2013-12-07T16:13:37Z</time>
      </trkpt>
      <trkpt lat="43.404" lon="6.06531">
        <ele>218</ele>
        <time>2013-12-07T16:13:39Z</time>
      </trkpt>
      <trkpt lat="43.40399" lon="6.06533">
        <ele>218</ele>
        <time>2013-12-07T16:13:40Z</time>
      </trkpt>
      <trkpt lat="43.404" lon="6.06537">
        <ele>218</ele>
        <time>2013-12-07T16:13:42Z</time>
      </trkpt>
      <trkpt lat="43.40402" lon="6.06538">
        <ele>218</ele>
        <time>2013-12-07T16:13:43Z</time>
      </trkpt>
      <trkpt lat="43.40403" lon="6.06539">
        <ele>218</ele>
        <time>2013-12-07T16:13:44Z</time>
      </trkpt>
      <trkpt lat="43.40405" lon="6.0654">
        <ele>218</ele>
        <time>2013-12-07T16:13:47Z</time>
      </trkpt>
      <trkpt lat="43.40408" lon="6.0654">
        <ele>218</ele>
        <time>2013-12-07T16:13:50Z</time>
      </trkpt>
      <trkpt lat="43.40408" lon="6.0654">
        <ele>218</ele>
        <time>2013-12-07T16:13:55Z</time>
      </trkpt>
    </trkseg>
  </trk>
</gpx>